<?xml version="1.0" encoding="UTF-8" standalone="no" ?>
<gpx xmlns="http://www.topografix.com/GPX/1/1" xmlns:xsi="http://www.w3.org/2001/XMLSchema-instance" xsi:schemaLocation="http://www.topografix.com/GPX/1/1 http://www.topografix.com/GPX/1/1/gpx.xsd" version="1.1" creator="VisuGPX - https://www.visugpx.com">
  <metadata>
    <name>Levens à Nice</name>
  </metadata>
  <trk>
    <name><![CDATA[Jour 17 - Levens chez Franck —> Nice dans l’eau]]></name>
    <trkseg>
      <trkpt lat="43.83456" lon="7.25095">
        <ele>571.2</ele>
        <time>2020-08-14T06:28:11Z</time>
      </trkpt>
      <trkpt lat="43.83456" lon="7.25095">
        <ele>571.8</ele>
        <time>2020-08-14T06:28:24Z</time>
      </trkpt>
      <trkpt lat="43.83464" lon="7.25093">
        <ele>572</ele>
        <time>2020-08-14T06:28:28Z</time>
      </trkpt>
      <trkpt lat="43.83472" lon="7.25093">
        <ele>572.2</ele>
        <time>2020-08-14T06:28:35Z</time>
      </trkpt>
      <trkpt lat="43.83477" lon="7.2509">
        <ele>572.6</ele>
        <time>2020-08-14T06:28:40Z</time>
      </trkpt>
      <trkpt lat="43.83483" lon="7.25088">
        <ele>573</ele>
        <time>2020-08-14T06:28:46Z</time>
      </trkpt>
      <trkpt lat="43.83486" lon="7.25088">
        <ele>573.2</ele>
        <time>2020-08-14T06:28:49Z</time>
      </trkpt>
      <trkpt lat="43.83489" lon="7.25088">
        <ele>573.2</ele>
        <time>2020-08-14T06:28:51Z</time>
      </trkpt>
      <trkpt lat="43.83492" lon="7.25087">
        <ele>573.4</ele>
        <time>2020-08-14T06:28:55Z</time>
      </trkpt>
      <trkpt lat="43.83496" lon="7.25083">
        <ele>573.8</ele>
        <time>2020-08-14T06:29:00Z</time>
      </trkpt>
      <trkpt lat="43.83498" lon="7.25083">
        <ele>574</ele>
        <time>2020-08-14T06:29:02Z</time>
      </trkpt>
      <trkpt lat="43.835" lon="7.25083">
        <ele>574</ele>
        <time>2020-08-14T06:29:03Z</time>
      </trkpt>
      <trkpt lat="43.83508" lon="7.25082">
        <ele>574.2</ele>
        <time>2020-08-14T06:29:08Z</time>
      </trkpt>
      <trkpt lat="43.8351" lon="7.25082">
        <ele>574.4</ele>
        <time>2020-08-14T06:29:10Z</time>
      </trkpt>
      <trkpt lat="43.83516" lon="7.25079">
        <ele>574.6</ele>
        <time>2020-08-14T06:29:15Z</time>
      </trkpt>
      <trkpt lat="43.83519" lon="7.25077">
        <ele>574.8</ele>
        <time>2020-08-14T06:29:17Z</time>
      </trkpt>
      <trkpt lat="43.83521" lon="7.25076">
        <ele>575</ele>
        <time>2020-08-14T06:29:19Z</time>
      </trkpt>
      <trkpt lat="43.83525" lon="7.25074">
        <ele>575</ele>
        <time>2020-08-14T06:29:23Z</time>
      </trkpt>
      <trkpt lat="43.83525" lon="7.25073">
        <ele>575</ele>
        <time>2020-08-14T06:29:24Z</time>
      </trkpt>
      <trkpt lat="43.83526" lon="7.25072">
        <ele>575</ele>
        <time>2020-08-14T06:29:25Z</time>
      </trkpt>
      <trkpt lat="43.83529" lon="7.2507">
        <ele>575.2</ele>
        <time>2020-08-14T06:29:29Z</time>
      </trkpt>
      <trkpt lat="43.8353" lon="7.25069">
        <ele>575.4</ele>
        <time>2020-08-14T06:29:31Z</time>
      </trkpt>
      <trkpt lat="43.83532" lon="7.25068">
        <ele>575.6</ele>
        <time>2020-08-14T06:29:33Z</time>
      </trkpt>
      <trkpt lat="43.83532" lon="7.25068">
        <ele>575.6</ele>
        <time>2020-08-14T06:29:35Z</time>
      </trkpt>
      <trkpt lat="43.83533" lon="7.25068">
        <ele>575.8</ele>
        <time>2020-08-14T06:29:36Z</time>
      </trkpt>
      <trkpt lat="43.83534" lon="7.2507">
        <ele>575.8</ele>
        <time>2020-08-14T06:29:39Z</time>
      </trkpt>
      <trkpt lat="43.83535" lon="7.25071">
        <ele>575.8</ele>
        <time>2020-08-14T06:29:40Z</time>
      </trkpt>
      <trkpt lat="43.83535" lon="7.25071">
        <ele>575.8</ele>
        <time>2020-08-14T06:29:41Z</time>
      </trkpt>
      <trkpt lat="43.83536" lon="7.25071">
        <ele>575.8</ele>
        <time>2020-08-14T06:29:42Z</time>
      </trkpt>
      <trkpt lat="43.83538" lon="7.25071">
        <ele>576</ele>
        <time>2020-08-14T06:29:44Z</time>
      </trkpt>
      <trkpt lat="43.8354" lon="7.2507">
        <ele>576</ele>
        <time>2020-08-14T06:29:46Z</time>
      </trkpt>
      <trkpt lat="43.83542" lon="7.25069">
        <ele>576.2</ele>
        <time>2020-08-14T06:29:48Z</time>
      </trkpt>
      <trkpt lat="43.83544" lon="7.25068">
        <ele>576.2</ele>
        <time>2020-08-14T06:29:49Z</time>
      </trkpt>
      <trkpt lat="43.83551" lon="7.25061">
        <ele>576.4</ele>
        <time>2020-08-14T06:29:54Z</time>
      </trkpt>
      <trkpt lat="43.83552" lon="7.25061">
        <ele>576.4</ele>
        <time>2020-08-14T06:29:55Z</time>
      </trkpt>
      <trkpt lat="43.83556" lon="7.25059">
        <ele>576.6</ele>
        <time>2020-08-14T06:29:58Z</time>
      </trkpt>
      <trkpt lat="43.83558" lon="7.25058">
        <ele>576.6</ele>
        <time>2020-08-14T06:30:01Z</time>
      </trkpt>
      <trkpt lat="43.83562" lon="7.25057">
        <ele>576.8</ele>
        <time>2020-08-14T06:30:04Z</time>
      </trkpt>
      <trkpt lat="43.83564" lon="7.25054">
        <ele>577</ele>
        <time>2020-08-14T06:30:07Z</time>
      </trkpt>
      <trkpt lat="43.83565" lon="7.25053">
        <ele>577</ele>
        <time>2020-08-14T06:30:08Z</time>
      </trkpt>
      <trkpt lat="43.83565" lon="7.25048">
        <ele>577</ele>
        <time>2020-08-14T06:30:12Z</time>
      </trkpt>
      <trkpt lat="43.83565" lon="7.25049">
        <ele>577</ele>
        <time>2020-08-14T06:30:13Z</time>
      </trkpt>
      <trkpt lat="43.83566" lon="7.25047">
        <ele>577.2</ele>
        <time>2020-08-14T06:30:18Z</time>
      </trkpt>
      <trkpt lat="43.83567" lon="7.25043">
        <ele>577.2</ele>
        <time>2020-08-14T06:30:20Z</time>
      </trkpt>
      <trkpt lat="43.83568" lon="7.25042">
        <ele>577.2</ele>
        <time>2020-08-14T06:30:21Z</time>
      </trkpt>
      <trkpt lat="43.83569" lon="7.25035">
        <ele>577.4</ele>
        <time>2020-08-14T06:30:25Z</time>
      </trkpt>
      <trkpt lat="43.83571" lon="7.25031">
        <ele>577.4</ele>
        <time>2020-08-14T06:30:28Z</time>
      </trkpt>
      <trkpt lat="43.83571" lon="7.2503">
        <ele>577.6</ele>
        <time>2020-08-14T06:30:29Z</time>
      </trkpt>
      <trkpt lat="43.83571" lon="7.2502">
        <ele>577.4</ele>
        <time>2020-08-14T06:30:35Z</time>
      </trkpt>
      <trkpt lat="43.83573" lon="7.25011">
        <ele>577.4</ele>
        <time>2020-08-14T06:30:39Z</time>
      </trkpt>
      <trkpt lat="43.83574" lon="7.25007">
        <ele>577.4</ele>
        <time>2020-08-14T06:30:42Z</time>
      </trkpt>
      <trkpt lat="43.83573" lon="7.24993">
        <ele>577.6</ele>
        <time>2020-08-14T06:30:50Z</time>
      </trkpt>
      <trkpt lat="43.83573" lon="7.24991">
        <ele>577.6</ele>
        <time>2020-08-14T06:30:51Z</time>
      </trkpt>
      <trkpt lat="43.83574" lon="7.24982">
        <ele>577.6</ele>
        <time>2020-08-14T06:30:56Z</time>
      </trkpt>
      <trkpt lat="43.83575" lon="7.24975">
        <ele>577.6</ele>
        <time>2020-08-14T06:31:00Z</time>
      </trkpt>
      <trkpt lat="43.83575" lon="7.24973">
        <ele>577.6</ele>
        <time>2020-08-14T06:31:01Z</time>
      </trkpt>
      <trkpt lat="43.83575" lon="7.24969">
        <ele>577.6</ele>
        <time>2020-08-14T06:31:03Z</time>
      </trkpt>
      <trkpt lat="43.83575" lon="7.24967">
        <ele>577.6</ele>
        <time>2020-08-14T06:31:04Z</time>
      </trkpt>
      <trkpt lat="43.83577" lon="7.24964">
        <ele>577.6</ele>
        <time>2020-08-14T06:31:06Z</time>
      </trkpt>
      <trkpt lat="43.83579" lon="7.2496">
        <ele>577.8</ele>
        <time>2020-08-14T06:31:08Z</time>
      </trkpt>
      <trkpt lat="43.83579" lon="7.24957">
        <ele>577.8</ele>
        <time>2020-08-14T06:31:10Z</time>
      </trkpt>
      <trkpt lat="43.8358" lon="7.24952">
        <ele>577.8</ele>
        <time>2020-08-14T06:31:13Z</time>
      </trkpt>
      <trkpt lat="43.83581" lon="7.24948">
        <ele>577.8</ele>
        <time>2020-08-14T06:31:16Z</time>
      </trkpt>
      <trkpt lat="43.83582" lon="7.24946">
        <ele>577.8</ele>
        <time>2020-08-14T06:31:17Z</time>
      </trkpt>
      <trkpt lat="43.83582" lon="7.24944">
        <ele>577.8</ele>
        <time>2020-08-14T06:31:18Z</time>
      </trkpt>
      <trkpt lat="43.83583" lon="7.24938">
        <ele>577.8</ele>
        <time>2020-08-14T06:31:21Z</time>
      </trkpt>
      <trkpt lat="43.83583" lon="7.24935">
        <ele>577.8</ele>
        <time>2020-08-14T06:31:22Z</time>
      </trkpt>
      <trkpt lat="43.83583" lon="7.24934">
        <ele>577.8</ele>
        <time>2020-08-14T06:31:23Z</time>
      </trkpt>
      <trkpt lat="43.83583" lon="7.24932">
        <ele>577.8</ele>
        <time>2020-08-14T06:31:25Z</time>
      </trkpt>
      <trkpt lat="43.83585" lon="7.24925">
        <ele>577.8</ele>
        <time>2020-08-14T06:31:29Z</time>
      </trkpt>
      <trkpt lat="43.83584" lon="7.24921">
        <ele>577.8</ele>
        <time>2020-08-14T06:31:31Z</time>
      </trkpt>
      <trkpt lat="43.83583" lon="7.24913">
        <ele>577.8</ele>
        <time>2020-08-14T06:31:35Z</time>
      </trkpt>
      <trkpt lat="43.83583" lon="7.24912">
        <ele>577.8</ele>
        <time>2020-08-14T06:31:36Z</time>
      </trkpt>
      <trkpt lat="43.83582" lon="7.24911">
        <ele>577.8</ele>
        <time>2020-08-14T06:31:37Z</time>
      </trkpt>
      <trkpt lat="43.83582" lon="7.24902">
        <ele>577.8</ele>
        <time>2020-08-14T06:31:43Z</time>
      </trkpt>
      <trkpt lat="43.83582" lon="7.249">
        <ele>577.8</ele>
        <time>2020-08-14T06:31:44Z</time>
      </trkpt>
      <trkpt lat="43.8358" lon="7.24893">
        <ele>577.8</ele>
        <time>2020-08-14T06:31:47Z</time>
      </trkpt>
      <trkpt lat="43.83578" lon="7.24886">
        <ele>577.8</ele>
        <time>2020-08-14T06:31:51Z</time>
      </trkpt>
      <trkpt lat="43.83577" lon="7.24883">
        <ele>577.8</ele>
        <time>2020-08-14T06:31:53Z</time>
      </trkpt>
      <trkpt lat="43.83577" lon="7.24879">
        <ele>577.8</ele>
        <time>2020-08-14T06:31:55Z</time>
      </trkpt>
      <trkpt lat="43.83578" lon="7.24875">
        <ele>577.8</ele>
        <time>2020-08-14T06:31:57Z</time>
      </trkpt>
      <trkpt lat="43.83576" lon="7.24868">
        <ele>577.8</ele>
        <time>2020-08-14T06:32:01Z</time>
      </trkpt>
      <trkpt lat="43.83581" lon="7.24853">
        <ele>577.8</ele>
        <time>2020-08-14T06:32:09Z</time>
      </trkpt>
      <trkpt lat="43.83583" lon="7.24849">
        <ele>577.8</ele>
        <time>2020-08-14T06:32:11Z</time>
      </trkpt>
      <trkpt lat="43.83586" lon="7.24843">
        <ele>577.8</ele>
        <time>2020-08-14T06:32:15Z</time>
      </trkpt>
      <trkpt lat="43.8359" lon="7.24835">
        <ele>577.8</ele>
        <time>2020-08-14T06:32:20Z</time>
      </trkpt>
      <trkpt lat="43.83596" lon="7.2482">
        <ele>577.8</ele>
        <time>2020-08-14T06:32:29Z</time>
      </trkpt>
      <trkpt lat="43.83602" lon="7.24805">
        <ele>577.8</ele>
        <time>2020-08-14T06:32:39Z</time>
      </trkpt>
      <trkpt lat="43.83606" lon="7.24787">
        <ele>577.4</ele>
        <time>2020-08-14T06:32:49Z</time>
      </trkpt>
      <trkpt lat="43.83609" lon="7.24776">
        <ele>577.4</ele>
        <time>2020-08-14T06:32:56Z</time>
      </trkpt>
      <trkpt lat="43.8361" lon="7.24773">
        <ele>577.4</ele>
        <time>2020-08-14T06:32:58Z</time>
      </trkpt>
      <trkpt lat="43.83611" lon="7.24765">
        <ele>577.6</ele>
        <time>2020-08-14T06:33:02Z</time>
      </trkpt>
      <trkpt lat="43.83609" lon="7.24745">
        <ele>577.4</ele>
        <time>2020-08-14T06:33:13Z</time>
      </trkpt>
      <trkpt lat="43.83609" lon="7.24732">
        <ele>577.6</ele>
        <time>2020-08-14T06:33:21Z</time>
      </trkpt>
      <trkpt lat="43.83609" lon="7.24715">
        <ele>577.6</ele>
        <time>2020-08-14T06:33:32Z</time>
      </trkpt>
      <trkpt lat="43.83618" lon="7.24702">
        <ele>577.4</ele>
        <time>2020-08-14T06:33:39Z</time>
      </trkpt>
      <trkpt lat="43.83617" lon="7.24695">
        <ele>577.6</ele>
        <time>2020-08-14T06:33:43Z</time>
      </trkpt>
      <trkpt lat="43.83616" lon="7.24692">
        <ele>577.8</ele>
        <time>2020-08-14T06:33:45Z</time>
      </trkpt>
      <trkpt lat="43.83616" lon="7.24687">
        <ele>578</ele>
        <time>2020-08-14T06:33:48Z</time>
      </trkpt>
      <trkpt lat="43.83615" lon="7.24681">
        <ele>578.2</ele>
        <time>2020-08-14T06:33:51Z</time>
      </trkpt>
      <trkpt lat="43.83612" lon="7.24671">
        <ele>578.4</ele>
        <time>2020-08-14T06:33:57Z</time>
      </trkpt>
      <trkpt lat="43.83608" lon="7.24663">
        <ele>578.2</ele>
        <time>2020-08-14T06:34:01Z</time>
      </trkpt>
      <trkpt lat="43.83604" lon="7.24655">
        <ele>578.2</ele>
        <time>2020-08-14T06:34:07Z</time>
      </trkpt>
      <trkpt lat="43.836" lon="7.24643">
        <ele>578</ele>
        <time>2020-08-14T06:34:14Z</time>
      </trkpt>
      <trkpt lat="43.83599" lon="7.24639">
        <ele>578</ele>
        <time>2020-08-14T06:34:16Z</time>
      </trkpt>
      <trkpt lat="43.83593" lon="7.24637">
        <ele>578</ele>
        <time>2020-08-14T06:34:22Z</time>
      </trkpt>
      <trkpt lat="43.83581" lon="7.24641">
        <ele>578</ele>
        <time>2020-08-14T06:34:30Z</time>
      </trkpt>
      <trkpt lat="43.83574" lon="7.24642">
        <ele>578</ele>
        <time>2020-08-14T06:34:35Z</time>
      </trkpt>
      <trkpt lat="43.83571" lon="7.24644">
        <ele>578</ele>
        <time>2020-08-14T06:34:38Z</time>
      </trkpt>
      <trkpt lat="43.83563" lon="7.24646">
        <ele>578.4</ele>
        <time>2020-08-14T06:34:45Z</time>
      </trkpt>
      <trkpt lat="43.83554" lon="7.2465">
        <ele>579</ele>
        <time>2020-08-14T06:34:52Z</time>
      </trkpt>
      <trkpt lat="43.83544" lon="7.2465">
        <ele>579.4</ele>
        <time>2020-08-14T06:34:59Z</time>
      </trkpt>
      <trkpt lat="43.83543" lon="7.24651">
        <ele>579.4</ele>
        <time>2020-08-14T06:35:00Z</time>
      </trkpt>
      <trkpt lat="43.83536" lon="7.24654">
        <ele>579.8</ele>
        <time>2020-08-14T06:35:06Z</time>
      </trkpt>
      <trkpt lat="43.83525" lon="7.24661">
        <ele>579.8</ele>
        <time>2020-08-14T06:35:16Z</time>
      </trkpt>
      <trkpt lat="43.83523" lon="7.24661">
        <ele>579.6</ele>
        <time>2020-08-14T06:35:18Z</time>
      </trkpt>
      <trkpt lat="43.83522" lon="7.24661">
        <ele>579.6</ele>
        <time>2020-08-14T06:35:19Z</time>
      </trkpt>
      <trkpt lat="43.8352" lon="7.24664">
        <ele>579.4</ele>
        <time>2020-08-14T06:35:22Z</time>
      </trkpt>
      <trkpt lat="43.83517" lon="7.24666">
        <ele>579.2</ele>
        <time>2020-08-14T06:35:24Z</time>
      </trkpt>
      <trkpt lat="43.83512" lon="7.24669">
        <ele>579</ele>
        <time>2020-08-14T06:35:27Z</time>
      </trkpt>
      <trkpt lat="43.83509" lon="7.24671">
        <ele>578.6</ele>
        <time>2020-08-14T06:35:30Z</time>
      </trkpt>
      <trkpt lat="43.83508" lon="7.24672">
        <ele>578.4</ele>
        <time>2020-08-14T06:35:31Z</time>
      </trkpt>
      <trkpt lat="43.835" lon="7.24675">
        <ele>577.4</ele>
        <time>2020-08-14T06:35:37Z</time>
      </trkpt>
      <trkpt lat="43.83495" lon="7.24678">
        <ele>577</ele>
        <time>2020-08-14T06:35:41Z</time>
      </trkpt>
      <trkpt lat="43.83494" lon="7.24679">
        <ele>576.8</ele>
        <time>2020-08-14T06:35:42Z</time>
      </trkpt>
      <trkpt lat="43.83491" lon="7.24681">
        <ele>576.4</ele>
        <time>2020-08-14T06:35:45Z</time>
      </trkpt>
      <trkpt lat="43.83487" lon="7.24685">
        <ele>575.8</ele>
        <time>2020-08-14T06:35:49Z</time>
      </trkpt>
      <trkpt lat="43.83483" lon="7.24686">
        <ele>575.4</ele>
        <time>2020-08-14T06:35:53Z</time>
      </trkpt>
      <trkpt lat="43.83482" lon="7.24687">
        <ele>575.4</ele>
        <time>2020-08-14T06:35:55Z</time>
      </trkpt>
      <trkpt lat="43.83481" lon="7.24689">
        <ele>575.4</ele>
        <time>2020-08-14T06:35:56Z</time>
      </trkpt>
      <trkpt lat="43.83474" lon="7.24694">
        <ele>575.4</ele>
        <time>2020-08-14T06:36:03Z</time>
      </trkpt>
      <trkpt lat="43.83468" lon="7.24698">
        <ele>575.6</ele>
        <time>2020-08-14T06:36:08Z</time>
      </trkpt>
      <trkpt lat="43.83462" lon="7.24704">
        <ele>575.6</ele>
        <time>2020-08-14T06:36:13Z</time>
      </trkpt>
      <trkpt lat="43.83458" lon="7.24705">
        <ele>575.6</ele>
        <time>2020-08-14T06:36:16Z</time>
      </trkpt>
      <trkpt lat="43.83447" lon="7.2471">
        <ele>575.4</ele>
        <time>2020-08-14T06:36:24Z</time>
      </trkpt>
      <trkpt lat="43.83434" lon="7.24718">
        <ele>574.6</ele>
        <time>2020-08-14T06:36:35Z</time>
      </trkpt>
      <trkpt lat="43.83429" lon="7.24721">
        <ele>574.4</ele>
        <time>2020-08-14T06:36:40Z</time>
      </trkpt>
      <trkpt lat="43.83426" lon="7.24723">
        <ele>574.2</ele>
        <time>2020-08-14T06:36:43Z</time>
      </trkpt>
      <trkpt lat="43.8341" lon="7.24729">
        <ele>574.2</ele>
        <time>2020-08-14T06:36:52Z</time>
      </trkpt>
      <trkpt lat="43.83409" lon="7.2473">
        <ele>574.2</ele>
        <time>2020-08-14T06:36:53Z</time>
      </trkpt>
      <trkpt lat="43.83406" lon="7.2473">
        <ele>574</ele>
        <time>2020-08-14T06:36:55Z</time>
      </trkpt>
      <trkpt lat="43.83401" lon="7.24731">
        <ele>573.6</ele>
        <time>2020-08-14T06:36:59Z</time>
      </trkpt>
      <trkpt lat="43.83386" lon="7.24732">
        <ele>573.6</ele>
        <time>2020-08-14T06:37:08Z</time>
      </trkpt>
      <trkpt lat="43.83376" lon="7.24733">
        <ele>573.6</ele>
        <time>2020-08-14T06:37:14Z</time>
      </trkpt>
      <trkpt lat="43.83374" lon="7.24734">
        <ele>573.8</ele>
        <time>2020-08-14T06:37:16Z</time>
      </trkpt>
      <trkpt lat="43.83372" lon="7.24734">
        <ele>573.8</ele>
        <time>2020-08-14T06:37:18Z</time>
      </trkpt>
      <trkpt lat="43.83368" lon="7.24734">
        <ele>574.2</ele>
        <time>2020-08-14T06:37:21Z</time>
      </trkpt>
      <trkpt lat="43.83363" lon="7.24736">
        <ele>574.4</ele>
        <time>2020-08-14T06:37:25Z</time>
      </trkpt>
      <trkpt lat="43.83355" lon="7.24738">
        <ele>575</ele>
        <time>2020-08-14T06:37:33Z</time>
      </trkpt>
      <trkpt lat="43.83351" lon="7.24743">
        <ele>575.4</ele>
        <time>2020-08-14T06:37:37Z</time>
      </trkpt>
      <trkpt lat="43.83347" lon="7.24745">
        <ele>575.6</ele>
        <time>2020-08-14T06:37:40Z</time>
      </trkpt>
      <trkpt lat="43.83345" lon="7.24747">
        <ele>575.8</ele>
        <time>2020-08-14T06:37:43Z</time>
      </trkpt>
      <trkpt lat="43.83343" lon="7.24747">
        <ele>576</ele>
        <time>2020-08-14T06:37:45Z</time>
      </trkpt>
      <trkpt lat="43.83343" lon="7.24747">
        <ele>576</ele>
        <time>2020-08-14T06:37:46Z</time>
      </trkpt>
      <trkpt lat="43.83342" lon="7.24747">
        <ele>576</ele>
        <time>2020-08-14T06:37:47Z</time>
      </trkpt>
      <trkpt lat="43.83341" lon="7.24747">
        <ele>576.2</ele>
        <time>2020-08-14T06:37:48Z</time>
      </trkpt>
      <trkpt lat="43.8334" lon="7.24748">
        <ele>576.2</ele>
        <time>2020-08-14T06:37:49Z</time>
      </trkpt>
      <trkpt lat="43.83338" lon="7.24749">
        <ele>576.2</ele>
        <time>2020-08-14T06:37:51Z</time>
      </trkpt>
      <trkpt lat="43.83337" lon="7.24749">
        <ele>576.4</ele>
        <time>2020-08-14T06:37:52Z</time>
      </trkpt>
      <trkpt lat="43.83333" lon="7.24749">
        <ele>576.4</ele>
        <time>2020-08-14T06:37:55Z</time>
      </trkpt>
      <trkpt lat="43.83331" lon="7.2475">
        <ele>576.6</ele>
        <time>2020-08-14T06:37:56Z</time>
      </trkpt>
      <trkpt lat="43.83328" lon="7.2475">
        <ele>576.8</ele>
        <time>2020-08-14T06:37:58Z</time>
      </trkpt>
      <trkpt lat="43.83327" lon="7.24751">
        <ele>576.8</ele>
        <time>2020-08-14T06:37:59Z</time>
      </trkpt>
      <trkpt lat="43.83324" lon="7.24752">
        <ele>576.8</ele>
        <time>2020-08-14T06:38:01Z</time>
      </trkpt>
      <trkpt lat="43.8332" lon="7.24755">
        <ele>576.8</ele>
        <time>2020-08-14T06:38:05Z</time>
      </trkpt>
      <trkpt lat="43.8331" lon="7.2476">
        <ele>577</ele>
        <time>2020-08-14T06:38:11Z</time>
      </trkpt>
      <trkpt lat="43.8331" lon="7.24761">
        <ele>577</ele>
        <time>2020-08-14T06:38:12Z</time>
      </trkpt>
      <trkpt lat="43.83309" lon="7.24762">
        <ele>577</ele>
        <time>2020-08-14T06:38:13Z</time>
      </trkpt>
      <trkpt lat="43.83301" lon="7.24764">
        <ele>577</ele>
        <time>2020-08-14T06:38:18Z</time>
      </trkpt>
      <trkpt lat="43.83299" lon="7.24765">
        <ele>577</ele>
        <time>2020-08-14T06:38:19Z</time>
      </trkpt>
      <trkpt lat="43.83296" lon="7.24766">
        <ele>577.2</ele>
        <time>2020-08-14T06:38:22Z</time>
      </trkpt>
      <trkpt lat="43.83294" lon="7.24767">
        <ele>577.4</ele>
        <time>2020-08-14T06:38:23Z</time>
      </trkpt>
      <trkpt lat="43.83291" lon="7.24767">
        <ele>577.6</ele>
        <time>2020-08-14T06:38:25Z</time>
      </trkpt>
      <trkpt lat="43.83281" lon="7.24768">
        <ele>577.8</ele>
        <time>2020-08-14T06:38:31Z</time>
      </trkpt>
      <trkpt lat="43.83279" lon="7.24768">
        <ele>578</ele>
        <time>2020-08-14T06:38:34Z</time>
      </trkpt>
      <trkpt lat="43.83271" lon="7.24768">
        <ele>578.4</ele>
        <time>2020-08-14T06:38:39Z</time>
      </trkpt>
      <trkpt lat="43.83269" lon="7.24768">
        <ele>578.6</ele>
        <time>2020-08-14T06:38:41Z</time>
      </trkpt>
      <trkpt lat="43.83259" lon="7.2477">
        <ele>579.6</ele>
        <time>2020-08-14T06:38:49Z</time>
      </trkpt>
      <trkpt lat="43.83259" lon="7.2477">
        <ele>579.6</ele>
        <time>2020-08-14T06:38:50Z</time>
      </trkpt>
      <trkpt lat="43.8325" lon="7.24773">
        <ele>580.2</ele>
        <time>2020-08-14T06:38:55Z</time>
      </trkpt>
      <trkpt lat="43.83248" lon="7.24774">
        <ele>580.2</ele>
        <time>2020-08-14T06:38:56Z</time>
      </trkpt>
      <trkpt lat="43.83246" lon="7.24775">
        <ele>580.4</ele>
        <time>2020-08-14T06:38:58Z</time>
      </trkpt>
      <trkpt lat="43.83243" lon="7.24776">
        <ele>580.6</ele>
        <time>2020-08-14T06:39:00Z</time>
      </trkpt>
      <trkpt lat="43.83242" lon="7.24776">
        <ele>580.6</ele>
        <time>2020-08-14T06:39:01Z</time>
      </trkpt>
      <trkpt lat="43.83241" lon="7.24777">
        <ele>580.8</ele>
        <time>2020-08-14T06:39:02Z</time>
      </trkpt>
      <trkpt lat="43.83239" lon="7.24778">
        <ele>580.8</ele>
        <time>2020-08-14T06:39:03Z</time>
      </trkpt>
      <trkpt lat="43.83237" lon="7.24779">
        <ele>580.8</ele>
        <time>2020-08-14T06:39:04Z</time>
      </trkpt>
      <trkpt lat="43.83226" lon="7.24784">
        <ele>581.6</ele>
        <time>2020-08-14T06:39:13Z</time>
      </trkpt>
      <trkpt lat="43.83224" lon="7.24784">
        <ele>581.8</ele>
        <time>2020-08-14T06:39:15Z</time>
      </trkpt>
      <trkpt lat="43.83218" lon="7.24786">
        <ele>582</ele>
        <time>2020-08-14T06:39:19Z</time>
      </trkpt>
      <trkpt lat="43.83215" lon="7.24787">
        <ele>582.4</ele>
        <time>2020-08-14T06:39:22Z</time>
      </trkpt>
      <trkpt lat="43.83212" lon="7.24788">
        <ele>582.4</ele>
        <time>2020-08-14T06:39:24Z</time>
      </trkpt>
      <trkpt lat="43.83209" lon="7.24789">
        <ele>582.6</ele>
        <time>2020-08-14T06:39:27Z</time>
      </trkpt>
      <trkpt lat="43.83206" lon="7.2479">
        <ele>582.8</ele>
        <time>2020-08-14T06:39:29Z</time>
      </trkpt>
      <trkpt lat="43.83204" lon="7.24791">
        <ele>583</ele>
        <time>2020-08-14T06:39:31Z</time>
      </trkpt>
      <trkpt lat="43.83199" lon="7.24792">
        <ele>583.2</ele>
        <time>2020-08-14T06:39:34Z</time>
      </trkpt>
      <trkpt lat="43.83196" lon="7.24793">
        <ele>583.4</ele>
        <time>2020-08-14T06:39:36Z</time>
      </trkpt>
      <trkpt lat="43.83193" lon="7.24795">
        <ele>583.8</ele>
        <time>2020-08-14T06:39:39Z</time>
      </trkpt>
      <trkpt lat="43.8319" lon="7.24796">
        <ele>584</ele>
        <time>2020-08-14T06:39:42Z</time>
      </trkpt>
      <trkpt lat="43.83187" lon="7.24798">
        <ele>584.4</ele>
        <time>2020-08-14T06:39:44Z</time>
      </trkpt>
      <trkpt lat="43.83183" lon="7.248">
        <ele>584.8</ele>
        <time>2020-08-14T06:39:47Z</time>
      </trkpt>
      <trkpt lat="43.83176" lon="7.24802">
        <ele>585.2</ele>
        <time>2020-08-14T06:39:52Z</time>
      </trkpt>
      <trkpt lat="43.83172" lon="7.24807">
        <ele>585.8</ele>
        <time>2020-08-14T06:39:57Z</time>
      </trkpt>
      <trkpt lat="43.8317" lon="7.24808">
        <ele>586</ele>
        <time>2020-08-14T06:39:59Z</time>
      </trkpt>
      <trkpt lat="43.83169" lon="7.24807">
        <ele>586.2</ele>
        <time>2020-08-14T06:40:00Z</time>
      </trkpt>
      <trkpt lat="43.83165" lon="7.24808">
        <ele>586.6</ele>
        <time>2020-08-14T06:40:04Z</time>
      </trkpt>
      <trkpt lat="43.83161" lon="7.2481">
        <ele>587</ele>
        <time>2020-08-14T06:40:06Z</time>
      </trkpt>
      <trkpt lat="43.8316" lon="7.24812">
        <ele>587</ele>
        <time>2020-08-14T06:40:07Z</time>
      </trkpt>
      <trkpt lat="43.83157" lon="7.24814">
        <ele>587.4</ele>
        <time>2020-08-14T06:40:09Z</time>
      </trkpt>
      <trkpt lat="43.83156" lon="7.24815">
        <ele>587.4</ele>
        <time>2020-08-14T06:40:10Z</time>
      </trkpt>
      <trkpt lat="43.83151" lon="7.2482">
        <ele>588</ele>
        <time>2020-08-14T06:40:15Z</time>
      </trkpt>
      <trkpt lat="43.83149" lon="7.2482">
        <ele>588</ele>
        <time>2020-08-14T06:40:16Z</time>
      </trkpt>
      <trkpt lat="43.83149" lon="7.24821">
        <ele>588.2</ele>
        <time>2020-08-14T06:40:17Z</time>
      </trkpt>
      <trkpt lat="43.83149" lon="7.24822">
        <ele>588.2</ele>
        <time>2020-08-14T06:40:18Z</time>
      </trkpt>
      <trkpt lat="43.83145" lon="7.24825">
        <ele>588.6</ele>
        <time>2020-08-14T06:40:21Z</time>
      </trkpt>
      <trkpt lat="43.83144" lon="7.24826">
        <ele>588.8</ele>
        <time>2020-08-14T06:40:22Z</time>
      </trkpt>
      <trkpt lat="43.83142" lon="7.24828">
        <ele>589</ele>
        <time>2020-08-14T06:40:24Z</time>
      </trkpt>
      <trkpt lat="43.83139" lon="7.2483">
        <ele>589.2</ele>
        <time>2020-08-14T06:40:26Z</time>
      </trkpt>
      <trkpt lat="43.83138" lon="7.24831">
        <ele>589.4</ele>
        <time>2020-08-14T06:40:27Z</time>
      </trkpt>
      <trkpt lat="43.83135" lon="7.24833">
        <ele>589.6</ele>
        <time>2020-08-14T06:40:29Z</time>
      </trkpt>
      <trkpt lat="43.83134" lon="7.24833">
        <ele>589.6</ele>
        <time>2020-08-14T06:40:30Z</time>
      </trkpt>
      <trkpt lat="43.83132" lon="7.24834">
        <ele>590</ele>
        <time>2020-08-14T06:40:32Z</time>
      </trkpt>
      <trkpt lat="43.83131" lon="7.24835">
        <ele>590</ele>
        <time>2020-08-14T06:40:33Z</time>
      </trkpt>
      <trkpt lat="43.83128" lon="7.24837">
        <ele>590.2</ele>
        <time>2020-08-14T06:40:35Z</time>
      </trkpt>
      <trkpt lat="43.83125" lon="7.24837">
        <ele>590.4</ele>
        <time>2020-08-14T06:40:37Z</time>
      </trkpt>
      <trkpt lat="43.83121" lon="7.24839">
        <ele>591</ele>
        <time>2020-08-14T06:40:41Z</time>
      </trkpt>
      <trkpt lat="43.83118" lon="7.24842">
        <ele>591</ele>
        <time>2020-08-14T06:40:44Z</time>
      </trkpt>
      <trkpt lat="43.83114" lon="7.24843">
        <ele>591.2</ele>
        <time>2020-08-14T06:40:46Z</time>
      </trkpt>
      <trkpt lat="43.8311" lon="7.24847">
        <ele>591.4</ele>
        <time>2020-08-14T06:40:50Z</time>
      </trkpt>
      <trkpt lat="43.83108" lon="7.24846">
        <ele>591.6</ele>
        <time>2020-08-14T06:40:51Z</time>
      </trkpt>
      <trkpt lat="43.83107" lon="7.24846">
        <ele>591.6</ele>
        <time>2020-08-14T06:40:52Z</time>
      </trkpt>
      <trkpt lat="43.83103" lon="7.24847">
        <ele>591.6</ele>
        <time>2020-08-14T06:40:54Z</time>
      </trkpt>
      <trkpt lat="43.83099" lon="7.24848">
        <ele>591.6</ele>
        <time>2020-08-14T06:40:57Z</time>
      </trkpt>
      <trkpt lat="43.83095" lon="7.2485">
        <ele>591.6</ele>
        <time>2020-08-14T06:41:00Z</time>
      </trkpt>
      <trkpt lat="43.8309" lon="7.2485">
        <ele>591.6</ele>
        <time>2020-08-14T06:41:03Z</time>
      </trkpt>
      <trkpt lat="43.83082" lon="7.24851">
        <ele>591.8</ele>
        <time>2020-08-14T06:41:09Z</time>
      </trkpt>
      <trkpt lat="43.83076" lon="7.24851">
        <ele>591.6</ele>
        <time>2020-08-14T06:41:13Z</time>
      </trkpt>
      <trkpt lat="43.83063" lon="7.24857">
        <ele>591.4</ele>
        <time>2020-08-14T06:41:22Z</time>
      </trkpt>
      <trkpt lat="43.83057" lon="7.24859">
        <ele>591.2</ele>
        <time>2020-08-14T06:41:26Z</time>
      </trkpt>
      <trkpt lat="43.83053" lon="7.24862">
        <ele>590.8</ele>
        <time>2020-08-14T06:41:29Z</time>
      </trkpt>
      <trkpt lat="43.83047" lon="7.24869">
        <ele>590</ele>
        <time>2020-08-14T06:41:35Z</time>
      </trkpt>
      <trkpt lat="43.83045" lon="7.24871">
        <ele>589.8</ele>
        <time>2020-08-14T06:41:37Z</time>
      </trkpt>
      <trkpt lat="43.83042" lon="7.24878">
        <ele>589.6</ele>
        <time>2020-08-14T06:41:42Z</time>
      </trkpt>
      <trkpt lat="43.83041" lon="7.2488">
        <ele>589.4</ele>
        <time>2020-08-14T06:41:43Z</time>
      </trkpt>
      <trkpt lat="43.8304" lon="7.24881">
        <ele>589.4</ele>
        <time>2020-08-14T06:41:44Z</time>
      </trkpt>
      <trkpt lat="43.8304" lon="7.24882">
        <ele>589.4</ele>
        <time>2020-08-14T06:41:45Z</time>
      </trkpt>
      <trkpt lat="43.83037" lon="7.24886">
        <ele>588.8</ele>
        <time>2020-08-14T06:41:48Z</time>
      </trkpt>
      <trkpt lat="43.83034" lon="7.24891">
        <ele>588.6</ele>
        <time>2020-08-14T06:41:52Z</time>
      </trkpt>
      <trkpt lat="43.83025" lon="7.24893">
        <ele>588.6</ele>
        <time>2020-08-14T06:41:59Z</time>
      </trkpt>
      <trkpt lat="43.83018" lon="7.24892">
        <ele>588.6</ele>
        <time>2020-08-14T06:42:03Z</time>
      </trkpt>
      <trkpt lat="43.83011" lon="7.24891">
        <ele>588.6</ele>
        <time>2020-08-14T06:42:06Z</time>
      </trkpt>
      <trkpt lat="43.83009" lon="7.2489">
        <ele>588.8</ele>
        <time>2020-08-14T06:42:07Z</time>
      </trkpt>
      <trkpt lat="43.83007" lon="7.24889">
        <ele>588.8</ele>
        <time>2020-08-14T06:42:08Z</time>
      </trkpt>
      <trkpt lat="43.83006" lon="7.24889">
        <ele>589</ele>
        <time>2020-08-14T06:42:09Z</time>
      </trkpt>
      <trkpt lat="43.83004" lon="7.24887">
        <ele>589</ele>
        <time>2020-08-14T06:42:10Z</time>
      </trkpt>
      <trkpt lat="43.83002" lon="7.24886">
        <ele>589.2</ele>
        <time>2020-08-14T06:42:12Z</time>
      </trkpt>
      <trkpt lat="43.83" lon="7.24885">
        <ele>589.4</ele>
        <time>2020-08-14T06:42:13Z</time>
      </trkpt>
      <trkpt lat="43.82993" lon="7.24883">
        <ele>589.8</ele>
        <time>2020-08-14T06:42:18Z</time>
      </trkpt>
      <trkpt lat="43.8299" lon="7.24882">
        <ele>590</ele>
        <time>2020-08-14T06:42:20Z</time>
      </trkpt>
      <trkpt lat="43.82984" lon="7.2488">
        <ele>590.8</ele>
        <time>2020-08-14T06:42:26Z</time>
      </trkpt>
      <trkpt lat="43.82983" lon="7.2488">
        <ele>591</ele>
        <time>2020-08-14T06:42:27Z</time>
      </trkpt>
      <trkpt lat="43.8298" lon="7.24878">
        <ele>591.2</ele>
        <time>2020-08-14T06:42:29Z</time>
      </trkpt>
      <trkpt lat="43.82977" lon="7.24875">
        <ele>591.6</ele>
        <time>2020-08-14T06:42:32Z</time>
      </trkpt>
      <trkpt lat="43.82973" lon="7.24872">
        <ele>592</ele>
        <time>2020-08-14T06:42:36Z</time>
      </trkpt>
      <trkpt lat="43.82972" lon="7.24873">
        <ele>592.2</ele>
        <time>2020-08-14T06:42:38Z</time>
      </trkpt>
      <trkpt lat="43.82971" lon="7.24874">
        <ele>592.4</ele>
        <time>2020-08-14T06:42:39Z</time>
      </trkpt>
      <trkpt lat="43.82969" lon="7.24875">
        <ele>592.4</ele>
        <time>2020-08-14T06:42:41Z</time>
      </trkpt>
      <trkpt lat="43.82967" lon="7.24875">
        <ele>592.6</ele>
        <time>2020-08-14T06:42:43Z</time>
      </trkpt>
      <trkpt lat="43.82965" lon="7.24876">
        <ele>592.6</ele>
        <time>2020-08-14T06:42:45Z</time>
      </trkpt>
      <trkpt lat="43.82961" lon="7.24876">
        <ele>593</ele>
        <time>2020-08-14T06:42:48Z</time>
      </trkpt>
      <trkpt lat="43.82954" lon="7.24873">
        <ele>593.2</ele>
        <time>2020-08-14T06:42:54Z</time>
      </trkpt>
      <trkpt lat="43.82951" lon="7.24872">
        <ele>593.2</ele>
        <time>2020-08-14T06:42:56Z</time>
      </trkpt>
      <trkpt lat="43.82949" lon="7.24873">
        <ele>593.4</ele>
        <time>2020-08-14T06:42:58Z</time>
      </trkpt>
      <trkpt lat="43.82946" lon="7.24874">
        <ele>593.6</ele>
        <time>2020-08-14T06:43:01Z</time>
      </trkpt>
      <trkpt lat="43.8294" lon="7.24874">
        <ele>593.8</ele>
        <time>2020-08-14T06:43:06Z</time>
      </trkpt>
      <trkpt lat="43.82932" lon="7.24877">
        <ele>593.8</ele>
        <time>2020-08-14T06:43:13Z</time>
      </trkpt>
      <trkpt lat="43.8293" lon="7.24878">
        <ele>593.8</ele>
        <time>2020-08-14T06:43:15Z</time>
      </trkpt>
      <trkpt lat="43.82929" lon="7.24879">
        <ele>593.8</ele>
        <time>2020-08-14T06:43:16Z</time>
      </trkpt>
      <trkpt lat="43.82926" lon="7.24879">
        <ele>593.8</ele>
        <time>2020-08-14T06:43:19Z</time>
      </trkpt>
      <trkpt lat="43.82925" lon="7.24878">
        <ele>593.8</ele>
        <time>2020-08-14T06:43:21Z</time>
      </trkpt>
      <trkpt lat="43.82918" lon="7.24882">
        <ele>593.6</ele>
        <time>2020-08-14T06:43:28Z</time>
      </trkpt>
      <trkpt lat="43.82917" lon="7.24882">
        <ele>593.6</ele>
        <time>2020-08-14T06:43:29Z</time>
      </trkpt>
      <trkpt lat="43.8291" lon="7.24888">
        <ele>593.4</ele>
        <time>2020-08-14T06:43:34Z</time>
      </trkpt>
      <trkpt lat="43.82907" lon="7.24891">
        <ele>593.4</ele>
        <time>2020-08-14T06:43:37Z</time>
      </trkpt>
      <trkpt lat="43.82903" lon="7.24894">
        <ele>593.4</ele>
        <time>2020-08-14T06:43:40Z</time>
      </trkpt>
      <trkpt lat="43.82898" lon="7.24897">
        <ele>593.4</ele>
        <time>2020-08-14T06:43:43Z</time>
      </trkpt>
      <trkpt lat="43.82896" lon="7.249">
        <ele>593.6</ele>
        <time>2020-08-14T06:43:45Z</time>
      </trkpt>
      <trkpt lat="43.82886" lon="7.24909">
        <ele>593</ele>
        <time>2020-08-14T06:43:53Z</time>
      </trkpt>
      <trkpt lat="43.82873" lon="7.24924">
        <ele>592.4</ele>
        <time>2020-08-14T06:44:04Z</time>
      </trkpt>
      <trkpt lat="43.82869" lon="7.24932">
        <ele>592.2</ele>
        <time>2020-08-14T06:44:09Z</time>
      </trkpt>
      <trkpt lat="43.82867" lon="7.24938">
        <ele>591.6</ele>
        <time>2020-08-14T06:44:14Z</time>
      </trkpt>
      <trkpt lat="43.82866" lon="7.24947">
        <ele>591.2</ele>
        <time>2020-08-14T06:44:19Z</time>
      </trkpt>
      <trkpt lat="43.82865" lon="7.24948">
        <ele>591.2</ele>
        <time>2020-08-14T06:44:20Z</time>
      </trkpt>
      <trkpt lat="43.82863" lon="7.24951">
        <ele>591</ele>
        <time>2020-08-14T06:44:23Z</time>
      </trkpt>
      <trkpt lat="43.82854" lon="7.24967">
        <ele>590.8</ele>
        <time>2020-08-14T06:44:33Z</time>
      </trkpt>
      <trkpt lat="43.82843" lon="7.24975">
        <ele>590.2</ele>
        <time>2020-08-14T06:44:40Z</time>
      </trkpt>
      <trkpt lat="43.82842" lon="7.24975">
        <ele>590.2</ele>
        <time>2020-08-14T06:44:42Z</time>
      </trkpt>
      <trkpt lat="43.8283" lon="7.24974">
        <ele>590.4</ele>
        <time>2020-08-14T06:44:50Z</time>
      </trkpt>
      <trkpt lat="43.8282" lon="7.24971">
        <ele>590.2</ele>
        <time>2020-08-14T06:44:58Z</time>
      </trkpt>
      <trkpt lat="43.82818" lon="7.2497">
        <ele>590.2</ele>
        <time>2020-08-14T06:45:00Z</time>
      </trkpt>
      <trkpt lat="43.82815" lon="7.24968">
        <ele>590.2</ele>
        <time>2020-08-14T06:45:02Z</time>
      </trkpt>
      <trkpt lat="43.82814" lon="7.24968">
        <ele>590.2</ele>
        <time>2020-08-14T06:45:03Z</time>
      </trkpt>
      <trkpt lat="43.82798" lon="7.24963">
        <ele>589.6</ele>
        <time>2020-08-14T06:45:13Z</time>
      </trkpt>
      <trkpt lat="43.82797" lon="7.24962">
        <ele>589.6</ele>
        <time>2020-08-14T06:45:14Z</time>
      </trkpt>
      <trkpt lat="43.82791" lon="7.24961">
        <ele>589</ele>
        <time>2020-08-14T06:45:18Z</time>
      </trkpt>
      <trkpt lat="43.82786" lon="7.24961">
        <ele>588.8</ele>
        <time>2020-08-14T06:45:21Z</time>
      </trkpt>
      <trkpt lat="43.82777" lon="7.2496">
        <ele>588.2</ele>
        <time>2020-08-14T06:45:27Z</time>
      </trkpt>
      <trkpt lat="43.82776" lon="7.2496">
        <ele>588</ele>
        <time>2020-08-14T06:45:28Z</time>
      </trkpt>
      <trkpt lat="43.82769" lon="7.24964">
        <ele>587.6</ele>
        <time>2020-08-14T06:45:33Z</time>
      </trkpt>
      <trkpt lat="43.82762" lon="7.24964">
        <ele>587.2</ele>
        <time>2020-08-14T06:45:38Z</time>
      </trkpt>
      <trkpt lat="43.8276" lon="7.24962">
        <ele>586.8</ele>
        <time>2020-08-14T06:45:40Z</time>
      </trkpt>
      <trkpt lat="43.82757" lon="7.24962">
        <ele>586.6</ele>
        <time>2020-08-14T06:45:42Z</time>
      </trkpt>
      <trkpt lat="43.82751" lon="7.24963">
        <ele>586.2</ele>
        <time>2020-08-14T06:45:46Z</time>
      </trkpt>
      <trkpt lat="43.82749" lon="7.24968">
        <ele>586.4</ele>
        <time>2020-08-14T06:45:52Z</time>
      </trkpt>
      <trkpt lat="43.82745" lon="7.24974">
        <ele>587</ele>
        <time>2020-08-14T06:45:58Z</time>
      </trkpt>
      <trkpt lat="43.82741" lon="7.24979">
        <ele>587.8</ele>
        <time>2020-08-14T06:46:03Z</time>
      </trkpt>
      <trkpt lat="43.8274" lon="7.24979">
        <ele>588</ele>
        <time>2020-08-14T06:46:04Z</time>
      </trkpt>
      <trkpt lat="43.82735" lon="7.24986">
        <ele>588.8</ele>
        <time>2020-08-14T06:46:10Z</time>
      </trkpt>
      <trkpt lat="43.82734" lon="7.24987">
        <ele>589</ele>
        <time>2020-08-14T06:46:11Z</time>
      </trkpt>
      <trkpt lat="43.82732" lon="7.24989">
        <ele>589.2</ele>
        <time>2020-08-14T06:46:13Z</time>
      </trkpt>
      <trkpt lat="43.82728" lon="7.24992">
        <ele>589.8</ele>
        <time>2020-08-14T06:46:17Z</time>
      </trkpt>
      <trkpt lat="43.82725" lon="7.24994">
        <ele>590</ele>
        <time>2020-08-14T06:46:19Z</time>
      </trkpt>
      <trkpt lat="43.8272" lon="7.24998">
        <ele>590.6</ele>
        <time>2020-08-14T06:46:23Z</time>
      </trkpt>
      <trkpt lat="43.82716" lon="7.25001">
        <ele>591.2</ele>
        <time>2020-08-14T06:46:27Z</time>
      </trkpt>
      <trkpt lat="43.82713" lon="7.25003">
        <ele>591.6</ele>
        <time>2020-08-14T06:46:30Z</time>
      </trkpt>
      <trkpt lat="43.82706" lon="7.2501">
        <ele>592.2</ele>
        <time>2020-08-14T06:46:36Z</time>
      </trkpt>
      <trkpt lat="43.82704" lon="7.25011">
        <ele>592.4</ele>
        <time>2020-08-14T06:46:37Z</time>
      </trkpt>
      <trkpt lat="43.82697" lon="7.25017">
        <ele>593.2</ele>
        <time>2020-08-14T06:46:43Z</time>
      </trkpt>
      <trkpt lat="43.82695" lon="7.25019">
        <ele>593.6</ele>
        <time>2020-08-14T06:46:45Z</time>
      </trkpt>
      <trkpt lat="43.82692" lon="7.25021">
        <ele>594</ele>
        <time>2020-08-14T06:46:48Z</time>
      </trkpt>
      <trkpt lat="43.82691" lon="7.25022">
        <ele>594</ele>
        <time>2020-08-14T06:46:49Z</time>
      </trkpt>
      <trkpt lat="43.8269" lon="7.25024">
        <ele>594.2</ele>
        <time>2020-08-14T06:46:50Z</time>
      </trkpt>
      <trkpt lat="43.82688" lon="7.25026">
        <ele>594.6</ele>
        <time>2020-08-14T06:46:52Z</time>
      </trkpt>
      <trkpt lat="43.82685" lon="7.25029">
        <ele>595</ele>
        <time>2020-08-14T06:46:55Z</time>
      </trkpt>
      <trkpt lat="43.8268" lon="7.25031">
        <ele>595.4</ele>
        <time>2020-08-14T06:46:59Z</time>
      </trkpt>
      <trkpt lat="43.82678" lon="7.25034">
        <ele>596</ele>
        <time>2020-08-14T06:47:02Z</time>
      </trkpt>
      <trkpt lat="43.82675" lon="7.25035">
        <ele>596.2</ele>
        <time>2020-08-14T06:47:04Z</time>
      </trkpt>
      <trkpt lat="43.82672" lon="7.25037">
        <ele>596.4</ele>
        <time>2020-08-14T06:47:07Z</time>
      </trkpt>
      <trkpt lat="43.82661" lon="7.25045">
        <ele>597.4</ele>
        <time>2020-08-14T06:47:16Z</time>
      </trkpt>
      <trkpt lat="43.82659" lon="7.25047">
        <ele>597.8</ele>
        <time>2020-08-14T06:47:18Z</time>
      </trkpt>
      <trkpt lat="43.82655" lon="7.25051">
        <ele>598.4</ele>
        <time>2020-08-14T06:47:23Z</time>
      </trkpt>
      <trkpt lat="43.82654" lon="7.25052">
        <ele>598.6</ele>
        <time>2020-08-14T06:47:24Z</time>
      </trkpt>
      <trkpt lat="43.82652" lon="7.25054">
        <ele>598.8</ele>
        <time>2020-08-14T06:47:26Z</time>
      </trkpt>
      <trkpt lat="43.82649" lon="7.25055">
        <ele>599.2</ele>
        <time>2020-08-14T06:47:29Z</time>
      </trkpt>
      <trkpt lat="43.82645" lon="7.25059">
        <ele>599.6</ele>
        <time>2020-08-14T06:47:32Z</time>
      </trkpt>
      <trkpt lat="43.82639" lon="7.25067">
        <ele>600.6</ele>
        <time>2020-08-14T06:47:39Z</time>
      </trkpt>
      <trkpt lat="43.82637" lon="7.25068">
        <ele>600.8</ele>
        <time>2020-08-14T06:47:41Z</time>
      </trkpt>
      <trkpt lat="43.82631" lon="7.25076">
        <ele>601.6</ele>
        <time>2020-08-14T06:47:47Z</time>
      </trkpt>
      <trkpt lat="43.82629" lon="7.25078">
        <ele>601.8</ele>
        <time>2020-08-14T06:47:49Z</time>
      </trkpt>
      <trkpt lat="43.82626" lon="7.25081">
        <ele>602.4</ele>
        <time>2020-08-14T06:47:53Z</time>
      </trkpt>
      <trkpt lat="43.82624" lon="7.25082">
        <ele>602.6</ele>
        <time>2020-08-14T06:47:55Z</time>
      </trkpt>
      <trkpt lat="43.82623" lon="7.25083">
        <ele>602.8</ele>
        <time>2020-08-14T06:47:56Z</time>
      </trkpt>
      <trkpt lat="43.82621" lon="7.25084">
        <ele>602.8</ele>
        <time>2020-08-14T06:47:57Z</time>
      </trkpt>
      <trkpt lat="43.82615" lon="7.25089">
        <ele>603.8</ele>
        <time>2020-08-14T06:48:03Z</time>
      </trkpt>
      <trkpt lat="43.82613" lon="7.25091">
        <ele>604</ele>
        <time>2020-08-14T06:48:05Z</time>
      </trkpt>
      <trkpt lat="43.82612" lon="7.25092">
        <ele>604</ele>
        <time>2020-08-14T06:48:06Z</time>
      </trkpt>
      <trkpt lat="43.82608" lon="7.25097">
        <ele>604.8</ele>
        <time>2020-08-14T06:48:11Z</time>
      </trkpt>
      <trkpt lat="43.82607" lon="7.25097">
        <ele>605</ele>
        <time>2020-08-14T06:48:12Z</time>
      </trkpt>
      <trkpt lat="43.82601" lon="7.25103">
        <ele>605.8</ele>
        <time>2020-08-14T06:48:18Z</time>
      </trkpt>
      <trkpt lat="43.82599" lon="7.25105">
        <ele>606.2</ele>
        <time>2020-08-14T06:48:21Z</time>
      </trkpt>
      <trkpt lat="43.8259" lon="7.25112">
        <ele>607.2</ele>
        <time>2020-08-14T06:48:29Z</time>
      </trkpt>
      <trkpt lat="43.82587" lon="7.25114">
        <ele>607.6</ele>
        <time>2020-08-14T06:48:32Z</time>
      </trkpt>
      <trkpt lat="43.82581" lon="7.25117">
        <ele>608.2</ele>
        <time>2020-08-14T06:48:36Z</time>
      </trkpt>
      <trkpt lat="43.82578" lon="7.25121">
        <ele>608.6</ele>
        <time>2020-08-14T06:48:40Z</time>
      </trkpt>
      <trkpt lat="43.82576" lon="7.25123">
        <ele>608.8</ele>
        <time>2020-08-14T06:48:42Z</time>
      </trkpt>
      <trkpt lat="43.82573" lon="7.25127">
        <ele>609.2</ele>
        <time>2020-08-14T06:48:46Z</time>
      </trkpt>
      <trkpt lat="43.82569" lon="7.25132">
        <ele>610.4</ele>
        <time>2020-08-14T06:48:52Z</time>
      </trkpt>
      <trkpt lat="43.82568" lon="7.25133">
        <ele>610.4</ele>
        <time>2020-08-14T06:48:53Z</time>
      </trkpt>
      <trkpt lat="43.82561" lon="7.2514">
        <ele>611.4</ele>
        <time>2020-08-14T06:49:01Z</time>
      </trkpt>
      <trkpt lat="43.82557" lon="7.25144">
        <ele>612.4</ele>
        <time>2020-08-14T06:49:07Z</time>
      </trkpt>
      <trkpt lat="43.82556" lon="7.25145">
        <ele>612.4</ele>
        <time>2020-08-14T06:49:08Z</time>
      </trkpt>
      <trkpt lat="43.82555" lon="7.25146">
        <ele>612.6</ele>
        <time>2020-08-14T06:49:09Z</time>
      </trkpt>
      <trkpt lat="43.82553" lon="7.25147">
        <ele>612.6</ele>
        <time>2020-08-14T06:49:10Z</time>
      </trkpt>
      <trkpt lat="43.82548" lon="7.2515">
        <ele>613.4</ele>
        <time>2020-08-14T06:49:15Z</time>
      </trkpt>
      <trkpt lat="43.82543" lon="7.25154">
        <ele>614</ele>
        <time>2020-08-14T06:49:20Z</time>
      </trkpt>
      <trkpt lat="43.82536" lon="7.2516">
        <ele>614.6</ele>
        <time>2020-08-14T06:49:25Z</time>
      </trkpt>
      <trkpt lat="43.82533" lon="7.25163">
        <ele>615</ele>
        <time>2020-08-14T06:49:29Z</time>
      </trkpt>
      <trkpt lat="43.82527" lon="7.25165">
        <ele>615.6</ele>
        <time>2020-08-14T06:49:33Z</time>
      </trkpt>
      <trkpt lat="43.82523" lon="7.25168">
        <ele>616</ele>
        <time>2020-08-14T06:49:37Z</time>
      </trkpt>
      <trkpt lat="43.82522" lon="7.25169">
        <ele>616.2</ele>
        <time>2020-08-14T06:49:38Z</time>
      </trkpt>
      <trkpt lat="43.82519" lon="7.2517">
        <ele>616.6</ele>
        <time>2020-08-14T06:49:40Z</time>
      </trkpt>
      <trkpt lat="43.82516" lon="7.2517">
        <ele>617</ele>
        <time>2020-08-14T06:49:43Z</time>
      </trkpt>
      <trkpt lat="43.82513" lon="7.25173">
        <ele>617.2</ele>
        <time>2020-08-14T06:49:45Z</time>
      </trkpt>
      <trkpt lat="43.8251" lon="7.25176">
        <ele>617.8</ele>
        <time>2020-08-14T06:49:49Z</time>
      </trkpt>
      <trkpt lat="43.82505" lon="7.25176">
        <ele>618.2</ele>
        <time>2020-08-14T06:49:54Z</time>
      </trkpt>
      <trkpt lat="43.82501" lon="7.25181">
        <ele>618.8</ele>
        <time>2020-08-14T06:49:58Z</time>
      </trkpt>
      <trkpt lat="43.82499" lon="7.25183">
        <ele>619</ele>
        <time>2020-08-14T06:50:00Z</time>
      </trkpt>
      <trkpt lat="43.82497" lon="7.25185">
        <ele>619.2</ele>
        <time>2020-08-14T06:50:02Z</time>
      </trkpt>
      <trkpt lat="43.82495" lon="7.25188">
        <ele>619.4</ele>
        <time>2020-08-14T06:50:04Z</time>
      </trkpt>
      <trkpt lat="43.82493" lon="7.2519">
        <ele>619.8</ele>
        <time>2020-08-14T06:50:06Z</time>
      </trkpt>
      <trkpt lat="43.82491" lon="7.25192">
        <ele>620</ele>
        <time>2020-08-14T06:50:09Z</time>
      </trkpt>
      <trkpt lat="43.82484" lon="7.25196">
        <ele>620.8</ele>
        <time>2020-08-14T06:50:15Z</time>
      </trkpt>
      <trkpt lat="43.82481" lon="7.25199">
        <ele>621.2</ele>
        <time>2020-08-14T06:50:18Z</time>
      </trkpt>
      <trkpt lat="43.82474" lon="7.25204">
        <ele>622</ele>
        <time>2020-08-14T06:50:24Z</time>
      </trkpt>
      <trkpt lat="43.82469" lon="7.25206">
        <ele>622.6</ele>
        <time>2020-08-14T06:50:28Z</time>
      </trkpt>
      <trkpt lat="43.82465" lon="7.25208">
        <ele>623</ele>
        <time>2020-08-14T06:50:31Z</time>
      </trkpt>
      <trkpt lat="43.82458" lon="7.25213">
        <ele>623.4</ele>
        <time>2020-08-14T06:50:37Z</time>
      </trkpt>
      <trkpt lat="43.82456" lon="7.25214">
        <ele>623.4</ele>
        <time>2020-08-14T06:50:39Z</time>
      </trkpt>
      <trkpt lat="43.82453" lon="7.25214">
        <ele>623.8</ele>
        <time>2020-08-14T06:50:42Z</time>
      </trkpt>
      <trkpt lat="43.8245" lon="7.25216">
        <ele>624</ele>
        <time>2020-08-14T06:50:44Z</time>
      </trkpt>
      <trkpt lat="43.82445" lon="7.25217">
        <ele>624.4</ele>
        <time>2020-08-14T06:50:48Z</time>
      </trkpt>
      <trkpt lat="43.82439" lon="7.2522">
        <ele>624.6</ele>
        <time>2020-08-14T06:50:52Z</time>
      </trkpt>
      <trkpt lat="43.82436" lon="7.25221">
        <ele>625</ele>
        <time>2020-08-14T06:50:54Z</time>
      </trkpt>
      <trkpt lat="43.82435" lon="7.25222">
        <ele>625.2</ele>
        <time>2020-08-14T06:50:55Z</time>
      </trkpt>
      <trkpt lat="43.82434" lon="7.25222">
        <ele>625.2</ele>
        <time>2020-08-14T06:50:56Z</time>
      </trkpt>
      <trkpt lat="43.82432" lon="7.25223">
        <ele>625.4</ele>
        <time>2020-08-14T06:50:58Z</time>
      </trkpt>
      <trkpt lat="43.82431" lon="7.25224">
        <ele>625.6</ele>
        <time>2020-08-14T06:50:59Z</time>
      </trkpt>
      <trkpt lat="43.82427" lon="7.25227">
        <ele>626</ele>
        <time>2020-08-14T06:51:02Z</time>
      </trkpt>
      <trkpt lat="43.82423" lon="7.25229">
        <ele>626.4</ele>
        <time>2020-08-14T06:51:05Z</time>
      </trkpt>
      <trkpt lat="43.82414" lon="7.25235">
        <ele>626.8</ele>
        <time>2020-08-14T06:51:13Z</time>
      </trkpt>
      <trkpt lat="43.82412" lon="7.25237">
        <ele>627</ele>
        <time>2020-08-14T06:51:15Z</time>
      </trkpt>
      <trkpt lat="43.82408" lon="7.2524">
        <ele>627.4</ele>
        <time>2020-08-14T06:51:19Z</time>
      </trkpt>
      <trkpt lat="43.82402" lon="7.25244">
        <ele>628</ele>
        <time>2020-08-14T06:51:24Z</time>
      </trkpt>
      <trkpt lat="43.824" lon="7.25245">
        <ele>628</ele>
        <time>2020-08-14T06:51:25Z</time>
      </trkpt>
      <trkpt lat="43.82398" lon="7.25247">
        <ele>628.2</ele>
        <time>2020-08-14T06:51:27Z</time>
      </trkpt>
      <trkpt lat="43.82396" lon="7.25249">
        <ele>628.2</ele>
        <time>2020-08-14T06:51:29Z</time>
      </trkpt>
      <trkpt lat="43.82388" lon="7.25252">
        <ele>628.2</ele>
        <time>2020-08-14T06:51:34Z</time>
      </trkpt>
      <trkpt lat="43.82379" lon="7.25258">
        <ele>628.2</ele>
        <time>2020-08-14T06:51:42Z</time>
      </trkpt>
      <trkpt lat="43.82369" lon="7.25266">
        <ele>628.4</ele>
        <time>2020-08-14T06:51:50Z</time>
      </trkpt>
      <trkpt lat="43.82351" lon="7.25274">
        <ele>628.2</ele>
        <time>2020-08-14T06:52:04Z</time>
      </trkpt>
      <trkpt lat="43.8235" lon="7.25275">
        <ele>628.2</ele>
        <time>2020-08-14T06:52:05Z</time>
      </trkpt>
      <trkpt lat="43.82334" lon="7.25284">
        <ele>627.8</ele>
        <time>2020-08-14T06:52:18Z</time>
      </trkpt>
      <trkpt lat="43.82319" lon="7.25291">
        <ele>627.8</ele>
        <time>2020-08-14T06:52:29Z</time>
      </trkpt>
      <trkpt lat="43.82315" lon="7.25295">
        <ele>627.6</ele>
        <time>2020-08-14T06:52:33Z</time>
      </trkpt>
      <trkpt lat="43.82308" lon="7.25299">
        <ele>627.4</ele>
        <time>2020-08-14T06:52:38Z</time>
      </trkpt>
      <trkpt lat="43.82303" lon="7.25304">
        <ele>627.2</ele>
        <time>2020-08-14T06:52:43Z</time>
      </trkpt>
      <trkpt lat="43.82298" lon="7.25307">
        <ele>627.2</ele>
        <time>2020-08-14T06:52:47Z</time>
      </trkpt>
      <trkpt lat="43.82296" lon="7.25309">
        <ele>627</ele>
        <time>2020-08-14T06:52:49Z</time>
      </trkpt>
      <trkpt lat="43.82282" lon="7.25322">
        <ele>626.8</ele>
        <time>2020-08-14T06:53:02Z</time>
      </trkpt>
      <trkpt lat="43.82281" lon="7.25324">
        <ele>626.8</ele>
        <time>2020-08-14T06:53:03Z</time>
      </trkpt>
      <trkpt lat="43.82276" lon="7.25327">
        <ele>626.6</ele>
        <time>2020-08-14T06:53:07Z</time>
      </trkpt>
      <trkpt lat="43.82273" lon="7.25331">
        <ele>626.6</ele>
        <time>2020-08-14T06:53:10Z</time>
      </trkpt>
      <trkpt lat="43.82263" lon="7.25342">
        <ele>626.6</ele>
        <time>2020-08-14T06:53:20Z</time>
      </trkpt>
      <trkpt lat="43.82259" lon="7.25346">
        <ele>626.4</ele>
        <time>2020-08-14T06:53:23Z</time>
      </trkpt>
      <trkpt lat="43.82254" lon="7.25352">
        <ele>626</ele>
        <time>2020-08-14T06:53:28Z</time>
      </trkpt>
      <trkpt lat="43.82253" lon="7.25353">
        <ele>626</ele>
        <time>2020-08-14T06:53:29Z</time>
      </trkpt>
      <trkpt lat="43.8225" lon="7.25357">
        <ele>626</ele>
        <time>2020-08-14T06:53:32Z</time>
      </trkpt>
      <trkpt lat="43.82245" lon="7.25363">
        <ele>626</ele>
        <time>2020-08-14T06:53:36Z</time>
      </trkpt>
      <trkpt lat="43.82242" lon="7.25368">
        <ele>625.6</ele>
        <time>2020-08-14T06:53:40Z</time>
      </trkpt>
      <trkpt lat="43.82232" lon="7.25379">
        <ele>625.4</ele>
        <time>2020-08-14T06:53:50Z</time>
      </trkpt>
      <trkpt lat="43.82222" lon="7.25388">
        <ele>625.4</ele>
        <time>2020-08-14T06:53:59Z</time>
      </trkpt>
      <trkpt lat="43.82216" lon="7.25394">
        <ele>625.2</ele>
        <time>2020-08-14T06:54:04Z</time>
      </trkpt>
      <trkpt lat="43.82214" lon="7.25396">
        <ele>625</ele>
        <time>2020-08-14T06:54:06Z</time>
      </trkpt>
      <trkpt lat="43.82208" lon="7.25401">
        <ele>625</ele>
        <time>2020-08-14T06:54:11Z</time>
      </trkpt>
      <trkpt lat="43.82203" lon="7.25403">
        <ele>624.8</ele>
        <time>2020-08-14T06:54:15Z</time>
      </trkpt>
      <trkpt lat="43.82201" lon="7.25404">
        <ele>624.8</ele>
        <time>2020-08-14T06:54:17Z</time>
      </trkpt>
      <trkpt lat="43.82191" lon="7.25409">
        <ele>624.8</ele>
        <time>2020-08-14T06:54:23Z</time>
      </trkpt>
      <trkpt lat="43.82188" lon="7.2541">
        <ele>624.8</ele>
        <time>2020-08-14T06:54:25Z</time>
      </trkpt>
      <trkpt lat="43.82182" lon="7.25414">
        <ele>624.8</ele>
        <time>2020-08-14T06:54:30Z</time>
      </trkpt>
      <trkpt lat="43.8217" lon="7.25424">
        <ele>624.6</ele>
        <time>2020-08-14T06:54:40Z</time>
      </trkpt>
      <trkpt lat="43.82163" lon="7.25432">
        <ele>624.4</ele>
        <time>2020-08-14T06:54:47Z</time>
      </trkpt>
      <trkpt lat="43.82155" lon="7.2544">
        <ele>624</ele>
        <time>2020-08-14T06:54:53Z</time>
      </trkpt>
      <trkpt lat="43.8215" lon="7.25446">
        <ele>624</ele>
        <time>2020-08-14T06:54:57Z</time>
      </trkpt>
      <trkpt lat="43.82146" lon="7.2545">
        <ele>624</ele>
        <time>2020-08-14T06:55:01Z</time>
      </trkpt>
      <trkpt lat="43.82144" lon="7.25452">
        <ele>623.8</ele>
        <time>2020-08-14T06:55:03Z</time>
      </trkpt>
      <trkpt lat="43.82141" lon="7.25454">
        <ele>623.6</ele>
        <time>2020-08-14T06:55:05Z</time>
      </trkpt>
      <trkpt lat="43.82138" lon="7.25456">
        <ele>623.6</ele>
        <time>2020-08-14T06:55:07Z</time>
      </trkpt>
      <trkpt lat="43.8213" lon="7.25466">
        <ele>623.6</ele>
        <time>2020-08-14T06:55:16Z</time>
      </trkpt>
      <trkpt lat="43.82119" lon="7.25477">
        <ele>623.6</ele>
        <time>2020-08-14T06:55:25Z</time>
      </trkpt>
      <trkpt lat="43.82111" lon="7.25485">
        <ele>623.8</ele>
        <time>2020-08-14T06:55:33Z</time>
      </trkpt>
      <trkpt lat="43.821" lon="7.25491">
        <ele>624</ele>
        <time>2020-08-14T06:55:42Z</time>
      </trkpt>
      <trkpt lat="43.82093" lon="7.25497">
        <ele>624.2</ele>
        <time>2020-08-14T06:55:50Z</time>
      </trkpt>
      <trkpt lat="43.82089" lon="7.25501">
        <ele>624.4</ele>
        <time>2020-08-14T06:55:54Z</time>
      </trkpt>
      <trkpt lat="43.82088" lon="7.25502">
        <ele>624.6</ele>
        <time>2020-08-14T06:55:55Z</time>
      </trkpt>
      <trkpt lat="43.82083" lon="7.25504">
        <ele>624.6</ele>
        <time>2020-08-14T06:55:58Z</time>
      </trkpt>
      <trkpt lat="43.82079" lon="7.25509">
        <ele>624.8</ele>
        <time>2020-08-14T06:56:02Z</time>
      </trkpt>
      <trkpt lat="43.82078" lon="7.2551">
        <ele>624.8</ele>
        <time>2020-08-14T06:56:03Z</time>
      </trkpt>
      <trkpt lat="43.82075" lon="7.25512">
        <ele>624.8</ele>
        <time>2020-08-14T06:56:06Z</time>
      </trkpt>
      <trkpt lat="43.82069" lon="7.25517">
        <ele>625</ele>
        <time>2020-08-14T06:56:10Z</time>
      </trkpt>
      <trkpt lat="43.82058" lon="7.25525">
        <ele>625.4</ele>
        <time>2020-08-14T06:56:19Z</time>
      </trkpt>
      <trkpt lat="43.82056" lon="7.25526">
        <ele>625.4</ele>
        <time>2020-08-14T06:56:20Z</time>
      </trkpt>
      <trkpt lat="43.8205" lon="7.2553">
        <ele>625.6</ele>
        <time>2020-08-14T06:56:25Z</time>
      </trkpt>
      <trkpt lat="43.82049" lon="7.25531">
        <ele>625.6</ele>
        <time>2020-08-14T06:56:26Z</time>
      </trkpt>
      <trkpt lat="43.82046" lon="7.25532">
        <ele>625.8</ele>
        <time>2020-08-14T06:56:29Z</time>
      </trkpt>
      <trkpt lat="43.82044" lon="7.25532">
        <ele>625.8</ele>
        <time>2020-08-14T06:56:30Z</time>
      </trkpt>
      <trkpt lat="43.82035" lon="7.25537">
        <ele>626</ele>
        <time>2020-08-14T06:56:36Z</time>
      </trkpt>
      <trkpt lat="43.82033" lon="7.25539">
        <ele>626</ele>
        <time>2020-08-14T06:56:38Z</time>
      </trkpt>
      <trkpt lat="43.8202" lon="7.25548">
        <ele>626.4</ele>
        <time>2020-08-14T06:56:47Z</time>
      </trkpt>
      <trkpt lat="43.8202" lon="7.25549">
        <ele>626.6</ele>
        <time>2020-08-14T06:56:48Z</time>
      </trkpt>
      <trkpt lat="43.82012" lon="7.25559">
        <ele>627</ele>
        <time>2020-08-14T06:56:56Z</time>
      </trkpt>
      <trkpt lat="43.8201" lon="7.25561">
        <ele>627.2</ele>
        <time>2020-08-14T06:56:58Z</time>
      </trkpt>
      <trkpt lat="43.82004" lon="7.25569">
        <ele>627.4</ele>
        <time>2020-08-14T06:57:05Z</time>
      </trkpt>
      <trkpt lat="43.81996" lon="7.25573">
        <ele>627.6</ele>
        <time>2020-08-14T06:57:11Z</time>
      </trkpt>
      <trkpt lat="43.81991" lon="7.25573">
        <ele>627.4</ele>
        <time>2020-08-14T06:57:14Z</time>
      </trkpt>
      <trkpt lat="43.81985" lon="7.25573">
        <ele>626.8</ele>
        <time>2020-08-14T06:57:18Z</time>
      </trkpt>
      <trkpt lat="43.81982" lon="7.25573">
        <ele>626.4</ele>
        <time>2020-08-14T06:57:20Z</time>
      </trkpt>
      <trkpt lat="43.8198" lon="7.25572">
        <ele>626.2</ele>
        <time>2020-08-14T06:57:21Z</time>
      </trkpt>
      <trkpt lat="43.81979" lon="7.25571">
        <ele>626</ele>
        <time>2020-08-14T06:57:22Z</time>
      </trkpt>
      <trkpt lat="43.81978" lon="7.2557">
        <ele>626</ele>
        <time>2020-08-14T06:57:23Z</time>
      </trkpt>
      <trkpt lat="43.81977" lon="7.25568">
        <ele>625.8</ele>
        <time>2020-08-14T06:57:24Z</time>
      </trkpt>
      <trkpt lat="43.81972" lon="7.25562">
        <ele>625.2</ele>
        <time>2020-08-14T06:57:28Z</time>
      </trkpt>
      <trkpt lat="43.81971" lon="7.25561">
        <ele>625</ele>
        <time>2020-08-14T06:57:29Z</time>
      </trkpt>
      <trkpt lat="43.8197" lon="7.25559">
        <ele>625</ele>
        <time>2020-08-14T06:57:31Z</time>
      </trkpt>
      <trkpt lat="43.81963" lon="7.25554">
        <ele>624.8</ele>
        <time>2020-08-14T06:57:36Z</time>
      </trkpt>
      <trkpt lat="43.81957" lon="7.25549">
        <ele>624</ele>
        <time>2020-08-14T06:57:42Z</time>
      </trkpt>
      <trkpt lat="43.81956" lon="7.25547">
        <ele>623.8</ele>
        <time>2020-08-14T06:57:44Z</time>
      </trkpt>
      <trkpt lat="43.81954" lon="7.25546">
        <ele>623.6</ele>
        <time>2020-08-14T06:57:46Z</time>
      </trkpt>
      <trkpt lat="43.81953" lon="7.25546">
        <ele>623.6</ele>
        <time>2020-08-14T06:57:47Z</time>
      </trkpt>
      <trkpt lat="43.81948" lon="7.25544">
        <ele>623.6</ele>
        <time>2020-08-14T06:57:51Z</time>
      </trkpt>
      <trkpt lat="43.81944" lon="7.25542">
        <ele>624.2</ele>
        <time>2020-08-14T06:57:56Z</time>
      </trkpt>
      <trkpt lat="43.81942" lon="7.25541">
        <ele>624.4</ele>
        <time>2020-08-14T06:57:58Z</time>
      </trkpt>
      <trkpt lat="43.81941" lon="7.2554">
        <ele>624.6</ele>
        <time>2020-08-14T06:58:00Z</time>
      </trkpt>
      <trkpt lat="43.81939" lon="7.2554">
        <ele>625</ele>
        <time>2020-08-14T06:58:02Z</time>
      </trkpt>
      <trkpt lat="43.81938" lon="7.25539">
        <ele>625.2</ele>
        <time>2020-08-14T06:58:04Z</time>
      </trkpt>
      <trkpt lat="43.81934" lon="7.25537">
        <ele>626.2</ele>
        <time>2020-08-14T06:58:08Z</time>
      </trkpt>
      <trkpt lat="43.81933" lon="7.25536">
        <ele>626.2</ele>
        <time>2020-08-14T06:58:09Z</time>
      </trkpt>
      <trkpt lat="43.81932" lon="7.25536">
        <ele>626.4</ele>
        <time>2020-08-14T06:58:10Z</time>
      </trkpt>
      <trkpt lat="43.81929" lon="7.25535">
        <ele>627</ele>
        <time>2020-08-14T06:58:13Z</time>
      </trkpt>
      <trkpt lat="43.81929" lon="7.25535">
        <ele>627.2</ele>
        <time>2020-08-14T06:58:14Z</time>
      </trkpt>
      <trkpt lat="43.81928" lon="7.25535">
        <ele>627.2</ele>
        <time>2020-08-14T06:58:15Z</time>
      </trkpt>
      <trkpt lat="43.81927" lon="7.25535">
        <ele>627.4</ele>
        <time>2020-08-14T06:58:16Z</time>
      </trkpt>
      <trkpt lat="43.81924" lon="7.25534">
        <ele>627.6</ele>
        <time>2020-08-14T06:58:18Z</time>
      </trkpt>
      <trkpt lat="43.81923" lon="7.25531">
        <ele>627.8</ele>
        <time>2020-08-14T06:58:19Z</time>
      </trkpt>
      <trkpt lat="43.81921" lon="7.25526">
        <ele>628</ele>
        <time>2020-08-14T06:58:22Z</time>
      </trkpt>
      <trkpt lat="43.8192" lon="7.25525">
        <ele>628.2</ele>
        <time>2020-08-14T06:58:23Z</time>
      </trkpt>
      <trkpt lat="43.81917" lon="7.25523">
        <ele>629</ele>
        <time>2020-08-14T06:58:27Z</time>
      </trkpt>
      <trkpt lat="43.81915" lon="7.25522">
        <ele>629.4</ele>
        <time>2020-08-14T06:58:29Z</time>
      </trkpt>
      <trkpt lat="43.81911" lon="7.25519">
        <ele>629.8</ele>
        <time>2020-08-14T06:58:32Z</time>
      </trkpt>
      <trkpt lat="43.8191" lon="7.25519">
        <ele>630</ele>
        <time>2020-08-14T06:58:33Z</time>
      </trkpt>
      <trkpt lat="43.81905" lon="7.25519">
        <ele>630.4</ele>
        <time>2020-08-14T06:58:38Z</time>
      </trkpt>
      <trkpt lat="43.81904" lon="7.25518">
        <ele>630.6</ele>
        <time>2020-08-14T06:58:39Z</time>
      </trkpt>
      <trkpt lat="43.819" lon="7.25513">
        <ele>631.2</ele>
        <time>2020-08-14T06:58:45Z</time>
      </trkpt>
      <trkpt lat="43.81898" lon="7.25511">
        <ele>631.4</ele>
        <time>2020-08-14T06:58:48Z</time>
      </trkpt>
      <trkpt lat="43.81898" lon="7.2551">
        <ele>631.4</ele>
        <time>2020-08-14T06:58:49Z</time>
      </trkpt>
      <trkpt lat="43.81897" lon="7.2551">
        <ele>631.4</ele>
        <time>2020-08-14T06:58:50Z</time>
      </trkpt>
      <trkpt lat="43.81893" lon="7.2551">
        <ele>631.4</ele>
        <time>2020-08-14T06:58:55Z</time>
      </trkpt>
      <trkpt lat="43.81887" lon="7.25506">
        <ele>631.4</ele>
        <time>2020-08-14T06:58:59Z</time>
      </trkpt>
      <trkpt lat="43.81885" lon="7.25506">
        <ele>631.2</ele>
        <time>2020-08-14T06:59:00Z</time>
      </trkpt>
      <trkpt lat="43.81881" lon="7.25504">
        <ele>631.2</ele>
        <time>2020-08-14T06:59:03Z</time>
      </trkpt>
      <trkpt lat="43.81878" lon="7.25503">
        <ele>631.4</ele>
        <time>2020-08-14T06:59:05Z</time>
      </trkpt>
      <trkpt lat="43.81876" lon="7.25504">
        <ele>631.6</ele>
        <time>2020-08-14T06:59:06Z</time>
      </trkpt>
      <trkpt lat="43.81873" lon="7.25503">
        <ele>631.6</ele>
        <time>2020-08-14T06:59:08Z</time>
      </trkpt>
      <trkpt lat="43.8187" lon="7.255">
        <ele>631.8</ele>
        <time>2020-08-14T06:59:10Z</time>
      </trkpt>
      <trkpt lat="43.81869" lon="7.25499">
        <ele>632</ele>
        <time>2020-08-14T06:59:11Z</time>
      </trkpt>
      <trkpt lat="43.81868" lon="7.25497">
        <ele>632.2</ele>
        <time>2020-08-14T06:59:13Z</time>
      </trkpt>
      <trkpt lat="43.81865" lon="7.25496">
        <ele>632.6</ele>
        <time>2020-08-14T06:59:16Z</time>
      </trkpt>
      <trkpt lat="43.81864" lon="7.25497">
        <ele>632.6</ele>
        <time>2020-08-14T06:59:17Z</time>
      </trkpt>
      <trkpt lat="43.81862" lon="7.25497">
        <ele>633</ele>
        <time>2020-08-14T06:59:19Z</time>
      </trkpt>
      <trkpt lat="43.8186" lon="7.25497">
        <ele>633.2</ele>
        <time>2020-08-14T06:59:21Z</time>
      </trkpt>
      <trkpt lat="43.81853" lon="7.25493">
        <ele>633.4</ele>
        <time>2020-08-14T06:59:27Z</time>
      </trkpt>
      <trkpt lat="43.81851" lon="7.25494">
        <ele>633.2</ele>
        <time>2020-08-14T06:59:29Z</time>
      </trkpt>
      <trkpt lat="43.81849" lon="7.25495">
        <ele>633</ele>
        <time>2020-08-14T06:59:31Z</time>
      </trkpt>
      <trkpt lat="43.81847" lon="7.25497">
        <ele>633</ele>
        <time>2020-08-14T06:59:34Z</time>
      </trkpt>
      <trkpt lat="43.81845" lon="7.25496">
        <ele>633</ele>
        <time>2020-08-14T06:59:36Z</time>
      </trkpt>
      <trkpt lat="43.81842" lon="7.25494">
        <ele>633.4</ele>
        <time>2020-08-14T06:59:39Z</time>
      </trkpt>
      <trkpt lat="43.81841" lon="7.25493">
        <ele>633.6</ele>
        <time>2020-08-14T06:59:40Z</time>
      </trkpt>
      <trkpt lat="43.81837" lon="7.25491">
        <ele>634.2</ele>
        <time>2020-08-14T06:59:44Z</time>
      </trkpt>
      <trkpt lat="43.81835" lon="7.2549">
        <ele>634.4</ele>
        <time>2020-08-14T06:59:46Z</time>
      </trkpt>
      <trkpt lat="43.81835" lon="7.25489">
        <ele>634.8</ele>
        <time>2020-08-14T06:59:47Z</time>
      </trkpt>
      <trkpt lat="43.81834" lon="7.25488">
        <ele>635</ele>
        <time>2020-08-14T06:59:48Z</time>
      </trkpt>
      <trkpt lat="43.81834" lon="7.25487">
        <ele>635</ele>
        <time>2020-08-14T06:59:49Z</time>
      </trkpt>
      <trkpt lat="43.81833" lon="7.25487">
        <ele>635.2</ele>
        <time>2020-08-14T06:59:50Z</time>
      </trkpt>
      <trkpt lat="43.81832" lon="7.25486">
        <ele>635.6</ele>
        <time>2020-08-14T06:59:52Z</time>
      </trkpt>
      <trkpt lat="43.81831" lon="7.25486">
        <ele>635.8</ele>
        <time>2020-08-14T06:59:53Z</time>
      </trkpt>
      <trkpt lat="43.81831" lon="7.25486">
        <ele>636.2</ele>
        <time>2020-08-14T06:59:54Z</time>
      </trkpt>
      <trkpt lat="43.8183" lon="7.25488">
        <ele>636.4</ele>
        <time>2020-08-14T06:59:55Z</time>
      </trkpt>
      <trkpt lat="43.81829" lon="7.25488">
        <ele>636.8</ele>
        <time>2020-08-14T06:59:57Z</time>
      </trkpt>
      <trkpt lat="43.81826" lon="7.25488">
        <ele>637</ele>
        <time>2020-08-14T07:00:00Z</time>
      </trkpt>
      <trkpt lat="43.81823" lon="7.25487">
        <ele>637.4</ele>
        <time>2020-08-14T07:00:03Z</time>
      </trkpt>
      <trkpt lat="43.81822" lon="7.25487">
        <ele>637.6</ele>
        <time>2020-08-14T07:00:05Z</time>
      </trkpt>
      <trkpt lat="43.81821" lon="7.25485">
        <ele>638</ele>
        <time>2020-08-14T07:00:07Z</time>
      </trkpt>
      <trkpt lat="43.81819" lon="7.25486">
        <ele>638.8</ele>
        <time>2020-08-14T07:00:10Z</time>
      </trkpt>
      <trkpt lat="43.81818" lon="7.25486">
        <ele>639</ele>
        <time>2020-08-14T07:00:12Z</time>
      </trkpt>
      <trkpt lat="43.81817" lon="7.25484">
        <ele>639.2</ele>
        <time>2020-08-14T07:00:13Z</time>
      </trkpt>
      <trkpt lat="43.81815" lon="7.2548">
        <ele>639.8</ele>
        <time>2020-08-14T07:00:16Z</time>
      </trkpt>
      <trkpt lat="43.81812" lon="7.25479">
        <ele>640.2</ele>
        <time>2020-08-14T07:00:18Z</time>
      </trkpt>
      <trkpt lat="43.81807" lon="7.25479">
        <ele>640.8</ele>
        <time>2020-08-14T07:00:21Z</time>
      </trkpt>
      <trkpt lat="43.81804" lon="7.25476">
        <ele>641.4</ele>
        <time>2020-08-14T07:00:24Z</time>
      </trkpt>
      <trkpt lat="43.81802" lon="7.25475">
        <ele>641.6</ele>
        <time>2020-08-14T07:00:26Z</time>
      </trkpt>
      <trkpt lat="43.81797" lon="7.25473">
        <ele>642.4</ele>
        <time>2020-08-14T07:00:31Z</time>
      </trkpt>
      <trkpt lat="43.81797" lon="7.25472">
        <ele>643.2</ele>
        <time>2020-08-14T07:00:35Z</time>
      </trkpt>
      <trkpt lat="43.81797" lon="7.25471">
        <ele>643.4</ele>
        <time>2020-08-14T07:00:36Z</time>
      </trkpt>
      <trkpt lat="43.81796" lon="7.2547">
        <ele>644.2</ele>
        <time>2020-08-14T07:00:40Z</time>
      </trkpt>
      <trkpt lat="43.81795" lon="7.25469">
        <ele>644.6</ele>
        <time>2020-08-14T07:00:42Z</time>
      </trkpt>
      <trkpt lat="43.81792" lon="7.25469">
        <ele>645.8</ele>
        <time>2020-08-14T07:00:47Z</time>
      </trkpt>
      <trkpt lat="43.81791" lon="7.25465">
        <ele>646.6</ele>
        <time>2020-08-14T07:00:53Z</time>
      </trkpt>
      <trkpt lat="43.8179" lon="7.25463">
        <ele>647</ele>
        <time>2020-08-14T07:00:55Z</time>
      </trkpt>
      <trkpt lat="43.81787" lon="7.25462">
        <ele>647.4</ele>
        <time>2020-08-14T07:00:59Z</time>
      </trkpt>
      <trkpt lat="43.81782" lon="7.2546">
        <ele>647.6</ele>
        <time>2020-08-14T07:01:04Z</time>
      </trkpt>
      <trkpt lat="43.81781" lon="7.25459">
        <ele>648</ele>
        <time>2020-08-14T07:01:07Z</time>
      </trkpt>
      <trkpt lat="43.81777" lon="7.25462">
        <ele>648.6</ele>
        <time>2020-08-14T07:01:10Z</time>
      </trkpt>
      <trkpt lat="43.81775" lon="7.25461">
        <ele>648.8</ele>
        <time>2020-08-14T07:01:12Z</time>
      </trkpt>
      <trkpt lat="43.81773" lon="7.2546">
        <ele>649</ele>
        <time>2020-08-14T07:01:13Z</time>
      </trkpt>
      <trkpt lat="43.81773" lon="7.25458">
        <ele>649.2</ele>
        <time>2020-08-14T07:01:14Z</time>
      </trkpt>
      <trkpt lat="43.81773" lon="7.25457">
        <ele>649.4</ele>
        <time>2020-08-14T07:01:15Z</time>
      </trkpt>
      <trkpt lat="43.81769" lon="7.25457">
        <ele>650</ele>
        <time>2020-08-14T07:01:19Z</time>
      </trkpt>
      <trkpt lat="43.81768" lon="7.25456">
        <ele>650.6</ele>
        <time>2020-08-14T07:01:21Z</time>
      </trkpt>
      <trkpt lat="43.81768" lon="7.25456">
        <ele>650.8</ele>
        <time>2020-08-14T07:01:23Z</time>
      </trkpt>
      <trkpt lat="43.81768" lon="7.25455">
        <ele>651.2</ele>
        <time>2020-08-14T07:01:25Z</time>
      </trkpt>
      <trkpt lat="43.81768" lon="7.25456">
        <ele>651.2</ele>
        <time>2020-08-14T07:01:26Z</time>
      </trkpt>
      <trkpt lat="43.81768" lon="7.25457">
        <ele>651.4</ele>
        <time>2020-08-14T07:01:28Z</time>
      </trkpt>
      <trkpt lat="43.81768" lon="7.2546">
        <ele>652.2</ele>
        <time>2020-08-14T07:01:31Z</time>
      </trkpt>
      <trkpt lat="43.81768" lon="7.2546">
        <ele>653</ele>
        <time>2020-08-14T07:01:34Z</time>
      </trkpt>
      <trkpt lat="43.81768" lon="7.25461">
        <ele>653.4</ele>
        <time>2020-08-14T07:01:36Z</time>
      </trkpt>
      <trkpt lat="43.81767" lon="7.25461">
        <ele>653.8</ele>
        <time>2020-08-14T07:01:38Z</time>
      </trkpt>
      <trkpt lat="43.81767" lon="7.25462">
        <ele>653.8</ele>
        <time>2020-08-14T07:01:39Z</time>
      </trkpt>
      <trkpt lat="43.81767" lon="7.25464">
        <ele>654.2</ele>
        <time>2020-08-14T07:01:41Z</time>
      </trkpt>
      <trkpt lat="43.81766" lon="7.25464">
        <ele>654.4</ele>
        <time>2020-08-14T07:01:42Z</time>
      </trkpt>
      <trkpt lat="43.81763" lon="7.25462">
        <ele>655.4</ele>
        <time>2020-08-14T07:01:47Z</time>
      </trkpt>
      <trkpt lat="43.81762" lon="7.25462">
        <ele>655.8</ele>
        <time>2020-08-14T07:01:49Z</time>
      </trkpt>
      <trkpt lat="43.8176" lon="7.25462">
        <ele>656.6</ele>
        <time>2020-08-14T07:01:52Z</time>
      </trkpt>
      <trkpt lat="43.81758" lon="7.25462">
        <ele>657</ele>
        <time>2020-08-14T07:01:54Z</time>
      </trkpt>
      <trkpt lat="43.81755" lon="7.25459">
        <ele>657.2</ele>
        <time>2020-08-14T07:01:56Z</time>
      </trkpt>
      <trkpt lat="43.81751" lon="7.25455">
        <ele>657.6</ele>
        <time>2020-08-14T07:02:00Z</time>
      </trkpt>
      <trkpt lat="43.8175" lon="7.25454">
        <ele>657.8</ele>
        <time>2020-08-14T07:02:01Z</time>
      </trkpt>
      <trkpt lat="43.81747" lon="7.25453">
        <ele>658.4</ele>
        <time>2020-08-14T07:02:04Z</time>
      </trkpt>
      <trkpt lat="43.81744" lon="7.25453">
        <ele>658.6</ele>
        <time>2020-08-14T07:02:06Z</time>
      </trkpt>
      <trkpt lat="43.81743" lon="7.25452">
        <ele>658.8</ele>
        <time>2020-08-14T07:02:07Z</time>
      </trkpt>
      <trkpt lat="43.81739" lon="7.25451">
        <ele>659.8</ele>
        <time>2020-08-14T07:02:12Z</time>
      </trkpt>
      <trkpt lat="43.81738" lon="7.2545">
        <ele>660</ele>
        <time>2020-08-14T07:02:13Z</time>
      </trkpt>
      <trkpt lat="43.81734" lon="7.25446">
        <ele>660.6</ele>
        <time>2020-08-14T07:02:17Z</time>
      </trkpt>
      <trkpt lat="43.81732" lon="7.25445">
        <ele>660.8</ele>
        <time>2020-08-14T07:02:18Z</time>
      </trkpt>
      <trkpt lat="43.81731" lon="7.25445">
        <ele>661</ele>
        <time>2020-08-14T07:02:19Z</time>
      </trkpt>
      <trkpt lat="43.81729" lon="7.25445">
        <ele>661.4</ele>
        <time>2020-08-14T07:02:21Z</time>
      </trkpt>
      <trkpt lat="43.81727" lon="7.25443">
        <ele>661.8</ele>
        <time>2020-08-14T07:02:24Z</time>
      </trkpt>
      <trkpt lat="43.81725" lon="7.25441">
        <ele>662.4</ele>
        <time>2020-08-14T07:02:27Z</time>
      </trkpt>
      <trkpt lat="43.81724" lon="7.25441">
        <ele>662.4</ele>
        <time>2020-08-14T07:02:28Z</time>
      </trkpt>
      <trkpt lat="43.81724" lon="7.25441">
        <ele>662.6</ele>
        <time>2020-08-14T07:02:29Z</time>
      </trkpt>
      <trkpt lat="43.81722" lon="7.25439">
        <ele>663</ele>
        <time>2020-08-14T07:02:33Z</time>
      </trkpt>
      <trkpt lat="43.81724" lon="7.2544">
        <ele>663.2</ele>
        <time>2020-08-14T07:02:37Z</time>
      </trkpt>
      <trkpt lat="43.81726" lon="7.25442">
        <ele>663.8</ele>
        <time>2020-08-14T07:02:40Z</time>
      </trkpt>
      <trkpt lat="43.81726" lon="7.25443">
        <ele>664</ele>
        <time>2020-08-14T07:02:41Z</time>
      </trkpt>
      <trkpt lat="43.81728" lon="7.25446">
        <ele>665</ele>
        <time>2020-08-14T07:02:46Z</time>
      </trkpt>
      <trkpt lat="43.81728" lon="7.25446">
        <ele>665.2</ele>
        <time>2020-08-14T07:02:47Z</time>
      </trkpt>
      <trkpt lat="43.81728" lon="7.25447">
        <ele>665.8</ele>
        <time>2020-08-14T07:02:49Z</time>
      </trkpt>
      <trkpt lat="43.81728" lon="7.2545">
        <ele>666.2</ele>
        <time>2020-08-14T07:02:51Z</time>
      </trkpt>
      <trkpt lat="43.81727" lon="7.25458">
        <ele>667.2</ele>
        <time>2020-08-14T07:02:57Z</time>
      </trkpt>
      <trkpt lat="43.81727" lon="7.25458">
        <ele>667.4</ele>
        <time>2020-08-14T07:02:58Z</time>
      </trkpt>
      <trkpt lat="43.81724" lon="7.25459">
        <ele>668</ele>
        <time>2020-08-14T07:03:01Z</time>
      </trkpt>
      <trkpt lat="43.8172" lon="7.25459">
        <ele>668</ele>
        <time>2020-08-14T07:03:03Z</time>
      </trkpt>
      <trkpt lat="43.81713" lon="7.25457">
        <ele>668</ele>
        <time>2020-08-14T07:03:10Z</time>
      </trkpt>
      <trkpt lat="43.81709" lon="7.25456">
        <ele>668</ele>
        <time>2020-08-14T07:03:13Z</time>
      </trkpt>
      <trkpt lat="43.81706" lon="7.25453">
        <ele>668.4</ele>
        <time>2020-08-14T07:03:16Z</time>
      </trkpt>
      <trkpt lat="43.81704" lon="7.25449">
        <ele>669</ele>
        <time>2020-08-14T07:03:20Z</time>
      </trkpt>
      <trkpt lat="43.817" lon="7.25445">
        <ele>669.4</ele>
        <time>2020-08-14T07:03:24Z</time>
      </trkpt>
      <trkpt lat="43.81693" lon="7.25441">
        <ele>670.4</ele>
        <time>2020-08-14T07:03:32Z</time>
      </trkpt>
      <trkpt lat="43.81692" lon="7.25439">
        <ele>670.4</ele>
        <time>2020-08-14T07:03:33Z</time>
      </trkpt>
      <trkpt lat="43.81685" lon="7.25435">
        <ele>671.4</ele>
        <time>2020-08-14T07:03:41Z</time>
      </trkpt>
      <trkpt lat="43.81683" lon="7.25434">
        <ele>671.6</ele>
        <time>2020-08-14T07:03:43Z</time>
      </trkpt>
      <trkpt lat="43.81682" lon="7.25433">
        <ele>671.6</ele>
        <time>2020-08-14T07:03:45Z</time>
      </trkpt>
      <trkpt lat="43.8168" lon="7.25432">
        <ele>671.8</ele>
        <time>2020-08-14T07:03:46Z</time>
      </trkpt>
      <trkpt lat="43.81679" lon="7.25431">
        <ele>672</ele>
        <time>2020-08-14T07:03:47Z</time>
      </trkpt>
      <trkpt lat="43.81676" lon="7.25429">
        <ele>672.4</ele>
        <time>2020-08-14T07:03:50Z</time>
      </trkpt>
      <trkpt lat="43.81675" lon="7.25428">
        <ele>672.6</ele>
        <time>2020-08-14T07:03:51Z</time>
      </trkpt>
      <trkpt lat="43.81673" lon="7.25426">
        <ele>673</ele>
        <time>2020-08-14T07:03:54Z</time>
      </trkpt>
      <trkpt lat="43.8167" lon="7.25423">
        <ele>673.4</ele>
        <time>2020-08-14T07:03:57Z</time>
      </trkpt>
      <trkpt lat="43.8167" lon="7.25422">
        <ele>673.6</ele>
        <time>2020-08-14T07:03:58Z</time>
      </trkpt>
      <trkpt lat="43.81664" lon="7.25417">
        <ele>674.4</ele>
        <time>2020-08-14T07:04:05Z</time>
      </trkpt>
      <trkpt lat="43.81663" lon="7.25416">
        <ele>674.6</ele>
        <time>2020-08-14T07:04:06Z</time>
      </trkpt>
      <trkpt lat="43.81661" lon="7.25415">
        <ele>674.8</ele>
        <time>2020-08-14T07:04:08Z</time>
      </trkpt>
      <trkpt lat="43.81657" lon="7.25412">
        <ele>675.6</ele>
        <time>2020-08-14T07:04:13Z</time>
      </trkpt>
      <trkpt lat="43.81656" lon="7.25411">
        <ele>675.8</ele>
        <time>2020-08-14T07:04:14Z</time>
      </trkpt>
      <trkpt lat="43.81652" lon="7.25408">
        <ele>676.2</ele>
        <time>2020-08-14T07:04:18Z</time>
      </trkpt>
      <trkpt lat="43.8165" lon="7.25405">
        <ele>676.6</ele>
        <time>2020-08-14T07:04:21Z</time>
      </trkpt>
      <trkpt lat="43.81649" lon="7.25404">
        <ele>676.8</ele>
        <time>2020-08-14T07:04:22Z</time>
      </trkpt>
      <trkpt lat="43.81643" lon="7.25402">
        <ele>677.8</ele>
        <time>2020-08-14T07:04:29Z</time>
      </trkpt>
      <trkpt lat="43.81642" lon="7.25401">
        <ele>678</ele>
        <time>2020-08-14T07:04:30Z</time>
      </trkpt>
      <trkpt lat="43.81638" lon="7.25397">
        <ele>679</ele>
        <time>2020-08-14T07:04:36Z</time>
      </trkpt>
      <trkpt lat="43.81636" lon="7.25395">
        <ele>679.4</ele>
        <time>2020-08-14T07:04:38Z</time>
      </trkpt>
      <trkpt lat="43.81633" lon="7.25392">
        <ele>679.8</ele>
        <time>2020-08-14T07:04:42Z</time>
      </trkpt>
      <trkpt lat="43.81632" lon="7.25389">
        <ele>680</ele>
        <time>2020-08-14T07:04:44Z</time>
      </trkpt>
      <trkpt lat="43.81631" lon="7.25386">
        <ele>680.6</ele>
        <time>2020-08-14T07:04:47Z</time>
      </trkpt>
      <trkpt lat="43.81628" lon="7.25384">
        <ele>681</ele>
        <time>2020-08-14T07:04:51Z</time>
      </trkpt>
      <trkpt lat="43.81626" lon="7.25383">
        <ele>681.8</ele>
        <time>2020-08-14T07:04:54Z</time>
      </trkpt>
      <trkpt lat="43.81625" lon="7.25381">
        <ele>682</ele>
        <time>2020-08-14T07:04:56Z</time>
      </trkpt>
      <trkpt lat="43.81624" lon="7.25379">
        <ele>682.2</ele>
        <time>2020-08-14T07:04:58Z</time>
      </trkpt>
      <trkpt lat="43.81622" lon="7.25376">
        <ele>683</ele>
        <time>2020-08-14T07:05:04Z</time>
      </trkpt>
      <trkpt lat="43.8162" lon="7.25375">
        <ele>683.4</ele>
        <time>2020-08-14T07:05:06Z</time>
      </trkpt>
      <trkpt lat="43.81619" lon="7.25374">
        <ele>683.6</ele>
        <time>2020-08-14T07:05:07Z</time>
      </trkpt>
      <trkpt lat="43.81616" lon="7.2537">
        <ele>684.4</ele>
        <time>2020-08-14T07:05:13Z</time>
      </trkpt>
      <trkpt lat="43.81612" lon="7.25367">
        <ele>685.2</ele>
        <time>2020-08-14T07:05:19Z</time>
      </trkpt>
      <trkpt lat="43.81611" lon="7.25366">
        <ele>685.4</ele>
        <time>2020-08-14T07:05:20Z</time>
      </trkpt>
      <trkpt lat="43.81608" lon="7.25363">
        <ele>686.6</ele>
        <time>2020-08-14T07:05:25Z</time>
      </trkpt>
      <trkpt lat="43.81606" lon="7.25363">
        <ele>687.2</ele>
        <time>2020-08-14T07:05:29Z</time>
      </trkpt>
      <trkpt lat="43.81604" lon="7.25363">
        <ele>687.6</ele>
        <time>2020-08-14T07:05:31Z</time>
      </trkpt>
      <trkpt lat="43.81604" lon="7.25361">
        <ele>688</ele>
        <time>2020-08-14T07:05:33Z</time>
      </trkpt>
      <trkpt lat="43.81602" lon="7.25359">
        <ele>688.6</ele>
        <time>2020-08-14T07:05:37Z</time>
      </trkpt>
      <trkpt lat="43.816" lon="7.25357">
        <ele>689.2</ele>
        <time>2020-08-14T07:05:40Z</time>
      </trkpt>
      <trkpt lat="43.81599" lon="7.25355">
        <ele>689.6</ele>
        <time>2020-08-14T07:05:42Z</time>
      </trkpt>
      <trkpt lat="43.81599" lon="7.25354">
        <ele>689.8</ele>
        <time>2020-08-14T07:05:43Z</time>
      </trkpt>
      <trkpt lat="43.81598" lon="7.25354">
        <ele>690</ele>
        <time>2020-08-14T07:05:44Z</time>
      </trkpt>
      <trkpt lat="43.81598" lon="7.25354">
        <ele>690</ele>
        <time>2020-08-14T07:05:45Z</time>
      </trkpt>
      <trkpt lat="43.81596" lon="7.25353">
        <ele>690.8</ele>
        <time>2020-08-14T07:05:49Z</time>
      </trkpt>
      <trkpt lat="43.81595" lon="7.25352">
        <ele>691</ele>
        <time>2020-08-14T07:05:50Z</time>
      </trkpt>
      <trkpt lat="43.81595" lon="7.25352">
        <ele>691.2</ele>
        <time>2020-08-14T07:05:51Z</time>
      </trkpt>
      <trkpt lat="43.81594" lon="7.25351">
        <ele>691.6</ele>
        <time>2020-08-14T07:05:53Z</time>
      </trkpt>
      <trkpt lat="43.81593" lon="7.25351">
        <ele>691.8</ele>
        <time>2020-08-14T07:05:54Z</time>
      </trkpt>
      <trkpt lat="43.81593" lon="7.25349">
        <ele>692</ele>
        <time>2020-08-14T07:05:56Z</time>
      </trkpt>
      <trkpt lat="43.8159" lon="7.25349">
        <ele>693</ele>
        <time>2020-08-14T07:06:02Z</time>
      </trkpt>
      <trkpt lat="43.81588" lon="7.2535">
        <ele>693.8</ele>
        <time>2020-08-14T07:06:06Z</time>
      </trkpt>
      <trkpt lat="43.81588" lon="7.2535">
        <ele>694</ele>
        <time>2020-08-14T07:06:07Z</time>
      </trkpt>
      <trkpt lat="43.81587" lon="7.2535">
        <ele>694.4</ele>
        <time>2020-08-14T07:06:08Z</time>
      </trkpt>
      <trkpt lat="43.81586" lon="7.25349">
        <ele>694.6</ele>
        <time>2020-08-14T07:06:09Z</time>
      </trkpt>
      <trkpt lat="43.81584" lon="7.25348">
        <ele>695</ele>
        <time>2020-08-14T07:06:12Z</time>
      </trkpt>
      <trkpt lat="43.81583" lon="7.25348">
        <ele>695.4</ele>
        <time>2020-08-14T07:06:13Z</time>
      </trkpt>
      <trkpt lat="43.81581" lon="7.25348">
        <ele>696</ele>
        <time>2020-08-14T07:06:16Z</time>
      </trkpt>
      <trkpt lat="43.81581" lon="7.25348">
        <ele>696.2</ele>
        <time>2020-08-14T07:06:17Z</time>
      </trkpt>
      <trkpt lat="43.81579" lon="7.25346">
        <ele>696.8</ele>
        <time>2020-08-14T07:06:21Z</time>
      </trkpt>
      <trkpt lat="43.81578" lon="7.25345">
        <ele>697.2</ele>
        <time>2020-08-14T07:06:23Z</time>
      </trkpt>
      <trkpt lat="43.81577" lon="7.25341">
        <ele>698.4</ele>
        <time>2020-08-14T07:06:28Z</time>
      </trkpt>
      <trkpt lat="43.81576" lon="7.2534">
        <ele>698.6</ele>
        <time>2020-08-14T07:06:29Z</time>
      </trkpt>
      <trkpt lat="43.81574" lon="7.25337">
        <ele>699.4</ele>
        <time>2020-08-14T07:06:34Z</time>
      </trkpt>
      <trkpt lat="43.81573" lon="7.25335">
        <ele>700</ele>
        <time>2020-08-14T07:06:37Z</time>
      </trkpt>
      <trkpt lat="43.8157" lon="7.25335">
        <ele>700.6</ele>
        <time>2020-08-14T07:06:40Z</time>
      </trkpt>
      <trkpt lat="43.81567" lon="7.25334">
        <ele>701.4</ele>
        <time>2020-08-14T07:06:44Z</time>
      </trkpt>
      <trkpt lat="43.81567" lon="7.25334">
        <ele>701.6</ele>
        <time>2020-08-14T07:06:45Z</time>
      </trkpt>
      <trkpt lat="43.81562" lon="7.25335">
        <ele>702.4</ele>
        <time>2020-08-14T07:06:52Z</time>
      </trkpt>
      <trkpt lat="43.8156" lon="7.25336">
        <ele>702.8</ele>
        <time>2020-08-14T07:06:54Z</time>
      </trkpt>
      <trkpt lat="43.81557" lon="7.25336">
        <ele>703.4</ele>
        <time>2020-08-14T07:06:58Z</time>
      </trkpt>
      <trkpt lat="43.81546" lon="7.25337">
        <ele>703.8</ele>
        <time>2020-08-14T07:07:07Z</time>
      </trkpt>
      <trkpt lat="43.81544" lon="7.25337">
        <ele>704</ele>
        <time>2020-08-14T07:07:09Z</time>
      </trkpt>
      <trkpt lat="43.81537" lon="7.2534">
        <ele>704.2</ele>
        <time>2020-08-14T07:07:15Z</time>
      </trkpt>
      <trkpt lat="43.81533" lon="7.25343">
        <ele>705</ele>
        <time>2020-08-14T07:07:20Z</time>
      </trkpt>
      <trkpt lat="43.81532" lon="7.25345">
        <ele>705.2</ele>
        <time>2020-08-14T07:07:22Z</time>
      </trkpt>
      <trkpt lat="43.8153" lon="7.25346">
        <ele>705.2</ele>
        <time>2020-08-14T07:07:23Z</time>
      </trkpt>
      <trkpt lat="43.81527" lon="7.25349">
        <ele>706</ele>
        <time>2020-08-14T07:07:27Z</time>
      </trkpt>
      <trkpt lat="43.81524" lon="7.25352">
        <ele>707</ele>
        <time>2020-08-14T07:07:32Z</time>
      </trkpt>
      <trkpt lat="43.81523" lon="7.25353">
        <ele>707.2</ele>
        <time>2020-08-14T07:07:33Z</time>
      </trkpt>
      <trkpt lat="43.81521" lon="7.25353">
        <ele>708</ele>
        <time>2020-08-14T07:07:36Z</time>
      </trkpt>
      <trkpt lat="43.8152" lon="7.25354">
        <ele>708.2</ele>
        <time>2020-08-14T07:07:37Z</time>
      </trkpt>
      <trkpt lat="43.81518" lon="7.25355">
        <ele>708.8</ele>
        <time>2020-08-14T07:07:40Z</time>
      </trkpt>
      <trkpt lat="43.81516" lon="7.25357">
        <ele>709.2</ele>
        <time>2020-08-14T07:07:43Z</time>
      </trkpt>
      <trkpt lat="43.81512" lon="7.25359">
        <ele>710.4</ele>
        <time>2020-08-14T07:07:48Z</time>
      </trkpt>
      <trkpt lat="43.81511" lon="7.25361">
        <ele>710.8</ele>
        <time>2020-08-14T07:07:51Z</time>
      </trkpt>
      <trkpt lat="43.81509" lon="7.25362">
        <ele>711.4</ele>
        <time>2020-08-14T07:07:54Z</time>
      </trkpt>
      <trkpt lat="43.81506" lon="7.25364">
        <ele>712.2</ele>
        <time>2020-08-14T07:07:58Z</time>
      </trkpt>
      <trkpt lat="43.81505" lon="7.25364">
        <ele>712.6</ele>
        <time>2020-08-14T07:08:00Z</time>
      </trkpt>
      <trkpt lat="43.81501" lon="7.25367">
        <ele>713.4</ele>
        <time>2020-08-14T07:08:05Z</time>
      </trkpt>
      <trkpt lat="43.81499" lon="7.25367">
        <ele>713.8</ele>
        <time>2020-08-14T07:08:07Z</time>
      </trkpt>
      <trkpt lat="43.81495" lon="7.25371">
        <ele>714.8</ele>
        <time>2020-08-14T07:08:13Z</time>
      </trkpt>
      <trkpt lat="43.81494" lon="7.25372">
        <ele>715.2</ele>
        <time>2020-08-14T07:08:15Z</time>
      </trkpt>
      <trkpt lat="43.81493" lon="7.25373">
        <ele>715.4</ele>
        <time>2020-08-14T07:08:16Z</time>
      </trkpt>
      <trkpt lat="43.81492" lon="7.25374">
        <ele>715.6</ele>
        <time>2020-08-14T07:08:17Z</time>
      </trkpt>
      <trkpt lat="43.81491" lon="7.25374">
        <ele>715.8</ele>
        <time>2020-08-14T07:08:18Z</time>
      </trkpt>
      <trkpt lat="43.81487" lon="7.25375">
        <ele>717</ele>
        <time>2020-08-14T07:08:24Z</time>
      </trkpt>
      <trkpt lat="43.81483" lon="7.25376">
        <ele>718.2</ele>
        <time>2020-08-14T07:08:30Z</time>
      </trkpt>
      <trkpt lat="43.81482" lon="7.25377">
        <ele>718.6</ele>
        <time>2020-08-14T07:08:32Z</time>
      </trkpt>
      <trkpt lat="43.8148" lon="7.25378">
        <ele>719.2</ele>
        <time>2020-08-14T07:08:36Z</time>
      </trkpt>
      <trkpt lat="43.81478" lon="7.25379">
        <ele>719.8</ele>
        <time>2020-08-14T07:08:39Z</time>
      </trkpt>
      <trkpt lat="43.81476" lon="7.25381">
        <ele>720.4</ele>
        <time>2020-08-14T07:08:42Z</time>
      </trkpt>
      <trkpt lat="43.81471" lon="7.25382">
        <ele>721.4</ele>
        <time>2020-08-14T07:08:48Z</time>
      </trkpt>
      <trkpt lat="43.81467" lon="7.25384">
        <ele>722.4</ele>
        <time>2020-08-14T07:08:54Z</time>
      </trkpt>
      <trkpt lat="43.8146" lon="7.25388">
        <ele>723.6</ele>
        <time>2020-08-14T07:09:01Z</time>
      </trkpt>
      <trkpt lat="43.81457" lon="7.2539">
        <ele>724.2</ele>
        <time>2020-08-14T07:09:04Z</time>
      </trkpt>
      <trkpt lat="43.81455" lon="7.25391">
        <ele>724.4</ele>
        <time>2020-08-14T07:09:06Z</time>
      </trkpt>
      <trkpt lat="43.81453" lon="7.25391">
        <ele>724.6</ele>
        <time>2020-08-14T07:09:07Z</time>
      </trkpt>
      <trkpt lat="43.81451" lon="7.25391">
        <ele>724.8</ele>
        <time>2020-08-14T07:09:09Z</time>
      </trkpt>
      <trkpt lat="43.8145" lon="7.25391">
        <ele>724.8</ele>
        <time>2020-08-14T07:09:10Z</time>
      </trkpt>
      <trkpt lat="43.81449" lon="7.25392">
        <ele>725</ele>
        <time>2020-08-14T07:09:11Z</time>
      </trkpt>
      <trkpt lat="43.81446" lon="7.25393">
        <ele>725.4</ele>
        <time>2020-08-14T07:09:14Z</time>
      </trkpt>
      <trkpt lat="43.8144" lon="7.25392">
        <ele>725.6</ele>
        <time>2020-08-14T07:09:19Z</time>
      </trkpt>
      <trkpt lat="43.81434" lon="7.25392">
        <ele>725.4</ele>
        <time>2020-08-14T07:09:23Z</time>
      </trkpt>
      <trkpt lat="43.81432" lon="7.25392">
        <ele>725</ele>
        <time>2020-08-14T07:09:25Z</time>
      </trkpt>
      <trkpt lat="43.81426" lon="7.25393">
        <ele>724.4</ele>
        <time>2020-08-14T07:09:29Z</time>
      </trkpt>
      <trkpt lat="43.81419" lon="7.25392">
        <ele>723.6</ele>
        <time>2020-08-14T07:09:34Z</time>
      </trkpt>
      <trkpt lat="43.81414" lon="7.25391">
        <ele>722.8</ele>
        <time>2020-08-14T07:09:38Z</time>
      </trkpt>
      <trkpt lat="43.81411" lon="7.25391">
        <ele>722.4</ele>
        <time>2020-08-14T07:09:40Z</time>
      </trkpt>
      <trkpt lat="43.81399" lon="7.25392">
        <ele>721.2</ele>
        <time>2020-08-14T07:09:47Z</time>
      </trkpt>
      <trkpt lat="43.81397" lon="7.25391">
        <ele>721</ele>
        <time>2020-08-14T07:09:49Z</time>
      </trkpt>
      <trkpt lat="43.81392" lon="7.25389">
        <ele>720.6</ele>
        <time>2020-08-14T07:09:53Z</time>
      </trkpt>
      <trkpt lat="43.81388" lon="7.25388">
        <ele>720.2</ele>
        <time>2020-08-14T07:09:56Z</time>
      </trkpt>
      <trkpt lat="43.81385" lon="7.25387">
        <ele>719.8</ele>
        <time>2020-08-14T07:09:59Z</time>
      </trkpt>
      <trkpt lat="43.81382" lon="7.25387">
        <ele>719.4</ele>
        <time>2020-08-14T07:10:01Z</time>
      </trkpt>
      <trkpt lat="43.81378" lon="7.25386">
        <ele>719.2</ele>
        <time>2020-08-14T07:10:04Z</time>
      </trkpt>
      <trkpt lat="43.81375" lon="7.25386">
        <ele>719</ele>
        <time>2020-08-14T07:10:06Z</time>
      </trkpt>
      <trkpt lat="43.81374" lon="7.25386">
        <ele>719</ele>
        <time>2020-08-14T07:10:07Z</time>
      </trkpt>
      <trkpt lat="43.8137" lon="7.25386">
        <ele>718.8</ele>
        <time>2020-08-14T07:10:10Z</time>
      </trkpt>
      <trkpt lat="43.81363" lon="7.25385">
        <ele>718.6</ele>
        <time>2020-08-14T07:10:15Z</time>
      </trkpt>
      <trkpt lat="43.81358" lon="7.25385">
        <ele>718.2</ele>
        <time>2020-08-14T07:10:18Z</time>
      </trkpt>
      <trkpt lat="43.81357" lon="7.25384">
        <ele>718</ele>
        <time>2020-08-14T07:10:19Z</time>
      </trkpt>
      <trkpt lat="43.8135" lon="7.25382">
        <ele>717.8</ele>
        <time>2020-08-14T07:10:24Z</time>
      </trkpt>
      <trkpt lat="43.81341" lon="7.25376">
        <ele>717.2</ele>
        <time>2020-08-14T07:10:31Z</time>
      </trkpt>
      <trkpt lat="43.81334" lon="7.25373">
        <ele>716.8</ele>
        <time>2020-08-14T07:10:37Z</time>
      </trkpt>
      <trkpt lat="43.8133" lon="7.25373">
        <ele>717</ele>
        <time>2020-08-14T07:10:41Z</time>
      </trkpt>
      <trkpt lat="43.81315" lon="7.25375">
        <ele>717.8</ele>
        <time>2020-08-14T07:10:52Z</time>
      </trkpt>
      <trkpt lat="43.8131" lon="7.25374">
        <ele>718.2</ele>
        <time>2020-08-14T07:10:56Z</time>
      </trkpt>
      <trkpt lat="43.81306" lon="7.25372">
        <ele>718.4</ele>
        <time>2020-08-14T07:11:00Z</time>
      </trkpt>
      <trkpt lat="43.81297" lon="7.25369">
        <ele>719.2</ele>
        <time>2020-08-14T07:11:08Z</time>
      </trkpt>
      <trkpt lat="43.81295" lon="7.25368">
        <ele>719.6</ele>
        <time>2020-08-14T07:11:10Z</time>
      </trkpt>
      <trkpt lat="43.81292" lon="7.25367">
        <ele>720</ele>
        <time>2020-08-14T07:11:13Z</time>
      </trkpt>
      <trkpt lat="43.81289" lon="7.25364">
        <ele>720.4</ele>
        <time>2020-08-14T07:11:17Z</time>
      </trkpt>
      <trkpt lat="43.81283" lon="7.25362">
        <ele>721.6</ele>
        <time>2020-08-14T07:11:23Z</time>
      </trkpt>
      <trkpt lat="43.8128" lon="7.25361">
        <ele>722.2</ele>
        <time>2020-08-14T07:11:26Z</time>
      </trkpt>
      <trkpt lat="43.81277" lon="7.25358">
        <ele>722.6</ele>
        <time>2020-08-14T07:11:30Z</time>
      </trkpt>
      <trkpt lat="43.81274" lon="7.25357">
        <ele>723.4</ele>
        <time>2020-08-14T07:11:34Z</time>
      </trkpt>
      <trkpt lat="43.81273" lon="7.25357">
        <ele>723.8</ele>
        <time>2020-08-14T07:11:36Z</time>
      </trkpt>
      <trkpt lat="43.81267" lon="7.25356">
        <ele>725</ele>
        <time>2020-08-14T07:11:42Z</time>
      </trkpt>
      <trkpt lat="43.81266" lon="7.25356">
        <ele>725.4</ele>
        <time>2020-08-14T07:11:44Z</time>
      </trkpt>
      <trkpt lat="43.81265" lon="7.25355">
        <ele>725.6</ele>
        <time>2020-08-14T07:11:45Z</time>
      </trkpt>
      <trkpt lat="43.81263" lon="7.25353">
        <ele>726</ele>
        <time>2020-08-14T07:11:48Z</time>
      </trkpt>
      <trkpt lat="43.81262" lon="7.25352">
        <ele>726.6</ele>
        <time>2020-08-14T07:11:50Z</time>
      </trkpt>
      <trkpt lat="43.8126" lon="7.2535">
        <ele>727.2</ele>
        <time>2020-08-14T07:11:54Z</time>
      </trkpt>
      <trkpt lat="43.81257" lon="7.25348">
        <ele>728.2</ele>
        <time>2020-08-14T07:11:59Z</time>
      </trkpt>
      <trkpt lat="43.81255" lon="7.25348">
        <ele>728.6</ele>
        <time>2020-08-14T07:12:01Z</time>
      </trkpt>
      <trkpt lat="43.81253" lon="7.25344">
        <ele>729.4</ele>
        <time>2020-08-14T07:12:05Z</time>
      </trkpt>
      <trkpt lat="43.81253" lon="7.25343">
        <ele>729.6</ele>
        <time>2020-08-14T07:12:06Z</time>
      </trkpt>
      <trkpt lat="43.81251" lon="7.25341">
        <ele>730.2</ele>
        <time>2020-08-14T07:12:12Z</time>
      </trkpt>
      <trkpt lat="43.81251" lon="7.25339">
        <ele>730.4</ele>
        <time>2020-08-14T07:12:14Z</time>
      </trkpt>
      <trkpt lat="43.81253" lon="7.25339">
        <ele>730.2</ele>
        <time>2020-08-14T07:12:19Z</time>
      </trkpt>
      <trkpt lat="43.81249" lon="7.25339">
        <ele>730.6</ele>
        <time>2020-08-14T07:12:25Z</time>
      </trkpt>
      <trkpt lat="43.81249" lon="7.25339">
        <ele>731</ele>
        <time>2020-08-14T07:12:27Z</time>
      </trkpt>
      <trkpt lat="43.81247" lon="7.25338">
        <ele>731.6</ele>
        <time>2020-08-14T07:12:29Z</time>
      </trkpt>
      <trkpt lat="43.81243" lon="7.25339">
        <ele>732.2</ele>
        <time>2020-08-14T07:12:33Z</time>
      </trkpt>
      <trkpt lat="43.8124" lon="7.2534">
        <ele>732.6</ele>
        <time>2020-08-14T07:12:35Z</time>
      </trkpt>
      <trkpt lat="43.81233" lon="7.25342">
        <ele>733.6</ele>
        <time>2020-08-14T07:12:41Z</time>
      </trkpt>
      <trkpt lat="43.81233" lon="7.25341">
        <ele>733.8</ele>
        <time>2020-08-14T07:12:42Z</time>
      </trkpt>
      <trkpt lat="43.81232" lon="7.2534">
        <ele>733.8</ele>
        <time>2020-08-14T07:12:43Z</time>
      </trkpt>
      <trkpt lat="43.81229" lon="7.25338">
        <ele>734.8</ele>
        <time>2020-08-14T07:12:48Z</time>
      </trkpt>
      <trkpt lat="43.81228" lon="7.25338">
        <ele>735</ele>
        <time>2020-08-14T07:12:49Z</time>
      </trkpt>
      <trkpt lat="43.81227" lon="7.25337">
        <ele>735.2</ele>
        <time>2020-08-14T07:12:50Z</time>
      </trkpt>
      <trkpt lat="43.81226" lon="7.25337">
        <ele>735.6</ele>
        <time>2020-08-14T07:12:52Z</time>
      </trkpt>
      <trkpt lat="43.81225" lon="7.25336">
        <ele>735.8</ele>
        <time>2020-08-14T07:12:54Z</time>
      </trkpt>
      <trkpt lat="43.81223" lon="7.25335">
        <ele>736.4</ele>
        <time>2020-08-14T07:12:56Z</time>
      </trkpt>
      <trkpt lat="43.81219" lon="7.25332">
        <ele>736.8</ele>
        <time>2020-08-14T07:13:00Z</time>
      </trkpt>
      <trkpt lat="43.81218" lon="7.25331">
        <ele>737</ele>
        <time>2020-08-14T07:13:01Z</time>
      </trkpt>
      <trkpt lat="43.81216" lon="7.2533">
        <ele>737.2</ele>
        <time>2020-08-14T07:13:03Z</time>
      </trkpt>
      <trkpt lat="43.8121" lon="7.2533">
        <ele>737.6</ele>
        <time>2020-08-14T07:13:09Z</time>
      </trkpt>
      <trkpt lat="43.81208" lon="7.25329">
        <ele>737.8</ele>
        <time>2020-08-14T07:13:11Z</time>
      </trkpt>
      <trkpt lat="43.81205" lon="7.25328">
        <ele>738</ele>
        <time>2020-08-14T07:13:14Z</time>
      </trkpt>
      <trkpt lat="43.81201" lon="7.25327">
        <ele>738.2</ele>
        <time>2020-08-14T07:13:18Z</time>
      </trkpt>
      <trkpt lat="43.81197" lon="7.25328">
        <ele>738.6</ele>
        <time>2020-08-14T07:13:21Z</time>
      </trkpt>
      <trkpt lat="43.81192" lon="7.25326">
        <ele>739</ele>
        <time>2020-08-14T07:13:25Z</time>
      </trkpt>
      <trkpt lat="43.81191" lon="7.25326">
        <ele>739</ele>
        <time>2020-08-14T07:13:26Z</time>
      </trkpt>
      <trkpt lat="43.81183" lon="7.25323">
        <ele>739.6</ele>
        <time>2020-08-14T07:13:33Z</time>
      </trkpt>
      <trkpt lat="43.81177" lon="7.2532">
        <ele>740</ele>
        <time>2020-08-14T07:13:39Z</time>
      </trkpt>
      <trkpt lat="43.81175" lon="7.25319">
        <ele>740.2</ele>
        <time>2020-08-14T07:13:41Z</time>
      </trkpt>
      <trkpt lat="43.81173" lon="7.25318">
        <ele>740.2</ele>
        <time>2020-08-14T07:13:42Z</time>
      </trkpt>
      <trkpt lat="43.81165" lon="7.2531">
        <ele>740.8</ele>
        <time>2020-08-14T07:13:49Z</time>
      </trkpt>
      <trkpt lat="43.81162" lon="7.25308">
        <ele>741.2</ele>
        <time>2020-08-14T07:13:51Z</time>
      </trkpt>
      <trkpt lat="43.81159" lon="7.25306">
        <ele>741.4</ele>
        <time>2020-08-14T07:13:54Z</time>
      </trkpt>
      <trkpt lat="43.81157" lon="7.25305">
        <ele>741.6</ele>
        <time>2020-08-14T07:13:56Z</time>
      </trkpt>
      <trkpt lat="43.81155" lon="7.25303">
        <ele>742</ele>
        <time>2020-08-14T07:13:59Z</time>
      </trkpt>
      <trkpt lat="43.81154" lon="7.25302">
        <ele>742.2</ele>
        <time>2020-08-14T07:14:00Z</time>
      </trkpt>
      <trkpt lat="43.81147" lon="7.25295">
        <ele>743.2</ele>
        <time>2020-08-14T07:14:07Z</time>
      </trkpt>
      <trkpt lat="43.81146" lon="7.25294">
        <ele>743.4</ele>
        <time>2020-08-14T07:14:08Z</time>
      </trkpt>
      <trkpt lat="43.81141" lon="7.25291">
        <ele>744.2</ele>
        <time>2020-08-14T07:14:14Z</time>
      </trkpt>
      <trkpt lat="43.81137" lon="7.25289">
        <ele>744.8</ele>
        <time>2020-08-14T07:14:18Z</time>
      </trkpt>
      <trkpt lat="43.81135" lon="7.25289">
        <ele>745.2</ele>
        <time>2020-08-14T07:14:20Z</time>
      </trkpt>
      <trkpt lat="43.81133" lon="7.25289">
        <ele>745.4</ele>
        <time>2020-08-14T07:14:22Z</time>
      </trkpt>
      <trkpt lat="43.8113" lon="7.25289">
        <ele>746</ele>
        <time>2020-08-14T07:14:25Z</time>
      </trkpt>
      <trkpt lat="43.81126" lon="7.2529">
        <ele>746.4</ele>
        <time>2020-08-14T07:14:28Z</time>
      </trkpt>
      <trkpt lat="43.81122" lon="7.25288">
        <ele>747.2</ele>
        <time>2020-08-14T07:14:32Z</time>
      </trkpt>
      <trkpt lat="43.81121" lon="7.25287">
        <ele>747.4</ele>
        <time>2020-08-14T07:14:33Z</time>
      </trkpt>
      <trkpt lat="43.8112" lon="7.25286">
        <ele>747.4</ele>
        <time>2020-08-14T07:14:34Z</time>
      </trkpt>
      <trkpt lat="43.81119" lon="7.25284">
        <ele>747.8</ele>
        <time>2020-08-14T07:14:36Z</time>
      </trkpt>
      <trkpt lat="43.81117" lon="7.2528">
        <ele>748.4</ele>
        <time>2020-08-14T07:14:39Z</time>
      </trkpt>
      <trkpt lat="43.81116" lon="7.25279">
        <ele>748.6</ele>
        <time>2020-08-14T07:14:40Z</time>
      </trkpt>
      <trkpt lat="43.81112" lon="7.25275">
        <ele>749.2</ele>
        <time>2020-08-14T07:14:45Z</time>
      </trkpt>
      <trkpt lat="43.81109" lon="7.25273">
        <ele>749.6</ele>
        <time>2020-08-14T07:14:48Z</time>
      </trkpt>
      <trkpt lat="43.81104" lon="7.25266">
        <ele>750.6</ele>
        <time>2020-08-14T07:14:55Z</time>
      </trkpt>
      <trkpt lat="43.81103" lon="7.25266">
        <ele>750.8</ele>
        <time>2020-08-14T07:14:56Z</time>
      </trkpt>
      <trkpt lat="43.81101" lon="7.25263">
        <ele>751.4</ele>
        <time>2020-08-14T07:14:59Z</time>
      </trkpt>
      <trkpt lat="43.81099" lon="7.2526">
        <ele>751.6</ele>
        <time>2020-08-14T07:15:01Z</time>
      </trkpt>
      <trkpt lat="43.81098" lon="7.25259">
        <ele>751.8</ele>
        <time>2020-08-14T07:15:02Z</time>
      </trkpt>
      <trkpt lat="43.81096" lon="7.2526">
        <ele>752.4</ele>
        <time>2020-08-14T07:15:05Z</time>
      </trkpt>
      <trkpt lat="43.81095" lon="7.2526">
        <ele>752.6</ele>
        <time>2020-08-14T07:15:07Z</time>
      </trkpt>
      <trkpt lat="43.81094" lon="7.2526">
        <ele>753</ele>
        <time>2020-08-14T07:15:08Z</time>
      </trkpt>
      <trkpt lat="43.8109" lon="7.25258">
        <ele>753.8</ele>
        <time>2020-08-14T07:15:12Z</time>
      </trkpt>
      <trkpt lat="43.81089" lon="7.25257">
        <ele>754</ele>
        <time>2020-08-14T07:15:14Z</time>
      </trkpt>
      <trkpt lat="43.81083" lon="7.25254">
        <ele>755.2</ele>
        <time>2020-08-14T07:15:20Z</time>
      </trkpt>
      <trkpt lat="43.81082" lon="7.25252">
        <ele>755.6</ele>
        <time>2020-08-14T07:15:22Z</time>
      </trkpt>
      <trkpt lat="43.81078" lon="7.25251">
        <ele>756.2</ele>
        <time>2020-08-14T07:15:26Z</time>
      </trkpt>
      <trkpt lat="43.81077" lon="7.2525">
        <ele>756.6</ele>
        <time>2020-08-14T07:15:28Z</time>
      </trkpt>
      <trkpt lat="43.81074" lon="7.25249">
        <ele>757.2</ele>
        <time>2020-08-14T07:15:31Z</time>
      </trkpt>
      <trkpt lat="43.81073" lon="7.25249">
        <ele>757.4</ele>
        <time>2020-08-14T07:15:32Z</time>
      </trkpt>
      <trkpt lat="43.81069" lon="7.25245">
        <ele>758.2</ele>
        <time>2020-08-14T07:15:37Z</time>
      </trkpt>
      <trkpt lat="43.81067" lon="7.25243">
        <ele>758.6</ele>
        <time>2020-08-14T07:15:39Z</time>
      </trkpt>
      <trkpt lat="43.81064" lon="7.25242">
        <ele>759</ele>
        <time>2020-08-14T07:15:42Z</time>
      </trkpt>
      <trkpt lat="43.81064" lon="7.25241">
        <ele>759.2</ele>
        <time>2020-08-14T07:15:43Z</time>
      </trkpt>
      <trkpt lat="43.81063" lon="7.25238">
        <ele>759.6</ele>
        <time>2020-08-14T07:15:45Z</time>
      </trkpt>
      <trkpt lat="43.81062" lon="7.25238">
        <ele>759.6</ele>
        <time>2020-08-14T07:15:46Z</time>
      </trkpt>
      <trkpt lat="43.81057" lon="7.25233">
        <ele>760.8</ele>
        <time>2020-08-14T07:15:52Z</time>
      </trkpt>
      <trkpt lat="43.81055" lon="7.25231">
        <ele>761</ele>
        <time>2020-08-14T07:15:54Z</time>
      </trkpt>
      <trkpt lat="43.81052" lon="7.25229">
        <ele>761.4</ele>
        <time>2020-08-14T07:15:57Z</time>
      </trkpt>
      <trkpt lat="43.81051" lon="7.25227">
        <ele>761.6</ele>
        <time>2020-08-14T07:15:59Z</time>
      </trkpt>
      <trkpt lat="43.8105" lon="7.25226">
        <ele>761.6</ele>
        <time>2020-08-14T07:16:00Z</time>
      </trkpt>
      <trkpt lat="43.81049" lon="7.25224">
        <ele>761.8</ele>
        <time>2020-08-14T07:16:01Z</time>
      </trkpt>
      <trkpt lat="43.81042" lon="7.25214">
        <ele>762.4</ele>
        <time>2020-08-14T07:16:09Z</time>
      </trkpt>
      <trkpt lat="43.81038" lon="7.25211">
        <ele>762.8</ele>
        <time>2020-08-14T07:16:13Z</time>
      </trkpt>
      <trkpt lat="43.81037" lon="7.2521">
        <ele>762.8</ele>
        <time>2020-08-14T07:16:14Z</time>
      </trkpt>
      <trkpt lat="43.81035" lon="7.25208">
        <ele>763</ele>
        <time>2020-08-14T07:16:16Z</time>
      </trkpt>
      <trkpt lat="43.81035" lon="7.25206">
        <ele>763</ele>
        <time>2020-08-14T07:16:17Z</time>
      </trkpt>
      <trkpt lat="43.8103" lon="7.25198">
        <ele>763</ele>
        <time>2020-08-14T07:16:23Z</time>
      </trkpt>
      <trkpt lat="43.81029" lon="7.25197">
        <ele>763.2</ele>
        <time>2020-08-14T07:16:24Z</time>
      </trkpt>
      <trkpt lat="43.81026" lon="7.25191">
        <ele>763.4</ele>
        <time>2020-08-14T07:16:28Z</time>
      </trkpt>
      <trkpt lat="43.81021" lon="7.25186">
        <ele>763.8</ele>
        <time>2020-08-14T07:16:33Z</time>
      </trkpt>
      <trkpt lat="43.81017" lon="7.25181">
        <ele>764</ele>
        <time>2020-08-14T07:16:37Z</time>
      </trkpt>
      <trkpt lat="43.81016" lon="7.25179">
        <ele>764.2</ele>
        <time>2020-08-14T07:16:39Z</time>
      </trkpt>
      <trkpt lat="43.81015" lon="7.25178">
        <ele>764.4</ele>
        <time>2020-08-14T07:16:40Z</time>
      </trkpt>
      <trkpt lat="43.81013" lon="7.25177">
        <ele>764.8</ele>
        <time>2020-08-14T07:16:42Z</time>
      </trkpt>
      <trkpt lat="43.81012" lon="7.25177">
        <ele>765</ele>
        <time>2020-08-14T07:16:43Z</time>
      </trkpt>
      <trkpt lat="43.8101" lon="7.25175">
        <ele>765</ele>
        <time>2020-08-14T07:16:44Z</time>
      </trkpt>
      <trkpt lat="43.81004" lon="7.25169">
        <ele>765.2</ele>
        <time>2020-08-14T07:16:50Z</time>
      </trkpt>
      <trkpt lat="43.81003" lon="7.25167">
        <ele>765.2</ele>
        <time>2020-08-14T07:16:51Z</time>
      </trkpt>
      <trkpt lat="43.80997" lon="7.25162">
        <ele>765.4</ele>
        <time>2020-08-14T07:16:56Z</time>
      </trkpt>
      <trkpt lat="43.80995" lon="7.25158">
        <ele>765.4</ele>
        <time>2020-08-14T07:16:59Z</time>
      </trkpt>
      <trkpt lat="43.80991" lon="7.25151">
        <ele>765.6</ele>
        <time>2020-08-14T07:17:04Z</time>
      </trkpt>
      <trkpt lat="43.80989" lon="7.25146">
        <ele>765.8</ele>
        <time>2020-08-14T07:17:07Z</time>
      </trkpt>
      <trkpt lat="43.80988" lon="7.25145">
        <ele>765.8</ele>
        <time>2020-08-14T07:17:08Z</time>
      </trkpt>
      <trkpt lat="43.80983" lon="7.25135">
        <ele>766.8</ele>
        <time>2020-08-14T07:17:15Z</time>
      </trkpt>
      <trkpt lat="43.80983" lon="7.25134">
        <ele>766.8</ele>
        <time>2020-08-14T07:17:16Z</time>
      </trkpt>
      <trkpt lat="43.80982" lon="7.25133">
        <ele>767</ele>
        <time>2020-08-14T07:17:17Z</time>
      </trkpt>
      <trkpt lat="43.80977" lon="7.25124">
        <ele>768</ele>
        <time>2020-08-14T07:17:24Z</time>
      </trkpt>
      <trkpt lat="43.80975" lon="7.25122">
        <ele>768.2</ele>
        <time>2020-08-14T07:17:26Z</time>
      </trkpt>
      <trkpt lat="43.80973" lon="7.2512">
        <ele>768.8</ele>
        <time>2020-08-14T07:17:29Z</time>
      </trkpt>
      <trkpt lat="43.80972" lon="7.2512">
        <ele>769</ele>
        <time>2020-08-14T07:17:30Z</time>
      </trkpt>
      <trkpt lat="43.80968" lon="7.25117">
        <ele>769.8</ele>
        <time>2020-08-14T07:17:34Z</time>
      </trkpt>
      <trkpt lat="43.80968" lon="7.25116">
        <ele>770</ele>
        <time>2020-08-14T07:17:35Z</time>
      </trkpt>
      <trkpt lat="43.80962" lon="7.2511">
        <ele>771.2</ele>
        <time>2020-08-14T07:17:41Z</time>
      </trkpt>
      <trkpt lat="43.80955" lon="7.25106">
        <ele>772.2</ele>
        <time>2020-08-14T07:17:48Z</time>
      </trkpt>
      <trkpt lat="43.80955" lon="7.25105">
        <ele>772.4</ele>
        <time>2020-08-14T07:17:49Z</time>
      </trkpt>
      <trkpt lat="43.80952" lon="7.25101">
        <ele>773.2</ele>
        <time>2020-08-14T07:17:53Z</time>
      </trkpt>
      <trkpt lat="43.80948" lon="7.25098">
        <ele>773.8</ele>
        <time>2020-08-14T07:17:57Z</time>
      </trkpt>
      <trkpt lat="43.80943" lon="7.25097">
        <ele>774.4</ele>
        <time>2020-08-14T07:18:01Z</time>
      </trkpt>
      <trkpt lat="43.8094" lon="7.25094">
        <ele>774.8</ele>
        <time>2020-08-14T07:18:04Z</time>
      </trkpt>
      <trkpt lat="43.80938" lon="7.25092">
        <ele>775</ele>
        <time>2020-08-14T07:18:06Z</time>
      </trkpt>
      <trkpt lat="43.80936" lon="7.25091">
        <ele>775.4</ele>
        <time>2020-08-14T07:18:08Z</time>
      </trkpt>
      <trkpt lat="43.80933" lon="7.25089">
        <ele>776</ele>
        <time>2020-08-14T07:18:11Z</time>
      </trkpt>
      <trkpt lat="43.80932" lon="7.25088">
        <ele>776</ele>
        <time>2020-08-14T07:18:12Z</time>
      </trkpt>
      <trkpt lat="43.80929" lon="7.25085">
        <ele>776.4</ele>
        <time>2020-08-14T07:18:15Z</time>
      </trkpt>
      <trkpt lat="43.80928" lon="7.25085">
        <ele>776.4</ele>
        <time>2020-08-14T07:18:16Z</time>
      </trkpt>
      <trkpt lat="43.80927" lon="7.25084">
        <ele>776.6</ele>
        <time>2020-08-14T07:18:17Z</time>
      </trkpt>
      <trkpt lat="43.80925" lon="7.25082">
        <ele>776.6</ele>
        <time>2020-08-14T07:18:19Z</time>
      </trkpt>
      <trkpt lat="43.80914" lon="7.25079">
        <ele>777.4</ele>
        <time>2020-08-14T07:18:28Z</time>
      </trkpt>
      <trkpt lat="43.80912" lon="7.25079">
        <ele>777.4</ele>
        <time>2020-08-14T07:18:29Z</time>
      </trkpt>
      <trkpt lat="43.80906" lon="7.2508">
        <ele>777.6</ele>
        <time>2020-08-14T07:18:33Z</time>
      </trkpt>
      <trkpt lat="43.80902" lon="7.2508">
        <ele>777.8</ele>
        <time>2020-08-14T07:18:36Z</time>
      </trkpt>
      <trkpt lat="43.80901" lon="7.25078">
        <ele>778</ele>
        <time>2020-08-14T07:18:37Z</time>
      </trkpt>
      <trkpt lat="43.80898" lon="7.25073">
        <ele>778.4</ele>
        <time>2020-08-14T07:18:41Z</time>
      </trkpt>
      <trkpt lat="43.80894" lon="7.25071">
        <ele>778.6</ele>
        <time>2020-08-14T07:18:45Z</time>
      </trkpt>
      <trkpt lat="43.8089" lon="7.25072">
        <ele>778.8</ele>
        <time>2020-08-14T07:18:48Z</time>
      </trkpt>
      <trkpt lat="43.80885" lon="7.25073">
        <ele>778.8</ele>
        <time>2020-08-14T07:18:52Z</time>
      </trkpt>
      <trkpt lat="43.80881" lon="7.25073">
        <ele>779</ele>
        <time>2020-08-14T07:18:55Z</time>
      </trkpt>
      <trkpt lat="43.80874" lon="7.25069">
        <ele>779.6</ele>
        <time>2020-08-14T07:19:00Z</time>
      </trkpt>
      <trkpt lat="43.80867" lon="7.25066">
        <ele>779.8</ele>
        <time>2020-08-14T07:19:05Z</time>
      </trkpt>
      <trkpt lat="43.80863" lon="7.25065">
        <ele>780</ele>
        <time>2020-08-14T07:19:08Z</time>
      </trkpt>
      <trkpt lat="43.80858" lon="7.25064">
        <ele>780.4</ele>
        <time>2020-08-14T07:19:12Z</time>
      </trkpt>
      <trkpt lat="43.80857" lon="7.25064">
        <ele>780.4</ele>
        <time>2020-08-14T07:19:13Z</time>
      </trkpt>
      <trkpt lat="43.80855" lon="7.25063">
        <ele>780.6</ele>
        <time>2020-08-14T07:19:15Z</time>
      </trkpt>
      <trkpt lat="43.80847" lon="7.25061">
        <ele>781.2</ele>
        <time>2020-08-14T07:19:21Z</time>
      </trkpt>
      <trkpt lat="43.80845" lon="7.25059">
        <ele>781.8</ele>
        <time>2020-08-14T07:19:23Z</time>
      </trkpt>
      <trkpt lat="43.80845" lon="7.25058">
        <ele>782.2</ele>
        <time>2020-08-14T07:19:24Z</time>
      </trkpt>
      <trkpt lat="43.80843" lon="7.25056">
        <ele>783</ele>
        <time>2020-08-14T07:19:27Z</time>
      </trkpt>
      <trkpt lat="43.80841" lon="7.25054">
        <ele>783.6</ele>
        <time>2020-08-14T07:19:30Z</time>
      </trkpt>
      <trkpt lat="43.80839" lon="7.25052">
        <ele>784</ele>
        <time>2020-08-14T07:19:33Z</time>
      </trkpt>
      <trkpt lat="43.80836" lon="7.25052">
        <ele>784</ele>
        <time>2020-08-14T07:19:36Z</time>
      </trkpt>
      <trkpt lat="43.80834" lon="7.25055">
        <ele>784.4</ele>
        <time>2020-08-14T07:19:40Z</time>
      </trkpt>
      <trkpt lat="43.80835" lon="7.25056">
        <ele>784.8</ele>
        <time>2020-08-14T07:19:42Z</time>
      </trkpt>
      <trkpt lat="43.80837" lon="7.25059">
        <ele>785</ele>
        <time>2020-08-14T07:19:44Z</time>
      </trkpt>
      <trkpt lat="43.80836" lon="7.25065">
        <ele>785.6</ele>
        <time>2020-08-14T07:19:48Z</time>
      </trkpt>
      <trkpt lat="43.80835" lon="7.25065">
        <ele>785.8</ele>
        <time>2020-08-14T07:19:49Z</time>
      </trkpt>
      <trkpt lat="43.80833" lon="7.25067">
        <ele>786</ele>
        <time>2020-08-14T07:19:51Z</time>
      </trkpt>
      <trkpt lat="43.80833" lon="7.25068">
        <ele>786.2</ele>
        <time>2020-08-14T07:19:52Z</time>
      </trkpt>
      <trkpt lat="43.80831" lon="7.25071">
        <ele>786.4</ele>
        <time>2020-08-14T07:19:54Z</time>
      </trkpt>
      <trkpt lat="43.80826" lon="7.25077">
        <ele>787.2</ele>
        <time>2020-08-14T07:20:01Z</time>
      </trkpt>
      <trkpt lat="43.80825" lon="7.2508">
        <ele>787.6</ele>
        <time>2020-08-14T07:20:04Z</time>
      </trkpt>
      <trkpt lat="43.80824" lon="7.25083">
        <ele>787.8</ele>
        <time>2020-08-14T07:20:07Z</time>
      </trkpt>
      <trkpt lat="43.8082" lon="7.2509">
        <ele>788.2</ele>
        <time>2020-08-14T07:20:12Z</time>
      </trkpt>
      <trkpt lat="43.80817" lon="7.25091">
        <ele>788.4</ele>
        <time>2020-08-14T07:20:14Z</time>
      </trkpt>
      <trkpt lat="43.80812" lon="7.25094">
        <ele>788.6</ele>
        <time>2020-08-14T07:20:18Z</time>
      </trkpt>
      <trkpt lat="43.80809" lon="7.25094">
        <ele>788.8</ele>
        <time>2020-08-14T07:20:20Z</time>
      </trkpt>
      <trkpt lat="43.80807" lon="7.25095">
        <ele>788.8</ele>
        <time>2020-08-14T07:20:21Z</time>
      </trkpt>
      <trkpt lat="43.80803" lon="7.25098">
        <ele>789</ele>
        <time>2020-08-14T07:20:25Z</time>
      </trkpt>
      <trkpt lat="43.80798" lon="7.25098">
        <ele>789.4</ele>
        <time>2020-08-14T07:20:28Z</time>
      </trkpt>
      <trkpt lat="43.80797" lon="7.25099">
        <ele>789.4</ele>
        <time>2020-08-14T07:20:29Z</time>
      </trkpt>
      <trkpt lat="43.80796" lon="7.25099">
        <ele>789.4</ele>
        <time>2020-08-14T07:20:30Z</time>
      </trkpt>
      <trkpt lat="43.80795" lon="7.251">
        <ele>789.6</ele>
        <time>2020-08-14T07:20:31Z</time>
      </trkpt>
      <trkpt lat="43.80788" lon="7.25104">
        <ele>790</ele>
        <time>2020-08-14T07:20:36Z</time>
      </trkpt>
      <trkpt lat="43.80787" lon="7.25104">
        <ele>790</ele>
        <time>2020-08-14T07:20:37Z</time>
      </trkpt>
      <trkpt lat="43.80783" lon="7.25107">
        <ele>790</ele>
        <time>2020-08-14T07:20:40Z</time>
      </trkpt>
      <trkpt lat="43.80783" lon="7.25107">
        <ele>790</ele>
        <time>2020-08-14T07:20:41Z</time>
      </trkpt>
      <trkpt lat="43.80782" lon="7.25108">
        <ele>790</ele>
        <time>2020-08-14T07:20:43Z</time>
      </trkpt>
      <trkpt lat="43.80781" lon="7.25109">
        <ele>790</ele>
        <time>2020-08-14T07:20:44Z</time>
      </trkpt>
      <trkpt lat="43.80774" lon="7.25113">
        <ele>789.6</ele>
        <time>2020-08-14T07:20:49Z</time>
      </trkpt>
      <trkpt lat="43.80765" lon="7.25115">
        <ele>788.2</ele>
        <time>2020-08-14T07:20:57Z</time>
      </trkpt>
      <trkpt lat="43.80762" lon="7.25115">
        <ele>787.8</ele>
        <time>2020-08-14T07:21:00Z</time>
      </trkpt>
      <trkpt lat="43.80756" lon="7.25114">
        <ele>787.2</ele>
        <time>2020-08-14T07:21:03Z</time>
      </trkpt>
      <trkpt lat="43.80754" lon="7.25114">
        <ele>787</ele>
        <time>2020-08-14T07:21:04Z</time>
      </trkpt>
      <trkpt lat="43.80745" lon="7.25114">
        <ele>786.6</ele>
        <time>2020-08-14T07:21:09Z</time>
      </trkpt>
      <trkpt lat="43.80741" lon="7.25114">
        <ele>786.4</ele>
        <time>2020-08-14T07:21:12Z</time>
      </trkpt>
      <trkpt lat="43.80738" lon="7.25114">
        <ele>786</ele>
        <time>2020-08-14T07:21:14Z</time>
      </trkpt>
      <trkpt lat="43.80733" lon="7.25114">
        <ele>785.6</ele>
        <time>2020-08-14T07:21:17Z</time>
      </trkpt>
      <trkpt lat="43.80729" lon="7.25115">
        <ele>785.2</ele>
        <time>2020-08-14T07:21:19Z</time>
      </trkpt>
      <trkpt lat="43.80726" lon="7.25115">
        <ele>785</ele>
        <time>2020-08-14T07:21:21Z</time>
      </trkpt>
      <trkpt lat="43.80722" lon="7.25115">
        <ele>785</ele>
        <time>2020-08-14T07:21:24Z</time>
      </trkpt>
      <trkpt lat="43.80721" lon="7.25115">
        <ele>785</ele>
        <time>2020-08-14T07:21:25Z</time>
      </trkpt>
      <trkpt lat="43.8072" lon="7.25116">
        <ele>784.8</ele>
        <time>2020-08-14T07:21:26Z</time>
      </trkpt>
      <trkpt lat="43.80718" lon="7.25116">
        <ele>784.6</ele>
        <time>2020-08-14T07:21:28Z</time>
      </trkpt>
      <trkpt lat="43.80714" lon="7.25116">
        <ele>784.4</ele>
        <time>2020-08-14T07:21:31Z</time>
      </trkpt>
      <trkpt lat="43.8071" lon="7.25115">
        <ele>784.2</ele>
        <time>2020-08-14T07:21:34Z</time>
      </trkpt>
      <trkpt lat="43.80708" lon="7.25114">
        <ele>784</ele>
        <time>2020-08-14T07:21:35Z</time>
      </trkpt>
      <trkpt lat="43.80702" lon="7.2511">
        <ele>783.6</ele>
        <time>2020-08-14T07:21:39Z</time>
      </trkpt>
      <trkpt lat="43.80696" lon="7.25104">
        <ele>783.4</ele>
        <time>2020-08-14T07:21:43Z</time>
      </trkpt>
      <trkpt lat="43.80692" lon="7.25102">
        <ele>783.2</ele>
        <time>2020-08-14T07:21:46Z</time>
      </trkpt>
      <trkpt lat="43.8069" lon="7.25104">
        <ele>783</ele>
        <time>2020-08-14T07:21:48Z</time>
      </trkpt>
      <trkpt lat="43.80683" lon="7.25105">
        <ele>781.8</ele>
        <time>2020-08-14T07:21:53Z</time>
      </trkpt>
      <trkpt lat="43.80678" lon="7.25106">
        <ele>781.4</ele>
        <time>2020-08-14T07:21:56Z</time>
      </trkpt>
      <trkpt lat="43.80671" lon="7.25107">
        <ele>780.8</ele>
        <time>2020-08-14T07:22:01Z</time>
      </trkpt>
      <trkpt lat="43.80667" lon="7.25107">
        <ele>780.8</ele>
        <time>2020-08-14T07:22:04Z</time>
      </trkpt>
      <trkpt lat="43.80652" lon="7.25109">
        <ele>781.6</ele>
        <time>2020-08-14T07:22:15Z</time>
      </trkpt>
      <trkpt lat="43.8065" lon="7.25111">
        <ele>782</ele>
        <time>2020-08-14T07:22:17Z</time>
      </trkpt>
      <trkpt lat="43.80645" lon="7.25118">
        <ele>782.6</ele>
        <time>2020-08-14T07:22:21Z</time>
      </trkpt>
      <trkpt lat="43.8064" lon="7.25119">
        <ele>783.2</ele>
        <time>2020-08-14T07:22:26Z</time>
      </trkpt>
      <trkpt lat="43.80639" lon="7.25119">
        <ele>783.4</ele>
        <time>2020-08-14T07:22:27Z</time>
      </trkpt>
      <trkpt lat="43.80639" lon="7.25119">
        <ele>783.4</ele>
        <time>2020-08-14T07:22:28Z</time>
      </trkpt>
      <trkpt lat="43.80637" lon="7.25121">
        <ele>783.8</ele>
        <time>2020-08-14T07:22:30Z</time>
      </trkpt>
      <trkpt lat="43.80636" lon="7.25122">
        <ele>783.8</ele>
        <time>2020-08-14T07:22:31Z</time>
      </trkpt>
      <trkpt lat="43.80634" lon="7.25123">
        <ele>784</ele>
        <time>2020-08-14T07:22:32Z</time>
      </trkpt>
      <trkpt lat="43.80621" lon="7.25125">
        <ele>783.6</ele>
        <time>2020-08-14T07:22:42Z</time>
      </trkpt>
      <trkpt lat="43.80619" lon="7.25125">
        <ele>783.6</ele>
        <time>2020-08-14T07:22:44Z</time>
      </trkpt>
      <trkpt lat="43.80613" lon="7.25126">
        <ele>783.4</ele>
        <time>2020-08-14T07:22:48Z</time>
      </trkpt>
      <trkpt lat="43.80599" lon="7.2513">
        <ele>783.2</ele>
        <time>2020-08-14T07:22:57Z</time>
      </trkpt>
      <trkpt lat="43.80597" lon="7.25131">
        <ele>783.2</ele>
        <time>2020-08-14T07:22:58Z</time>
      </trkpt>
      <trkpt lat="43.8059" lon="7.2513">
        <ele>783</ele>
        <time>2020-08-14T07:23:03Z</time>
      </trkpt>
      <trkpt lat="43.80582" lon="7.25129">
        <ele>782.6</ele>
        <time>2020-08-14T07:23:09Z</time>
      </trkpt>
      <trkpt lat="43.8057" lon="7.25129">
        <ele>782.2</ele>
        <time>2020-08-14T07:23:17Z</time>
      </trkpt>
      <trkpt lat="43.80568" lon="7.25128">
        <ele>782</ele>
        <time>2020-08-14T07:23:18Z</time>
      </trkpt>
      <trkpt lat="43.80562" lon="7.25128">
        <ele>781.4</ele>
        <time>2020-08-14T07:23:23Z</time>
      </trkpt>
      <trkpt lat="43.80559" lon="7.25128">
        <ele>781.4</ele>
        <time>2020-08-14T07:23:25Z</time>
      </trkpt>
      <trkpt lat="43.80557" lon="7.25127">
        <ele>781.2</ele>
        <time>2020-08-14T07:23:27Z</time>
      </trkpt>
      <trkpt lat="43.80554" lon="7.25128">
        <ele>781</ele>
        <time>2020-08-14T07:23:29Z</time>
      </trkpt>
      <trkpt lat="43.80547" lon="7.25129">
        <ele>780.2</ele>
        <time>2020-08-14T07:23:34Z</time>
      </trkpt>
      <trkpt lat="43.80542" lon="7.25128">
        <ele>780</ele>
        <time>2020-08-14T07:23:38Z</time>
      </trkpt>
      <trkpt lat="43.80538" lon="7.25127">
        <ele>779.4</ele>
        <time>2020-08-14T07:23:41Z</time>
      </trkpt>
      <trkpt lat="43.80536" lon="7.25127">
        <ele>779.2</ele>
        <time>2020-08-14T07:23:42Z</time>
      </trkpt>
      <trkpt lat="43.80532" lon="7.25128">
        <ele>778.8</ele>
        <time>2020-08-14T07:23:45Z</time>
      </trkpt>
      <trkpt lat="43.8052" lon="7.25131">
        <ele>778.8</ele>
        <time>2020-08-14T07:23:54Z</time>
      </trkpt>
      <trkpt lat="43.80509" lon="7.25134">
        <ele>779.6</ele>
        <time>2020-08-14T07:24:04Z</time>
      </trkpt>
      <trkpt lat="43.80506" lon="7.25134">
        <ele>779.8</ele>
        <time>2020-08-14T07:24:06Z</time>
      </trkpt>
      <trkpt lat="43.80502" lon="7.25134">
        <ele>780</ele>
        <time>2020-08-14T07:24:09Z</time>
      </trkpt>
      <trkpt lat="43.80498" lon="7.25134">
        <ele>780.2</ele>
        <time>2020-08-14T07:24:13Z</time>
      </trkpt>
      <trkpt lat="43.80494" lon="7.25134">
        <ele>780</ele>
        <time>2020-08-14T07:24:16Z</time>
      </trkpt>
      <trkpt lat="43.8049" lon="7.25136">
        <ele>779.6</ele>
        <time>2020-08-14T07:24:19Z</time>
      </trkpt>
      <trkpt lat="43.80484" lon="7.25136">
        <ele>779.8</ele>
        <time>2020-08-14T07:24:23Z</time>
      </trkpt>
      <trkpt lat="43.8047" lon="7.25142">
        <ele>780</ele>
        <time>2020-08-14T07:24:33Z</time>
      </trkpt>
      <trkpt lat="43.80459" lon="7.25148">
        <ele>780.4</ele>
        <time>2020-08-14T07:24:41Z</time>
      </trkpt>
      <trkpt lat="43.80452" lon="7.2515">
        <ele>780.6</ele>
        <time>2020-08-14T07:24:46Z</time>
      </trkpt>
      <trkpt lat="43.80449" lon="7.25151">
        <ele>780.6</ele>
        <time>2020-08-14T07:24:49Z</time>
      </trkpt>
      <trkpt lat="43.80442" lon="7.25156">
        <ele>780.4</ele>
        <time>2020-08-14T07:24:55Z</time>
      </trkpt>
      <trkpt lat="43.80439" lon="7.25156">
        <ele>780.2</ele>
        <time>2020-08-14T07:24:57Z</time>
      </trkpt>
      <trkpt lat="43.80429" lon="7.2516">
        <ele>779.6</ele>
        <time>2020-08-14T07:25:04Z</time>
      </trkpt>
      <trkpt lat="43.80419" lon="7.2516">
        <ele>779</ele>
        <time>2020-08-14T07:25:12Z</time>
      </trkpt>
      <trkpt lat="43.80414" lon="7.25162">
        <ele>778.8</ele>
        <time>2020-08-14T07:25:15Z</time>
      </trkpt>
      <trkpt lat="43.80409" lon="7.25165">
        <ele>777.8</ele>
        <time>2020-08-14T07:25:19Z</time>
      </trkpt>
      <trkpt lat="43.80407" lon="7.25167">
        <ele>777.4</ele>
        <time>2020-08-14T07:25:21Z</time>
      </trkpt>
      <trkpt lat="43.80403" lon="7.25168">
        <ele>776.6</ele>
        <time>2020-08-14T07:25:24Z</time>
      </trkpt>
      <trkpt lat="43.80402" lon="7.25169">
        <ele>776.4</ele>
        <time>2020-08-14T07:25:25Z</time>
      </trkpt>
      <trkpt lat="43.80398" lon="7.25169">
        <ele>776</ele>
        <time>2020-08-14T07:25:28Z</time>
      </trkpt>
      <trkpt lat="43.80392" lon="7.2517">
        <ele>775.8</ele>
        <time>2020-08-14T07:25:32Z</time>
      </trkpt>
      <trkpt lat="43.80387" lon="7.25171">
        <ele>775.4</ele>
        <time>2020-08-14T07:25:35Z</time>
      </trkpt>
      <trkpt lat="43.80383" lon="7.25172">
        <ele>774.8</ele>
        <time>2020-08-14T07:25:38Z</time>
      </trkpt>
      <trkpt lat="43.8038" lon="7.25172">
        <ele>774.2</ele>
        <time>2020-08-14T07:25:40Z</time>
      </trkpt>
      <trkpt lat="43.80372" lon="7.25173">
        <ele>773.2</ele>
        <time>2020-08-14T07:25:45Z</time>
      </trkpt>
      <trkpt lat="43.80369" lon="7.25173">
        <ele>772.8</ele>
        <time>2020-08-14T07:25:47Z</time>
      </trkpt>
      <trkpt lat="43.80365" lon="7.25173">
        <ele>771.8</ele>
        <time>2020-08-14T07:25:50Z</time>
      </trkpt>
      <trkpt lat="43.80362" lon="7.25173">
        <ele>771.2</ele>
        <time>2020-08-14T07:25:52Z</time>
      </trkpt>
      <trkpt lat="43.80357" lon="7.25172">
        <ele>770.8</ele>
        <time>2020-08-14T07:25:55Z</time>
      </trkpt>
      <trkpt lat="43.80354" lon="7.25172">
        <ele>770.4</ele>
        <time>2020-08-14T07:25:57Z</time>
      </trkpt>
      <trkpt lat="43.8035" lon="7.25172">
        <ele>770</ele>
        <time>2020-08-14T07:26:00Z</time>
      </trkpt>
      <trkpt lat="43.80347" lon="7.25172">
        <ele>769.6</ele>
        <time>2020-08-14T07:26:02Z</time>
      </trkpt>
      <trkpt lat="43.80333" lon="7.2517">
        <ele>768.6</ele>
        <time>2020-08-14T07:26:11Z</time>
      </trkpt>
      <trkpt lat="43.80327" lon="7.25168">
        <ele>767.8</ele>
        <time>2020-08-14T07:26:15Z</time>
      </trkpt>
      <trkpt lat="43.80323" lon="7.25166">
        <ele>767.4</ele>
        <time>2020-08-14T07:26:18Z</time>
      </trkpt>
      <trkpt lat="43.80313" lon="7.25162">
        <ele>766.6</ele>
        <time>2020-08-14T07:26:25Z</time>
      </trkpt>
      <trkpt lat="43.80302" lon="7.25156">
        <ele>766.6</ele>
        <time>2020-08-14T07:26:33Z</time>
      </trkpt>
      <trkpt lat="43.80299" lon="7.25155">
        <ele>766.6</ele>
        <time>2020-08-14T07:26:35Z</time>
      </trkpt>
      <trkpt lat="43.8029" lon="7.25151">
        <ele>766.4</ele>
        <time>2020-08-14T07:26:41Z</time>
      </trkpt>
      <trkpt lat="43.80284" lon="7.25147">
        <ele>766</ele>
        <time>2020-08-14T07:26:45Z</time>
      </trkpt>
      <trkpt lat="43.80273" lon="7.2514">
        <ele>766.2</ele>
        <time>2020-08-14T07:26:54Z</time>
      </trkpt>
      <trkpt lat="43.80266" lon="7.25132">
        <ele>767.4</ele>
        <time>2020-08-14T07:27:03Z</time>
      </trkpt>
      <trkpt lat="43.80262" lon="7.25126">
        <ele>768.6</ele>
        <time>2020-08-14T07:27:09Z</time>
      </trkpt>
      <trkpt lat="43.80261" lon="7.25125">
        <ele>768.6</ele>
        <time>2020-08-14T07:27:10Z</time>
      </trkpt>
      <trkpt lat="43.80258" lon="7.25122">
        <ele>768.8</ele>
        <time>2020-08-14T07:27:12Z</time>
      </trkpt>
      <trkpt lat="43.80252" lon="7.25116">
        <ele>768.8</ele>
        <time>2020-08-14T07:27:17Z</time>
      </trkpt>
      <trkpt lat="43.80248" lon="7.25112">
        <ele>768.4</ele>
        <time>2020-08-14T07:27:20Z</time>
      </trkpt>
      <trkpt lat="43.8024" lon="7.25104">
        <ele>767.8</ele>
        <time>2020-08-14T07:27:28Z</time>
      </trkpt>
      <trkpt lat="43.80238" lon="7.25102">
        <ele>767.8</ele>
        <time>2020-08-14T07:27:30Z</time>
      </trkpt>
      <trkpt lat="43.80228" lon="7.25089">
        <ele>767.6</ele>
        <time>2020-08-14T07:27:39Z</time>
      </trkpt>
      <trkpt lat="43.80223" lon="7.25082">
        <ele>767.6</ele>
        <time>2020-08-14T07:27:44Z</time>
      </trkpt>
      <trkpt lat="43.80213" lon="7.25062">
        <ele>767.6</ele>
        <time>2020-08-14T07:27:56Z</time>
      </trkpt>
      <trkpt lat="43.8021" lon="7.25054">
        <ele>767.8</ele>
        <time>2020-08-14T07:28:01Z</time>
      </trkpt>
      <trkpt lat="43.80206" lon="7.25043">
        <ele>768</ele>
        <time>2020-08-14T07:28:07Z</time>
      </trkpt>
      <trkpt lat="43.80204" lon="7.25033">
        <ele>767.6</ele>
        <time>2020-08-14T07:28:12Z</time>
      </trkpt>
      <trkpt lat="43.80201" lon="7.25027">
        <ele>767.2</ele>
        <time>2020-08-14T07:28:16Z</time>
      </trkpt>
      <trkpt lat="43.802" lon="7.25025">
        <ele>767</ele>
        <time>2020-08-14T07:28:17Z</time>
      </trkpt>
      <trkpt lat="43.80197" lon="7.25021">
        <ele>766.2</ele>
        <time>2020-08-14T07:28:20Z</time>
      </trkpt>
      <trkpt lat="43.80193" lon="7.25017">
        <ele>764.8</ele>
        <time>2020-08-14T07:28:24Z</time>
      </trkpt>
      <trkpt lat="43.80191" lon="7.25011">
        <ele>763.6</ele>
        <time>2020-08-14T07:28:27Z</time>
      </trkpt>
      <trkpt lat="43.80188" lon="7.25008">
        <ele>762.6</ele>
        <time>2020-08-14T07:28:30Z</time>
      </trkpt>
      <trkpt lat="43.80187" lon="7.25007">
        <ele>762.2</ele>
        <time>2020-08-14T07:28:31Z</time>
      </trkpt>
      <trkpt lat="43.80185" lon="7.25006">
        <ele>761.8</ele>
        <time>2020-08-14T07:28:32Z</time>
      </trkpt>
      <trkpt lat="43.80183" lon="7.25005">
        <ele>761.2</ele>
        <time>2020-08-14T07:28:34Z</time>
      </trkpt>
      <trkpt lat="43.80182" lon="7.25004">
        <ele>761</ele>
        <time>2020-08-14T07:28:35Z</time>
      </trkpt>
      <trkpt lat="43.80176" lon="7.24998">
        <ele>760</ele>
        <time>2020-08-14T07:28:41Z</time>
      </trkpt>
      <trkpt lat="43.80175" lon="7.24996">
        <ele>759.8</ele>
        <time>2020-08-14T07:28:42Z</time>
      </trkpt>
      <trkpt lat="43.80174" lon="7.24995">
        <ele>759.6</ele>
        <time>2020-08-14T07:28:43Z</time>
      </trkpt>
      <trkpt lat="43.8017" lon="7.24991">
        <ele>758.8</ele>
        <time>2020-08-14T07:28:47Z</time>
      </trkpt>
      <trkpt lat="43.80169" lon="7.24989">
        <ele>758.8</ele>
        <time>2020-08-14T07:28:48Z</time>
      </trkpt>
      <trkpt lat="43.80164" lon="7.24984">
        <ele>758</ele>
        <time>2020-08-14T07:28:53Z</time>
      </trkpt>
      <trkpt lat="43.80163" lon="7.24983">
        <ele>757.8</ele>
        <time>2020-08-14T07:28:54Z</time>
      </trkpt>
      <trkpt lat="43.80161" lon="7.24982">
        <ele>757.6</ele>
        <time>2020-08-14T07:28:55Z</time>
      </trkpt>
      <trkpt lat="43.80156" lon="7.24979">
        <ele>756.6</ele>
        <time>2020-08-14T07:29:00Z</time>
      </trkpt>
      <trkpt lat="43.80151" lon="7.2498">
        <ele>755.6</ele>
        <time>2020-08-14T07:29:03Z</time>
      </trkpt>
      <trkpt lat="43.80149" lon="7.2498">
        <ele>755.4</ele>
        <time>2020-08-14T07:29:04Z</time>
      </trkpt>
      <trkpt lat="43.80138" lon="7.2498">
        <ele>754.8</ele>
        <time>2020-08-14T07:29:13Z</time>
      </trkpt>
      <trkpt lat="43.80124" lon="7.24971">
        <ele>754.8</ele>
        <time>2020-08-14T07:29:22Z</time>
      </trkpt>
      <trkpt lat="43.80123" lon="7.24969">
        <ele>754.6</ele>
        <time>2020-08-14T07:29:23Z</time>
      </trkpt>
      <trkpt lat="43.8012" lon="7.24962">
        <ele>755</ele>
        <time>2020-08-14T07:29:28Z</time>
      </trkpt>
      <trkpt lat="43.80119" lon="7.2496">
        <ele>755</ele>
        <time>2020-08-14T07:29:30Z</time>
      </trkpt>
      <trkpt lat="43.80111" lon="7.24943">
        <ele>754.6</ele>
        <time>2020-08-14T07:29:40Z</time>
      </trkpt>
      <trkpt lat="43.80105" lon="7.2493">
        <ele>754.4</ele>
        <time>2020-08-14T07:29:48Z</time>
      </trkpt>
      <trkpt lat="43.80103" lon="7.24927">
        <ele>754.2</ele>
        <time>2020-08-14T07:29:50Z</time>
      </trkpt>
      <trkpt lat="43.80101" lon="7.24926">
        <ele>754</ele>
        <time>2020-08-14T07:29:51Z</time>
      </trkpt>
      <trkpt lat="43.801" lon="7.24924">
        <ele>754</ele>
        <time>2020-08-14T07:29:52Z</time>
      </trkpt>
      <trkpt lat="43.80094" lon="7.24918">
        <ele>753.4</ele>
        <time>2020-08-14T07:29:58Z</time>
      </trkpt>
      <trkpt lat="43.80088" lon="7.24905">
        <ele>753.6</ele>
        <time>2020-08-14T07:30:06Z</time>
      </trkpt>
      <trkpt lat="43.80082" lon="7.24884">
        <ele>752</ele>
        <time>2020-08-14T07:30:17Z</time>
      </trkpt>
      <trkpt lat="43.80079" lon="7.2488">
        <ele>751</ele>
        <time>2020-08-14T07:30:20Z</time>
      </trkpt>
      <trkpt lat="43.80077" lon="7.24872">
        <ele>750.2</ele>
        <time>2020-08-14T07:30:25Z</time>
      </trkpt>
      <trkpt lat="43.80075" lon="7.24868">
        <ele>750.2</ele>
        <time>2020-08-14T07:30:27Z</time>
      </trkpt>
      <trkpt lat="43.80072" lon="7.24851">
        <ele>750</ele>
        <time>2020-08-14T07:30:36Z</time>
      </trkpt>
      <trkpt lat="43.80072" lon="7.2484">
        <ele>749.8</ele>
        <time>2020-08-14T07:30:41Z</time>
      </trkpt>
      <trkpt lat="43.80076" lon="7.24823">
        <ele>749.4</ele>
        <time>2020-08-14T07:30:50Z</time>
      </trkpt>
      <trkpt lat="43.80076" lon="7.24821">
        <ele>749.2</ele>
        <time>2020-08-14T07:30:51Z</time>
      </trkpt>
      <trkpt lat="43.80076" lon="7.24816">
        <ele>748.8</ele>
        <time>2020-08-14T07:30:54Z</time>
      </trkpt>
      <trkpt lat="43.80075" lon="7.24807">
        <ele>748.4</ele>
        <time>2020-08-14T07:30:59Z</time>
      </trkpt>
      <trkpt lat="43.80074" lon="7.24803">
        <ele>747.8</ele>
        <time>2020-08-14T07:31:01Z</time>
      </trkpt>
      <trkpt lat="43.80074" lon="7.24794">
        <ele>746.8</ele>
        <time>2020-08-14T07:31:05Z</time>
      </trkpt>
      <trkpt lat="43.80073" lon="7.24792">
        <ele>746.2</ele>
        <time>2020-08-14T07:31:06Z</time>
      </trkpt>
      <trkpt lat="43.80072" lon="7.24788">
        <ele>745.6</ele>
        <time>2020-08-14T07:31:08Z</time>
      </trkpt>
      <trkpt lat="43.80071" lon="7.24785">
        <ele>745.2</ele>
        <time>2020-08-14T07:31:10Z</time>
      </trkpt>
      <trkpt lat="43.8007" lon="7.24778">
        <ele>744.6</ele>
        <time>2020-08-14T07:31:13Z</time>
      </trkpt>
      <trkpt lat="43.8007" lon="7.24773">
        <ele>743.8</ele>
        <time>2020-08-14T07:31:15Z</time>
      </trkpt>
      <trkpt lat="43.80069" lon="7.24769">
        <ele>743.4</ele>
        <time>2020-08-14T07:31:17Z</time>
      </trkpt>
      <trkpt lat="43.80069" lon="7.24764">
        <ele>742.8</ele>
        <time>2020-08-14T07:31:20Z</time>
      </trkpt>
      <trkpt lat="43.80065" lon="7.2475">
        <ele>742.4</ele>
        <time>2020-08-14T07:31:28Z</time>
      </trkpt>
      <trkpt lat="43.80065" lon="7.24748">
        <ele>742.2</ele>
        <time>2020-08-14T07:31:29Z</time>
      </trkpt>
      <trkpt lat="43.80064" lon="7.24737">
        <ele>741.2</ele>
        <time>2020-08-14T07:31:34Z</time>
      </trkpt>
      <trkpt lat="43.80063" lon="7.24732">
        <ele>740.8</ele>
        <time>2020-08-14T07:31:37Z</time>
      </trkpt>
      <trkpt lat="43.80061" lon="7.24726">
        <ele>740.2</ele>
        <time>2020-08-14T07:31:40Z</time>
      </trkpt>
      <trkpt lat="43.80059" lon="7.24718">
        <ele>738.8</ele>
        <time>2020-08-14T07:31:44Z</time>
      </trkpt>
      <trkpt lat="43.80058" lon="7.24714">
        <ele>738</ele>
        <time>2020-08-14T07:31:46Z</time>
      </trkpt>
      <trkpt lat="43.80057" lon="7.24713">
        <ele>737.6</ele>
        <time>2020-08-14T07:31:47Z</time>
      </trkpt>
      <trkpt lat="43.80055" lon="7.24707">
        <ele>736.6</ele>
        <time>2020-08-14T07:31:51Z</time>
      </trkpt>
      <trkpt lat="43.80052" lon="7.24702">
        <ele>735.8</ele>
        <time>2020-08-14T07:31:54Z</time>
      </trkpt>
      <trkpt lat="43.80051" lon="7.247">
        <ele>735.6</ele>
        <time>2020-08-14T07:31:55Z</time>
      </trkpt>
      <trkpt lat="43.80046" lon="7.2469">
        <ele>734.4</ele>
        <time>2020-08-14T07:32:01Z</time>
      </trkpt>
      <trkpt lat="43.80045" lon="7.24684">
        <ele>734</ele>
        <time>2020-08-14T07:32:04Z</time>
      </trkpt>
      <trkpt lat="43.80042" lon="7.24674">
        <ele>734.2</ele>
        <time>2020-08-14T07:32:11Z</time>
      </trkpt>
      <trkpt lat="43.80038" lon="7.24673">
        <ele>734.4</ele>
        <time>2020-08-14T07:32:14Z</time>
      </trkpt>
      <trkpt lat="43.80034" lon="7.24674">
        <ele>734.6</ele>
        <time>2020-08-14T07:32:17Z</time>
      </trkpt>
      <trkpt lat="43.80031" lon="7.2468">
        <ele>735</ele>
        <time>2020-08-14T07:32:21Z</time>
      </trkpt>
      <trkpt lat="43.80024" lon="7.24686">
        <ele>735.2</ele>
        <time>2020-08-14T07:32:26Z</time>
      </trkpt>
      <trkpt lat="43.80022" lon="7.24686">
        <ele>735.4</ele>
        <time>2020-08-14T07:32:28Z</time>
      </trkpt>
      <trkpt lat="43.8002" lon="7.24686">
        <ele>735.8</ele>
        <time>2020-08-14T07:32:30Z</time>
      </trkpt>
      <trkpt lat="43.80015" lon="7.24685">
        <ele>736.6</ele>
        <time>2020-08-14T07:32:35Z</time>
      </trkpt>
      <trkpt lat="43.80013" lon="7.24684">
        <ele>737</ele>
        <time>2020-08-14T07:32:38Z</time>
      </trkpt>
      <trkpt lat="43.80011" lon="7.24684">
        <ele>737.4</ele>
        <time>2020-08-14T07:32:40Z</time>
      </trkpt>
      <trkpt lat="43.80009" lon="7.24684">
        <ele>737.6</ele>
        <time>2020-08-14T07:32:42Z</time>
      </trkpt>
      <trkpt lat="43.80007" lon="7.24685">
        <ele>738</ele>
        <time>2020-08-14T07:32:44Z</time>
      </trkpt>
      <trkpt lat="43.80007" lon="7.24686">
        <ele>738.2</ele>
        <time>2020-08-14T07:32:45Z</time>
      </trkpt>
      <trkpt lat="43.80005" lon="7.24687">
        <ele>738.6</ele>
        <time>2020-08-14T07:32:48Z</time>
      </trkpt>
      <trkpt lat="43.79999" lon="7.2469">
        <ele>739.6</ele>
        <time>2020-08-14T07:32:54Z</time>
      </trkpt>
      <trkpt lat="43.79998" lon="7.24691">
        <ele>739.8</ele>
        <time>2020-08-14T07:32:55Z</time>
      </trkpt>
      <trkpt lat="43.79993" lon="7.2469">
        <ele>740.4</ele>
        <time>2020-08-14T07:32:59Z</time>
      </trkpt>
      <trkpt lat="43.79991" lon="7.2469">
        <ele>740.6</ele>
        <time>2020-08-14T07:33:01Z</time>
      </trkpt>
      <trkpt lat="43.79989" lon="7.2469">
        <ele>740.8</ele>
        <time>2020-08-14T07:33:03Z</time>
      </trkpt>
      <trkpt lat="43.79987" lon="7.2469">
        <ele>740.8</ele>
        <time>2020-08-14T07:33:05Z</time>
      </trkpt>
      <trkpt lat="43.79979" lon="7.24689">
        <ele>741.4</ele>
        <time>2020-08-14T07:33:10Z</time>
      </trkpt>
      <trkpt lat="43.79977" lon="7.2469">
        <ele>741.6</ele>
        <time>2020-08-14T07:33:12Z</time>
      </trkpt>
      <trkpt lat="43.7997" lon="7.2469">
        <ele>741.8</ele>
        <time>2020-08-14T07:33:17Z</time>
      </trkpt>
      <trkpt lat="43.79969" lon="7.24691">
        <ele>741.8</ele>
        <time>2020-08-14T07:33:18Z</time>
      </trkpt>
      <trkpt lat="43.79967" lon="7.24691">
        <ele>742</ele>
        <time>2020-08-14T07:33:20Z</time>
      </trkpt>
      <trkpt lat="43.79966" lon="7.24691">
        <ele>742.2</ele>
        <time>2020-08-14T07:33:21Z</time>
      </trkpt>
      <trkpt lat="43.79958" lon="7.24693">
        <ele>743</ele>
        <time>2020-08-14T07:33:28Z</time>
      </trkpt>
      <trkpt lat="43.79956" lon="7.24694">
        <ele>743.2</ele>
        <time>2020-08-14T07:33:30Z</time>
      </trkpt>
      <trkpt lat="43.79948" lon="7.24696">
        <ele>743.8</ele>
        <time>2020-08-14T07:33:37Z</time>
      </trkpt>
      <trkpt lat="43.79946" lon="7.24696">
        <ele>744</ele>
        <time>2020-08-14T07:33:39Z</time>
      </trkpt>
      <trkpt lat="43.79944" lon="7.24696">
        <ele>744.2</ele>
        <time>2020-08-14T07:33:41Z</time>
      </trkpt>
      <trkpt lat="43.79939" lon="7.24699">
        <ele>744.8</ele>
        <time>2020-08-14T07:33:45Z</time>
      </trkpt>
      <trkpt lat="43.79936" lon="7.247">
        <ele>745</ele>
        <time>2020-08-14T07:33:48Z</time>
      </trkpt>
      <trkpt lat="43.79935" lon="7.247">
        <ele>745.4</ele>
        <time>2020-08-14T07:33:50Z</time>
      </trkpt>
      <trkpt lat="43.79928" lon="7.24702">
        <ele>746.2</ele>
        <time>2020-08-14T07:33:56Z</time>
      </trkpt>
      <trkpt lat="43.79924" lon="7.24704">
        <ele>746.8</ele>
        <time>2020-08-14T07:34:00Z</time>
      </trkpt>
      <trkpt lat="43.7992" lon="7.24705">
        <ele>747.2</ele>
        <time>2020-08-14T07:34:04Z</time>
      </trkpt>
      <trkpt lat="43.79911" lon="7.24708">
        <ele>748</ele>
        <time>2020-08-14T07:34:11Z</time>
      </trkpt>
      <trkpt lat="43.7991" lon="7.24709">
        <ele>748.2</ele>
        <time>2020-08-14T07:34:12Z</time>
      </trkpt>
      <trkpt lat="43.79909" lon="7.24709">
        <ele>748.2</ele>
        <time>2020-08-14T07:34:13Z</time>
      </trkpt>
      <trkpt lat="43.79908" lon="7.24709">
        <ele>748.4</ele>
        <time>2020-08-14T07:34:14Z</time>
      </trkpt>
      <trkpt lat="43.79904" lon="7.24711">
        <ele>748.6</ele>
        <time>2020-08-14T07:34:17Z</time>
      </trkpt>
      <trkpt lat="43.799" lon="7.24711">
        <ele>748.8</ele>
        <time>2020-08-14T07:34:20Z</time>
      </trkpt>
      <trkpt lat="43.79896" lon="7.24711">
        <ele>749.4</ele>
        <time>2020-08-14T07:34:24Z</time>
      </trkpt>
      <trkpt lat="43.7989" lon="7.24714">
        <ele>750.2</ele>
        <time>2020-08-14T07:34:30Z</time>
      </trkpt>
      <trkpt lat="43.79887" lon="7.24714">
        <ele>750.4</ele>
        <time>2020-08-14T07:34:33Z</time>
      </trkpt>
      <trkpt lat="43.7988" lon="7.24715">
        <ele>751.4</ele>
        <time>2020-08-14T07:34:39Z</time>
      </trkpt>
      <trkpt lat="43.79877" lon="7.24716">
        <ele>751.8</ele>
        <time>2020-08-14T07:34:42Z</time>
      </trkpt>
      <trkpt lat="43.79876" lon="7.24718">
        <ele>752</ele>
        <time>2020-08-14T07:34:44Z</time>
      </trkpt>
      <trkpt lat="43.7987" lon="7.24722">
        <ele>752.4</ele>
        <time>2020-08-14T07:34:49Z</time>
      </trkpt>
      <trkpt lat="43.79866" lon="7.24723">
        <ele>752.8</ele>
        <time>2020-08-14T07:34:53Z</time>
      </trkpt>
      <trkpt lat="43.79862" lon="7.24724">
        <ele>753.2</ele>
        <time>2020-08-14T07:34:57Z</time>
      </trkpt>
      <trkpt lat="43.79859" lon="7.24727">
        <ele>753.6</ele>
        <time>2020-08-14T07:35:01Z</time>
      </trkpt>
      <trkpt lat="43.79853" lon="7.24732">
        <ele>754</ele>
        <time>2020-08-14T07:35:07Z</time>
      </trkpt>
      <trkpt lat="43.79848" lon="7.24736">
        <ele>754.4</ele>
        <time>2020-08-14T07:35:10Z</time>
      </trkpt>
      <trkpt lat="43.79847" lon="7.24737">
        <ele>754.6</ele>
        <time>2020-08-14T07:35:11Z</time>
      </trkpt>
      <trkpt lat="43.79845" lon="7.24739">
        <ele>754.8</ele>
        <time>2020-08-14T07:35:13Z</time>
      </trkpt>
      <trkpt lat="43.79845" lon="7.2474">
        <ele>755</ele>
        <time>2020-08-14T07:35:14Z</time>
      </trkpt>
      <trkpt lat="43.79838" lon="7.24747">
        <ele>755.6</ele>
        <time>2020-08-14T07:35:22Z</time>
      </trkpt>
      <trkpt lat="43.79837" lon="7.24748">
        <ele>755.8</ele>
        <time>2020-08-14T07:35:23Z</time>
      </trkpt>
      <trkpt lat="43.79829" lon="7.24753">
        <ele>756.8</ele>
        <time>2020-08-14T07:35:31Z</time>
      </trkpt>
      <trkpt lat="43.79827" lon="7.24756">
        <ele>757</ele>
        <time>2020-08-14T07:35:34Z</time>
      </trkpt>
      <trkpt lat="43.79823" lon="7.2476">
        <ele>757.4</ele>
        <time>2020-08-14T07:35:39Z</time>
      </trkpt>
      <trkpt lat="43.79822" lon="7.24761">
        <ele>757.8</ele>
        <time>2020-08-14T07:35:41Z</time>
      </trkpt>
      <trkpt lat="43.79818" lon="7.24761">
        <ele>758.6</ele>
        <time>2020-08-14T07:35:45Z</time>
      </trkpt>
      <trkpt lat="43.79817" lon="7.24761">
        <ele>759</ele>
        <time>2020-08-14T07:35:46Z</time>
      </trkpt>
      <trkpt lat="43.79813" lon="7.24761">
        <ele>759.2</ele>
        <time>2020-08-14T07:35:49Z</time>
      </trkpt>
      <trkpt lat="43.79811" lon="7.24762">
        <ele>759.6</ele>
        <time>2020-08-14T07:35:51Z</time>
      </trkpt>
      <trkpt lat="43.79809" lon="7.24763">
        <ele>759.6</ele>
        <time>2020-08-14T07:35:53Z</time>
      </trkpt>
      <trkpt lat="43.798" lon="7.2477">
        <ele>759.6</ele>
        <time>2020-08-14T07:36:01Z</time>
      </trkpt>
      <trkpt lat="43.79787" lon="7.24779">
        <ele>759.6</ele>
        <time>2020-08-14T07:36:11Z</time>
      </trkpt>
      <trkpt lat="43.79786" lon="7.2478">
        <ele>759.4</ele>
        <time>2020-08-14T07:36:12Z</time>
      </trkpt>
      <trkpt lat="43.7978" lon="7.24783">
        <ele>759.4</ele>
        <time>2020-08-14T07:36:17Z</time>
      </trkpt>
      <trkpt lat="43.79769" lon="7.24788">
        <ele>759</ele>
        <time>2020-08-14T07:36:25Z</time>
      </trkpt>
      <trkpt lat="43.79758" lon="7.24792">
        <ele>758.2</ele>
        <time>2020-08-14T07:36:34Z</time>
      </trkpt>
      <trkpt lat="43.79754" lon="7.24793">
        <ele>758</ele>
        <time>2020-08-14T07:36:37Z</time>
      </trkpt>
      <trkpt lat="43.79753" lon="7.24794">
        <ele>757.8</ele>
        <time>2020-08-14T07:36:38Z</time>
      </trkpt>
      <trkpt lat="43.79751" lon="7.24794">
        <ele>757.8</ele>
        <time>2020-08-14T07:36:39Z</time>
      </trkpt>
      <trkpt lat="43.79749" lon="7.24796">
        <ele>757.4</ele>
        <time>2020-08-14T07:36:41Z</time>
      </trkpt>
      <trkpt lat="43.79745" lon="7.24798">
        <ele>756.8</ele>
        <time>2020-08-14T07:36:44Z</time>
      </trkpt>
      <trkpt lat="43.79743" lon="7.24799">
        <ele>756.6</ele>
        <time>2020-08-14T07:36:45Z</time>
      </trkpt>
      <trkpt lat="43.79737" lon="7.24803">
        <ele>755.8</ele>
        <time>2020-08-14T07:36:50Z</time>
      </trkpt>
      <trkpt lat="43.7973" lon="7.24807">
        <ele>755.2</ele>
        <time>2020-08-14T07:36:55Z</time>
      </trkpt>
      <trkpt lat="43.79725" lon="7.24813">
        <ele>754.6</ele>
        <time>2020-08-14T07:37:00Z</time>
      </trkpt>
      <trkpt lat="43.79722" lon="7.24815">
        <ele>754.4</ele>
        <time>2020-08-14T07:37:03Z</time>
      </trkpt>
      <trkpt lat="43.79718" lon="7.24818">
        <ele>753.8</ele>
        <time>2020-08-14T07:37:07Z</time>
      </trkpt>
      <trkpt lat="43.79714" lon="7.24821">
        <ele>753.6</ele>
        <time>2020-08-14T07:37:10Z</time>
      </trkpt>
      <trkpt lat="43.79711" lon="7.24825">
        <ele>753.4</ele>
        <time>2020-08-14T07:37:13Z</time>
      </trkpt>
      <trkpt lat="43.79704" lon="7.24832">
        <ele>752.4</ele>
        <time>2020-08-14T07:37:18Z</time>
      </trkpt>
      <trkpt lat="43.79699" lon="7.2484">
        <ele>751.8</ele>
        <time>2020-08-14T07:37:24Z</time>
      </trkpt>
      <trkpt lat="43.79696" lon="7.24846">
        <ele>751.4</ele>
        <time>2020-08-14T07:37:27Z</time>
      </trkpt>
      <trkpt lat="43.79691" lon="7.24853">
        <ele>750.8</ele>
        <time>2020-08-14T07:37:31Z</time>
      </trkpt>
      <trkpt lat="43.79689" lon="7.24859">
        <ele>750.4</ele>
        <time>2020-08-14T07:37:35Z</time>
      </trkpt>
      <trkpt lat="43.79685" lon="7.24863">
        <ele>750</ele>
        <time>2020-08-14T07:37:38Z</time>
      </trkpt>
      <trkpt lat="43.79681" lon="7.24868">
        <ele>749.4</ele>
        <time>2020-08-14T07:37:42Z</time>
      </trkpt>
      <trkpt lat="43.79675" lon="7.24876">
        <ele>748.4</ele>
        <time>2020-08-14T07:37:48Z</time>
      </trkpt>
      <trkpt lat="43.79674" lon="7.24877">
        <ele>748.2</ele>
        <time>2020-08-14T07:37:49Z</time>
      </trkpt>
      <trkpt lat="43.79666" lon="7.2488">
        <ele>747.2</ele>
        <time>2020-08-14T07:37:55Z</time>
      </trkpt>
      <trkpt lat="43.79664" lon="7.24881">
        <ele>747.2</ele>
        <time>2020-08-14T07:37:56Z</time>
      </trkpt>
      <trkpt lat="43.79663" lon="7.24883">
        <ele>746.8</ele>
        <time>2020-08-14T07:37:57Z</time>
      </trkpt>
      <trkpt lat="43.79657" lon="7.24889">
        <ele>746.2</ele>
        <time>2020-08-14T07:38:01Z</time>
      </trkpt>
      <trkpt lat="43.79655" lon="7.2489">
        <ele>746</ele>
        <time>2020-08-14T07:38:02Z</time>
      </trkpt>
      <trkpt lat="43.79652" lon="7.24893">
        <ele>745.4</ele>
        <time>2020-08-14T07:38:05Z</time>
      </trkpt>
      <trkpt lat="43.79649" lon="7.24895">
        <ele>744.8</ele>
        <time>2020-08-14T07:38:08Z</time>
      </trkpt>
      <trkpt lat="43.79644" lon="7.249">
        <ele>743.8</ele>
        <time>2020-08-14T07:38:13Z</time>
      </trkpt>
      <trkpt lat="43.79642" lon="7.249">
        <ele>743.8</ele>
        <time>2020-08-14T07:38:14Z</time>
      </trkpt>
      <trkpt lat="43.79634" lon="7.24904">
        <ele>742.6</ele>
        <time>2020-08-14T07:38:20Z</time>
      </trkpt>
      <trkpt lat="43.79631" lon="7.24905">
        <ele>742.4</ele>
        <time>2020-08-14T07:38:22Z</time>
      </trkpt>
      <trkpt lat="43.79623" lon="7.24906">
        <ele>741.6</ele>
        <time>2020-08-14T07:38:28Z</time>
      </trkpt>
      <trkpt lat="43.79619" lon="7.24906">
        <ele>741.4</ele>
        <time>2020-08-14T07:38:30Z</time>
      </trkpt>
      <trkpt lat="43.79609" lon="7.24907">
        <ele>740.6</ele>
        <time>2020-08-14T07:38:37Z</time>
      </trkpt>
      <trkpt lat="43.79606" lon="7.24907">
        <ele>740.2</ele>
        <time>2020-08-14T07:38:39Z</time>
      </trkpt>
      <trkpt lat="43.79603" lon="7.24907">
        <ele>740</ele>
        <time>2020-08-14T07:38:41Z</time>
      </trkpt>
      <trkpt lat="43.79597" lon="7.24906">
        <ele>739.4</ele>
        <time>2020-08-14T07:38:45Z</time>
      </trkpt>
      <trkpt lat="43.79589" lon="7.24906">
        <ele>738.8</ele>
        <time>2020-08-14T07:38:50Z</time>
      </trkpt>
      <trkpt lat="43.79582" lon="7.24905">
        <ele>738.4</ele>
        <time>2020-08-14T07:38:54Z</time>
      </trkpt>
      <trkpt lat="43.79575" lon="7.24907">
        <ele>737.8</ele>
        <time>2020-08-14T07:38:59Z</time>
      </trkpt>
      <trkpt lat="43.79567" lon="7.24904">
        <ele>737.2</ele>
        <time>2020-08-14T07:39:05Z</time>
      </trkpt>
      <trkpt lat="43.79559" lon="7.24903">
        <ele>736.8</ele>
        <time>2020-08-14T07:39:10Z</time>
      </trkpt>
      <trkpt lat="43.79548" lon="7.24904">
        <ele>736.4</ele>
        <time>2020-08-14T07:39:18Z</time>
      </trkpt>
      <trkpt lat="43.79547" lon="7.24905">
        <ele>736.2</ele>
        <time>2020-08-14T07:39:19Z</time>
      </trkpt>
      <trkpt lat="43.79544" lon="7.24904">
        <ele>736.2</ele>
        <time>2020-08-14T07:39:21Z</time>
      </trkpt>
      <trkpt lat="43.79527" lon="7.24901">
        <ele>735.6</ele>
        <time>2020-08-14T07:39:32Z</time>
      </trkpt>
      <trkpt lat="43.79521" lon="7.24901">
        <ele>735.2</ele>
        <time>2020-08-14T07:39:37Z</time>
      </trkpt>
      <trkpt lat="43.79513" lon="7.24901">
        <ele>735</ele>
        <time>2020-08-14T07:39:42Z</time>
      </trkpt>
      <trkpt lat="43.7951" lon="7.249">
        <ele>735</ele>
        <time>2020-08-14T07:39:44Z</time>
      </trkpt>
      <trkpt lat="43.79501" lon="7.24896">
        <ele>734.4</ele>
        <time>2020-08-14T07:39:51Z</time>
      </trkpt>
      <trkpt lat="43.79496" lon="7.24893">
        <ele>734.2</ele>
        <time>2020-08-14T07:39:55Z</time>
      </trkpt>
      <trkpt lat="43.7949" lon="7.24892">
        <ele>733.8</ele>
        <time>2020-08-14T07:39:59Z</time>
      </trkpt>
      <trkpt lat="43.79487" lon="7.2489">
        <ele>733.6</ele>
        <time>2020-08-14T07:40:01Z</time>
      </trkpt>
      <trkpt lat="43.79477" lon="7.24888">
        <ele>733.2</ele>
        <time>2020-08-14T07:40:09Z</time>
      </trkpt>
      <trkpt lat="43.79473" lon="7.24885">
        <ele>733</ele>
        <time>2020-08-14T07:40:12Z</time>
      </trkpt>
      <trkpt lat="43.79461" lon="7.24881">
        <ele>732.8</ele>
        <time>2020-08-14T07:40:21Z</time>
      </trkpt>
      <trkpt lat="43.7946" lon="7.2488">
        <ele>732.8</ele>
        <time>2020-08-14T07:40:22Z</time>
      </trkpt>
      <trkpt lat="43.79452" lon="7.24878">
        <ele>732.2</ele>
        <time>2020-08-14T07:40:27Z</time>
      </trkpt>
      <trkpt lat="43.79448" lon="7.24876">
        <ele>732</ele>
        <time>2020-08-14T07:40:30Z</time>
      </trkpt>
      <trkpt lat="43.79445" lon="7.24875">
        <ele>732</ele>
        <time>2020-08-14T07:40:32Z</time>
      </trkpt>
      <trkpt lat="43.79438" lon="7.24871">
        <ele>731.8</ele>
        <time>2020-08-14T07:40:37Z</time>
      </trkpt>
      <trkpt lat="43.79424" lon="7.24863">
        <ele>731.2</ele>
        <time>2020-08-14T07:40:47Z</time>
      </trkpt>
      <trkpt lat="43.79423" lon="7.24862">
        <ele>731</ele>
        <time>2020-08-14T07:40:48Z</time>
      </trkpt>
      <trkpt lat="43.79412" lon="7.24854">
        <ele>731</ele>
        <time>2020-08-14T07:40:56Z</time>
      </trkpt>
      <trkpt lat="43.79399" lon="7.24849">
        <ele>731.2</ele>
        <time>2020-08-14T07:41:05Z</time>
      </trkpt>
      <trkpt lat="43.79382" lon="7.24842">
        <ele>731.4</ele>
        <time>2020-08-14T07:41:19Z</time>
      </trkpt>
      <trkpt lat="43.79381" lon="7.24841">
        <ele>731.4</ele>
        <time>2020-08-14T07:41:20Z</time>
      </trkpt>
      <trkpt lat="43.79373" lon="7.24838">
        <ele>731.6</ele>
        <time>2020-08-14T07:41:26Z</time>
      </trkpt>
      <trkpt lat="43.79371" lon="7.24837">
        <ele>731.6</ele>
        <time>2020-08-14T07:41:28Z</time>
      </trkpt>
      <trkpt lat="43.79362" lon="7.24835">
        <ele>732</ele>
        <time>2020-08-14T07:41:36Z</time>
      </trkpt>
      <trkpt lat="43.79358" lon="7.24836">
        <ele>732</ele>
        <time>2020-08-14T07:41:39Z</time>
      </trkpt>
      <trkpt lat="43.79357" lon="7.24836">
        <ele>732</ele>
        <time>2020-08-14T07:41:40Z</time>
      </trkpt>
      <trkpt lat="43.79352" lon="7.24838">
        <ele>731.4</ele>
        <time>2020-08-14T07:41:45Z</time>
      </trkpt>
      <trkpt lat="43.79344" lon="7.24838">
        <ele>729.8</ele>
        <time>2020-08-14T07:41:51Z</time>
      </trkpt>
      <trkpt lat="43.79338" lon="7.24838">
        <ele>728.6</ele>
        <time>2020-08-14T07:41:55Z</time>
      </trkpt>
      <trkpt lat="43.79338" lon="7.24837">
        <ele>728.2</ele>
        <time>2020-08-14T07:41:56Z</time>
      </trkpt>
      <trkpt lat="43.79331" lon="7.24828">
        <ele>728.2</ele>
        <time>2020-08-14T07:42:03Z</time>
      </trkpt>
      <trkpt lat="43.79328" lon="7.24827">
        <ele>728.2</ele>
        <time>2020-08-14T07:42:05Z</time>
      </trkpt>
      <trkpt lat="43.79322" lon="7.24825">
        <ele>728.2</ele>
        <time>2020-08-14T07:42:10Z</time>
      </trkpt>
      <trkpt lat="43.79319" lon="7.24824">
        <ele>728.2</ele>
        <time>2020-08-14T07:42:12Z</time>
      </trkpt>
      <trkpt lat="43.79316" lon="7.24822">
        <ele>728</ele>
        <time>2020-08-14T07:42:14Z</time>
      </trkpt>
      <trkpt lat="43.79313" lon="7.24819">
        <ele>727.8</ele>
        <time>2020-08-14T07:42:17Z</time>
      </trkpt>
      <trkpt lat="43.79308" lon="7.24816">
        <ele>727.4</ele>
        <time>2020-08-14T07:42:21Z</time>
      </trkpt>
      <trkpt lat="43.79298" lon="7.24803">
        <ele>727</ele>
        <time>2020-08-14T07:42:31Z</time>
      </trkpt>
      <trkpt lat="43.79295" lon="7.24798">
        <ele>727</ele>
        <time>2020-08-14T07:42:35Z</time>
      </trkpt>
      <trkpt lat="43.79294" lon="7.24796">
        <ele>726.6</ele>
        <time>2020-08-14T07:42:37Z</time>
      </trkpt>
      <trkpt lat="43.79293" lon="7.24795">
        <ele>726.4</ele>
        <time>2020-08-14T07:42:39Z</time>
      </trkpt>
      <trkpt lat="43.79292" lon="7.24794">
        <ele>726.2</ele>
        <time>2020-08-14T07:42:40Z</time>
      </trkpt>
      <trkpt lat="43.79291" lon="7.24794">
        <ele>726.2</ele>
        <time>2020-08-14T07:42:43Z</time>
      </trkpt>
      <trkpt lat="43.79291" lon="7.24794">
        <ele>726</ele>
        <time>2020-08-14T07:42:44Z</time>
      </trkpt>
      <trkpt lat="43.79291" lon="7.24795">
        <ele>726</ele>
        <time>2020-08-14T07:42:46Z</time>
      </trkpt>
      <trkpt lat="43.79292" lon="7.24795">
        <ele>725.8</ele>
        <time>2020-08-14T07:42:48Z</time>
      </trkpt>
      <trkpt lat="43.79292" lon="7.24794">
        <ele>725.8</ele>
        <time>2020-08-14T07:42:50Z</time>
      </trkpt>
      <trkpt lat="43.79292" lon="7.24794">
        <ele>726</ele>
        <time>2020-08-14T07:42:52Z</time>
      </trkpt>
      <trkpt lat="43.79292" lon="7.24794">
        <ele>726</ele>
        <time>2020-08-14T07:42:55Z</time>
      </trkpt>
      <trkpt lat="43.79292" lon="7.24794">
        <ele>725.8</ele>
        <time>2020-08-14T07:43:00Z</time>
      </trkpt>
      <trkpt lat="43.7929" lon="7.24792">
        <ele>725.8</ele>
        <time>2020-08-14T07:43:08Z</time>
      </trkpt>
      <trkpt lat="43.79277" lon="7.24788">
        <ele>725.8</ele>
        <time>2020-08-14T07:43:16Z</time>
      </trkpt>
      <trkpt lat="43.79268" lon="7.24787">
        <ele>725.8</ele>
        <time>2020-08-14T07:43:24Z</time>
      </trkpt>
      <trkpt lat="43.79264" lon="7.24788">
        <ele>725.2</ele>
        <time>2020-08-14T07:43:28Z</time>
      </trkpt>
      <trkpt lat="43.79263" lon="7.24787">
        <ele>723.4</ele>
        <time>2020-08-14T07:43:29Z</time>
      </trkpt>
      <trkpt lat="43.79262" lon="7.24787">
        <ele>721.8</ele>
        <time>2020-08-14T07:43:30Z</time>
      </trkpt>
      <trkpt lat="43.79259" lon="7.24785">
        <ele>720.2</ele>
        <time>2020-08-14T07:43:32Z</time>
      </trkpt>
      <trkpt lat="43.79258" lon="7.24785">
        <ele>719.8</ele>
        <time>2020-08-14T07:43:33Z</time>
      </trkpt>
      <trkpt lat="43.79256" lon="7.24785">
        <ele>719.4</ele>
        <time>2020-08-14T07:43:34Z</time>
      </trkpt>
      <trkpt lat="43.79253" lon="7.24785">
        <ele>719</ele>
        <time>2020-08-14T07:43:36Z</time>
      </trkpt>
      <trkpt lat="43.79247" lon="7.24784">
        <ele>718.4</ele>
        <time>2020-08-14T07:43:40Z</time>
      </trkpt>
      <trkpt lat="43.79243" lon="7.24784">
        <ele>718</ele>
        <time>2020-08-14T07:43:43Z</time>
      </trkpt>
      <trkpt lat="43.79234" lon="7.24782">
        <ele>717.2</ele>
        <time>2020-08-14T07:43:48Z</time>
      </trkpt>
      <trkpt lat="43.79233" lon="7.24782">
        <ele>717.2</ele>
        <time>2020-08-14T07:43:49Z</time>
      </trkpt>
      <trkpt lat="43.7923" lon="7.24781">
        <ele>716.8</ele>
        <time>2020-08-14T07:43:51Z</time>
      </trkpt>
      <trkpt lat="43.79223" lon="7.2478">
        <ele>716.2</ele>
        <time>2020-08-14T07:43:56Z</time>
      </trkpt>
      <trkpt lat="43.7922" lon="7.24778">
        <ele>715.8</ele>
        <time>2020-08-14T07:43:58Z</time>
      </trkpt>
      <trkpt lat="43.79212" lon="7.24772">
        <ele>714.8</ele>
        <time>2020-08-14T07:44:05Z</time>
      </trkpt>
      <trkpt lat="43.7921" lon="7.24771">
        <ele>714.6</ele>
        <time>2020-08-14T07:44:06Z</time>
      </trkpt>
      <trkpt lat="43.79205" lon="7.24767">
        <ele>713.8</ele>
        <time>2020-08-14T07:44:10Z</time>
      </trkpt>
      <trkpt lat="43.79203" lon="7.24766">
        <ele>713.6</ele>
        <time>2020-08-14T07:44:11Z</time>
      </trkpt>
      <trkpt lat="43.79202" lon="7.24765">
        <ele>713.4</ele>
        <time>2020-08-14T07:44:12Z</time>
      </trkpt>
      <trkpt lat="43.79199" lon="7.24762">
        <ele>713.2</ele>
        <time>2020-08-14T07:44:16Z</time>
      </trkpt>
      <trkpt lat="43.79198" lon="7.24762">
        <ele>713.2</ele>
        <time>2020-08-14T07:44:17Z</time>
      </trkpt>
      <trkpt lat="43.79191" lon="7.24756">
        <ele>712.4</ele>
        <time>2020-08-14T07:44:23Z</time>
      </trkpt>
      <trkpt lat="43.79186" lon="7.24754">
        <ele>712</ele>
        <time>2020-08-14T07:44:26Z</time>
      </trkpt>
      <trkpt lat="43.79179" lon="7.24753">
        <ele>711.2</ele>
        <time>2020-08-14T07:44:30Z</time>
      </trkpt>
      <trkpt lat="43.79176" lon="7.24753">
        <ele>711</ele>
        <time>2020-08-14T07:44:32Z</time>
      </trkpt>
      <trkpt lat="43.7917" lon="7.24752">
        <ele>710.2</ele>
        <time>2020-08-14T07:44:36Z</time>
      </trkpt>
      <trkpt lat="43.79166" lon="7.24753">
        <ele>709.6</ele>
        <time>2020-08-14T07:44:40Z</time>
      </trkpt>
      <trkpt lat="43.79161" lon="7.24753">
        <ele>709</ele>
        <time>2020-08-14T07:44:43Z</time>
      </trkpt>
      <trkpt lat="43.79157" lon="7.24753">
        <ele>708.4</ele>
        <time>2020-08-14T07:44:46Z</time>
      </trkpt>
      <trkpt lat="43.79154" lon="7.24753">
        <ele>708</ele>
        <time>2020-08-14T07:44:48Z</time>
      </trkpt>
      <trkpt lat="43.79153" lon="7.24752">
        <ele>707.6</ele>
        <time>2020-08-14T07:44:49Z</time>
      </trkpt>
      <trkpt lat="43.79149" lon="7.24751">
        <ele>706.8</ele>
        <time>2020-08-14T07:44:52Z</time>
      </trkpt>
      <trkpt lat="43.79143" lon="7.24752">
        <ele>705.8</ele>
        <time>2020-08-14T07:44:57Z</time>
      </trkpt>
      <trkpt lat="43.79142" lon="7.24752">
        <ele>705.6</ele>
        <time>2020-08-14T07:44:58Z</time>
      </trkpt>
      <trkpt lat="43.79137" lon="7.24758">
        <ele>704.8</ele>
        <time>2020-08-14T07:45:02Z</time>
      </trkpt>
      <trkpt lat="43.79135" lon="7.24758">
        <ele>704.2</ele>
        <time>2020-08-14T07:45:03Z</time>
      </trkpt>
      <trkpt lat="43.79134" lon="7.24757">
        <ele>703.8</ele>
        <time>2020-08-14T07:45:04Z</time>
      </trkpt>
      <trkpt lat="43.79131" lon="7.24756">
        <ele>703</ele>
        <time>2020-08-14T07:45:06Z</time>
      </trkpt>
      <trkpt lat="43.79127" lon="7.24756">
        <ele>702</ele>
        <time>2020-08-14T07:45:09Z</time>
      </trkpt>
      <trkpt lat="43.79126" lon="7.24756">
        <ele>701.6</ele>
        <time>2020-08-14T07:45:10Z</time>
      </trkpt>
      <trkpt lat="43.79125" lon="7.24757">
        <ele>701.2</ele>
        <time>2020-08-14T07:45:11Z</time>
      </trkpt>
      <trkpt lat="43.79124" lon="7.24757">
        <ele>701</ele>
        <time>2020-08-14T07:45:12Z</time>
      </trkpt>
      <trkpt lat="43.79121" lon="7.24757">
        <ele>700.2</ele>
        <time>2020-08-14T07:45:15Z</time>
      </trkpt>
      <trkpt lat="43.79119" lon="7.24757">
        <ele>699.8</ele>
        <time>2020-08-14T07:45:16Z</time>
      </trkpt>
      <trkpt lat="43.79118" lon="7.24757">
        <ele>699.4</ele>
        <time>2020-08-14T07:45:17Z</time>
      </trkpt>
      <trkpt lat="43.79115" lon="7.24757">
        <ele>698.8</ele>
        <time>2020-08-14T07:45:19Z</time>
      </trkpt>
      <trkpt lat="43.79113" lon="7.24757">
        <ele>698.6</ele>
        <time>2020-08-14T07:45:20Z</time>
      </trkpt>
      <trkpt lat="43.7911" lon="7.24758">
        <ele>698.2</ele>
        <time>2020-08-14T07:45:22Z</time>
      </trkpt>
      <trkpt lat="43.79108" lon="7.2476">
        <ele>698</ele>
        <time>2020-08-14T07:45:24Z</time>
      </trkpt>
      <trkpt lat="43.79106" lon="7.24761">
        <ele>697.6</ele>
        <time>2020-08-14T07:45:26Z</time>
      </trkpt>
      <trkpt lat="43.79098" lon="7.24765">
        <ele>696.8</ele>
        <time>2020-08-14T07:45:32Z</time>
      </trkpt>
      <trkpt lat="43.79097" lon="7.24766">
        <ele>696.6</ele>
        <time>2020-08-14T07:45:33Z</time>
      </trkpt>
      <trkpt lat="43.79095" lon="7.24766">
        <ele>696.4</ele>
        <time>2020-08-14T07:45:34Z</time>
      </trkpt>
      <trkpt lat="43.79089" lon="7.24769">
        <ele>695.2</ele>
        <time>2020-08-14T07:45:39Z</time>
      </trkpt>
      <trkpt lat="43.79086" lon="7.24769">
        <ele>694.4</ele>
        <time>2020-08-14T07:45:41Z</time>
      </trkpt>
      <trkpt lat="43.79085" lon="7.2477">
        <ele>694.2</ele>
        <time>2020-08-14T07:45:42Z</time>
      </trkpt>
      <trkpt lat="43.79079" lon="7.24771">
        <ele>693.2</ele>
        <time>2020-08-14T07:45:46Z</time>
      </trkpt>
      <trkpt lat="43.79075" lon="7.24771">
        <ele>692.6</ele>
        <time>2020-08-14T07:45:48Z</time>
      </trkpt>
      <trkpt lat="43.79071" lon="7.24771">
        <ele>691.8</ele>
        <time>2020-08-14T07:45:51Z</time>
      </trkpt>
      <trkpt lat="43.79066" lon="7.24771">
        <ele>690.6</ele>
        <time>2020-08-14T07:45:54Z</time>
      </trkpt>
      <trkpt lat="43.79063" lon="7.2477">
        <ele>690</ele>
        <time>2020-08-14T07:45:56Z</time>
      </trkpt>
      <trkpt lat="43.79062" lon="7.2477">
        <ele>689.6</ele>
        <time>2020-08-14T07:45:57Z</time>
      </trkpt>
      <trkpt lat="43.7906" lon="7.24771">
        <ele>689.4</ele>
        <time>2020-08-14T07:45:58Z</time>
      </trkpt>
      <trkpt lat="43.79058" lon="7.2477">
        <ele>689.2</ele>
        <time>2020-08-14T07:45:59Z</time>
      </trkpt>
      <trkpt lat="43.79052" lon="7.24771">
        <ele>688.6</ele>
        <time>2020-08-14T07:46:02Z</time>
      </trkpt>
      <trkpt lat="43.79049" lon="7.2477">
        <ele>688</ele>
        <time>2020-08-14T07:46:05Z</time>
      </trkpt>
      <trkpt lat="43.79047" lon="7.2477">
        <ele>687.4</ele>
        <time>2020-08-14T07:46:07Z</time>
      </trkpt>
      <trkpt lat="43.7904" lon="7.24774">
        <ele>686.4</ele>
        <time>2020-08-14T07:46:12Z</time>
      </trkpt>
      <trkpt lat="43.79039" lon="7.24775">
        <ele>686.4</ele>
        <time>2020-08-14T07:46:13Z</time>
      </trkpt>
      <trkpt lat="43.79035" lon="7.24775">
        <ele>685.6</ele>
        <time>2020-08-14T07:46:17Z</time>
      </trkpt>
      <trkpt lat="43.79034" lon="7.24775">
        <ele>685.4</ele>
        <time>2020-08-14T07:46:18Z</time>
      </trkpt>
      <trkpt lat="43.79029" lon="7.24775">
        <ele>685</ele>
        <time>2020-08-14T07:46:21Z</time>
      </trkpt>
      <trkpt lat="43.79026" lon="7.24776">
        <ele>684.2</ele>
        <time>2020-08-14T07:46:24Z</time>
      </trkpt>
      <trkpt lat="43.79025" lon="7.24777">
        <ele>684</ele>
        <time>2020-08-14T07:46:25Z</time>
      </trkpt>
      <trkpt lat="43.79024" lon="7.24777">
        <ele>683.8</ele>
        <time>2020-08-14T07:46:26Z</time>
      </trkpt>
      <trkpt lat="43.79021" lon="7.24779">
        <ele>683.6</ele>
        <time>2020-08-14T07:46:28Z</time>
      </trkpt>
      <trkpt lat="43.79021" lon="7.2478">
        <ele>683.4</ele>
        <time>2020-08-14T07:46:29Z</time>
      </trkpt>
      <trkpt lat="43.7902" lon="7.2478">
        <ele>683</ele>
        <time>2020-08-14T07:46:30Z</time>
      </trkpt>
      <trkpt lat="43.79017" lon="7.24781">
        <ele>682.8</ele>
        <time>2020-08-14T07:46:32Z</time>
      </trkpt>
      <trkpt lat="43.79016" lon="7.24782">
        <ele>682.4</ele>
        <time>2020-08-14T07:46:33Z</time>
      </trkpt>
      <trkpt lat="43.79015" lon="7.24782">
        <ele>682.2</ele>
        <time>2020-08-14T07:46:34Z</time>
      </trkpt>
      <trkpt lat="43.79014" lon="7.24783">
        <ele>682</ele>
        <time>2020-08-14T07:46:35Z</time>
      </trkpt>
      <trkpt lat="43.79007" lon="7.24783">
        <ele>680.8</ele>
        <time>2020-08-14T07:46:40Z</time>
      </trkpt>
      <trkpt lat="43.79004" lon="7.24785">
        <ele>680</ele>
        <time>2020-08-14T07:46:43Z</time>
      </trkpt>
      <trkpt lat="43.79003" lon="7.24785">
        <ele>679.8</ele>
        <time>2020-08-14T07:46:44Z</time>
      </trkpt>
      <trkpt lat="43.78997" lon="7.24787">
        <ele>678.8</ele>
        <time>2020-08-14T07:46:49Z</time>
      </trkpt>
      <trkpt lat="43.78996" lon="7.24788">
        <ele>678.4</ele>
        <time>2020-08-14T07:46:50Z</time>
      </trkpt>
      <trkpt lat="43.78995" lon="7.24789">
        <ele>678.2</ele>
        <time>2020-08-14T07:46:51Z</time>
      </trkpt>
      <trkpt lat="43.78992" lon="7.24789">
        <ele>677.4</ele>
        <time>2020-08-14T07:46:53Z</time>
      </trkpt>
      <trkpt lat="43.78989" lon="7.24788">
        <ele>676.6</ele>
        <time>2020-08-14T07:46:55Z</time>
      </trkpt>
      <trkpt lat="43.78988" lon="7.24787">
        <ele>676.2</ele>
        <time>2020-08-14T07:46:56Z</time>
      </trkpt>
      <trkpt lat="43.78986" lon="7.24786">
        <ele>675.8</ele>
        <time>2020-08-14T07:46:58Z</time>
      </trkpt>
      <trkpt lat="43.78984" lon="7.24787">
        <ele>675.6</ele>
        <time>2020-08-14T07:46:59Z</time>
      </trkpt>
      <trkpt lat="43.78981" lon="7.24788">
        <ele>675</ele>
        <time>2020-08-14T07:47:01Z</time>
      </trkpt>
      <trkpt lat="43.78978" lon="7.24791">
        <ele>674.2</ele>
        <time>2020-08-14T07:47:04Z</time>
      </trkpt>
      <trkpt lat="43.78976" lon="7.24792">
        <ele>674</ele>
        <time>2020-08-14T07:47:06Z</time>
      </trkpt>
      <trkpt lat="43.78968" lon="7.24794">
        <ele>672.8</ele>
        <time>2020-08-14T07:47:12Z</time>
      </trkpt>
      <trkpt lat="43.78967" lon="7.24795">
        <ele>672.6</ele>
        <time>2020-08-14T07:47:13Z</time>
      </trkpt>
      <trkpt lat="43.78955" lon="7.24798">
        <ele>672</ele>
        <time>2020-08-14T07:47:23Z</time>
      </trkpt>
      <trkpt lat="43.78953" lon="7.24798">
        <ele>671.8</ele>
        <time>2020-08-14T07:47:25Z</time>
      </trkpt>
      <trkpt lat="43.78952" lon="7.24799">
        <ele>671.4</ele>
        <time>2020-08-14T07:47:27Z</time>
      </trkpt>
      <trkpt lat="43.78952" lon="7.24798">
        <ele>671</ele>
        <time>2020-08-14T07:47:29Z</time>
      </trkpt>
      <trkpt lat="43.78951" lon="7.24797">
        <ele>670.6</ele>
        <time>2020-08-14T07:47:30Z</time>
      </trkpt>
      <trkpt lat="43.7895" lon="7.24795">
        <ele>669.8</ele>
        <time>2020-08-14T07:47:32Z</time>
      </trkpt>
      <trkpt lat="43.78949" lon="7.24793">
        <ele>669.6</ele>
        <time>2020-08-14T07:47:33Z</time>
      </trkpt>
      <trkpt lat="43.78948" lon="7.2479">
        <ele>668.8</ele>
        <time>2020-08-14T07:47:35Z</time>
      </trkpt>
      <trkpt lat="43.78947" lon="7.24789">
        <ele>668.4</ele>
        <time>2020-08-14T07:47:36Z</time>
      </trkpt>
      <trkpt lat="43.78943" lon="7.24786">
        <ele>667.4</ele>
        <time>2020-08-14T07:47:40Z</time>
      </trkpt>
      <trkpt lat="43.78941" lon="7.24783">
        <ele>666.8</ele>
        <time>2020-08-14T07:47:42Z</time>
      </trkpt>
      <trkpt lat="43.78937" lon="7.24781">
        <ele>666.2</ele>
        <time>2020-08-14T07:47:44Z</time>
      </trkpt>
      <trkpt lat="43.78933" lon="7.24776">
        <ele>665.2</ele>
        <time>2020-08-14T07:47:48Z</time>
      </trkpt>
      <trkpt lat="43.78931" lon="7.24773">
        <ele>664.6</ele>
        <time>2020-08-14T07:47:50Z</time>
      </trkpt>
      <trkpt lat="43.78928" lon="7.2477">
        <ele>664.2</ele>
        <time>2020-08-14T07:47:52Z</time>
      </trkpt>
      <trkpt lat="43.78927" lon="7.2477">
        <ele>664</ele>
        <time>2020-08-14T07:47:53Z</time>
      </trkpt>
      <trkpt lat="43.78925" lon="7.24766">
        <ele>663</ele>
        <time>2020-08-14T07:47:56Z</time>
      </trkpt>
      <trkpt lat="43.78921" lon="7.24759">
        <ele>661.8</ele>
        <time>2020-08-14T07:48:00Z</time>
      </trkpt>
      <trkpt lat="43.78919" lon="7.24755">
        <ele>661.2</ele>
        <time>2020-08-14T07:48:02Z</time>
      </trkpt>
      <trkpt lat="43.78918" lon="7.24754">
        <ele>661</ele>
        <time>2020-08-14T07:48:03Z</time>
      </trkpt>
      <trkpt lat="43.78918" lon="7.24752">
        <ele>660.6</ele>
        <time>2020-08-14T07:48:04Z</time>
      </trkpt>
      <trkpt lat="43.78914" lon="7.24745">
        <ele>659.4</ele>
        <time>2020-08-14T07:48:08Z</time>
      </trkpt>
      <trkpt lat="43.78912" lon="7.24742">
        <ele>659</ele>
        <time>2020-08-14T07:48:10Z</time>
      </trkpt>
      <trkpt lat="43.78912" lon="7.24741">
        <ele>658.6</ele>
        <time>2020-08-14T07:48:11Z</time>
      </trkpt>
      <trkpt lat="43.78911" lon="7.24739">
        <ele>658.4</ele>
        <time>2020-08-14T07:48:12Z</time>
      </trkpt>
      <trkpt lat="43.7891" lon="7.24736">
        <ele>657.8</ele>
        <time>2020-08-14T07:48:15Z</time>
      </trkpt>
      <trkpt lat="43.78909" lon="7.24735">
        <ele>657.4</ele>
        <time>2020-08-14T07:48:16Z</time>
      </trkpt>
      <trkpt lat="43.78909" lon="7.24733">
        <ele>657.2</ele>
        <time>2020-08-14T07:48:17Z</time>
      </trkpt>
      <trkpt lat="43.78908" lon="7.24727">
        <ele>656.2</ele>
        <time>2020-08-14T07:48:21Z</time>
      </trkpt>
      <trkpt lat="43.78907" lon="7.24723">
        <ele>655.6</ele>
        <time>2020-08-14T07:48:23Z</time>
      </trkpt>
      <trkpt lat="43.78907" lon="7.2472">
        <ele>654.6</ele>
        <time>2020-08-14T07:48:25Z</time>
      </trkpt>
      <trkpt lat="43.78905" lon="7.24714">
        <ele>653.6</ele>
        <time>2020-08-14T07:48:28Z</time>
      </trkpt>
      <trkpt lat="43.78905" lon="7.24709">
        <ele>652.6</ele>
        <time>2020-08-14T07:48:31Z</time>
      </trkpt>
      <trkpt lat="43.78904" lon="7.24707">
        <ele>652.4</ele>
        <time>2020-08-14T07:48:32Z</time>
      </trkpt>
      <trkpt lat="43.78902" lon="7.247">
        <ele>651.4</ele>
        <time>2020-08-14T07:48:35Z</time>
      </trkpt>
      <trkpt lat="43.78899" lon="7.24694">
        <ele>650.2</ele>
        <time>2020-08-14T07:48:39Z</time>
      </trkpt>
      <trkpt lat="43.78896" lon="7.24691">
        <ele>649.2</ele>
        <time>2020-08-14T07:48:43Z</time>
      </trkpt>
      <trkpt lat="43.78894" lon="7.24686">
        <ele>648</ele>
        <time>2020-08-14T07:48:46Z</time>
      </trkpt>
      <trkpt lat="43.78891" lon="7.24681">
        <ele>646.8</ele>
        <time>2020-08-14T07:48:49Z</time>
      </trkpt>
      <trkpt lat="43.7889" lon="7.24679">
        <ele>646.6</ele>
        <time>2020-08-14T07:48:50Z</time>
      </trkpt>
      <trkpt lat="43.78889" lon="7.24678">
        <ele>646</ele>
        <time>2020-08-14T07:48:52Z</time>
      </trkpt>
      <trkpt lat="43.78889" lon="7.24678">
        <ele>645.8</ele>
        <time>2020-08-14T07:48:53Z</time>
      </trkpt>
      <trkpt lat="43.78889" lon="7.24678">
        <ele>645.4</ele>
        <time>2020-08-14T07:48:54Z</time>
      </trkpt>
      <trkpt lat="43.78886" lon="7.24672">
        <ele>644.4</ele>
        <time>2020-08-14T07:48:57Z</time>
      </trkpt>
      <trkpt lat="43.7888" lon="7.24668">
        <ele>643.2</ele>
        <time>2020-08-14T07:49:01Z</time>
      </trkpt>
      <trkpt lat="43.78879" lon="7.24667">
        <ele>643</ele>
        <time>2020-08-14T07:49:02Z</time>
      </trkpt>
      <trkpt lat="43.7888" lon="7.24665">
        <ele>642.4</ele>
        <time>2020-08-14T07:49:04Z</time>
      </trkpt>
      <trkpt lat="43.7888" lon="7.24663">
        <ele>642.2</ele>
        <time>2020-08-14T07:49:05Z</time>
      </trkpt>
      <trkpt lat="43.78882" lon="7.24661">
        <ele>641.6</ele>
        <time>2020-08-14T07:49:07Z</time>
      </trkpt>
      <trkpt lat="43.78883" lon="7.24659">
        <ele>641.2</ele>
        <time>2020-08-14T07:49:09Z</time>
      </trkpt>
      <trkpt lat="43.78883" lon="7.24657">
        <ele>640.8</ele>
        <time>2020-08-14T07:49:10Z</time>
      </trkpt>
      <trkpt lat="43.78881" lon="7.24656">
        <ele>640.4</ele>
        <time>2020-08-14T07:49:12Z</time>
      </trkpt>
      <trkpt lat="43.78877" lon="7.24656">
        <ele>640</ele>
        <time>2020-08-14T07:49:15Z</time>
      </trkpt>
      <trkpt lat="43.78874" lon="7.24656">
        <ele>639.8</ele>
        <time>2020-08-14T07:49:18Z</time>
      </trkpt>
      <trkpt lat="43.78871" lon="7.24656">
        <ele>639.6</ele>
        <time>2020-08-14T07:49:21Z</time>
      </trkpt>
      <trkpt lat="43.78864" lon="7.24654">
        <ele>639</ele>
        <time>2020-08-14T07:49:27Z</time>
      </trkpt>
      <trkpt lat="43.78861" lon="7.24652">
        <ele>638.4</ele>
        <time>2020-08-14T07:49:30Z</time>
      </trkpt>
      <trkpt lat="43.78857" lon="7.2465">
        <ele>637.8</ele>
        <time>2020-08-14T07:49:33Z</time>
      </trkpt>
      <trkpt lat="43.7885" lon="7.24644">
        <ele>636.6</ele>
        <time>2020-08-14T07:49:38Z</time>
      </trkpt>
      <trkpt lat="43.78849" lon="7.24643">
        <ele>636.4</ele>
        <time>2020-08-14T07:49:39Z</time>
      </trkpt>
      <trkpt lat="43.78845" lon="7.2464">
        <ele>635.6</ele>
        <time>2020-08-14T07:49:43Z</time>
      </trkpt>
      <trkpt lat="43.7884" lon="7.24635">
        <ele>634.6</ele>
        <time>2020-08-14T07:49:48Z</time>
      </trkpt>
      <trkpt lat="43.78839" lon="7.24635">
        <ele>634.4</ele>
        <time>2020-08-14T07:49:49Z</time>
      </trkpt>
      <trkpt lat="43.78833" lon="7.24631">
        <ele>633.6</ele>
        <time>2020-08-14T07:49:53Z</time>
      </trkpt>
      <trkpt lat="43.78826" lon="7.24623">
        <ele>632.4</ele>
        <time>2020-08-14T07:50:00Z</time>
      </trkpt>
      <trkpt lat="43.78816" lon="7.24607">
        <ele>631.4</ele>
        <time>2020-08-14T07:50:10Z</time>
      </trkpt>
      <trkpt lat="43.78814" lon="7.24604">
        <ele>631.2</ele>
        <time>2020-08-14T07:50:12Z</time>
      </trkpt>
      <trkpt lat="43.78809" lon="7.24594">
        <ele>631.2</ele>
        <time>2020-08-14T07:50:19Z</time>
      </trkpt>
      <trkpt lat="43.78809" lon="7.24592">
        <ele>631.2</ele>
        <time>2020-08-14T07:50:20Z</time>
      </trkpt>
      <trkpt lat="43.78812" lon="7.24589">
        <ele>631</ele>
        <time>2020-08-14T07:50:23Z</time>
      </trkpt>
      <trkpt lat="43.78817" lon="7.24585">
        <ele>631</ele>
        <time>2020-08-14T07:50:26Z</time>
      </trkpt>
      <trkpt lat="43.7883" lon="7.24583">
        <ele>630.8</ele>
        <time>2020-08-14T07:50:35Z</time>
      </trkpt>
      <trkpt lat="43.78831" lon="7.24583">
        <ele>630.8</ele>
        <time>2020-08-14T07:50:36Z</time>
      </trkpt>
      <trkpt lat="43.78836" lon="7.24582">
        <ele>630.4</ele>
        <time>2020-08-14T07:50:40Z</time>
      </trkpt>
      <trkpt lat="43.78841" lon="7.24578">
        <ele>629.6</ele>
        <time>2020-08-14T07:50:44Z</time>
      </trkpt>
      <trkpt lat="43.78845" lon="7.24576">
        <ele>629.2</ele>
        <time>2020-08-14T07:50:46Z</time>
      </trkpt>
      <trkpt lat="43.78846" lon="7.2457">
        <ele>628.6</ele>
        <time>2020-08-14T07:50:50Z</time>
      </trkpt>
      <trkpt lat="43.78846" lon="7.24566">
        <ele>628.2</ele>
        <time>2020-08-14T07:50:52Z</time>
      </trkpt>
      <trkpt lat="43.78846" lon="7.24564">
        <ele>628</ele>
        <time>2020-08-14T07:50:53Z</time>
      </trkpt>
      <trkpt lat="43.78843" lon="7.24558">
        <ele>627</ele>
        <time>2020-08-14T07:50:57Z</time>
      </trkpt>
      <trkpt lat="43.7884" lon="7.24554">
        <ele>626.2</ele>
        <time>2020-08-14T07:51:00Z</time>
      </trkpt>
      <trkpt lat="43.78839" lon="7.24553">
        <ele>626</ele>
        <time>2020-08-14T07:51:01Z</time>
      </trkpt>
      <trkpt lat="43.78836" lon="7.24551">
        <ele>625</ele>
        <time>2020-08-14T07:51:04Z</time>
      </trkpt>
      <trkpt lat="43.78835" lon="7.24549">
        <ele>624.8</ele>
        <time>2020-08-14T07:51:05Z</time>
      </trkpt>
      <trkpt lat="43.78833" lon="7.24546">
        <ele>624.2</ele>
        <time>2020-08-14T07:51:07Z</time>
      </trkpt>
      <trkpt lat="43.78832" lon="7.24545">
        <ele>623.8</ele>
        <time>2020-08-14T07:51:09Z</time>
      </trkpt>
      <trkpt lat="43.78829" lon="7.24543">
        <ele>622.4</ele>
        <time>2020-08-14T07:51:12Z</time>
      </trkpt>
      <trkpt lat="43.78825" lon="7.2454">
        <ele>621.4</ele>
        <time>2020-08-14T07:51:15Z</time>
      </trkpt>
      <trkpt lat="43.78824" lon="7.2454">
        <ele>621</ele>
        <time>2020-08-14T07:51:16Z</time>
      </trkpt>
      <trkpt lat="43.78821" lon="7.24538">
        <ele>620</ele>
        <time>2020-08-14T07:51:19Z</time>
      </trkpt>
      <trkpt lat="43.78817" lon="7.24535">
        <ele>618.8</ele>
        <time>2020-08-14T07:51:22Z</time>
      </trkpt>
      <trkpt lat="43.78815" lon="7.24534">
        <ele>618.4</ele>
        <time>2020-08-14T07:51:24Z</time>
      </trkpt>
      <trkpt lat="43.7881" lon="7.24531">
        <ele>617.6</ele>
        <time>2020-08-14T07:51:28Z</time>
      </trkpt>
      <trkpt lat="43.78809" lon="7.24529">
        <ele>617.2</ele>
        <time>2020-08-14T07:51:29Z</time>
      </trkpt>
      <trkpt lat="43.78806" lon="7.24527">
        <ele>616.6</ele>
        <time>2020-08-14T07:51:31Z</time>
      </trkpt>
      <trkpt lat="43.78804" lon="7.24523">
        <ele>616</ele>
        <time>2020-08-14T07:51:33Z</time>
      </trkpt>
      <trkpt lat="43.78802" lon="7.24517">
        <ele>615.4</ele>
        <time>2020-08-14T07:51:36Z</time>
      </trkpt>
      <trkpt lat="43.78799" lon="7.24516">
        <ele>615.2</ele>
        <time>2020-08-14T07:51:38Z</time>
      </trkpt>
      <trkpt lat="43.78792" lon="7.24512">
        <ele>614.2</ele>
        <time>2020-08-14T07:51:43Z</time>
      </trkpt>
      <trkpt lat="43.78786" lon="7.24509">
        <ele>613.6</ele>
        <time>2020-08-14T07:51:47Z</time>
      </trkpt>
      <trkpt lat="43.78781" lon="7.24503">
        <ele>613</ele>
        <time>2020-08-14T07:51:52Z</time>
      </trkpt>
      <trkpt lat="43.78777" lon="7.24496">
        <ele>612.4</ele>
        <time>2020-08-14T07:51:57Z</time>
      </trkpt>
      <trkpt lat="43.78775" lon="7.24492">
        <ele>612</ele>
        <time>2020-08-14T07:51:59Z</time>
      </trkpt>
      <trkpt lat="43.78771" lon="7.24482">
        <ele>611</ele>
        <time>2020-08-14T07:52:05Z</time>
      </trkpt>
      <trkpt lat="43.78771" lon="7.2448">
        <ele>610.8</ele>
        <time>2020-08-14T07:52:06Z</time>
      </trkpt>
      <trkpt lat="43.78767" lon="7.24473">
        <ele>609.8</ele>
        <time>2020-08-14T07:52:10Z</time>
      </trkpt>
      <trkpt lat="43.78764" lon="7.24462">
        <ele>608.6</ele>
        <time>2020-08-14T07:52:16Z</time>
      </trkpt>
      <trkpt lat="43.7876" lon="7.24456">
        <ele>607.6</ele>
        <time>2020-08-14T07:52:20Z</time>
      </trkpt>
      <trkpt lat="43.7876" lon="7.24455">
        <ele>607.4</ele>
        <time>2020-08-14T07:52:21Z</time>
      </trkpt>
      <trkpt lat="43.78759" lon="7.24452">
        <ele>607.2</ele>
        <time>2020-08-14T07:52:22Z</time>
      </trkpt>
      <trkpt lat="43.78758" lon="7.24449">
        <ele>606.8</ele>
        <time>2020-08-14T07:52:24Z</time>
      </trkpt>
      <trkpt lat="43.78757" lon="7.24446">
        <ele>606.4</ele>
        <time>2020-08-14T07:52:26Z</time>
      </trkpt>
      <trkpt lat="43.78755" lon="7.24444">
        <ele>605.8</ele>
        <time>2020-08-14T07:52:28Z</time>
      </trkpt>
      <trkpt lat="43.78753" lon="7.2444">
        <ele>605.2</ele>
        <time>2020-08-14T07:52:30Z</time>
      </trkpt>
      <trkpt lat="43.7875" lon="7.24436">
        <ele>604.4</ele>
        <time>2020-08-14T07:52:33Z</time>
      </trkpt>
      <trkpt lat="43.78749" lon="7.24435">
        <ele>604.2</ele>
        <time>2020-08-14T07:52:34Z</time>
      </trkpt>
      <trkpt lat="43.78748" lon="7.24434">
        <ele>604</ele>
        <time>2020-08-14T07:52:35Z</time>
      </trkpt>
      <trkpt lat="43.78747" lon="7.24432">
        <ele>603.6</ele>
        <time>2020-08-14T07:52:37Z</time>
      </trkpt>
      <trkpt lat="43.78746" lon="7.24431">
        <ele>603.4</ele>
        <time>2020-08-14T07:52:38Z</time>
      </trkpt>
      <trkpt lat="43.78745" lon="7.24429">
        <ele>603.2</ele>
        <time>2020-08-14T07:52:39Z</time>
      </trkpt>
      <trkpt lat="43.78741" lon="7.24425">
        <ele>602.2</ele>
        <time>2020-08-14T07:52:44Z</time>
      </trkpt>
      <trkpt lat="43.78738" lon="7.24422">
        <ele>601.8</ele>
        <time>2020-08-14T07:52:47Z</time>
      </trkpt>
      <trkpt lat="43.78732" lon="7.24419">
        <ele>601</ele>
        <time>2020-08-14T07:52:51Z</time>
      </trkpt>
      <trkpt lat="43.78728" lon="7.24416">
        <ele>600.4</ele>
        <time>2020-08-14T07:52:54Z</time>
      </trkpt>
      <trkpt lat="43.78723" lon="7.24412">
        <ele>600</ele>
        <time>2020-08-14T07:52:57Z</time>
      </trkpt>
      <trkpt lat="43.78719" lon="7.24407">
        <ele>598.8</ele>
        <time>2020-08-14T07:53:02Z</time>
      </trkpt>
      <trkpt lat="43.78718" lon="7.24406">
        <ele>598.6</ele>
        <time>2020-08-14T07:53:03Z</time>
      </trkpt>
      <trkpt lat="43.78715" lon="7.24404">
        <ele>597.8</ele>
        <time>2020-08-14T07:53:06Z</time>
      </trkpt>
      <trkpt lat="43.78711" lon="7.24404">
        <ele>597</ele>
        <time>2020-08-14T07:53:09Z</time>
      </trkpt>
      <trkpt lat="43.7871" lon="7.24404">
        <ele>596.6</ele>
        <time>2020-08-14T07:53:10Z</time>
      </trkpt>
      <trkpt lat="43.78707" lon="7.24403">
        <ele>595.4</ele>
        <time>2020-08-14T07:53:15Z</time>
      </trkpt>
      <trkpt lat="43.78704" lon="7.24404">
        <ele>595</ele>
        <time>2020-08-14T07:53:17Z</time>
      </trkpt>
      <trkpt lat="43.78703" lon="7.24404">
        <ele>594.8</ele>
        <time>2020-08-14T07:53:18Z</time>
      </trkpt>
      <trkpt lat="43.78698" lon="7.24406">
        <ele>594.2</ele>
        <time>2020-08-14T07:53:22Z</time>
      </trkpt>
      <trkpt lat="43.78695" lon="7.24407">
        <ele>593.6</ele>
        <time>2020-08-14T07:53:25Z</time>
      </trkpt>
      <trkpt lat="43.78691" lon="7.24408">
        <ele>593.2</ele>
        <time>2020-08-14T07:53:28Z</time>
      </trkpt>
      <trkpt lat="43.78689" lon="7.24408">
        <ele>592.8</ele>
        <time>2020-08-14T07:53:29Z</time>
      </trkpt>
      <trkpt lat="43.78687" lon="7.24408">
        <ele>592.6</ele>
        <time>2020-08-14T07:53:30Z</time>
      </trkpt>
      <trkpt lat="43.78683" lon="7.24406">
        <ele>592</ele>
        <time>2020-08-14T07:53:33Z</time>
      </trkpt>
      <trkpt lat="43.78682" lon="7.24406">
        <ele>591.8</ele>
        <time>2020-08-14T07:53:34Z</time>
      </trkpt>
      <trkpt lat="43.7868" lon="7.24405">
        <ele>591.2</ele>
        <time>2020-08-14T07:53:36Z</time>
      </trkpt>
      <trkpt lat="43.78678" lon="7.24406">
        <ele>590.8</ele>
        <time>2020-08-14T07:53:38Z</time>
      </trkpt>
      <trkpt lat="43.78677" lon="7.24406">
        <ele>590.6</ele>
        <time>2020-08-14T07:53:39Z</time>
      </trkpt>
      <trkpt lat="43.78674" lon="7.24407">
        <ele>590.2</ele>
        <time>2020-08-14T07:53:41Z</time>
      </trkpt>
      <trkpt lat="43.78669" lon="7.24409">
        <ele>589.6</ele>
        <time>2020-08-14T07:53:43Z</time>
      </trkpt>
      <trkpt lat="43.78664" lon="7.24408">
        <ele>588.8</ele>
        <time>2020-08-14T07:53:46Z</time>
      </trkpt>
      <trkpt lat="43.78663" lon="7.24406">
        <ele>588.4</ele>
        <time>2020-08-14T07:53:47Z</time>
      </trkpt>
      <trkpt lat="43.78655" lon="7.24408">
        <ele>587.4</ele>
        <time>2020-08-14T07:53:53Z</time>
      </trkpt>
      <trkpt lat="43.78653" lon="7.24408">
        <ele>587.2</ele>
        <time>2020-08-14T07:53:54Z</time>
      </trkpt>
      <trkpt lat="43.78647" lon="7.24412">
        <ele>586.4</ele>
        <time>2020-08-14T07:53:59Z</time>
      </trkpt>
      <trkpt lat="43.78646" lon="7.24413">
        <ele>586.2</ele>
        <time>2020-08-14T07:54:00Z</time>
      </trkpt>
      <trkpt lat="43.78643" lon="7.24416">
        <ele>586</ele>
        <time>2020-08-14T07:54:02Z</time>
      </trkpt>
      <trkpt lat="43.78638" lon="7.24419">
        <ele>585.2</ele>
        <time>2020-08-14T07:54:05Z</time>
      </trkpt>
      <trkpt lat="43.7863" lon="7.24425">
        <ele>584.2</ele>
        <time>2020-08-14T07:54:11Z</time>
      </trkpt>
      <trkpt lat="43.78629" lon="7.24425">
        <ele>584</ele>
        <time>2020-08-14T07:54:12Z</time>
      </trkpt>
      <trkpt lat="43.78621" lon="7.2443">
        <ele>583</ele>
        <time>2020-08-14T07:54:18Z</time>
      </trkpt>
      <trkpt lat="43.78613" lon="7.24433">
        <ele>582</ele>
        <time>2020-08-14T07:54:24Z</time>
      </trkpt>
      <trkpt lat="43.78607" lon="7.24436">
        <ele>581.2</ele>
        <time>2020-08-14T07:54:28Z</time>
      </trkpt>
      <trkpt lat="43.78606" lon="7.24436">
        <ele>581</ele>
        <time>2020-08-14T07:54:29Z</time>
      </trkpt>
      <trkpt lat="43.786" lon="7.24436">
        <ele>580</ele>
        <time>2020-08-14T07:54:33Z</time>
      </trkpt>
      <trkpt lat="43.78599" lon="7.24436">
        <ele>579.8</ele>
        <time>2020-08-14T07:54:34Z</time>
      </trkpt>
      <trkpt lat="43.78589" lon="7.24434">
        <ele>578.6</ele>
        <time>2020-08-14T07:54:40Z</time>
      </trkpt>
      <trkpt lat="43.78583" lon="7.24431">
        <ele>577.8</ele>
        <time>2020-08-14T07:54:45Z</time>
      </trkpt>
      <trkpt lat="43.78581" lon="7.24431">
        <ele>577.6</ele>
        <time>2020-08-14T07:54:46Z</time>
      </trkpt>
      <trkpt lat="43.78579" lon="7.2443">
        <ele>577.6</ele>
        <time>2020-08-14T07:54:47Z</time>
      </trkpt>
      <trkpt lat="43.78572" lon="7.2443">
        <ele>576.6</ele>
        <time>2020-08-14T07:54:52Z</time>
      </trkpt>
      <trkpt lat="43.78564" lon="7.24429">
        <ele>575.6</ele>
        <time>2020-08-14T07:54:57Z</time>
      </trkpt>
      <trkpt lat="43.78563" lon="7.24429">
        <ele>575.4</ele>
        <time>2020-08-14T07:54:58Z</time>
      </trkpt>
      <trkpt lat="43.78554" lon="7.24427">
        <ele>574.4</ele>
        <time>2020-08-14T07:55:04Z</time>
      </trkpt>
      <trkpt lat="43.78552" lon="7.24425">
        <ele>574.2</ele>
        <time>2020-08-14T07:55:06Z</time>
      </trkpt>
      <trkpt lat="43.78546" lon="7.24422">
        <ele>573.2</ele>
        <time>2020-08-14T07:55:11Z</time>
      </trkpt>
      <trkpt lat="43.78537" lon="7.24414">
        <ele>572.4</ele>
        <time>2020-08-14T07:55:18Z</time>
      </trkpt>
      <trkpt lat="43.78536" lon="7.24414">
        <ele>572.2</ele>
        <time>2020-08-14T07:55:19Z</time>
      </trkpt>
      <trkpt lat="43.78535" lon="7.24413">
        <ele>572.2</ele>
        <time>2020-08-14T07:55:20Z</time>
      </trkpt>
      <trkpt lat="43.78531" lon="7.24412">
        <ele>571.8</ele>
        <time>2020-08-14T07:55:23Z</time>
      </trkpt>
      <trkpt lat="43.78526" lon="7.24407">
        <ele>571.2</ele>
        <time>2020-08-14T07:55:28Z</time>
      </trkpt>
      <trkpt lat="43.78515" lon="7.24399">
        <ele>570.2</ele>
        <time>2020-08-14T07:55:38Z</time>
      </trkpt>
      <trkpt lat="43.78513" lon="7.24397">
        <ele>570</ele>
        <time>2020-08-14T07:55:39Z</time>
      </trkpt>
      <trkpt lat="43.78505" lon="7.24392">
        <ele>569.2</ele>
        <time>2020-08-14T07:55:46Z</time>
      </trkpt>
      <trkpt lat="43.78504" lon="7.24391">
        <ele>569</ele>
        <time>2020-08-14T07:55:47Z</time>
      </trkpt>
      <trkpt lat="43.78497" lon="7.24388">
        <ele>568</ele>
        <time>2020-08-14T07:55:52Z</time>
      </trkpt>
      <trkpt lat="43.78496" lon="7.24387">
        <ele>567.8</ele>
        <time>2020-08-14T07:55:53Z</time>
      </trkpt>
      <trkpt lat="43.78495" lon="7.24387">
        <ele>567.6</ele>
        <time>2020-08-14T07:55:54Z</time>
      </trkpt>
      <trkpt lat="43.78485" lon="7.24384">
        <ele>566.6</ele>
        <time>2020-08-14T07:56:02Z</time>
      </trkpt>
      <trkpt lat="43.78484" lon="7.24383">
        <ele>566.6</ele>
        <time>2020-08-14T07:56:03Z</time>
      </trkpt>
      <trkpt lat="43.78481" lon="7.24382">
        <ele>566.4</ele>
        <time>2020-08-14T07:56:05Z</time>
      </trkpt>
      <trkpt lat="43.78479" lon="7.24382">
        <ele>566.2</ele>
        <time>2020-08-14T07:56:07Z</time>
      </trkpt>
      <trkpt lat="43.78473" lon="7.24382">
        <ele>565.8</ele>
        <time>2020-08-14T07:56:11Z</time>
      </trkpt>
      <trkpt lat="43.78472" lon="7.24381">
        <ele>565.8</ele>
        <time>2020-08-14T07:56:12Z</time>
      </trkpt>
      <trkpt lat="43.7847" lon="7.24381">
        <ele>565.6</ele>
        <time>2020-08-14T07:56:13Z</time>
      </trkpt>
      <trkpt lat="43.78458" lon="7.24378">
        <ele>564.8</ele>
        <time>2020-08-14T07:56:22Z</time>
      </trkpt>
      <trkpt lat="43.78458" lon="7.24377">
        <ele>564.8</ele>
        <time>2020-08-14T07:56:24Z</time>
      </trkpt>
      <trkpt lat="43.78458" lon="7.24377">
        <ele>564.8</ele>
        <time>2020-08-14T07:56:26Z</time>
      </trkpt>
      <trkpt lat="43.78458" lon="7.24377">
        <ele>564.8</ele>
        <time>2020-08-14T07:56:27Z</time>
      </trkpt>
      <trkpt lat="43.78457" lon="7.24377">
        <ele>564.8</ele>
        <time>2020-08-14T07:56:28Z</time>
      </trkpt>
      <trkpt lat="43.78457" lon="7.24377">
        <ele>563.2</ele>
        <time>2020-08-14T08:25:45Z</time>
      </trkpt>
      <trkpt lat="43.78457" lon="7.24377">
        <ele>563.2</ele>
        <time>2020-08-14T08:25:46Z</time>
      </trkpt>
      <trkpt lat="43.78457" lon="7.24377">
        <ele>563.4</ele>
        <time>2020-08-14T08:25:54Z</time>
      </trkpt>
      <trkpt lat="43.78441" lon="7.24354">
        <ele>563.4</ele>
        <time>2020-08-14T08:25:57Z</time>
      </trkpt>
      <trkpt lat="43.78451" lon="7.2437">
        <ele>563.2</ele>
        <time>2020-08-14T08:26:02Z</time>
      </trkpt>
      <trkpt lat="43.78454" lon="7.24374">
        <ele>563</ele>
        <time>2020-08-14T08:26:05Z</time>
      </trkpt>
      <trkpt lat="43.78455" lon="7.24375">
        <ele>562.8</ele>
        <time>2020-08-14T08:26:06Z</time>
      </trkpt>
      <trkpt lat="43.78464" lon="7.24381">
        <ele>562.4</ele>
        <time>2020-08-14T08:26:15Z</time>
      </trkpt>
      <trkpt lat="43.78469" lon="7.24391">
        <ele>562.2</ele>
        <time>2020-08-14T08:26:21Z</time>
      </trkpt>
      <trkpt lat="43.78473" lon="7.24401">
        <ele>562</ele>
        <time>2020-08-14T08:26:27Z</time>
      </trkpt>
      <trkpt lat="43.78477" lon="7.24413">
        <ele>561.6</ele>
        <time>2020-08-14T08:26:34Z</time>
      </trkpt>
      <trkpt lat="43.78482" lon="7.24433">
        <ele>561.2</ele>
        <time>2020-08-14T08:26:44Z</time>
      </trkpt>
      <trkpt lat="43.78483" lon="7.24435">
        <ele>561</ele>
        <time>2020-08-14T08:26:46Z</time>
      </trkpt>
      <trkpt lat="43.78487" lon="7.24451">
        <ele>560.6</ele>
        <time>2020-08-14T08:26:55Z</time>
      </trkpt>
      <trkpt lat="43.78488" lon="7.24461">
        <ele>560.2</ele>
        <time>2020-08-14T08:27:01Z</time>
      </trkpt>
      <trkpt lat="43.78489" lon="7.24462">
        <ele>560.2</ele>
        <time>2020-08-14T08:27:02Z</time>
      </trkpt>
      <trkpt lat="43.78488" lon="7.2447">
        <ele>560.2</ele>
        <time>2020-08-14T08:27:06Z</time>
      </trkpt>
      <trkpt lat="43.78485" lon="7.24472">
        <ele>560</ele>
        <time>2020-08-14T08:27:08Z</time>
      </trkpt>
      <trkpt lat="43.78481" lon="7.24483">
        <ele>559.4</ele>
        <time>2020-08-14T08:27:14Z</time>
      </trkpt>
      <trkpt lat="43.78479" lon="7.24484">
        <ele>559.4</ele>
        <time>2020-08-14T08:27:15Z</time>
      </trkpt>
      <trkpt lat="43.78473" lon="7.2449">
        <ele>559.2</ele>
        <time>2020-08-14T08:27:21Z</time>
      </trkpt>
      <trkpt lat="43.78473" lon="7.2449">
        <ele>559</ele>
        <time>2020-08-14T08:27:22Z</time>
      </trkpt>
      <trkpt lat="43.78473" lon="7.2449">
        <ele>558.8</ele>
        <time>2020-08-14T08:27:23Z</time>
      </trkpt>
      <trkpt lat="43.78468" lon="7.24489">
        <ele>557.8</ele>
        <time>2020-08-14T08:27:27Z</time>
      </trkpt>
      <trkpt lat="43.78466" lon="7.2449">
        <ele>557.4</ele>
        <time>2020-08-14T08:27:28Z</time>
      </trkpt>
      <trkpt lat="43.78463" lon="7.24491">
        <ele>556.6</ele>
        <time>2020-08-14T08:27:31Z</time>
      </trkpt>
      <trkpt lat="43.78461" lon="7.24492">
        <ele>556.4</ele>
        <time>2020-08-14T08:27:33Z</time>
      </trkpt>
      <trkpt lat="43.78459" lon="7.24492">
        <ele>556.2</ele>
        <time>2020-08-14T08:27:35Z</time>
      </trkpt>
      <trkpt lat="43.78456" lon="7.24495">
        <ele>555.4</ele>
        <time>2020-08-14T08:27:38Z</time>
      </trkpt>
      <trkpt lat="43.78452" lon="7.24502">
        <ele>554.2</ele>
        <time>2020-08-14T08:27:43Z</time>
      </trkpt>
      <trkpt lat="43.78448" lon="7.24505">
        <ele>553.6</ele>
        <time>2020-08-14T08:27:46Z</time>
      </trkpt>
      <trkpt lat="43.78447" lon="7.24507">
        <ele>553.4</ele>
        <time>2020-08-14T08:27:47Z</time>
      </trkpt>
      <trkpt lat="43.78446" lon="7.24509">
        <ele>553</ele>
        <time>2020-08-14T08:27:48Z</time>
      </trkpt>
      <trkpt lat="43.78444" lon="7.24513">
        <ele>552.2</ele>
        <time>2020-08-14T08:27:51Z</time>
      </trkpt>
      <trkpt lat="43.78443" lon="7.24515">
        <ele>552</ele>
        <time>2020-08-14T08:27:52Z</time>
      </trkpt>
      <trkpt lat="43.78434" lon="7.24523">
        <ele>551.4</ele>
        <time>2020-08-14T08:27:56Z</time>
      </trkpt>
      <trkpt lat="43.78433" lon="7.24528">
        <ele>551</ele>
        <time>2020-08-14T08:27:59Z</time>
      </trkpt>
      <trkpt lat="43.78429" lon="7.24537">
        <ele>550.2</ele>
        <time>2020-08-14T08:28:04Z</time>
      </trkpt>
      <trkpt lat="43.78428" lon="7.2454">
        <ele>549.8</ele>
        <time>2020-08-14T08:28:06Z</time>
      </trkpt>
      <trkpt lat="43.78424" lon="7.24548">
        <ele>549.4</ele>
        <time>2020-08-14T08:28:11Z</time>
      </trkpt>
      <trkpt lat="43.78423" lon="7.2455">
        <ele>549.4</ele>
        <time>2020-08-14T08:28:12Z</time>
      </trkpt>
      <trkpt lat="43.78418" lon="7.24559">
        <ele>548.8</ele>
        <time>2020-08-14T08:28:18Z</time>
      </trkpt>
      <trkpt lat="43.78416" lon="7.24561">
        <ele>548.6</ele>
        <time>2020-08-14T08:28:20Z</time>
      </trkpt>
      <trkpt lat="43.78412" lon="7.24566">
        <ele>548.4</ele>
        <time>2020-08-14T08:28:25Z</time>
      </trkpt>
      <trkpt lat="43.78411" lon="7.2457">
        <ele>548</ele>
        <time>2020-08-14T08:28:27Z</time>
      </trkpt>
      <trkpt lat="43.78411" lon="7.24574">
        <ele>547.8</ele>
        <time>2020-08-14T08:28:30Z</time>
      </trkpt>
      <trkpt lat="43.78409" lon="7.2458">
        <ele>547.6</ele>
        <time>2020-08-14T08:28:33Z</time>
      </trkpt>
      <trkpt lat="43.78403" lon="7.24585">
        <ele>547.2</ele>
        <time>2020-08-14T08:28:39Z</time>
      </trkpt>
      <trkpt lat="43.784" lon="7.24586">
        <ele>547</ele>
        <time>2020-08-14T08:28:41Z</time>
      </trkpt>
      <trkpt lat="43.78399" lon="7.24589">
        <ele>547</ele>
        <time>2020-08-14T08:28:43Z</time>
      </trkpt>
      <trkpt lat="43.78397" lon="7.24592">
        <ele>546.8</ele>
        <time>2020-08-14T08:28:45Z</time>
      </trkpt>
      <trkpt lat="43.78395" lon="7.24593">
        <ele>546.8</ele>
        <time>2020-08-14T08:28:47Z</time>
      </trkpt>
      <trkpt lat="43.78392" lon="7.24597">
        <ele>546.8</ele>
        <time>2020-08-14T08:28:50Z</time>
      </trkpt>
      <trkpt lat="43.7839" lon="7.24601">
        <ele>546.8</ele>
        <time>2020-08-14T08:28:53Z</time>
      </trkpt>
      <trkpt lat="43.78386" lon="7.24606">
        <ele>546.4</ele>
        <time>2020-08-14T08:28:57Z</time>
      </trkpt>
      <trkpt lat="43.78382" lon="7.2461">
        <ele>546.4</ele>
        <time>2020-08-14T08:29:00Z</time>
      </trkpt>
      <trkpt lat="43.7838" lon="7.24612">
        <ele>546.2</ele>
        <time>2020-08-14T08:29:02Z</time>
      </trkpt>
      <trkpt lat="43.7838" lon="7.24614">
        <ele>546.4</ele>
        <time>2020-08-14T08:29:03Z</time>
      </trkpt>
      <trkpt lat="43.78378" lon="7.24618">
        <ele>546.4</ele>
        <time>2020-08-14T08:29:06Z</time>
      </trkpt>
      <trkpt lat="43.78376" lon="7.24619">
        <ele>546.6</ele>
        <time>2020-08-14T08:29:08Z</time>
      </trkpt>
      <trkpt lat="43.78376" lon="7.2462">
        <ele>546.8</ele>
        <time>2020-08-14T08:29:09Z</time>
      </trkpt>
      <trkpt lat="43.78374" lon="7.2462">
        <ele>546.8</ele>
        <time>2020-08-14T08:29:10Z</time>
      </trkpt>
      <trkpt lat="43.7837" lon="7.24627">
        <ele>547.2</ele>
        <time>2020-08-14T08:29:15Z</time>
      </trkpt>
      <trkpt lat="43.78368" lon="7.24629">
        <ele>547.4</ele>
        <time>2020-08-14T08:29:17Z</time>
      </trkpt>
      <trkpt lat="43.78363" lon="7.24634">
        <ele>547.4</ele>
        <time>2020-08-14T08:29:21Z</time>
      </trkpt>
      <trkpt lat="43.7836" lon="7.24636">
        <ele>547.2</ele>
        <time>2020-08-14T08:29:23Z</time>
      </trkpt>
      <trkpt lat="43.78359" lon="7.2464">
        <ele>547.2</ele>
        <time>2020-08-14T08:29:25Z</time>
      </trkpt>
      <trkpt lat="43.78358" lon="7.2464">
        <ele>547.2</ele>
        <time>2020-08-14T08:29:26Z</time>
      </trkpt>
      <trkpt lat="43.78355" lon="7.2464">
        <ele>547.4</ele>
        <time>2020-08-14T08:29:28Z</time>
      </trkpt>
      <trkpt lat="43.78353" lon="7.24642">
        <ele>547.4</ele>
        <time>2020-08-14T08:29:30Z</time>
      </trkpt>
      <trkpt lat="43.78353" lon="7.24644">
        <ele>547.4</ele>
        <time>2020-08-14T08:29:31Z</time>
      </trkpt>
      <trkpt lat="43.78351" lon="7.24649">
        <ele>547.8</ele>
        <time>2020-08-14T08:29:34Z</time>
      </trkpt>
      <trkpt lat="43.7835" lon="7.24654">
        <ele>547.8</ele>
        <time>2020-08-14T08:29:36Z</time>
      </trkpt>
      <trkpt lat="43.7835" lon="7.24658">
        <ele>547.8</ele>
        <time>2020-08-14T08:29:38Z</time>
      </trkpt>
      <trkpt lat="43.7835" lon="7.24672">
        <ele>547.8</ele>
        <time>2020-08-14T08:29:45Z</time>
      </trkpt>
      <trkpt lat="43.7835" lon="7.24678">
        <ele>547.8</ele>
        <time>2020-08-14T08:29:48Z</time>
      </trkpt>
      <trkpt lat="43.78349" lon="7.2468">
        <ele>547.8</ele>
        <time>2020-08-14T08:29:49Z</time>
      </trkpt>
      <trkpt lat="43.78349" lon="7.24684">
        <ele>547.6</ele>
        <time>2020-08-14T08:29:51Z</time>
      </trkpt>
      <trkpt lat="43.78345" lon="7.24701">
        <ele>547.6</ele>
        <time>2020-08-14T08:30:00Z</time>
      </trkpt>
      <trkpt lat="43.78344" lon="7.24703">
        <ele>547.6</ele>
        <time>2020-08-14T08:30:01Z</time>
      </trkpt>
      <trkpt lat="43.78341" lon="7.24705">
        <ele>547.6</ele>
        <time>2020-08-14T08:30:03Z</time>
      </trkpt>
      <trkpt lat="43.7834" lon="7.24708">
        <ele>547.6</ele>
        <time>2020-08-14T08:30:05Z</time>
      </trkpt>
      <trkpt lat="43.78339" lon="7.24712">
        <ele>547.8</ele>
        <time>2020-08-14T08:30:08Z</time>
      </trkpt>
      <trkpt lat="43.78339" lon="7.24717">
        <ele>547.8</ele>
        <time>2020-08-14T08:30:10Z</time>
      </trkpt>
      <trkpt lat="43.78339" lon="7.2472">
        <ele>547.8</ele>
        <time>2020-08-14T08:30:11Z</time>
      </trkpt>
      <trkpt lat="43.78339" lon="7.24722">
        <ele>548</ele>
        <time>2020-08-14T08:30:12Z</time>
      </trkpt>
      <trkpt lat="43.78339" lon="7.24727">
        <ele>548</ele>
        <time>2020-08-14T08:30:15Z</time>
      </trkpt>
      <trkpt lat="43.78338" lon="7.24732">
        <ele>548.2</ele>
        <time>2020-08-14T08:30:18Z</time>
      </trkpt>
      <trkpt lat="43.78336" lon="7.24735">
        <ele>548.4</ele>
        <time>2020-08-14T08:30:21Z</time>
      </trkpt>
      <trkpt lat="43.78334" lon="7.24739">
        <ele>548.8</ele>
        <time>2020-08-14T08:30:24Z</time>
      </trkpt>
      <trkpt lat="43.7833" lon="7.24745">
        <ele>549.2</ele>
        <time>2020-08-14T08:30:28Z</time>
      </trkpt>
      <trkpt lat="43.78329" lon="7.24746">
        <ele>549.4</ele>
        <time>2020-08-14T08:30:30Z</time>
      </trkpt>
      <trkpt lat="43.78328" lon="7.24747">
        <ele>549.4</ele>
        <time>2020-08-14T08:30:31Z</time>
      </trkpt>
      <trkpt lat="43.78328" lon="7.24748">
        <ele>549.4</ele>
        <time>2020-08-14T08:30:32Z</time>
      </trkpt>
      <trkpt lat="43.78327" lon="7.24752">
        <ele>549.4</ele>
        <time>2020-08-14T08:30:35Z</time>
      </trkpt>
      <trkpt lat="43.78326" lon="7.24757">
        <ele>549.6</ele>
        <time>2020-08-14T08:30:38Z</time>
      </trkpt>
      <trkpt lat="43.78326" lon="7.24758">
        <ele>549.6</ele>
        <time>2020-08-14T08:30:39Z</time>
      </trkpt>
      <trkpt lat="43.78325" lon="7.24766">
        <ele>549.6</ele>
        <time>2020-08-14T08:30:44Z</time>
      </trkpt>
      <trkpt lat="43.78324" lon="7.24771">
        <ele>549.8</ele>
        <time>2020-08-14T08:30:47Z</time>
      </trkpt>
      <trkpt lat="43.78324" lon="7.24774">
        <ele>550</ele>
        <time>2020-08-14T08:30:49Z</time>
      </trkpt>
      <trkpt lat="43.78324" lon="7.24776">
        <ele>550</ele>
        <time>2020-08-14T08:30:50Z</time>
      </trkpt>
      <trkpt lat="43.78323" lon="7.24784">
        <ele>550.4</ele>
        <time>2020-08-14T08:30:54Z</time>
      </trkpt>
      <trkpt lat="43.78321" lon="7.24791">
        <ele>550.8</ele>
        <time>2020-08-14T08:30:58Z</time>
      </trkpt>
      <trkpt lat="43.7832" lon="7.24797">
        <ele>551.4</ele>
        <time>2020-08-14T08:31:02Z</time>
      </trkpt>
      <trkpt lat="43.78318" lon="7.24802">
        <ele>552</ele>
        <time>2020-08-14T08:31:06Z</time>
      </trkpt>
      <trkpt lat="43.78317" lon="7.24805">
        <ele>552.4</ele>
        <time>2020-08-14T08:31:08Z</time>
      </trkpt>
      <trkpt lat="43.78317" lon="7.24809">
        <ele>553</ele>
        <time>2020-08-14T08:31:11Z</time>
      </trkpt>
      <trkpt lat="43.78318" lon="7.24818">
        <ele>554.2</ele>
        <time>2020-08-14T08:31:17Z</time>
      </trkpt>
      <trkpt lat="43.78316" lon="7.24828">
        <ele>555.2</ele>
        <time>2020-08-14T08:31:24Z</time>
      </trkpt>
      <trkpt lat="43.78316" lon="7.24831">
        <ele>555.8</ele>
        <time>2020-08-14T08:31:26Z</time>
      </trkpt>
      <trkpt lat="43.78315" lon="7.24837">
        <ele>556.4</ele>
        <time>2020-08-14T08:31:30Z</time>
      </trkpt>
      <trkpt lat="43.78314" lon="7.24844">
        <ele>557.4</ele>
        <time>2020-08-14T08:31:35Z</time>
      </trkpt>
      <trkpt lat="43.78314" lon="7.24845">
        <ele>557.6</ele>
        <time>2020-08-14T08:31:36Z</time>
      </trkpt>
      <trkpt lat="43.78314" lon="7.24854">
        <ele>558.6</ele>
        <time>2020-08-14T08:31:41Z</time>
      </trkpt>
      <trkpt lat="43.78314" lon="7.24855">
        <ele>558.6</ele>
        <time>2020-08-14T08:31:42Z</time>
      </trkpt>
      <trkpt lat="43.78314" lon="7.24858">
        <ele>559</ele>
        <time>2020-08-14T08:31:44Z</time>
      </trkpt>
      <trkpt lat="43.78314" lon="7.2486">
        <ele>559</ele>
        <time>2020-08-14T08:31:45Z</time>
      </trkpt>
      <trkpt lat="43.78313" lon="7.24866">
        <ele>559.8</ele>
        <time>2020-08-14T08:31:49Z</time>
      </trkpt>
      <trkpt lat="43.78311" lon="7.24875">
        <ele>560.8</ele>
        <time>2020-08-14T08:31:55Z</time>
      </trkpt>
      <trkpt lat="43.78311" lon="7.24878">
        <ele>561.2</ele>
        <time>2020-08-14T08:31:57Z</time>
      </trkpt>
      <trkpt lat="43.78311" lon="7.24884">
        <ele>562</ele>
        <time>2020-08-14T08:32:02Z</time>
      </trkpt>
      <trkpt lat="43.78309" lon="7.24888">
        <ele>562.4</ele>
        <time>2020-08-14T08:32:05Z</time>
      </trkpt>
      <trkpt lat="43.78309" lon="7.24892">
        <ele>563</ele>
        <time>2020-08-14T08:32:08Z</time>
      </trkpt>
      <trkpt lat="43.78308" lon="7.24896">
        <ele>564</ele>
        <time>2020-08-14T08:32:12Z</time>
      </trkpt>
      <trkpt lat="43.78308" lon="7.24897">
        <ele>564.2</ele>
        <time>2020-08-14T08:32:13Z</time>
      </trkpt>
      <trkpt lat="43.78308" lon="7.24905">
        <ele>565.4</ele>
        <time>2020-08-14T08:32:19Z</time>
      </trkpt>
      <trkpt lat="43.78307" lon="7.24908">
        <ele>565.6</ele>
        <time>2020-08-14T08:32:21Z</time>
      </trkpt>
      <trkpt lat="43.78307" lon="7.24911">
        <ele>566.4</ele>
        <time>2020-08-14T08:32:24Z</time>
      </trkpt>
      <trkpt lat="43.78309" lon="7.24917">
        <ele>567.4</ele>
        <time>2020-08-14T08:32:29Z</time>
      </trkpt>
      <trkpt lat="43.78309" lon="7.24918">
        <ele>567.6</ele>
        <time>2020-08-14T08:32:30Z</time>
      </trkpt>
      <trkpt lat="43.78308" lon="7.24924">
        <ele>568.8</ele>
        <time>2020-08-14T08:32:36Z</time>
      </trkpt>
      <trkpt lat="43.78306" lon="7.24928">
        <ele>569.4</ele>
        <time>2020-08-14T08:32:40Z</time>
      </trkpt>
      <trkpt lat="43.78305" lon="7.24929">
        <ele>569.8</ele>
        <time>2020-08-14T08:32:42Z</time>
      </trkpt>
      <trkpt lat="43.78304" lon="7.24931">
        <ele>570</ele>
        <time>2020-08-14T08:32:43Z</time>
      </trkpt>
      <trkpt lat="43.78301" lon="7.24937">
        <ele>570.8</ele>
        <time>2020-08-14T08:32:48Z</time>
      </trkpt>
      <trkpt lat="43.783" lon="7.2494">
        <ele>571.4</ele>
        <time>2020-08-14T08:32:50Z</time>
      </trkpt>
      <trkpt lat="43.78299" lon="7.24945">
        <ele>572</ele>
        <time>2020-08-14T08:32:53Z</time>
      </trkpt>
      <trkpt lat="43.78298" lon="7.24947">
        <ele>572.2</ele>
        <time>2020-08-14T08:32:55Z</time>
      </trkpt>
      <trkpt lat="43.78297" lon="7.2495">
        <ele>572.6</ele>
        <time>2020-08-14T08:32:57Z</time>
      </trkpt>
      <trkpt lat="43.78295" lon="7.24954">
        <ele>573</ele>
        <time>2020-08-14T08:33:00Z</time>
      </trkpt>
      <trkpt lat="43.78294" lon="7.24957">
        <ele>573.4</ele>
        <time>2020-08-14T08:33:02Z</time>
      </trkpt>
      <trkpt lat="43.78293" lon="7.2496">
        <ele>573.6</ele>
        <time>2020-08-14T08:33:04Z</time>
      </trkpt>
      <trkpt lat="43.78293" lon="7.24961">
        <ele>573.8</ele>
        <time>2020-08-14T08:33:05Z</time>
      </trkpt>
      <trkpt lat="43.78291" lon="7.24966">
        <ele>574.2</ele>
        <time>2020-08-14T08:33:08Z</time>
      </trkpt>
      <trkpt lat="43.7829" lon="7.24971">
        <ele>574.6</ele>
        <time>2020-08-14T08:33:11Z</time>
      </trkpt>
      <trkpt lat="43.7829" lon="7.24973">
        <ele>574.8</ele>
        <time>2020-08-14T08:33:12Z</time>
      </trkpt>
      <trkpt lat="43.78289" lon="7.24979">
        <ele>575.2</ele>
        <time>2020-08-14T08:33:16Z</time>
      </trkpt>
      <trkpt lat="43.78288" lon="7.24982">
        <ele>575.4</ele>
        <time>2020-08-14T08:33:18Z</time>
      </trkpt>
      <trkpt lat="43.78287" lon="7.24986">
        <ele>575.6</ele>
        <time>2020-08-14T08:33:20Z</time>
      </trkpt>
      <trkpt lat="43.78285" lon="7.24991">
        <ele>575.6</ele>
        <time>2020-08-14T08:33:23Z</time>
      </trkpt>
      <trkpt lat="43.78285" lon="7.24994">
        <ele>576</ele>
        <time>2020-08-14T08:33:25Z</time>
      </trkpt>
      <trkpt lat="43.78283" lon="7.24998">
        <ele>576.4</ele>
        <time>2020-08-14T08:33:28Z</time>
      </trkpt>
      <trkpt lat="43.78281" lon="7.25">
        <ele>576.6</ele>
        <time>2020-08-14T08:33:30Z</time>
      </trkpt>
      <trkpt lat="43.78279" lon="7.25002">
        <ele>576.8</ele>
        <time>2020-08-14T08:33:32Z</time>
      </trkpt>
      <trkpt lat="43.78276" lon="7.25007">
        <ele>577.4</ele>
        <time>2020-08-14T08:33:35Z</time>
      </trkpt>
      <trkpt lat="43.78274" lon="7.25009">
        <ele>577.6</ele>
        <time>2020-08-14T08:33:37Z</time>
      </trkpt>
      <trkpt lat="43.78273" lon="7.25011">
        <ele>577.6</ele>
        <time>2020-08-14T08:33:38Z</time>
      </trkpt>
      <trkpt lat="43.7827" lon="7.25016">
        <ele>578.6</ele>
        <time>2020-08-14T08:33:43Z</time>
      </trkpt>
      <trkpt lat="43.78267" lon="7.2502">
        <ele>579.2</ele>
        <time>2020-08-14T08:33:46Z</time>
      </trkpt>
      <trkpt lat="43.78266" lon="7.25023">
        <ele>579.6</ele>
        <time>2020-08-14T08:33:49Z</time>
      </trkpt>
      <trkpt lat="43.78265" lon="7.25025">
        <ele>579.8</ele>
        <time>2020-08-14T08:33:50Z</time>
      </trkpt>
      <trkpt lat="43.78261" lon="7.25031">
        <ele>580.8</ele>
        <time>2020-08-14T08:33:56Z</time>
      </trkpt>
      <trkpt lat="43.78257" lon="7.25035">
        <ele>581.4</ele>
        <time>2020-08-14T08:34:01Z</time>
      </trkpt>
      <trkpt lat="43.78255" lon="7.25039">
        <ele>581.8</ele>
        <time>2020-08-14T08:34:04Z</time>
      </trkpt>
      <trkpt lat="43.78253" lon="7.25042">
        <ele>582.2</ele>
        <time>2020-08-14T08:34:07Z</time>
      </trkpt>
      <trkpt lat="43.7825" lon="7.25045">
        <ele>583</ele>
        <time>2020-08-14T08:34:11Z</time>
      </trkpt>
      <trkpt lat="43.78248" lon="7.25049">
        <ele>583.8</ele>
        <time>2020-08-14T08:34:15Z</time>
      </trkpt>
      <trkpt lat="43.78247" lon="7.25051">
        <ele>584</ele>
        <time>2020-08-14T08:34:17Z</time>
      </trkpt>
      <trkpt lat="43.78245" lon="7.25057">
        <ele>585.2</ele>
        <time>2020-08-14T08:34:23Z</time>
      </trkpt>
      <trkpt lat="43.78244" lon="7.25058">
        <ele>585.4</ele>
        <time>2020-08-14T08:34:24Z</time>
      </trkpt>
      <trkpt lat="43.78244" lon="7.25059">
        <ele>585.6</ele>
        <time>2020-08-14T08:34:25Z</time>
      </trkpt>
      <trkpt lat="43.78242" lon="7.25063">
        <ele>586.2</ele>
        <time>2020-08-14T08:34:29Z</time>
      </trkpt>
      <trkpt lat="43.78242" lon="7.25064">
        <ele>586.4</ele>
        <time>2020-08-14T08:34:30Z</time>
      </trkpt>
      <trkpt lat="43.7824" lon="7.25069">
        <ele>587.4</ele>
        <time>2020-08-14T08:34:35Z</time>
      </trkpt>
      <trkpt lat="43.78236" lon="7.25073">
        <ele>587.8</ele>
        <time>2020-08-14T08:34:39Z</time>
      </trkpt>
      <trkpt lat="43.78236" lon="7.25074">
        <ele>588</ele>
        <time>2020-08-14T08:34:40Z</time>
      </trkpt>
      <trkpt lat="43.78234" lon="7.25077">
        <ele>588.4</ele>
        <time>2020-08-14T08:34:42Z</time>
      </trkpt>
      <trkpt lat="43.78232" lon="7.25081">
        <ele>589</ele>
        <time>2020-08-14T08:34:46Z</time>
      </trkpt>
      <trkpt lat="43.78232" lon="7.25084">
        <ele>589.4</ele>
        <time>2020-08-14T08:34:48Z</time>
      </trkpt>
      <trkpt lat="43.78232" lon="7.25085">
        <ele>589.6</ele>
        <time>2020-08-14T08:34:49Z</time>
      </trkpt>
      <trkpt lat="43.78227" lon="7.25093">
        <ele>590.6</ele>
        <time>2020-08-14T08:34:56Z</time>
      </trkpt>
      <trkpt lat="43.78225" lon="7.25098">
        <ele>591.2</ele>
        <time>2020-08-14T08:35:00Z</time>
      </trkpt>
      <trkpt lat="43.7822" lon="7.25101">
        <ele>591.6</ele>
        <time>2020-08-14T08:35:05Z</time>
      </trkpt>
      <trkpt lat="43.78219" lon="7.25101">
        <ele>591.8</ele>
        <time>2020-08-14T08:35:06Z</time>
      </trkpt>
      <trkpt lat="43.78219" lon="7.25101">
        <ele>592</ele>
        <time>2020-08-14T08:35:07Z</time>
      </trkpt>
      <trkpt lat="43.78219" lon="7.25098">
        <ele>592.6</ele>
        <time>2020-08-14T08:35:10Z</time>
      </trkpt>
      <trkpt lat="43.78219" lon="7.25096">
        <ele>592.8</ele>
        <time>2020-08-14T08:35:12Z</time>
      </trkpt>
      <trkpt lat="43.78219" lon="7.25094">
        <ele>593</ele>
        <time>2020-08-14T08:35:13Z</time>
      </trkpt>
      <trkpt lat="43.7822" lon="7.2509">
        <ele>593.8</ele>
        <time>2020-08-14T08:35:17Z</time>
      </trkpt>
      <trkpt lat="43.7822" lon="7.25089">
        <ele>594</ele>
        <time>2020-08-14T08:35:18Z</time>
      </trkpt>
      <trkpt lat="43.78219" lon="7.25084">
        <ele>594.8</ele>
        <time>2020-08-14T08:35:23Z</time>
      </trkpt>
      <trkpt lat="43.78219" lon="7.25079">
        <ele>595.6</ele>
        <time>2020-08-14T08:35:27Z</time>
      </trkpt>
      <trkpt lat="43.7822" lon="7.25076">
        <ele>596</ele>
        <time>2020-08-14T08:35:29Z</time>
      </trkpt>
      <trkpt lat="43.7822" lon="7.25074">
        <ele>596.2</ele>
        <time>2020-08-14T08:35:30Z</time>
      </trkpt>
      <trkpt lat="43.7822" lon="7.25069">
        <ele>596.8</ele>
        <time>2020-08-14T08:35:35Z</time>
      </trkpt>
      <trkpt lat="43.78219" lon="7.25069">
        <ele>597</ele>
        <time>2020-08-14T08:35:36Z</time>
      </trkpt>
      <trkpt lat="43.78219" lon="7.25068">
        <ele>597.2</ele>
        <time>2020-08-14T08:35:37Z</time>
      </trkpt>
      <trkpt lat="43.78218" lon="7.25064">
        <ele>598</ele>
        <time>2020-08-14T08:35:41Z</time>
      </trkpt>
      <trkpt lat="43.78218" lon="7.25063">
        <ele>598</ele>
        <time>2020-08-14T08:35:42Z</time>
      </trkpt>
      <trkpt lat="43.78217" lon="7.25055">
        <ele>599.2</ele>
        <time>2020-08-14T08:35:48Z</time>
      </trkpt>
      <trkpt lat="43.78218" lon="7.25046">
        <ele>600.4</ele>
        <time>2020-08-14T08:35:55Z</time>
      </trkpt>
      <trkpt lat="43.78217" lon="7.25043">
        <ele>600.6</ele>
        <time>2020-08-14T08:35:57Z</time>
      </trkpt>
      <trkpt lat="43.78217" lon="7.25035">
        <ele>601.4</ele>
        <time>2020-08-14T08:36:03Z</time>
      </trkpt>
      <trkpt lat="43.78217" lon="7.25032">
        <ele>601.8</ele>
        <time>2020-08-14T08:36:05Z</time>
      </trkpt>
      <trkpt lat="43.78215" lon="7.25028">
        <ele>602.4</ele>
        <time>2020-08-14T08:36:10Z</time>
      </trkpt>
      <trkpt lat="43.78215" lon="7.25025">
        <ele>603</ele>
        <time>2020-08-14T08:36:13Z</time>
      </trkpt>
      <trkpt lat="43.78214" lon="7.25021">
        <ele>603.4</ele>
        <time>2020-08-14T08:36:16Z</time>
      </trkpt>
      <trkpt lat="43.78214" lon="7.25011">
        <ele>604.6</ele>
        <time>2020-08-14T08:36:23Z</time>
      </trkpt>
      <trkpt lat="43.78214" lon="7.25009">
        <ele>605</ele>
        <time>2020-08-14T08:36:25Z</time>
      </trkpt>
      <trkpt lat="43.78214" lon="7.25005">
        <ele>605.4</ele>
        <time>2020-08-14T08:36:28Z</time>
      </trkpt>
      <trkpt lat="43.78214" lon="7.25004">
        <ele>605.4</ele>
        <time>2020-08-14T08:36:29Z</time>
      </trkpt>
      <trkpt lat="43.78214" lon="7.25003">
        <ele>605.6</ele>
        <time>2020-08-14T08:36:30Z</time>
      </trkpt>
      <trkpt lat="43.78212" lon="7.24999">
        <ele>606.8</ele>
        <time>2020-08-14T08:36:36Z</time>
      </trkpt>
      <trkpt lat="43.78211" lon="7.24997">
        <ele>607</ele>
        <time>2020-08-14T08:36:38Z</time>
      </trkpt>
      <trkpt lat="43.7821" lon="7.24993">
        <ele>607.8</ele>
        <time>2020-08-14T08:36:42Z</time>
      </trkpt>
      <trkpt lat="43.7821" lon="7.24993">
        <ele>608.2</ele>
        <time>2020-08-14T08:36:44Z</time>
      </trkpt>
      <trkpt lat="43.78209" lon="7.2499">
        <ele>608.8</ele>
        <time>2020-08-14T08:36:47Z</time>
      </trkpt>
      <trkpt lat="43.78209" lon="7.24989">
        <ele>609</ele>
        <time>2020-08-14T08:36:48Z</time>
      </trkpt>
      <trkpt lat="43.78208" lon="7.24986">
        <ele>609.4</ele>
        <time>2020-08-14T08:36:51Z</time>
      </trkpt>
      <trkpt lat="43.78207" lon="7.24984">
        <ele>610</ele>
        <time>2020-08-14T08:36:53Z</time>
      </trkpt>
      <trkpt lat="43.78206" lon="7.24982">
        <ele>610.4</ele>
        <time>2020-08-14T08:36:55Z</time>
      </trkpt>
      <trkpt lat="43.78206" lon="7.24981">
        <ele>610.6</ele>
        <time>2020-08-14T08:36:57Z</time>
      </trkpt>
      <trkpt lat="43.78205" lon="7.24978">
        <ele>611</ele>
        <time>2020-08-14T08:36:59Z</time>
      </trkpt>
      <trkpt lat="43.78204" lon="7.24976">
        <ele>611.4</ele>
        <time>2020-08-14T08:37:01Z</time>
      </trkpt>
      <trkpt lat="43.78204" lon="7.24972">
        <ele>611.8</ele>
        <time>2020-08-14T08:37:04Z</time>
      </trkpt>
      <trkpt lat="43.78203" lon="7.2497">
        <ele>612</ele>
        <time>2020-08-14T08:37:05Z</time>
      </trkpt>
      <trkpt lat="43.78203" lon="7.24968">
        <ele>612</ele>
        <time>2020-08-14T08:37:06Z</time>
      </trkpt>
      <trkpt lat="43.78203" lon="7.24967">
        <ele>612.2</ele>
        <time>2020-08-14T08:37:07Z</time>
      </trkpt>
      <trkpt lat="43.78202" lon="7.24964">
        <ele>612.4</ele>
        <time>2020-08-14T08:37:09Z</time>
      </trkpt>
      <trkpt lat="43.78201" lon="7.24961">
        <ele>612.8</ele>
        <time>2020-08-14T08:37:12Z</time>
      </trkpt>
      <trkpt lat="43.782" lon="7.24958">
        <ele>613.2</ele>
        <time>2020-08-14T08:37:14Z</time>
      </trkpt>
      <trkpt lat="43.78199" lon="7.24952">
        <ele>614.2</ele>
        <time>2020-08-14T08:37:20Z</time>
      </trkpt>
      <trkpt lat="43.78198" lon="7.24951">
        <ele>614.4</ele>
        <time>2020-08-14T08:37:21Z</time>
      </trkpt>
      <trkpt lat="43.78197" lon="7.24944">
        <ele>615.4</ele>
        <time>2020-08-14T08:37:27Z</time>
      </trkpt>
      <trkpt lat="43.78196" lon="7.24942">
        <ele>615.6</ele>
        <time>2020-08-14T08:37:29Z</time>
      </trkpt>
      <trkpt lat="43.78192" lon="7.2494">
        <ele>616.4</ele>
        <time>2020-08-14T08:37:34Z</time>
      </trkpt>
      <trkpt lat="43.78191" lon="7.2494">
        <ele>616.6</ele>
        <time>2020-08-14T08:37:35Z</time>
      </trkpt>
      <trkpt lat="43.78189" lon="7.24939">
        <ele>617</ele>
        <time>2020-08-14T08:37:38Z</time>
      </trkpt>
      <trkpt lat="43.78189" lon="7.24939">
        <ele>617.2</ele>
        <time>2020-08-14T08:37:39Z</time>
      </trkpt>
      <trkpt lat="43.78187" lon="7.24938">
        <ele>617.6</ele>
        <time>2020-08-14T08:37:41Z</time>
      </trkpt>
      <trkpt lat="43.78186" lon="7.24936">
        <ele>618</ele>
        <time>2020-08-14T08:37:43Z</time>
      </trkpt>
      <trkpt lat="43.78184" lon="7.24934">
        <ele>618.6</ele>
        <time>2020-08-14T08:37:46Z</time>
      </trkpt>
      <trkpt lat="43.78182" lon="7.24932">
        <ele>618.8</ele>
        <time>2020-08-14T08:37:48Z</time>
      </trkpt>
      <trkpt lat="43.78182" lon="7.2493">
        <ele>619.2</ele>
        <time>2020-08-14T08:37:50Z</time>
      </trkpt>
      <trkpt lat="43.78181" lon="7.24928">
        <ele>619.4</ele>
        <time>2020-08-14T08:37:52Z</time>
      </trkpt>
      <trkpt lat="43.78179" lon="7.24926">
        <ele>619.6</ele>
        <time>2020-08-14T08:37:54Z</time>
      </trkpt>
      <trkpt lat="43.78178" lon="7.24925">
        <ele>619.8</ele>
        <time>2020-08-14T08:37:55Z</time>
      </trkpt>
      <trkpt lat="43.78174" lon="7.24919">
        <ele>620.2</ele>
        <time>2020-08-14T08:38:00Z</time>
      </trkpt>
      <trkpt lat="43.78173" lon="7.24917">
        <ele>620.4</ele>
        <time>2020-08-14T08:38:02Z</time>
      </trkpt>
      <trkpt lat="43.7817" lon="7.24915">
        <ele>620.8</ele>
        <time>2020-08-14T08:38:05Z</time>
      </trkpt>
      <trkpt lat="43.78169" lon="7.24914">
        <ele>620.8</ele>
        <time>2020-08-14T08:38:06Z</time>
      </trkpt>
      <trkpt lat="43.78168" lon="7.24913">
        <ele>621</ele>
        <time>2020-08-14T08:38:07Z</time>
      </trkpt>
      <trkpt lat="43.78164" lon="7.24909">
        <ele>621.4</ele>
        <time>2020-08-14T08:38:11Z</time>
      </trkpt>
      <trkpt lat="43.7816" lon="7.24907">
        <ele>621.8</ele>
        <time>2020-08-14T08:38:15Z</time>
      </trkpt>
      <trkpt lat="43.78155" lon="7.24903">
        <ele>622.4</ele>
        <time>2020-08-14T08:38:20Z</time>
      </trkpt>
      <trkpt lat="43.78153" lon="7.24902">
        <ele>622.6</ele>
        <time>2020-08-14T08:38:22Z</time>
      </trkpt>
      <trkpt lat="43.78151" lon="7.249">
        <ele>622.8</ele>
        <time>2020-08-14T08:38:24Z</time>
      </trkpt>
      <trkpt lat="43.78145" lon="7.24895">
        <ele>623.6</ele>
        <time>2020-08-14T08:38:31Z</time>
      </trkpt>
      <trkpt lat="43.78142" lon="7.24894">
        <ele>623.8</ele>
        <time>2020-08-14T08:38:33Z</time>
      </trkpt>
      <trkpt lat="43.78139" lon="7.24894">
        <ele>624.4</ele>
        <time>2020-08-14T08:38:36Z</time>
      </trkpt>
      <trkpt lat="43.78138" lon="7.24893">
        <ele>624.6</ele>
        <time>2020-08-14T08:38:37Z</time>
      </trkpt>
      <trkpt lat="43.78138" lon="7.24892">
        <ele>624.8</ele>
        <time>2020-08-14T08:38:38Z</time>
      </trkpt>
      <trkpt lat="43.78137" lon="7.24891">
        <ele>624.8</ele>
        <time>2020-08-14T08:38:39Z</time>
      </trkpt>
      <trkpt lat="43.78133" lon="7.24887">
        <ele>625.6</ele>
        <time>2020-08-14T08:38:45Z</time>
      </trkpt>
      <trkpt lat="43.78131" lon="7.24885">
        <ele>626</ele>
        <time>2020-08-14T08:38:47Z</time>
      </trkpt>
      <trkpt lat="43.78126" lon="7.24884">
        <ele>626.6</ele>
        <time>2020-08-14T08:38:52Z</time>
      </trkpt>
      <trkpt lat="43.78124" lon="7.24883">
        <ele>627</ele>
        <time>2020-08-14T08:38:54Z</time>
      </trkpt>
      <trkpt lat="43.78124" lon="7.24883">
        <ele>627.2</ele>
        <time>2020-08-14T08:38:55Z</time>
      </trkpt>
      <trkpt lat="43.7812" lon="7.24882">
        <ele>628</ele>
        <time>2020-08-14T08:39:00Z</time>
      </trkpt>
      <trkpt lat="43.78117" lon="7.24882">
        <ele>628.4</ele>
        <time>2020-08-14T08:39:03Z</time>
      </trkpt>
      <trkpt lat="43.78116" lon="7.24882">
        <ele>628.4</ele>
        <time>2020-08-14T08:39:04Z</time>
      </trkpt>
      <trkpt lat="43.78114" lon="7.24881">
        <ele>628.6</ele>
        <time>2020-08-14T08:39:06Z</time>
      </trkpt>
      <trkpt lat="43.78113" lon="7.24881">
        <ele>628.8</ele>
        <time>2020-08-14T08:39:07Z</time>
      </trkpt>
      <trkpt lat="43.78112" lon="7.2488">
        <ele>629</ele>
        <time>2020-08-14T08:39:09Z</time>
      </trkpt>
      <trkpt lat="43.78107" lon="7.2488">
        <ele>629.8</ele>
        <time>2020-08-14T08:39:14Z</time>
      </trkpt>
      <trkpt lat="43.78106" lon="7.24879">
        <ele>630</ele>
        <time>2020-08-14T08:39:15Z</time>
      </trkpt>
      <trkpt lat="43.781" lon="7.24879">
        <ele>631.2</ele>
        <time>2020-08-14T08:39:22Z</time>
      </trkpt>
      <trkpt lat="43.781" lon="7.24879">
        <ele>631.4</ele>
        <time>2020-08-14T08:39:24Z</time>
      </trkpt>
      <trkpt lat="43.78097" lon="7.24879">
        <ele>632</ele>
        <time>2020-08-14T08:39:27Z</time>
      </trkpt>
      <trkpt lat="43.78096" lon="7.24879">
        <ele>632.2</ele>
        <time>2020-08-14T08:39:28Z</time>
      </trkpt>
      <trkpt lat="43.78094" lon="7.2488">
        <ele>632.6</ele>
        <time>2020-08-14T08:39:30Z</time>
      </trkpt>
      <trkpt lat="43.7809" lon="7.2488">
        <ele>633.2</ele>
        <time>2020-08-14T08:39:34Z</time>
      </trkpt>
      <trkpt lat="43.78086" lon="7.24882">
        <ele>634.4</ele>
        <time>2020-08-14T08:39:40Z</time>
      </trkpt>
      <trkpt lat="43.78082" lon="7.24881">
        <ele>635.2</ele>
        <time>2020-08-14T08:39:45Z</time>
      </trkpt>
      <trkpt lat="43.7808" lon="7.24881">
        <ele>635.4</ele>
        <time>2020-08-14T08:39:47Z</time>
      </trkpt>
      <trkpt lat="43.78079" lon="7.24881">
        <ele>635.6</ele>
        <time>2020-08-14T08:39:48Z</time>
      </trkpt>
      <trkpt lat="43.78074" lon="7.24879">
        <ele>636.6</ele>
        <time>2020-08-14T08:39:53Z</time>
      </trkpt>
      <trkpt lat="43.78071" lon="7.24881">
        <ele>637.2</ele>
        <time>2020-08-14T08:39:57Z</time>
      </trkpt>
      <trkpt lat="43.78069" lon="7.24881">
        <ele>637.6</ele>
        <time>2020-08-14T08:39:59Z</time>
      </trkpt>
      <trkpt lat="43.78068" lon="7.24881">
        <ele>637.8</ele>
        <time>2020-08-14T08:40:00Z</time>
      </trkpt>
      <trkpt lat="43.78065" lon="7.24881">
        <ele>638.6</ele>
        <time>2020-08-14T08:40:04Z</time>
      </trkpt>
      <trkpt lat="43.78064" lon="7.24881">
        <ele>638.8</ele>
        <time>2020-08-14T08:40:05Z</time>
      </trkpt>
      <trkpt lat="43.78063" lon="7.24881">
        <ele>639</ele>
        <time>2020-08-14T08:40:06Z</time>
      </trkpt>
      <trkpt lat="43.7806" lon="7.24881">
        <ele>639.8</ele>
        <time>2020-08-14T08:40:11Z</time>
      </trkpt>
      <trkpt lat="43.7806" lon="7.24881">
        <ele>640</ele>
        <time>2020-08-14T08:40:12Z</time>
      </trkpt>
      <trkpt lat="43.78056" lon="7.24881">
        <ele>641</ele>
        <time>2020-08-14T08:40:17Z</time>
      </trkpt>
      <trkpt lat="43.78053" lon="7.24881">
        <ele>641.6</ele>
        <time>2020-08-14T08:40:20Z</time>
      </trkpt>
      <trkpt lat="43.78052" lon="7.2488">
        <ele>642</ele>
        <time>2020-08-14T08:40:22Z</time>
      </trkpt>
      <trkpt lat="43.78046" lon="7.24879">
        <ele>643.2</ele>
        <time>2020-08-14T08:40:28Z</time>
      </trkpt>
      <trkpt lat="43.78046" lon="7.24879">
        <ele>643.4</ele>
        <time>2020-08-14T08:40:29Z</time>
      </trkpt>
      <trkpt lat="43.78043" lon="7.2488">
        <ele>644.2</ele>
        <time>2020-08-14T08:40:33Z</time>
      </trkpt>
      <trkpt lat="43.78039" lon="7.24879">
        <ele>645</ele>
        <time>2020-08-14T08:40:38Z</time>
      </trkpt>
      <trkpt lat="43.78038" lon="7.24879">
        <ele>645.2</ele>
        <time>2020-08-14T08:40:39Z</time>
      </trkpt>
      <trkpt lat="43.78036" lon="7.24879">
        <ele>645.6</ele>
        <time>2020-08-14T08:40:41Z</time>
      </trkpt>
      <trkpt lat="43.78034" lon="7.24879">
        <ele>646.4</ele>
        <time>2020-08-14T08:40:44Z</time>
      </trkpt>
      <trkpt lat="43.78033" lon="7.2488">
        <ele>646.6</ele>
        <time>2020-08-14T08:40:46Z</time>
      </trkpt>
      <trkpt lat="43.78032" lon="7.24881">
        <ele>647</ele>
        <time>2020-08-14T08:40:47Z</time>
      </trkpt>
      <trkpt lat="43.7803" lon="7.24881">
        <ele>647.4</ele>
        <time>2020-08-14T08:40:49Z</time>
      </trkpt>
      <trkpt lat="43.78024" lon="7.24879">
        <ele>648.6</ele>
        <time>2020-08-14T08:40:56Z</time>
      </trkpt>
      <trkpt lat="43.78023" lon="7.24878">
        <ele>649.2</ele>
        <time>2020-08-14T08:40:58Z</time>
      </trkpt>
      <trkpt lat="43.78022" lon="7.24878">
        <ele>649.6</ele>
        <time>2020-08-14T08:41:00Z</time>
      </trkpt>
      <trkpt lat="43.78018" lon="7.24879">
        <ele>650.4</ele>
        <time>2020-08-14T08:41:04Z</time>
      </trkpt>
      <trkpt lat="43.78018" lon="7.24879">
        <ele>650.6</ele>
        <time>2020-08-14T08:41:05Z</time>
      </trkpt>
      <trkpt lat="43.78014" lon="7.2488">
        <ele>651.8</ele>
        <time>2020-08-14T08:41:10Z</time>
      </trkpt>
      <trkpt lat="43.78013" lon="7.2488">
        <ele>651.8</ele>
        <time>2020-08-14T08:41:11Z</time>
      </trkpt>
      <trkpt lat="43.7801" lon="7.2488">
        <ele>652.8</ele>
        <time>2020-08-14T08:41:15Z</time>
      </trkpt>
      <trkpt lat="43.78007" lon="7.24879">
        <ele>653.2</ele>
        <time>2020-08-14T08:41:18Z</time>
      </trkpt>
      <trkpt lat="43.78003" lon="7.24877">
        <ele>653.6</ele>
        <time>2020-08-14T08:41:21Z</time>
      </trkpt>
      <trkpt lat="43.78001" lon="7.24876">
        <ele>653.8</ele>
        <time>2020-08-14T08:41:23Z</time>
      </trkpt>
      <trkpt lat="43.77998" lon="7.24875">
        <ele>654</ele>
        <time>2020-08-14T08:41:25Z</time>
      </trkpt>
      <trkpt lat="43.77991" lon="7.24872">
        <ele>654</ele>
        <time>2020-08-14T08:41:32Z</time>
      </trkpt>
      <trkpt lat="43.77988" lon="7.24871">
        <ele>654</ele>
        <time>2020-08-14T08:41:34Z</time>
      </trkpt>
      <trkpt lat="43.77983" lon="7.24867">
        <ele>654.2</ele>
        <time>2020-08-14T08:41:39Z</time>
      </trkpt>
      <trkpt lat="43.77982" lon="7.24864">
        <ele>654.2</ele>
        <time>2020-08-14T08:41:41Z</time>
      </trkpt>
      <trkpt lat="43.77981" lon="7.24854">
        <ele>654.8</ele>
        <time>2020-08-14T08:41:49Z</time>
      </trkpt>
      <trkpt lat="43.77981" lon="7.24851">
        <ele>655</ele>
        <time>2020-08-14T08:41:50Z</time>
      </trkpt>
      <trkpt lat="43.7798" lon="7.24849">
        <ele>655.2</ele>
        <time>2020-08-14T08:41:51Z</time>
      </trkpt>
      <trkpt lat="43.77978" lon="7.2484">
        <ele>656</ele>
        <time>2020-08-14T08:41:59Z</time>
      </trkpt>
      <trkpt lat="43.77978" lon="7.24837">
        <ele>656.2</ele>
        <time>2020-08-14T08:42:01Z</time>
      </trkpt>
      <trkpt lat="43.77977" lon="7.24833">
        <ele>656.6</ele>
        <time>2020-08-14T08:42:04Z</time>
      </trkpt>
      <trkpt lat="43.77976" lon="7.24832">
        <ele>656.8</ele>
        <time>2020-08-14T08:42:06Z</time>
      </trkpt>
      <trkpt lat="43.77975" lon="7.2483">
        <ele>657.2</ele>
        <time>2020-08-14T08:42:08Z</time>
      </trkpt>
      <trkpt lat="43.77975" lon="7.24825">
        <ele>658.2</ele>
        <time>2020-08-14T08:42:13Z</time>
      </trkpt>
      <trkpt lat="43.77974" lon="7.24819">
        <ele>658.8</ele>
        <time>2020-08-14T08:42:17Z</time>
      </trkpt>
      <trkpt lat="43.77974" lon="7.24815">
        <ele>659.2</ele>
        <time>2020-08-14T08:42:20Z</time>
      </trkpt>
      <trkpt lat="43.77973" lon="7.24811">
        <ele>660</ele>
        <time>2020-08-14T08:42:25Z</time>
      </trkpt>
      <trkpt lat="43.77972" lon="7.24809">
        <ele>660.4</ele>
        <time>2020-08-14T08:42:27Z</time>
      </trkpt>
      <trkpt lat="43.7797" lon="7.24799">
        <ele>661.4</ele>
        <time>2020-08-14T08:42:34Z</time>
      </trkpt>
      <trkpt lat="43.77969" lon="7.24797">
        <ele>662</ele>
        <time>2020-08-14T08:42:38Z</time>
      </trkpt>
      <trkpt lat="43.77969" lon="7.24796">
        <ele>662.2</ele>
        <time>2020-08-14T08:42:39Z</time>
      </trkpt>
      <trkpt lat="43.77968" lon="7.24795">
        <ele>662.4</ele>
        <time>2020-08-14T08:42:40Z</time>
      </trkpt>
      <trkpt lat="43.77968" lon="7.24794">
        <ele>662.6</ele>
        <time>2020-08-14T08:42:41Z</time>
      </trkpt>
      <trkpt lat="43.77967" lon="7.24794">
        <ele>662.8</ele>
        <time>2020-08-14T08:42:42Z</time>
      </trkpt>
      <trkpt lat="43.77966" lon="7.24794">
        <ele>663.2</ele>
        <time>2020-08-14T08:42:44Z</time>
      </trkpt>
      <trkpt lat="43.77965" lon="7.24795">
        <ele>663.6</ele>
        <time>2020-08-14T08:42:46Z</time>
      </trkpt>
      <trkpt lat="43.77964" lon="7.24797">
        <ele>664</ele>
        <time>2020-08-14T08:42:50Z</time>
      </trkpt>
      <trkpt lat="43.77963" lon="7.248">
        <ele>664.6</ele>
        <time>2020-08-14T08:42:53Z</time>
      </trkpt>
      <trkpt lat="43.77962" lon="7.24804">
        <ele>665.2</ele>
        <time>2020-08-14T08:42:57Z</time>
      </trkpt>
      <trkpt lat="43.77959" lon="7.24804">
        <ele>665.6</ele>
        <time>2020-08-14T08:43:00Z</time>
      </trkpt>
      <trkpt lat="43.77957" lon="7.24807">
        <ele>666.2</ele>
        <time>2020-08-14T08:43:04Z</time>
      </trkpt>
      <trkpt lat="43.77956" lon="7.24809">
        <ele>666.6</ele>
        <time>2020-08-14T08:43:06Z</time>
      </trkpt>
      <trkpt lat="43.77955" lon="7.24813">
        <ele>667.8</ele>
        <time>2020-08-14T08:43:12Z</time>
      </trkpt>
      <trkpt lat="43.77954" lon="7.24814">
        <ele>668</ele>
        <time>2020-08-14T08:43:13Z</time>
      </trkpt>
      <trkpt lat="43.77954" lon="7.2482">
        <ele>669</ele>
        <time>2020-08-14T08:43:19Z</time>
      </trkpt>
      <trkpt lat="43.7795" lon="7.24822">
        <ele>669.4</ele>
        <time>2020-08-14T08:43:22Z</time>
      </trkpt>
      <trkpt lat="43.77948" lon="7.24821">
        <ele>670</ele>
        <time>2020-08-14T08:43:25Z</time>
      </trkpt>
      <trkpt lat="43.77947" lon="7.24819">
        <ele>670.2</ele>
        <time>2020-08-14T08:43:27Z</time>
      </trkpt>
      <trkpt lat="43.77944" lon="7.24818">
        <ele>671</ele>
        <time>2020-08-14T08:43:32Z</time>
      </trkpt>
      <trkpt lat="43.77944" lon="7.2482">
        <ele>671.2</ele>
        <time>2020-08-14T08:43:33Z</time>
      </trkpt>
      <trkpt lat="43.77942" lon="7.24822">
        <ele>672</ele>
        <time>2020-08-14T08:43:37Z</time>
      </trkpt>
      <trkpt lat="43.7794" lon="7.24823">
        <ele>672.4</ele>
        <time>2020-08-14T08:43:39Z</time>
      </trkpt>
      <trkpt lat="43.77937" lon="7.2482">
        <ele>673.2</ele>
        <time>2020-08-14T08:43:44Z</time>
      </trkpt>
      <trkpt lat="43.77937" lon="7.24818">
        <ele>673.4</ele>
        <time>2020-08-14T08:43:45Z</time>
      </trkpt>
      <trkpt lat="43.77934" lon="7.24809">
        <ele>674.4</ele>
        <time>2020-08-14T08:43:52Z</time>
      </trkpt>
      <trkpt lat="43.77929" lon="7.24808">
        <ele>675.2</ele>
        <time>2020-08-14T08:43:58Z</time>
      </trkpt>
      <trkpt lat="43.77928" lon="7.24808">
        <ele>675.4</ele>
        <time>2020-08-14T08:43:59Z</time>
      </trkpt>
      <trkpt lat="43.77926" lon="7.2481">
        <ele>676.2</ele>
        <time>2020-08-14T08:44:02Z</time>
      </trkpt>
      <trkpt lat="43.77925" lon="7.24809">
        <ele>676.4</ele>
        <time>2020-08-14T08:44:04Z</time>
      </trkpt>
      <trkpt lat="43.77924" lon="7.2481">
        <ele>676.6</ele>
        <time>2020-08-14T08:44:05Z</time>
      </trkpt>
      <trkpt lat="43.7792" lon="7.24811">
        <ele>677.8</ele>
        <time>2020-08-14T08:44:10Z</time>
      </trkpt>
      <trkpt lat="43.77918" lon="7.2481">
        <ele>678.2</ele>
        <time>2020-08-14T08:44:12Z</time>
      </trkpt>
      <trkpt lat="43.77918" lon="7.24809">
        <ele>678.4</ele>
        <time>2020-08-14T08:44:13Z</time>
      </trkpt>
      <trkpt lat="43.77916" lon="7.24805">
        <ele>678.8</ele>
        <time>2020-08-14T08:44:16Z</time>
      </trkpt>
      <trkpt lat="43.77913" lon="7.24802">
        <ele>679.6</ele>
        <time>2020-08-14T08:44:20Z</time>
      </trkpt>
      <trkpt lat="43.77913" lon="7.24801">
        <ele>679.6</ele>
        <time>2020-08-14T08:44:21Z</time>
      </trkpt>
      <trkpt lat="43.77912" lon="7.24799">
        <ele>680</ele>
        <time>2020-08-14T08:44:23Z</time>
      </trkpt>
      <trkpt lat="43.77911" lon="7.24798">
        <ele>680.6</ele>
        <time>2020-08-14T08:44:27Z</time>
      </trkpt>
      <trkpt lat="43.77911" lon="7.24801">
        <ele>681</ele>
        <time>2020-08-14T08:44:30Z</time>
      </trkpt>
      <trkpt lat="43.7791" lon="7.24801">
        <ele>681.2</ele>
        <time>2020-08-14T08:44:31Z</time>
      </trkpt>
      <trkpt lat="43.77907" lon="7.24803">
        <ele>681.6</ele>
        <time>2020-08-14T08:44:34Z</time>
      </trkpt>
      <trkpt lat="43.77906" lon="7.24805">
        <ele>682</ele>
        <time>2020-08-14T08:44:36Z</time>
      </trkpt>
      <trkpt lat="43.77904" lon="7.24807">
        <ele>682.2</ele>
        <time>2020-08-14T08:44:38Z</time>
      </trkpt>
      <trkpt lat="43.779" lon="7.24812">
        <ele>683.2</ele>
        <time>2020-08-14T08:44:44Z</time>
      </trkpt>
      <trkpt lat="43.77894" lon="7.24817">
        <ele>684.2</ele>
        <time>2020-08-14T08:44:51Z</time>
      </trkpt>
      <trkpt lat="43.77894" lon="7.24819">
        <ele>684.6</ele>
        <time>2020-08-14T08:44:53Z</time>
      </trkpt>
      <trkpt lat="43.77891" lon="7.24821">
        <ele>685.2</ele>
        <time>2020-08-14T08:44:57Z</time>
      </trkpt>
      <trkpt lat="43.77889" lon="7.24823">
        <ele>685.6</ele>
        <time>2020-08-14T08:45:00Z</time>
      </trkpt>
      <trkpt lat="43.77887" lon="7.24824">
        <ele>686</ele>
        <time>2020-08-14T08:45:02Z</time>
      </trkpt>
      <trkpt lat="43.77886" lon="7.24826">
        <ele>686.4</ele>
        <time>2020-08-14T08:45:04Z</time>
      </trkpt>
      <trkpt lat="43.77882" lon="7.24828">
        <ele>687.4</ele>
        <time>2020-08-14T08:45:10Z</time>
      </trkpt>
      <trkpt lat="43.77881" lon="7.24829">
        <ele>687.6</ele>
        <time>2020-08-14T08:45:11Z</time>
      </trkpt>
      <trkpt lat="43.77878" lon="7.24831">
        <ele>688.6</ele>
        <time>2020-08-14T08:45:16Z</time>
      </trkpt>
      <trkpt lat="43.77875" lon="7.24834">
        <ele>689.2</ele>
        <time>2020-08-14T08:45:20Z</time>
      </trkpt>
      <trkpt lat="43.77874" lon="7.24835">
        <ele>689.4</ele>
        <time>2020-08-14T08:45:21Z</time>
      </trkpt>
      <trkpt lat="43.77872" lon="7.24835">
        <ele>689.6</ele>
        <time>2020-08-14T08:45:22Z</time>
      </trkpt>
      <trkpt lat="43.77867" lon="7.24837">
        <ele>690.6</ele>
        <time>2020-08-14T08:45:28Z</time>
      </trkpt>
      <trkpt lat="43.77865" lon="7.2484">
        <ele>691.4</ele>
        <time>2020-08-14T08:45:31Z</time>
      </trkpt>
      <trkpt lat="43.77863" lon="7.2484">
        <ele>691.8</ele>
        <time>2020-08-14T08:45:33Z</time>
      </trkpt>
      <trkpt lat="43.7786" lon="7.24843">
        <ele>692.8</ele>
        <time>2020-08-14T08:45:38Z</time>
      </trkpt>
      <trkpt lat="43.7786" lon="7.24843">
        <ele>693</ele>
        <time>2020-08-14T08:45:39Z</time>
      </trkpt>
      <trkpt lat="43.77858" lon="7.24845">
        <ele>693.4</ele>
        <time>2020-08-14T08:45:41Z</time>
      </trkpt>
      <trkpt lat="43.77856" lon="7.24846">
        <ele>693.8</ele>
        <time>2020-08-14T08:45:43Z</time>
      </trkpt>
      <trkpt lat="43.77855" lon="7.24847">
        <ele>694.2</ele>
        <time>2020-08-14T08:45:45Z</time>
      </trkpt>
      <trkpt lat="43.77855" lon="7.24848">
        <ele>694.2</ele>
        <time>2020-08-14T08:45:46Z</time>
      </trkpt>
      <trkpt lat="43.77853" lon="7.2485">
        <ele>694.8</ele>
        <time>2020-08-14T08:45:48Z</time>
      </trkpt>
      <trkpt lat="43.77852" lon="7.24851">
        <ele>695.2</ele>
        <time>2020-08-14T08:45:50Z</time>
      </trkpt>
      <trkpt lat="43.77852" lon="7.24852">
        <ele>695.2</ele>
        <time>2020-08-14T08:45:51Z</time>
      </trkpt>
      <trkpt lat="43.77851" lon="7.24854">
        <ele>695.6</ele>
        <time>2020-08-14T08:45:53Z</time>
      </trkpt>
      <trkpt lat="43.77849" lon="7.24855">
        <ele>696.2</ele>
        <time>2020-08-14T08:45:56Z</time>
      </trkpt>
      <trkpt lat="43.77847" lon="7.24857">
        <ele>696.8</ele>
        <time>2020-08-14T08:45:59Z</time>
      </trkpt>
      <trkpt lat="43.77845" lon="7.24859">
        <ele>697.4</ele>
        <time>2020-08-14T08:46:02Z</time>
      </trkpt>
      <trkpt lat="43.7784" lon="7.24861">
        <ele>698.6</ele>
        <time>2020-08-14T08:46:08Z</time>
      </trkpt>
      <trkpt lat="43.77836" lon="7.24862">
        <ele>699.6</ele>
        <time>2020-08-14T08:46:13Z</time>
      </trkpt>
      <trkpt lat="43.77834" lon="7.24864">
        <ele>700.2</ele>
        <time>2020-08-14T08:46:16Z</time>
      </trkpt>
      <trkpt lat="43.7783" lon="7.24865">
        <ele>700.6</ele>
        <time>2020-08-14T08:46:19Z</time>
      </trkpt>
      <trkpt lat="43.77828" lon="7.24865">
        <ele>701.4</ele>
        <time>2020-08-14T08:46:22Z</time>
      </trkpt>
      <trkpt lat="43.77827" lon="7.24866">
        <ele>701.6</ele>
        <time>2020-08-14T08:46:23Z</time>
      </trkpt>
      <trkpt lat="43.77826" lon="7.24867">
        <ele>701.8</ele>
        <time>2020-08-14T08:46:24Z</time>
      </trkpt>
      <trkpt lat="43.77822" lon="7.24869">
        <ele>702.8</ele>
        <time>2020-08-14T08:46:30Z</time>
      </trkpt>
      <trkpt lat="43.77817" lon="7.24872">
        <ele>704</ele>
        <time>2020-08-14T08:46:36Z</time>
      </trkpt>
      <trkpt lat="43.77816" lon="7.24873">
        <ele>704.2</ele>
        <time>2020-08-14T08:46:37Z</time>
      </trkpt>
      <trkpt lat="43.77815" lon="7.24874">
        <ele>704.6</ele>
        <time>2020-08-14T08:46:40Z</time>
      </trkpt>
      <trkpt lat="43.77815" lon="7.24875">
        <ele>705</ele>
        <time>2020-08-14T08:46:42Z</time>
      </trkpt>
      <trkpt lat="43.77814" lon="7.24876">
        <ele>705.2</ele>
        <time>2020-08-14T08:46:43Z</time>
      </trkpt>
      <trkpt lat="43.77814" lon="7.24876">
        <ele>705.4</ele>
        <time>2020-08-14T08:46:44Z</time>
      </trkpt>
      <trkpt lat="43.77811" lon="7.24876">
        <ele>706</ele>
        <time>2020-08-14T08:46:48Z</time>
      </trkpt>
      <trkpt lat="43.77809" lon="7.24874">
        <ele>706.4</ele>
        <time>2020-08-14T08:46:50Z</time>
      </trkpt>
      <trkpt lat="43.77806" lon="7.24874">
        <ele>707</ele>
        <time>2020-08-14T08:46:54Z</time>
      </trkpt>
      <trkpt lat="43.77805" lon="7.24874">
        <ele>707.2</ele>
        <time>2020-08-14T08:46:55Z</time>
      </trkpt>
      <trkpt lat="43.77803" lon="7.24874">
        <ele>707.6</ele>
        <time>2020-08-14T08:46:57Z</time>
      </trkpt>
      <trkpt lat="43.778" lon="7.24874">
        <ele>708.2</ele>
        <time>2020-08-14T08:47:00Z</time>
      </trkpt>
      <trkpt lat="43.77795" lon="7.24875">
        <ele>709.4</ele>
        <time>2020-08-14T08:47:06Z</time>
      </trkpt>
      <trkpt lat="43.77793" lon="7.24875">
        <ele>709.6</ele>
        <time>2020-08-14T08:47:08Z</time>
      </trkpt>
      <trkpt lat="43.77788" lon="7.24877">
        <ele>710.4</ele>
        <time>2020-08-14T08:47:14Z</time>
      </trkpt>
      <trkpt lat="43.77787" lon="7.24878">
        <ele>710.6</ele>
        <time>2020-08-14T08:47:16Z</time>
      </trkpt>
      <trkpt lat="43.77781" lon="7.24883">
        <ele>711.4</ele>
        <time>2020-08-14T08:47:22Z</time>
      </trkpt>
      <trkpt lat="43.77777" lon="7.24886">
        <ele>711.4</ele>
        <time>2020-08-14T08:47:26Z</time>
      </trkpt>
      <trkpt lat="43.77773" lon="7.24892">
        <ele>712</ele>
        <time>2020-08-14T08:47:32Z</time>
      </trkpt>
      <trkpt lat="43.77772" lon="7.24894">
        <ele>712.2</ele>
        <time>2020-08-14T08:47:34Z</time>
      </trkpt>
      <trkpt lat="43.77771" lon="7.24894">
        <ele>712.4</ele>
        <time>2020-08-14T08:47:36Z</time>
      </trkpt>
      <trkpt lat="43.7777" lon="7.24895">
        <ele>712.4</ele>
        <time>2020-08-14T08:47:37Z</time>
      </trkpt>
      <trkpt lat="43.77768" lon="7.24895">
        <ele>712.6</ele>
        <time>2020-08-14T08:47:39Z</time>
      </trkpt>
      <trkpt lat="43.77766" lon="7.24895">
        <ele>712.6</ele>
        <time>2020-08-14T08:47:41Z</time>
      </trkpt>
      <trkpt lat="43.77762" lon="7.24896">
        <ele>713.2</ele>
        <time>2020-08-14T08:47:45Z</time>
      </trkpt>
      <trkpt lat="43.7776" lon="7.24897">
        <ele>713.4</ele>
        <time>2020-08-14T08:47:47Z</time>
      </trkpt>
      <trkpt lat="43.77757" lon="7.24898">
        <ele>713.6</ele>
        <time>2020-08-14T08:47:50Z</time>
      </trkpt>
      <trkpt lat="43.77753" lon="7.24899">
        <ele>713.8</ele>
        <time>2020-08-14T08:47:53Z</time>
      </trkpt>
      <trkpt lat="43.77741" lon="7.24902">
        <ele>713.8</ele>
        <time>2020-08-14T08:48:03Z</time>
      </trkpt>
      <trkpt lat="43.7773" lon="7.24908">
        <ele>713.6</ele>
        <time>2020-08-14T08:48:12Z</time>
      </trkpt>
      <trkpt lat="43.77722" lon="7.24912">
        <ele>713.6</ele>
        <time>2020-08-14T08:48:18Z</time>
      </trkpt>
      <trkpt lat="43.77719" lon="7.24915">
        <ele>713.6</ele>
        <time>2020-08-14T08:48:21Z</time>
      </trkpt>
      <trkpt lat="43.77718" lon="7.24917">
        <ele>713.8</ele>
        <time>2020-08-14T08:48:22Z</time>
      </trkpt>
      <trkpt lat="43.77713" lon="7.2492">
        <ele>713.8</ele>
        <time>2020-08-14T08:48:26Z</time>
      </trkpt>
      <trkpt lat="43.7771" lon="7.24921">
        <ele>713.8</ele>
        <time>2020-08-14T08:48:28Z</time>
      </trkpt>
      <trkpt lat="43.77705" lon="7.24921">
        <ele>714</ele>
        <time>2020-08-14T08:48:32Z</time>
      </trkpt>
      <trkpt lat="43.77699" lon="7.24922">
        <ele>714</ele>
        <time>2020-08-14T08:48:37Z</time>
      </trkpt>
      <trkpt lat="43.77693" lon="7.24922">
        <ele>714</ele>
        <time>2020-08-14T08:48:41Z</time>
      </trkpt>
      <trkpt lat="43.77689" lon="7.24921">
        <ele>713.8</ele>
        <time>2020-08-14T08:48:44Z</time>
      </trkpt>
      <trkpt lat="43.77685" lon="7.24918">
        <ele>713.8</ele>
        <time>2020-08-14T08:48:47Z</time>
      </trkpt>
      <trkpt lat="43.77682" lon="7.24917">
        <ele>713.8</ele>
        <time>2020-08-14T08:48:50Z</time>
      </trkpt>
      <trkpt lat="43.77678" lon="7.24916">
        <ele>714</ele>
        <time>2020-08-14T08:48:53Z</time>
      </trkpt>
      <trkpt lat="43.77677" lon="7.24915">
        <ele>714</ele>
        <time>2020-08-14T08:48:54Z</time>
      </trkpt>
      <trkpt lat="43.77668" lon="7.24912">
        <ele>714.4</ele>
        <time>2020-08-14T08:49:01Z</time>
      </trkpt>
      <trkpt lat="43.77665" lon="7.2491">
        <ele>714.4</ele>
        <time>2020-08-14T08:49:03Z</time>
      </trkpt>
      <trkpt lat="43.77663" lon="7.2491">
        <ele>714.8</ele>
        <time>2020-08-14T08:49:05Z</time>
      </trkpt>
      <trkpt lat="43.77661" lon="7.2491">
        <ele>715.2</ele>
        <time>2020-08-14T08:49:07Z</time>
      </trkpt>
      <trkpt lat="43.77655" lon="7.24911">
        <ele>715.6</ele>
        <time>2020-08-14T08:49:11Z</time>
      </trkpt>
      <trkpt lat="43.77651" lon="7.24911">
        <ele>716.2</ele>
        <time>2020-08-14T08:49:16Z</time>
      </trkpt>
      <trkpt lat="43.77649" lon="7.24912">
        <ele>716.6</ele>
        <time>2020-08-14T08:49:18Z</time>
      </trkpt>
      <trkpt lat="43.77644" lon="7.24911">
        <ele>717.4</ele>
        <time>2020-08-14T08:49:23Z</time>
      </trkpt>
      <trkpt lat="43.77641" lon="7.2491">
        <ele>717.8</ele>
        <time>2020-08-14T08:49:26Z</time>
      </trkpt>
      <trkpt lat="43.7764" lon="7.2491">
        <ele>718</ele>
        <time>2020-08-14T08:49:27Z</time>
      </trkpt>
      <trkpt lat="43.77638" lon="7.2491">
        <ele>718.2</ele>
        <time>2020-08-14T08:49:29Z</time>
      </trkpt>
      <trkpt lat="43.77633" lon="7.2491">
        <ele>718.8</ele>
        <time>2020-08-14T08:49:33Z</time>
      </trkpt>
      <trkpt lat="43.77632" lon="7.2491">
        <ele>718.8</ele>
        <time>2020-08-14T08:49:34Z</time>
      </trkpt>
      <trkpt lat="43.77626" lon="7.24911">
        <ele>719.8</ele>
        <time>2020-08-14T08:49:40Z</time>
      </trkpt>
      <trkpt lat="43.77622" lon="7.2491">
        <ele>720.2</ele>
        <time>2020-08-14T08:49:43Z</time>
      </trkpt>
      <trkpt lat="43.77614" lon="7.2491">
        <ele>720.8</ele>
        <time>2020-08-14T08:49:50Z</time>
      </trkpt>
      <trkpt lat="43.77613" lon="7.2491">
        <ele>721</ele>
        <time>2020-08-14T08:49:51Z</time>
      </trkpt>
      <trkpt lat="43.77603" lon="7.24911">
        <ele>721.4</ele>
        <time>2020-08-14T08:49:59Z</time>
      </trkpt>
      <trkpt lat="43.77594" lon="7.24913">
        <ele>721.2</ele>
        <time>2020-08-14T08:50:06Z</time>
      </trkpt>
      <trkpt lat="43.77591" lon="7.24913">
        <ele>721.2</ele>
        <time>2020-08-14T08:50:08Z</time>
      </trkpt>
      <trkpt lat="43.77587" lon="7.24914">
        <ele>721</ele>
        <time>2020-08-14T08:50:11Z</time>
      </trkpt>
      <trkpt lat="43.77581" lon="7.24917">
        <ele>720.6</ele>
        <time>2020-08-14T08:50:15Z</time>
      </trkpt>
      <trkpt lat="43.7758" lon="7.24917">
        <ele>720.4</ele>
        <time>2020-08-14T08:50:16Z</time>
      </trkpt>
      <trkpt lat="43.77576" lon="7.24918">
        <ele>720.4</ele>
        <time>2020-08-14T08:50:19Z</time>
      </trkpt>
      <trkpt lat="43.77574" lon="7.24918">
        <ele>720.2</ele>
        <time>2020-08-14T08:50:21Z</time>
      </trkpt>
      <trkpt lat="43.77572" lon="7.24918">
        <ele>720</ele>
        <time>2020-08-14T08:50:23Z</time>
      </trkpt>
      <trkpt lat="43.7757" lon="7.24919">
        <ele>719.8</ele>
        <time>2020-08-14T08:50:24Z</time>
      </trkpt>
      <trkpt lat="43.77569" lon="7.24919">
        <ele>719.8</ele>
        <time>2020-08-14T08:50:25Z</time>
      </trkpt>
      <trkpt lat="43.77562" lon="7.24923">
        <ele>719.8</ele>
        <time>2020-08-14T08:50:31Z</time>
      </trkpt>
      <trkpt lat="43.77557" lon="7.24923">
        <ele>719.8</ele>
        <time>2020-08-14T08:50:35Z</time>
      </trkpt>
      <trkpt lat="43.77553" lon="7.24924">
        <ele>719.8</ele>
        <time>2020-08-14T08:50:38Z</time>
      </trkpt>
      <trkpt lat="43.77551" lon="7.24925">
        <ele>719.8</ele>
        <time>2020-08-14T08:50:40Z</time>
      </trkpt>
      <trkpt lat="43.77544" lon="7.24927">
        <ele>719.8</ele>
        <time>2020-08-14T08:50:46Z</time>
      </trkpt>
      <trkpt lat="43.77543" lon="7.24927">
        <ele>719.8</ele>
        <time>2020-08-14T08:50:47Z</time>
      </trkpt>
      <trkpt lat="43.77536" lon="7.24928">
        <ele>719.8</ele>
        <time>2020-08-14T08:50:53Z</time>
      </trkpt>
      <trkpt lat="43.77527" lon="7.2493">
        <ele>720</ele>
        <time>2020-08-14T08:51:01Z</time>
      </trkpt>
      <trkpt lat="43.77526" lon="7.24931">
        <ele>720</ele>
        <time>2020-08-14T08:51:02Z</time>
      </trkpt>
      <trkpt lat="43.7752" lon="7.24933">
        <ele>720.2</ele>
        <time>2020-08-14T08:51:06Z</time>
      </trkpt>
      <trkpt lat="43.77518" lon="7.24933">
        <ele>720.2</ele>
        <time>2020-08-14T08:51:08Z</time>
      </trkpt>
      <trkpt lat="43.77516" lon="7.24934">
        <ele>720.4</ele>
        <time>2020-08-14T08:51:10Z</time>
      </trkpt>
      <trkpt lat="43.77514" lon="7.24934">
        <ele>720.2</ele>
        <time>2020-08-14T08:51:11Z</time>
      </trkpt>
      <trkpt lat="43.77511" lon="7.24936">
        <ele>720.4</ele>
        <time>2020-08-14T08:51:14Z</time>
      </trkpt>
      <trkpt lat="43.77509" lon="7.24936">
        <ele>720.4</ele>
        <time>2020-08-14T08:51:15Z</time>
      </trkpt>
      <trkpt lat="43.77504" lon="7.24937">
        <ele>720.8</ele>
        <time>2020-08-14T08:51:19Z</time>
      </trkpt>
      <trkpt lat="43.77503" lon="7.24937">
        <ele>720.8</ele>
        <time>2020-08-14T08:51:20Z</time>
      </trkpt>
      <trkpt lat="43.77501" lon="7.24937">
        <ele>720.8</ele>
        <time>2020-08-14T08:51:21Z</time>
      </trkpt>
      <trkpt lat="43.77487" lon="7.24939">
        <ele>720.8</ele>
        <time>2020-08-14T08:51:32Z</time>
      </trkpt>
      <trkpt lat="43.77476" lon="7.24941">
        <ele>721.6</ele>
        <time>2020-08-14T08:51:41Z</time>
      </trkpt>
      <trkpt lat="43.7747" lon="7.24942">
        <ele>721.8</ele>
        <time>2020-08-14T08:51:45Z</time>
      </trkpt>
      <trkpt lat="43.77464" lon="7.24943">
        <ele>722.6</ele>
        <time>2020-08-14T08:51:50Z</time>
      </trkpt>
      <trkpt lat="43.77458" lon="7.24943">
        <ele>722.8</ele>
        <time>2020-08-14T08:51:55Z</time>
      </trkpt>
      <trkpt lat="43.77457" lon="7.24943">
        <ele>723</ele>
        <time>2020-08-14T08:51:56Z</time>
      </trkpt>
      <trkpt lat="43.77454" lon="7.24942">
        <ele>723.2</ele>
        <time>2020-08-14T08:51:58Z</time>
      </trkpt>
      <trkpt lat="43.77453" lon="7.24942">
        <ele>723.2</ele>
        <time>2020-08-14T08:51:59Z</time>
      </trkpt>
      <trkpt lat="43.77446" lon="7.2494">
        <ele>724</ele>
        <time>2020-08-14T08:52:05Z</time>
      </trkpt>
      <trkpt lat="43.77445" lon="7.2494">
        <ele>724</ele>
        <time>2020-08-14T08:52:06Z</time>
      </trkpt>
      <trkpt lat="43.77444" lon="7.2494">
        <ele>724</ele>
        <time>2020-08-14T08:52:07Z</time>
      </trkpt>
      <trkpt lat="43.77437" lon="7.24939">
        <ele>724.4</ele>
        <time>2020-08-14T08:52:12Z</time>
      </trkpt>
      <trkpt lat="43.77428" lon="7.24942">
        <ele>724.8</ele>
        <time>2020-08-14T08:52:19Z</time>
      </trkpt>
      <trkpt lat="43.77426" lon="7.24943">
        <ele>725</ele>
        <time>2020-08-14T08:52:21Z</time>
      </trkpt>
      <trkpt lat="43.77422" lon="7.24944">
        <ele>725.4</ele>
        <time>2020-08-14T08:52:24Z</time>
      </trkpt>
      <trkpt lat="43.77418" lon="7.24946">
        <ele>725.4</ele>
        <time>2020-08-14T08:52:27Z</time>
      </trkpt>
      <trkpt lat="43.77417" lon="7.24946">
        <ele>725.6</ele>
        <time>2020-08-14T08:52:28Z</time>
      </trkpt>
      <trkpt lat="43.77408" lon="7.24948">
        <ele>725.8</ele>
        <time>2020-08-14T08:52:34Z</time>
      </trkpt>
      <trkpt lat="43.77407" lon="7.24949">
        <ele>726.2</ele>
        <time>2020-08-14T08:52:36Z</time>
      </trkpt>
      <trkpt lat="43.77406" lon="7.24949">
        <ele>726.6</ele>
        <time>2020-08-14T08:52:38Z</time>
      </trkpt>
      <trkpt lat="43.77402" lon="7.24949">
        <ele>727.2</ele>
        <time>2020-08-14T08:52:41Z</time>
      </trkpt>
      <trkpt lat="43.77401" lon="7.24949">
        <ele>727.4</ele>
        <time>2020-08-14T08:52:42Z</time>
      </trkpt>
      <trkpt lat="43.77394" lon="7.2495">
        <ele>727.8</ele>
        <time>2020-08-14T08:52:48Z</time>
      </trkpt>
      <trkpt lat="43.77382" lon="7.24947">
        <ele>728.2</ele>
        <time>2020-08-14T08:52:57Z</time>
      </trkpt>
      <trkpt lat="43.7738" lon="7.24946">
        <ele>728.2</ele>
        <time>2020-08-14T08:52:59Z</time>
      </trkpt>
      <trkpt lat="43.77377" lon="7.24946">
        <ele>728.6</ele>
        <time>2020-08-14T08:53:02Z</time>
      </trkpt>
      <trkpt lat="43.77373" lon="7.24948">
        <ele>729</ele>
        <time>2020-08-14T08:53:06Z</time>
      </trkpt>
      <trkpt lat="43.77371" lon="7.24949">
        <ele>729.4</ele>
        <time>2020-08-14T08:53:08Z</time>
      </trkpt>
      <trkpt lat="43.77369" lon="7.24949">
        <ele>729.6</ele>
        <time>2020-08-14T08:53:10Z</time>
      </trkpt>
      <trkpt lat="43.77366" lon="7.2495">
        <ele>730.2</ele>
        <time>2020-08-14T08:53:13Z</time>
      </trkpt>
      <trkpt lat="43.77363" lon="7.24951">
        <ele>730.4</ele>
        <time>2020-08-14T08:53:16Z</time>
      </trkpt>
      <trkpt lat="43.77357" lon="7.24951">
        <ele>731</ele>
        <time>2020-08-14T08:53:22Z</time>
      </trkpt>
      <trkpt lat="43.77355" lon="7.24953">
        <ele>731.4</ele>
        <time>2020-08-14T08:53:24Z</time>
      </trkpt>
      <trkpt lat="43.7735" lon="7.24954">
        <ele>732.4</ele>
        <time>2020-08-14T08:53:30Z</time>
      </trkpt>
      <trkpt lat="43.7734" lon="7.24955">
        <ele>733.2</ele>
        <time>2020-08-14T08:53:38Z</time>
      </trkpt>
      <trkpt lat="43.77339" lon="7.24956">
        <ele>733.8</ele>
        <time>2020-08-14T08:53:40Z</time>
      </trkpt>
      <trkpt lat="43.77334" lon="7.24958">
        <ele>734.4</ele>
        <time>2020-08-14T08:53:44Z</time>
      </trkpt>
      <trkpt lat="43.7733" lon="7.24958">
        <ele>734.8</ele>
        <time>2020-08-14T08:53:47Z</time>
      </trkpt>
      <trkpt lat="43.77329" lon="7.24958">
        <ele>734.8</ele>
        <time>2020-08-14T08:53:48Z</time>
      </trkpt>
      <trkpt lat="43.77324" lon="7.24961">
        <ele>735.4</ele>
        <time>2020-08-14T08:53:52Z</time>
      </trkpt>
      <trkpt lat="43.77318" lon="7.24963">
        <ele>735.8</ele>
        <time>2020-08-14T08:53:57Z</time>
      </trkpt>
      <trkpt lat="43.77315" lon="7.24965">
        <ele>736.2</ele>
        <time>2020-08-14T08:54:00Z</time>
      </trkpt>
      <trkpt lat="43.7731" lon="7.24966">
        <ele>737</ele>
        <time>2020-08-14T08:54:05Z</time>
      </trkpt>
      <trkpt lat="43.77307" lon="7.24967">
        <ele>737.2</ele>
        <time>2020-08-14T08:54:08Z</time>
      </trkpt>
      <trkpt lat="43.773" lon="7.24969">
        <ele>737.6</ele>
        <time>2020-08-14T08:54:13Z</time>
      </trkpt>
      <trkpt lat="43.77299" lon="7.24969">
        <ele>737.8</ele>
        <time>2020-08-14T08:54:14Z</time>
      </trkpt>
      <trkpt lat="43.77298" lon="7.24969">
        <ele>737.8</ele>
        <time>2020-08-14T08:54:15Z</time>
      </trkpt>
      <trkpt lat="43.77298" lon="7.24969">
        <ele>738</ele>
        <time>2020-08-14T08:54:16Z</time>
      </trkpt>
      <trkpt lat="43.77296" lon="7.24969">
        <ele>738.2</ele>
        <time>2020-08-14T08:54:18Z</time>
      </trkpt>
      <trkpt lat="43.77291" lon="7.2497">
        <ele>738.6</ele>
        <time>2020-08-14T08:54:22Z</time>
      </trkpt>
      <trkpt lat="43.77284" lon="7.2497">
        <ele>739</ele>
        <time>2020-08-14T08:54:28Z</time>
      </trkpt>
      <trkpt lat="43.77283" lon="7.2497">
        <ele>739</ele>
        <time>2020-08-14T08:54:29Z</time>
      </trkpt>
      <trkpt lat="43.77279" lon="7.24971">
        <ele>739</ele>
        <time>2020-08-14T08:54:32Z</time>
      </trkpt>
      <trkpt lat="43.77278" lon="7.24971">
        <ele>739</ele>
        <time>2020-08-14T08:54:33Z</time>
      </trkpt>
      <trkpt lat="43.77268" lon="7.24971">
        <ele>739</ele>
        <time>2020-08-14T08:54:40Z</time>
      </trkpt>
      <trkpt lat="43.77263" lon="7.24972">
        <ele>739</ele>
        <time>2020-08-14T08:54:43Z</time>
      </trkpt>
      <trkpt lat="43.77253" lon="7.24973">
        <ele>739.6</ele>
        <time>2020-08-14T08:54:51Z</time>
      </trkpt>
      <trkpt lat="43.77248" lon="7.24974">
        <ele>740</ele>
        <time>2020-08-14T08:54:55Z</time>
      </trkpt>
      <trkpt lat="43.77244" lon="7.24975">
        <ele>740.2</ele>
        <time>2020-08-14T08:54:58Z</time>
      </trkpt>
      <trkpt lat="43.77238" lon="7.24976">
        <ele>740.8</ele>
        <time>2020-08-14T08:55:03Z</time>
      </trkpt>
      <trkpt lat="43.77234" lon="7.24977">
        <ele>740.8</ele>
        <time>2020-08-14T08:55:06Z</time>
      </trkpt>
      <trkpt lat="43.77232" lon="7.24978">
        <ele>740.8</ele>
        <time>2020-08-14T08:55:08Z</time>
      </trkpt>
      <trkpt lat="43.77227" lon="7.24979">
        <ele>741</ele>
        <time>2020-08-14T08:55:12Z</time>
      </trkpt>
      <trkpt lat="43.77226" lon="7.24979">
        <ele>741</ele>
        <time>2020-08-14T08:55:13Z</time>
      </trkpt>
      <trkpt lat="43.77225" lon="7.2498">
        <ele>741.2</ele>
        <time>2020-08-14T08:55:14Z</time>
      </trkpt>
      <trkpt lat="43.77217" lon="7.24983">
        <ele>741.8</ele>
        <time>2020-08-14T08:55:21Z</time>
      </trkpt>
      <trkpt lat="43.77212" lon="7.24984">
        <ele>742.2</ele>
        <time>2020-08-14T08:55:25Z</time>
      </trkpt>
      <trkpt lat="43.77208" lon="7.24984">
        <ele>742.4</ele>
        <time>2020-08-14T08:55:28Z</time>
      </trkpt>
      <trkpt lat="43.77207" lon="7.24984">
        <ele>742.4</ele>
        <time>2020-08-14T08:55:29Z</time>
      </trkpt>
      <trkpt lat="43.77204" lon="7.24984">
        <ele>742.2</ele>
        <time>2020-08-14T08:55:31Z</time>
      </trkpt>
      <trkpt lat="43.77196" lon="7.24985">
        <ele>742.2</ele>
        <time>2020-08-14T08:55:37Z</time>
      </trkpt>
      <trkpt lat="43.77191" lon="7.24985">
        <ele>742.2</ele>
        <time>2020-08-14T08:55:40Z</time>
      </trkpt>
      <trkpt lat="43.77185" lon="7.24986">
        <ele>742</ele>
        <time>2020-08-14T08:55:45Z</time>
      </trkpt>
      <trkpt lat="43.77173" lon="7.24986">
        <ele>742</ele>
        <time>2020-08-14T08:55:53Z</time>
      </trkpt>
      <trkpt lat="43.77167" lon="7.24986">
        <ele>741.6</ele>
        <time>2020-08-14T08:55:57Z</time>
      </trkpt>
      <trkpt lat="43.77163" lon="7.24987">
        <ele>741.6</ele>
        <time>2020-08-14T08:56:01Z</time>
      </trkpt>
      <trkpt lat="43.77151" lon="7.2499">
        <ele>741.8</ele>
        <time>2020-08-14T08:56:10Z</time>
      </trkpt>
      <trkpt lat="43.7715" lon="7.2499">
        <ele>741.8</ele>
        <time>2020-08-14T08:56:11Z</time>
      </trkpt>
      <trkpt lat="43.77141" lon="7.24991">
        <ele>741.8</ele>
        <time>2020-08-14T08:56:17Z</time>
      </trkpt>
      <trkpt lat="43.7713" lon="7.2499">
        <ele>741.8</ele>
        <time>2020-08-14T08:56:25Z</time>
      </trkpt>
      <trkpt lat="43.77122" lon="7.24989">
        <ele>741.6</ele>
        <time>2020-08-14T08:56:31Z</time>
      </trkpt>
      <trkpt lat="43.77114" lon="7.2499">
        <ele>741.8</ele>
        <time>2020-08-14T08:56:37Z</time>
      </trkpt>
      <trkpt lat="43.77098" lon="7.24991">
        <ele>741.8</ele>
        <time>2020-08-14T08:56:48Z</time>
      </trkpt>
      <trkpt lat="43.77086" lon="7.24992">
        <ele>741.6</ele>
        <time>2020-08-14T08:56:57Z</time>
      </trkpt>
      <trkpt lat="43.77076" lon="7.24989">
        <ele>741.8</ele>
        <time>2020-08-14T08:57:04Z</time>
      </trkpt>
      <trkpt lat="43.77068" lon="7.24984">
        <ele>741.8</ele>
        <time>2020-08-14T08:57:11Z</time>
      </trkpt>
      <trkpt lat="43.77058" lon="7.24976">
        <ele>741.4</ele>
        <time>2020-08-14T08:57:18Z</time>
      </trkpt>
      <trkpt lat="43.77051" lon="7.24971">
        <ele>742</ele>
        <time>2020-08-14T08:57:24Z</time>
      </trkpt>
      <trkpt lat="43.77044" lon="7.24966">
        <ele>742.6</ele>
        <time>2020-08-14T08:57:30Z</time>
      </trkpt>
      <trkpt lat="43.77039" lon="7.24963">
        <ele>743</ele>
        <time>2020-08-14T08:57:34Z</time>
      </trkpt>
      <trkpt lat="43.77036" lon="7.24961">
        <ele>743.2</ele>
        <time>2020-08-14T08:57:36Z</time>
      </trkpt>
      <trkpt lat="43.77031" lon="7.24959">
        <ele>743</ele>
        <time>2020-08-14T08:57:40Z</time>
      </trkpt>
      <trkpt lat="43.77028" lon="7.2496">
        <ele>743</ele>
        <time>2020-08-14T08:57:42Z</time>
      </trkpt>
      <trkpt lat="43.77026" lon="7.24961">
        <ele>743.2</ele>
        <time>2020-08-14T08:57:44Z</time>
      </trkpt>
      <trkpt lat="43.77023" lon="7.24964">
        <ele>743.4</ele>
        <time>2020-08-14T08:57:47Z</time>
      </trkpt>
      <trkpt lat="43.77021" lon="7.24966">
        <ele>743.6</ele>
        <time>2020-08-14T08:57:49Z</time>
      </trkpt>
      <trkpt lat="43.77012" lon="7.24977">
        <ele>744.2</ele>
        <time>2020-08-14T08:57:58Z</time>
      </trkpt>
      <trkpt lat="43.77001" lon="7.24982">
        <ele>743.8</ele>
        <time>2020-08-14T08:58:07Z</time>
      </trkpt>
      <trkpt lat="43.76988" lon="7.24989">
        <ele>743.6</ele>
        <time>2020-08-14T08:58:17Z</time>
      </trkpt>
      <trkpt lat="43.76983" lon="7.24991">
        <ele>743</ele>
        <time>2020-08-14T08:58:20Z</time>
      </trkpt>
      <trkpt lat="43.76974" lon="7.24994">
        <ele>742.2</ele>
        <time>2020-08-14T08:58:27Z</time>
      </trkpt>
      <trkpt lat="43.76964" lon="7.24997">
        <ele>742</ele>
        <time>2020-08-14T08:58:35Z</time>
      </trkpt>
      <trkpt lat="43.76957" lon="7.25">
        <ele>741</ele>
        <time>2020-08-14T08:58:40Z</time>
      </trkpt>
      <trkpt lat="43.76952" lon="7.25">
        <ele>740.2</ele>
        <time>2020-08-14T08:58:45Z</time>
      </trkpt>
      <trkpt lat="43.76947" lon="7.25002">
        <ele>739.8</ele>
        <time>2020-08-14T08:58:49Z</time>
      </trkpt>
      <trkpt lat="43.76942" lon="7.25005">
        <ele>739.2</ele>
        <time>2020-08-14T08:58:53Z</time>
      </trkpt>
      <trkpt lat="43.76939" lon="7.25006">
        <ele>738.8</ele>
        <time>2020-08-14T08:58:56Z</time>
      </trkpt>
      <trkpt lat="43.76933" lon="7.25007">
        <ele>738.4</ele>
        <time>2020-08-14T08:59:00Z</time>
      </trkpt>
      <trkpt lat="43.7693" lon="7.25009">
        <ele>738.2</ele>
        <time>2020-08-14T08:59:02Z</time>
      </trkpt>
      <trkpt lat="43.76927" lon="7.2501">
        <ele>737.8</ele>
        <time>2020-08-14T08:59:04Z</time>
      </trkpt>
      <trkpt lat="43.76921" lon="7.25013">
        <ele>736.6</ele>
        <time>2020-08-14T08:59:08Z</time>
      </trkpt>
      <trkpt lat="43.76917" lon="7.25016">
        <ele>735.6</ele>
        <time>2020-08-14T08:59:11Z</time>
      </trkpt>
      <trkpt lat="43.76915" lon="7.25017">
        <ele>735.4</ele>
        <time>2020-08-14T08:59:12Z</time>
      </trkpt>
      <trkpt lat="43.76908" lon="7.25023">
        <ele>734.4</ele>
        <time>2020-08-14T08:59:19Z</time>
      </trkpt>
      <trkpt lat="43.76898" lon="7.25026">
        <ele>733.8</ele>
        <time>2020-08-14T08:59:27Z</time>
      </trkpt>
      <trkpt lat="43.76895" lon="7.25027">
        <ele>733.6</ele>
        <time>2020-08-14T08:59:29Z</time>
      </trkpt>
      <trkpt lat="43.76894" lon="7.25027">
        <ele>733.4</ele>
        <time>2020-08-14T08:59:30Z</time>
      </trkpt>
      <trkpt lat="43.7689" lon="7.25028">
        <ele>732.2</ele>
        <time>2020-08-14T08:59:34Z</time>
      </trkpt>
      <trkpt lat="43.76887" lon="7.25029">
        <ele>731.6</ele>
        <time>2020-08-14T08:59:38Z</time>
      </trkpt>
      <trkpt lat="43.76884" lon="7.25033">
        <ele>731.6</ele>
        <time>2020-08-14T08:59:44Z</time>
      </trkpt>
      <trkpt lat="43.76884" lon="7.25034">
        <ele>731.6</ele>
        <time>2020-08-14T08:59:45Z</time>
      </trkpt>
      <trkpt lat="43.76882" lon="7.25037">
        <ele>731</ele>
        <time>2020-08-14T08:59:47Z</time>
      </trkpt>
      <trkpt lat="43.76881" lon="7.25037">
        <ele>730.8</ele>
        <time>2020-08-14T08:59:48Z</time>
      </trkpt>
      <trkpt lat="43.76878" lon="7.2504">
        <ele>730.2</ele>
        <time>2020-08-14T08:59:51Z</time>
      </trkpt>
      <trkpt lat="43.76877" lon="7.2504">
        <ele>729.8</ele>
        <time>2020-08-14T08:59:52Z</time>
      </trkpt>
      <trkpt lat="43.7687" lon="7.25042">
        <ele>729.2</ele>
        <time>2020-08-14T08:59:58Z</time>
      </trkpt>
      <trkpt lat="43.76865" lon="7.25045">
        <ele>728.8</ele>
        <time>2020-08-14T09:00:03Z</time>
      </trkpt>
      <trkpt lat="43.76859" lon="7.25047">
        <ele>728.4</ele>
        <time>2020-08-14T09:00:09Z</time>
      </trkpt>
      <trkpt lat="43.76859" lon="7.25047">
        <ele>728.4</ele>
        <time>2020-08-14T09:00:10Z</time>
      </trkpt>
      <trkpt lat="43.76858" lon="7.25047">
        <ele>728.6</ele>
        <time>2020-08-14T09:00:12Z</time>
      </trkpt>
      <trkpt lat="43.76849" lon="7.2505">
        <ele>727.8</ele>
        <time>2020-08-14T09:00:19Z</time>
      </trkpt>
      <trkpt lat="43.76839" lon="7.25052">
        <ele>726.6</ele>
        <time>2020-08-14T09:00:27Z</time>
      </trkpt>
      <trkpt lat="43.76838" lon="7.25052">
        <ele>726.4</ele>
        <time>2020-08-14T09:00:28Z</time>
      </trkpt>
      <trkpt lat="43.7683" lon="7.2505">
        <ele>726</ele>
        <time>2020-08-14T09:00:35Z</time>
      </trkpt>
      <trkpt lat="43.76824" lon="7.25049">
        <ele>725.4</ele>
        <time>2020-08-14T09:00:39Z</time>
      </trkpt>
      <trkpt lat="43.76817" lon="7.25045">
        <ele>724.4</ele>
        <time>2020-08-14T09:00:44Z</time>
      </trkpt>
      <trkpt lat="43.76816" lon="7.25044">
        <ele>724.4</ele>
        <time>2020-08-14T09:00:45Z</time>
      </trkpt>
      <trkpt lat="43.76804" lon="7.25035">
        <ele>724</ele>
        <time>2020-08-14T09:00:56Z</time>
      </trkpt>
      <trkpt lat="43.7679" lon="7.25031">
        <ele>723.6</ele>
        <time>2020-08-14T09:01:07Z</time>
      </trkpt>
      <trkpt lat="43.76787" lon="7.25031">
        <ele>723.4</ele>
        <time>2020-08-14T09:01:09Z</time>
      </trkpt>
      <trkpt lat="43.76778" lon="7.25035">
        <ele>722.4</ele>
        <time>2020-08-14T09:01:15Z</time>
      </trkpt>
      <trkpt lat="43.76772" lon="7.25038">
        <ele>722.2</ele>
        <time>2020-08-14T09:01:20Z</time>
      </trkpt>
      <trkpt lat="43.76765" lon="7.2504">
        <ele>721.6</ele>
        <time>2020-08-14T09:01:26Z</time>
      </trkpt>
      <trkpt lat="43.76758" lon="7.25042">
        <ele>721.2</ele>
        <time>2020-08-14T09:01:31Z</time>
      </trkpt>
      <trkpt lat="43.76757" lon="7.25043">
        <ele>720.8</ele>
        <time>2020-08-14T09:01:32Z</time>
      </trkpt>
      <trkpt lat="43.76753" lon="7.25045">
        <ele>720.2</ele>
        <time>2020-08-14T09:01:35Z</time>
      </trkpt>
      <trkpt lat="43.76752" lon="7.25045">
        <ele>720.2</ele>
        <time>2020-08-14T09:01:36Z</time>
      </trkpt>
      <trkpt lat="43.76743" lon="7.25049">
        <ele>719.4</ele>
        <time>2020-08-14T09:01:44Z</time>
      </trkpt>
      <trkpt lat="43.7674" lon="7.2505">
        <ele>719</ele>
        <time>2020-08-14T09:01:46Z</time>
      </trkpt>
      <trkpt lat="43.76736" lon="7.25051">
        <ele>718.4</ele>
        <time>2020-08-14T09:01:49Z</time>
      </trkpt>
      <trkpt lat="43.76733" lon="7.25053">
        <ele>718</ele>
        <time>2020-08-14T09:01:52Z</time>
      </trkpt>
      <trkpt lat="43.76731" lon="7.25053">
        <ele>717.6</ele>
        <time>2020-08-14T09:01:53Z</time>
      </trkpt>
      <trkpt lat="43.76729" lon="7.25052">
        <ele>717.2</ele>
        <time>2020-08-14T09:01:55Z</time>
      </trkpt>
      <trkpt lat="43.76727" lon="7.25051">
        <ele>717</ele>
        <time>2020-08-14T09:01:56Z</time>
      </trkpt>
      <trkpt lat="43.76726" lon="7.2505">
        <ele>716.8</ele>
        <time>2020-08-14T09:01:57Z</time>
      </trkpt>
      <trkpt lat="43.76723" lon="7.25051">
        <ele>716</ele>
        <time>2020-08-14T09:02:00Z</time>
      </trkpt>
      <trkpt lat="43.76722" lon="7.25051">
        <ele>715.8</ele>
        <time>2020-08-14T09:02:01Z</time>
      </trkpt>
      <trkpt lat="43.7672" lon="7.25052">
        <ele>715.6</ele>
        <time>2020-08-14T09:02:02Z</time>
      </trkpt>
      <trkpt lat="43.76712" lon="7.2505">
        <ele>714.4</ele>
        <time>2020-08-14T09:02:09Z</time>
      </trkpt>
      <trkpt lat="43.7671" lon="7.2505">
        <ele>714.4</ele>
        <time>2020-08-14T09:02:10Z</time>
      </trkpt>
      <trkpt lat="43.76707" lon="7.25051">
        <ele>713.8</ele>
        <time>2020-08-14T09:02:13Z</time>
      </trkpt>
      <trkpt lat="43.76704" lon="7.2505">
        <ele>713.4</ele>
        <time>2020-08-14T09:02:15Z</time>
      </trkpt>
      <trkpt lat="43.76701" lon="7.25049">
        <ele>712.8</ele>
        <time>2020-08-14T09:02:17Z</time>
      </trkpt>
      <trkpt lat="43.76697" lon="7.25047">
        <ele>712.4</ele>
        <time>2020-08-14T09:02:20Z</time>
      </trkpt>
      <trkpt lat="43.76694" lon="7.25046">
        <ele>712.2</ele>
        <time>2020-08-14T09:02:22Z</time>
      </trkpt>
      <trkpt lat="43.76692" lon="7.25045">
        <ele>712</ele>
        <time>2020-08-14T09:02:24Z</time>
      </trkpt>
      <trkpt lat="43.76689" lon="7.25044">
        <ele>711.8</ele>
        <time>2020-08-14T09:02:26Z</time>
      </trkpt>
      <trkpt lat="43.76687" lon="7.25044">
        <ele>711.2</ele>
        <time>2020-08-14T09:02:28Z</time>
      </trkpt>
      <trkpt lat="43.76684" lon="7.25046">
        <ele>710.8</ele>
        <time>2020-08-14T09:02:31Z</time>
      </trkpt>
      <trkpt lat="43.76682" lon="7.25048">
        <ele>710.6</ele>
        <time>2020-08-14T09:02:33Z</time>
      </trkpt>
      <trkpt lat="43.76679" lon="7.25057">
        <ele>710.2</ele>
        <time>2020-08-14T09:02:39Z</time>
      </trkpt>
      <trkpt lat="43.76676" lon="7.25066">
        <ele>709.2</ele>
        <time>2020-08-14T09:02:45Z</time>
      </trkpt>
      <trkpt lat="43.76675" lon="7.25067">
        <ele>709</ele>
        <time>2020-08-14T09:02:46Z</time>
      </trkpt>
      <trkpt lat="43.76671" lon="7.25076">
        <ele>708</ele>
        <time>2020-08-14T09:02:52Z</time>
      </trkpt>
      <trkpt lat="43.7667" lon="7.25078">
        <ele>707.8</ele>
        <time>2020-08-14T09:02:53Z</time>
      </trkpt>
      <trkpt lat="43.76668" lon="7.25084">
        <ele>706.6</ele>
        <time>2020-08-14T09:02:58Z</time>
      </trkpt>
      <trkpt lat="43.76666" lon="7.25086">
        <ele>706.2</ele>
        <time>2020-08-14T09:03:00Z</time>
      </trkpt>
      <trkpt lat="43.76664" lon="7.25087">
        <ele>705.6</ele>
        <time>2020-08-14T09:03:02Z</time>
      </trkpt>
      <trkpt lat="43.76659" lon="7.25089">
        <ele>704.6</ele>
        <time>2020-08-14T09:03:07Z</time>
      </trkpt>
      <trkpt lat="43.76657" lon="7.25089">
        <ele>704.6</ele>
        <time>2020-08-14T09:03:08Z</time>
      </trkpt>
      <trkpt lat="43.76653" lon="7.25091">
        <ele>704</ele>
        <time>2020-08-14T09:03:11Z</time>
      </trkpt>
      <trkpt lat="43.76645" lon="7.25093">
        <ele>703.4</ele>
        <time>2020-08-14T09:03:16Z</time>
      </trkpt>
      <trkpt lat="43.7664" lon="7.25093">
        <ele>703.2</ele>
        <time>2020-08-14T09:03:20Z</time>
      </trkpt>
      <trkpt lat="43.76636" lon="7.25093">
        <ele>702.8</ele>
        <time>2020-08-14T09:03:24Z</time>
      </trkpt>
      <trkpt lat="43.76635" lon="7.25093">
        <ele>702.6</ele>
        <time>2020-08-14T09:03:25Z</time>
      </trkpt>
      <trkpt lat="43.76632" lon="7.25092">
        <ele>702.4</ele>
        <time>2020-08-14T09:03:27Z</time>
      </trkpt>
      <trkpt lat="43.76625" lon="7.25093">
        <ele>701.2</ele>
        <time>2020-08-14T09:03:33Z</time>
      </trkpt>
      <trkpt lat="43.76623" lon="7.25093">
        <ele>701</ele>
        <time>2020-08-14T09:03:34Z</time>
      </trkpt>
      <trkpt lat="43.76616" lon="7.25096">
        <ele>700.6</ele>
        <time>2020-08-14T09:03:40Z</time>
      </trkpt>
      <trkpt lat="43.76613" lon="7.25098">
        <ele>700.4</ele>
        <time>2020-08-14T09:03:42Z</time>
      </trkpt>
      <trkpt lat="43.7661" lon="7.25098">
        <ele>700.2</ele>
        <time>2020-08-14T09:03:44Z</time>
      </trkpt>
      <trkpt lat="43.76609" lon="7.25099">
        <ele>700</ele>
        <time>2020-08-14T09:03:45Z</time>
      </trkpt>
      <trkpt lat="43.766" lon="7.251">
        <ele>699.6</ele>
        <time>2020-08-14T09:03:51Z</time>
      </trkpt>
      <trkpt lat="43.76593" lon="7.25102">
        <ele>699</ele>
        <time>2020-08-14T09:03:57Z</time>
      </trkpt>
      <trkpt lat="43.76592" lon="7.25102">
        <ele>699</ele>
        <time>2020-08-14T09:03:58Z</time>
      </trkpt>
      <trkpt lat="43.76584" lon="7.25103">
        <ele>698.4</ele>
        <time>2020-08-14T09:04:04Z</time>
      </trkpt>
      <trkpt lat="43.76581" lon="7.25104">
        <ele>698</ele>
        <time>2020-08-14T09:04:06Z</time>
      </trkpt>
      <trkpt lat="43.76577" lon="7.25106">
        <ele>697.6</ele>
        <time>2020-08-14T09:04:10Z</time>
      </trkpt>
      <trkpt lat="43.76573" lon="7.25108">
        <ele>696.8</ele>
        <time>2020-08-14T09:04:14Z</time>
      </trkpt>
      <trkpt lat="43.76572" lon="7.25109">
        <ele>696.8</ele>
        <time>2020-08-14T09:04:15Z</time>
      </trkpt>
      <trkpt lat="43.76569" lon="7.25109">
        <ele>696.6</ele>
        <time>2020-08-14T09:04:17Z</time>
      </trkpt>
      <trkpt lat="43.76562" lon="7.25113">
        <ele>695.8</ele>
        <time>2020-08-14T09:04:22Z</time>
      </trkpt>
      <trkpt lat="43.76561" lon="7.25113">
        <ele>695.6</ele>
        <time>2020-08-14T09:04:23Z</time>
      </trkpt>
      <trkpt lat="43.76555" lon="7.25117">
        <ele>695.4</ele>
        <time>2020-08-14T09:04:27Z</time>
      </trkpt>
      <trkpt lat="43.76551" lon="7.25121">
        <ele>694.6</ele>
        <time>2020-08-14T09:04:31Z</time>
      </trkpt>
      <trkpt lat="43.76546" lon="7.25123">
        <ele>693.4</ele>
        <time>2020-08-14T09:04:35Z</time>
      </trkpt>
      <trkpt lat="43.76545" lon="7.25124">
        <ele>693.4</ele>
        <time>2020-08-14T09:04:36Z</time>
      </trkpt>
      <trkpt lat="43.76535" lon="7.25127">
        <ele>692.4</ele>
        <time>2020-08-14T09:04:43Z</time>
      </trkpt>
      <trkpt lat="43.76531" lon="7.25127">
        <ele>692.2</ele>
        <time>2020-08-14T09:04:46Z</time>
      </trkpt>
      <trkpt lat="43.76522" lon="7.25123">
        <ele>691.4</ele>
        <time>2020-08-14T09:04:53Z</time>
      </trkpt>
      <trkpt lat="43.76512" lon="7.25118">
        <ele>690.4</ele>
        <time>2020-08-14T09:05:00Z</time>
      </trkpt>
      <trkpt lat="43.76509" lon="7.25117">
        <ele>690</ele>
        <time>2020-08-14T09:05:02Z</time>
      </trkpt>
      <trkpt lat="43.76501" lon="7.25115">
        <ele>689.4</ele>
        <time>2020-08-14T09:05:08Z</time>
      </trkpt>
      <trkpt lat="43.765" lon="7.25114">
        <ele>689.2</ele>
        <time>2020-08-14T09:05:09Z</time>
      </trkpt>
      <trkpt lat="43.76494" lon="7.25111">
        <ele>688.4</ele>
        <time>2020-08-14T09:05:14Z</time>
      </trkpt>
      <trkpt lat="43.76492" lon="7.2511">
        <ele>687.8</ele>
        <time>2020-08-14T09:05:16Z</time>
      </trkpt>
      <trkpt lat="43.76488" lon="7.25109">
        <ele>687.4</ele>
        <time>2020-08-14T09:05:19Z</time>
      </trkpt>
      <trkpt lat="43.76478" lon="7.25108">
        <ele>686.4</ele>
        <time>2020-08-14T09:05:27Z</time>
      </trkpt>
      <trkpt lat="43.76475" lon="7.25108">
        <ele>686.2</ele>
        <time>2020-08-14T09:05:29Z</time>
      </trkpt>
      <trkpt lat="43.76471" lon="7.25111">
        <ele>685.8</ele>
        <time>2020-08-14T09:05:33Z</time>
      </trkpt>
      <trkpt lat="43.76464" lon="7.25111">
        <ele>685.2</ele>
        <time>2020-08-14T09:05:39Z</time>
      </trkpt>
      <trkpt lat="43.76461" lon="7.25111">
        <ele>684.8</ele>
        <time>2020-08-14T09:05:42Z</time>
      </trkpt>
      <trkpt lat="43.7646" lon="7.25111">
        <ele>684.6</ele>
        <time>2020-08-14T09:05:43Z</time>
      </trkpt>
      <trkpt lat="43.76457" lon="7.25111">
        <ele>684</ele>
        <time>2020-08-14T09:05:45Z</time>
      </trkpt>
      <trkpt lat="43.76456" lon="7.25112">
        <ele>683.8</ele>
        <time>2020-08-14T09:05:46Z</time>
      </trkpt>
      <trkpt lat="43.76453" lon="7.25114">
        <ele>683.6</ele>
        <time>2020-08-14T09:05:49Z</time>
      </trkpt>
      <trkpt lat="43.76445" lon="7.25116">
        <ele>683</ele>
        <time>2020-08-14T09:05:54Z</time>
      </trkpt>
      <trkpt lat="43.76441" lon="7.25117">
        <ele>682.6</ele>
        <time>2020-08-14T09:05:57Z</time>
      </trkpt>
      <trkpt lat="43.76432" lon="7.25123">
        <ele>682.4</ele>
        <time>2020-08-14T09:06:05Z</time>
      </trkpt>
      <trkpt lat="43.76429" lon="7.25125">
        <ele>681.8</ele>
        <time>2020-08-14T09:06:09Z</time>
      </trkpt>
      <trkpt lat="43.76425" lon="7.25127">
        <ele>681.2</ele>
        <time>2020-08-14T09:06:13Z</time>
      </trkpt>
      <trkpt lat="43.7642" lon="7.25128">
        <ele>680.8</ele>
        <time>2020-08-14T09:06:17Z</time>
      </trkpt>
      <trkpt lat="43.76414" lon="7.25129">
        <ele>679.6</ele>
        <time>2020-08-14T09:06:21Z</time>
      </trkpt>
      <trkpt lat="43.76412" lon="7.25131">
        <ele>679.2</ele>
        <time>2020-08-14T09:06:23Z</time>
      </trkpt>
      <trkpt lat="43.76405" lon="7.25134">
        <ele>678.4</ele>
        <time>2020-08-14T09:06:28Z</time>
      </trkpt>
      <trkpt lat="43.76402" lon="7.25136">
        <ele>677.8</ele>
        <time>2020-08-14T09:06:31Z</time>
      </trkpt>
      <trkpt lat="43.76399" lon="7.25137">
        <ele>677.4</ele>
        <time>2020-08-14T09:06:33Z</time>
      </trkpt>
      <trkpt lat="43.76394" lon="7.25142">
        <ele>676.4</ele>
        <time>2020-08-14T09:06:38Z</time>
      </trkpt>
      <trkpt lat="43.76393" lon="7.25144">
        <ele>676.2</ele>
        <time>2020-08-14T09:06:39Z</time>
      </trkpt>
      <trkpt lat="43.76383" lon="7.25152">
        <ele>675.2</ele>
        <time>2020-08-14T09:06:48Z</time>
      </trkpt>
      <trkpt lat="43.76376" lon="7.25159">
        <ele>674.6</ele>
        <time>2020-08-14T09:06:55Z</time>
      </trkpt>
      <trkpt lat="43.76375" lon="7.2516">
        <ele>674.4</ele>
        <time>2020-08-14T09:06:56Z</time>
      </trkpt>
      <trkpt lat="43.76372" lon="7.25164">
        <ele>674</ele>
        <time>2020-08-14T09:06:59Z</time>
      </trkpt>
      <trkpt lat="43.76364" lon="7.25171">
        <ele>673.2</ele>
        <time>2020-08-14T09:07:07Z</time>
      </trkpt>
      <trkpt lat="43.76362" lon="7.25173">
        <ele>673</ele>
        <time>2020-08-14T09:07:09Z</time>
      </trkpt>
      <trkpt lat="43.76359" lon="7.25179">
        <ele>672.6</ele>
        <time>2020-08-14T09:07:13Z</time>
      </trkpt>
      <trkpt lat="43.76358" lon="7.25181">
        <ele>672.6</ele>
        <time>2020-08-14T09:07:14Z</time>
      </trkpt>
      <trkpt lat="43.76356" lon="7.25183">
        <ele>672.4</ele>
        <time>2020-08-14T09:07:16Z</time>
      </trkpt>
      <trkpt lat="43.76352" lon="7.2519">
        <ele>672.4</ele>
        <time>2020-08-14T09:07:21Z</time>
      </trkpt>
      <trkpt lat="43.76348" lon="7.25193">
        <ele>672.2</ele>
        <time>2020-08-14T09:07:24Z</time>
      </trkpt>
      <trkpt lat="43.76346" lon="7.25194">
        <ele>672</ele>
        <time>2020-08-14T09:07:25Z</time>
      </trkpt>
      <trkpt lat="43.76342" lon="7.25197">
        <ele>671.4</ele>
        <time>2020-08-14T09:07:28Z</time>
      </trkpt>
      <trkpt lat="43.76338" lon="7.25199">
        <ele>671</ele>
        <time>2020-08-14T09:07:31Z</time>
      </trkpt>
      <trkpt lat="43.76336" lon="7.25199">
        <ele>670.8</ele>
        <time>2020-08-14T09:07:32Z</time>
      </trkpt>
      <trkpt lat="43.76335" lon="7.25198">
        <ele>670.6</ele>
        <time>2020-08-14T09:07:33Z</time>
      </trkpt>
      <trkpt lat="43.76332" lon="7.25197">
        <ele>669.6</ele>
        <time>2020-08-14T09:07:36Z</time>
      </trkpt>
      <trkpt lat="43.76328" lon="7.25198">
        <ele>669.2</ele>
        <time>2020-08-14T09:07:39Z</time>
      </trkpt>
      <trkpt lat="43.76326" lon="7.25197">
        <ele>668.6</ele>
        <time>2020-08-14T09:07:41Z</time>
      </trkpt>
      <trkpt lat="43.76321" lon="7.25196">
        <ele>667.8</ele>
        <time>2020-08-14T09:07:46Z</time>
      </trkpt>
      <trkpt lat="43.7632" lon="7.25196">
        <ele>667.6</ele>
        <time>2020-08-14T09:07:47Z</time>
      </trkpt>
      <trkpt lat="43.76312" lon="7.25195">
        <ele>666.6</ele>
        <time>2020-08-14T09:07:52Z</time>
      </trkpt>
      <trkpt lat="43.76307" lon="7.25196">
        <ele>665.6</ele>
        <time>2020-08-14T09:07:56Z</time>
      </trkpt>
      <trkpt lat="43.76306" lon="7.25197">
        <ele>665.4</ele>
        <time>2020-08-14T09:07:57Z</time>
      </trkpt>
      <trkpt lat="43.76298" lon="7.25198">
        <ele>664.4</ele>
        <time>2020-08-14T09:08:04Z</time>
      </trkpt>
      <trkpt lat="43.76293" lon="7.252">
        <ele>664</ele>
        <time>2020-08-14T09:08:08Z</time>
      </trkpt>
      <trkpt lat="43.76286" lon="7.25203">
        <ele>663.8</ele>
        <time>2020-08-14T09:08:13Z</time>
      </trkpt>
      <trkpt lat="43.76284" lon="7.25203">
        <ele>663.4</ele>
        <time>2020-08-14T09:08:15Z</time>
      </trkpt>
      <trkpt lat="43.76277" lon="7.25202">
        <ele>662.6</ele>
        <time>2020-08-14T09:08:21Z</time>
      </trkpt>
      <trkpt lat="43.76275" lon="7.25202">
        <ele>662.4</ele>
        <time>2020-08-14T09:08:22Z</time>
      </trkpt>
      <trkpt lat="43.76267" lon="7.25203">
        <ele>661.4</ele>
        <time>2020-08-14T09:08:28Z</time>
      </trkpt>
      <trkpt lat="43.76266" lon="7.25203">
        <ele>661.2</ele>
        <time>2020-08-14T09:08:29Z</time>
      </trkpt>
      <trkpt lat="43.76258" lon="7.25205">
        <ele>660.2</ele>
        <time>2020-08-14T09:08:36Z</time>
      </trkpt>
      <trkpt lat="43.76257" lon="7.25205">
        <ele>660.2</ele>
        <time>2020-08-14T09:08:37Z</time>
      </trkpt>
      <trkpt lat="43.76246" lon="7.25209">
        <ele>659.4</ele>
        <time>2020-08-14T09:08:46Z</time>
      </trkpt>
      <trkpt lat="43.76245" lon="7.25209">
        <ele>659.2</ele>
        <time>2020-08-14T09:08:47Z</time>
      </trkpt>
      <trkpt lat="43.76232" lon="7.2521">
        <ele>658</ele>
        <time>2020-08-14T09:08:57Z</time>
      </trkpt>
      <trkpt lat="43.7623" lon="7.2521">
        <ele>657.8</ele>
        <time>2020-08-14T09:08:59Z</time>
      </trkpt>
      <trkpt lat="43.76223" lon="7.25211">
        <ele>657.4</ele>
        <time>2020-08-14T09:09:03Z</time>
      </trkpt>
      <trkpt lat="43.76219" lon="7.25212">
        <ele>657</ele>
        <time>2020-08-14T09:09:06Z</time>
      </trkpt>
      <trkpt lat="43.76212" lon="7.25213">
        <ele>656.4</ele>
        <time>2020-08-14T09:09:12Z</time>
      </trkpt>
      <trkpt lat="43.76208" lon="7.25214">
        <ele>656.2</ele>
        <time>2020-08-14T09:09:15Z</time>
      </trkpt>
      <trkpt lat="43.76207" lon="7.25215">
        <ele>656</ele>
        <time>2020-08-14T09:09:16Z</time>
      </trkpt>
      <trkpt lat="43.76195" lon="7.25218">
        <ele>655.4</ele>
        <time>2020-08-14T09:09:25Z</time>
      </trkpt>
      <trkpt lat="43.76193" lon="7.25219">
        <ele>655</ele>
        <time>2020-08-14T09:09:27Z</time>
      </trkpt>
      <trkpt lat="43.76187" lon="7.25221">
        <ele>653.8</ele>
        <time>2020-08-14T09:09:32Z</time>
      </trkpt>
      <trkpt lat="43.76185" lon="7.25223">
        <ele>653.6</ele>
        <time>2020-08-14T09:09:34Z</time>
      </trkpt>
      <trkpt lat="43.76173" lon="7.25232">
        <ele>653.2</ele>
        <time>2020-08-14T09:09:44Z</time>
      </trkpt>
      <trkpt lat="43.76167" lon="7.25234">
        <ele>653</ele>
        <time>2020-08-14T09:09:48Z</time>
      </trkpt>
      <trkpt lat="43.76166" lon="7.25234">
        <ele>652.8</ele>
        <time>2020-08-14T09:09:49Z</time>
      </trkpt>
      <trkpt lat="43.7616" lon="7.25238">
        <ele>652.2</ele>
        <time>2020-08-14T09:09:54Z</time>
      </trkpt>
      <trkpt lat="43.76153" lon="7.25242">
        <ele>651.6</ele>
        <time>2020-08-14T09:10:00Z</time>
      </trkpt>
      <trkpt lat="43.76149" lon="7.25244">
        <ele>651.4</ele>
        <time>2020-08-14T09:10:03Z</time>
      </trkpt>
      <trkpt lat="43.76143" lon="7.25245">
        <ele>650.6</ele>
        <time>2020-08-14T09:10:07Z</time>
      </trkpt>
      <trkpt lat="43.76139" lon="7.25247">
        <ele>649.4</ele>
        <time>2020-08-14T09:10:11Z</time>
      </trkpt>
      <trkpt lat="43.76135" lon="7.25248">
        <ele>649</ele>
        <time>2020-08-14T09:10:14Z</time>
      </trkpt>
      <trkpt lat="43.76133" lon="7.25249">
        <ele>648.4</ele>
        <time>2020-08-14T09:10:16Z</time>
      </trkpt>
      <trkpt lat="43.76129" lon="7.25255">
        <ele>647.4</ele>
        <time>2020-08-14T09:10:21Z</time>
      </trkpt>
      <trkpt lat="43.76128" lon="7.25255">
        <ele>647.2</ele>
        <time>2020-08-14T09:10:22Z</time>
      </trkpt>
      <trkpt lat="43.76122" lon="7.25258">
        <ele>646.2</ele>
        <time>2020-08-14T09:10:26Z</time>
      </trkpt>
      <trkpt lat="43.7612" lon="7.25259">
        <ele>645.6</ele>
        <time>2020-08-14T09:10:28Z</time>
      </trkpt>
      <trkpt lat="43.76119" lon="7.25259">
        <ele>645.2</ele>
        <time>2020-08-14T09:10:29Z</time>
      </trkpt>
      <trkpt lat="43.76115" lon="7.25262">
        <ele>644.6</ele>
        <time>2020-08-14T09:10:32Z</time>
      </trkpt>
      <trkpt lat="43.7611" lon="7.25265">
        <ele>644</ele>
        <time>2020-08-14T09:10:36Z</time>
      </trkpt>
      <trkpt lat="43.76103" lon="7.25271">
        <ele>643</ele>
        <time>2020-08-14T09:10:42Z</time>
      </trkpt>
      <trkpt lat="43.76103" lon="7.25272">
        <ele>642.8</ele>
        <time>2020-08-14T09:10:43Z</time>
      </trkpt>
      <trkpt lat="43.76102" lon="7.25273">
        <ele>642.6</ele>
        <time>2020-08-14T09:10:44Z</time>
      </trkpt>
      <trkpt lat="43.76099" lon="7.25275">
        <ele>641.8</ele>
        <time>2020-08-14T09:10:47Z</time>
      </trkpt>
      <trkpt lat="43.76093" lon="7.25278">
        <ele>640.8</ele>
        <time>2020-08-14T09:10:51Z</time>
      </trkpt>
      <trkpt lat="43.76089" lon="7.25278">
        <ele>640.2</ele>
        <time>2020-08-14T09:10:54Z</time>
      </trkpt>
      <trkpt lat="43.76087" lon="7.25278">
        <ele>639.8</ele>
        <time>2020-08-14T09:10:56Z</time>
      </trkpt>
      <trkpt lat="43.7608" lon="7.25282">
        <ele>638.6</ele>
        <time>2020-08-14T09:11:02Z</time>
      </trkpt>
      <trkpt lat="43.76071" lon="7.25286">
        <ele>637.6</ele>
        <time>2020-08-14T09:11:09Z</time>
      </trkpt>
      <trkpt lat="43.76067" lon="7.25287">
        <ele>637.2</ele>
        <time>2020-08-14T09:11:12Z</time>
      </trkpt>
      <trkpt lat="43.76061" lon="7.25291">
        <ele>636.6</ele>
        <time>2020-08-14T09:11:17Z</time>
      </trkpt>
      <trkpt lat="43.76057" lon="7.25293">
        <ele>636.2</ele>
        <time>2020-08-14T09:11:20Z</time>
      </trkpt>
      <trkpt lat="43.76049" lon="7.25298">
        <ele>635.4</ele>
        <time>2020-08-14T09:11:26Z</time>
      </trkpt>
      <trkpt lat="43.76045" lon="7.25301">
        <ele>635.2</ele>
        <time>2020-08-14T09:11:29Z</time>
      </trkpt>
      <trkpt lat="43.76044" lon="7.25302">
        <ele>635</ele>
        <time>2020-08-14T09:11:30Z</time>
      </trkpt>
      <trkpt lat="43.7604" lon="7.25305">
        <ele>634.4</ele>
        <time>2020-08-14T09:11:34Z</time>
      </trkpt>
      <trkpt lat="43.76035" lon="7.25306">
        <ele>633.4</ele>
        <time>2020-08-14T09:11:38Z</time>
      </trkpt>
      <trkpt lat="43.76032" lon="7.25306">
        <ele>632.8</ele>
        <time>2020-08-14T09:11:41Z</time>
      </trkpt>
      <trkpt lat="43.76029" lon="7.25306">
        <ele>632</ele>
        <time>2020-08-14T09:11:43Z</time>
      </trkpt>
      <trkpt lat="43.76025" lon="7.25307">
        <ele>631.4</ele>
        <time>2020-08-14T09:11:46Z</time>
      </trkpt>
      <trkpt lat="43.76024" lon="7.25308">
        <ele>631.2</ele>
        <time>2020-08-14T09:11:47Z</time>
      </trkpt>
      <trkpt lat="43.7602" lon="7.2531">
        <ele>631</ele>
        <time>2020-08-14T09:11:50Z</time>
      </trkpt>
      <trkpt lat="43.7601" lon="7.25316">
        <ele>630.2</ele>
        <time>2020-08-14T09:11:59Z</time>
      </trkpt>
      <trkpt lat="43.76007" lon="7.25318">
        <ele>629.8</ele>
        <time>2020-08-14T09:12:01Z</time>
      </trkpt>
      <trkpt lat="43.76006" lon="7.25318">
        <ele>629.8</ele>
        <time>2020-08-14T09:12:02Z</time>
      </trkpt>
      <trkpt lat="43.76" lon="7.25321">
        <ele>628.6</ele>
        <time>2020-08-14T09:12:09Z</time>
      </trkpt>
      <trkpt lat="43.75997" lon="7.25322">
        <ele>628.2</ele>
        <time>2020-08-14T09:12:11Z</time>
      </trkpt>
      <trkpt lat="43.75996" lon="7.25323">
        <ele>628</ele>
        <time>2020-08-14T09:12:12Z</time>
      </trkpt>
      <trkpt lat="43.75991" lon="7.25328">
        <ele>627.6</ele>
        <time>2020-08-14T09:12:16Z</time>
      </trkpt>
      <trkpt lat="43.75988" lon="7.25331">
        <ele>627.4</ele>
        <time>2020-08-14T09:12:19Z</time>
      </trkpt>
      <trkpt lat="43.75985" lon="7.25333">
        <ele>627.2</ele>
        <time>2020-08-14T09:12:22Z</time>
      </trkpt>
      <trkpt lat="43.75974" lon="7.25338">
        <ele>626.4</ele>
        <time>2020-08-14T09:12:30Z</time>
      </trkpt>
      <trkpt lat="43.75963" lon="7.25345">
        <ele>625.4</ele>
        <time>2020-08-14T09:12:38Z</time>
      </trkpt>
      <trkpt lat="43.75959" lon="7.25348">
        <ele>625</ele>
        <time>2020-08-14T09:12:42Z</time>
      </trkpt>
      <trkpt lat="43.75953" lon="7.25351">
        <ele>624.6</ele>
        <time>2020-08-14T09:12:47Z</time>
      </trkpt>
      <trkpt lat="43.75952" lon="7.25352">
        <ele>624.4</ele>
        <time>2020-08-14T09:12:48Z</time>
      </trkpt>
      <trkpt lat="43.75948" lon="7.25355">
        <ele>624.2</ele>
        <time>2020-08-14T09:12:52Z</time>
      </trkpt>
      <trkpt lat="43.75939" lon="7.25362">
        <ele>623.4</ele>
        <time>2020-08-14T09:12:58Z</time>
      </trkpt>
      <trkpt lat="43.75931" lon="7.25366">
        <ele>622.4</ele>
        <time>2020-08-14T09:13:03Z</time>
      </trkpt>
      <trkpt lat="43.7593" lon="7.25367">
        <ele>622.2</ele>
        <time>2020-08-14T09:13:04Z</time>
      </trkpt>
      <trkpt lat="43.75922" lon="7.25372">
        <ele>621</ele>
        <time>2020-08-14T09:13:10Z</time>
      </trkpt>
      <trkpt lat="43.75921" lon="7.25373">
        <ele>621</ele>
        <time>2020-08-14T09:13:11Z</time>
      </trkpt>
      <trkpt lat="43.75915" lon="7.2538">
        <ele>620.6</ele>
        <time>2020-08-14T09:13:17Z</time>
      </trkpt>
      <trkpt lat="43.75909" lon="7.25383">
        <ele>620.2</ele>
        <time>2020-08-14T09:13:21Z</time>
      </trkpt>
      <trkpt lat="43.75907" lon="7.25386">
        <ele>620</ele>
        <time>2020-08-14T09:13:24Z</time>
      </trkpt>
      <trkpt lat="43.75904" lon="7.25387">
        <ele>619.6</ele>
        <time>2020-08-14T09:13:26Z</time>
      </trkpt>
      <trkpt lat="43.75903" lon="7.25388">
        <ele>619.4</ele>
        <time>2020-08-14T09:13:27Z</time>
      </trkpt>
      <trkpt lat="43.75899" lon="7.25391">
        <ele>619</ele>
        <time>2020-08-14T09:13:31Z</time>
      </trkpt>
      <trkpt lat="43.75898" lon="7.25392">
        <ele>618.8</ele>
        <time>2020-08-14T09:13:32Z</time>
      </trkpt>
      <trkpt lat="43.75895" lon="7.25394">
        <ele>618.6</ele>
        <time>2020-08-14T09:13:34Z</time>
      </trkpt>
      <trkpt lat="43.7589" lon="7.25401">
        <ele>618.4</ele>
        <time>2020-08-14T09:13:40Z</time>
      </trkpt>
      <trkpt lat="43.75884" lon="7.25405">
        <ele>618</ele>
        <time>2020-08-14T09:13:44Z</time>
      </trkpt>
      <trkpt lat="43.75873" lon="7.25415">
        <ele>617.8</ele>
        <time>2020-08-14T09:13:54Z</time>
      </trkpt>
      <trkpt lat="43.75869" lon="7.25417">
        <ele>617.8</ele>
        <time>2020-08-14T09:13:57Z</time>
      </trkpt>
      <trkpt lat="43.75866" lon="7.25421">
        <ele>617.8</ele>
        <time>2020-08-14T09:14:01Z</time>
      </trkpt>
      <trkpt lat="43.75864" lon="7.25422">
        <ele>617.8</ele>
        <time>2020-08-14T09:14:03Z</time>
      </trkpt>
      <trkpt lat="43.75859" lon="7.25425">
        <ele>617.2</ele>
        <time>2020-08-14T09:14:08Z</time>
      </trkpt>
      <trkpt lat="43.75855" lon="7.25426">
        <ele>616.8</ele>
        <time>2020-08-14T09:14:11Z</time>
      </trkpt>
      <trkpt lat="43.75854" lon="7.25427">
        <ele>616.6</ele>
        <time>2020-08-14T09:14:12Z</time>
      </trkpt>
      <trkpt lat="43.75848" lon="7.25429">
        <ele>615.6</ele>
        <time>2020-08-14T09:14:16Z</time>
      </trkpt>
      <trkpt lat="43.75843" lon="7.25431">
        <ele>614.6</ele>
        <time>2020-08-14T09:14:20Z</time>
      </trkpt>
      <trkpt lat="43.7584" lon="7.25433">
        <ele>614</ele>
        <time>2020-08-14T09:14:22Z</time>
      </trkpt>
      <trkpt lat="43.75837" lon="7.25435">
        <ele>613.6</ele>
        <time>2020-08-14T09:14:25Z</time>
      </trkpt>
      <trkpt lat="43.75832" lon="7.25437">
        <ele>612.6</ele>
        <time>2020-08-14T09:14:29Z</time>
      </trkpt>
      <trkpt lat="43.75831" lon="7.25437">
        <ele>612.4</ele>
        <time>2020-08-14T09:14:30Z</time>
      </trkpt>
      <trkpt lat="43.75824" lon="7.25443">
        <ele>611.8</ele>
        <time>2020-08-14T09:14:36Z</time>
      </trkpt>
      <trkpt lat="43.75823" lon="7.25443">
        <ele>611.8</ele>
        <time>2020-08-14T09:14:37Z</time>
      </trkpt>
      <trkpt lat="43.7582" lon="7.25444">
        <ele>611.4</ele>
        <time>2020-08-14T09:14:39Z</time>
      </trkpt>
      <trkpt lat="43.75814" lon="7.25446">
        <ele>610.2</ele>
        <time>2020-08-14T09:14:44Z</time>
      </trkpt>
      <trkpt lat="43.75813" lon="7.25447">
        <ele>610</ele>
        <time>2020-08-14T09:14:45Z</time>
      </trkpt>
      <trkpt lat="43.7581" lon="7.25449">
        <ele>609.2</ele>
        <time>2020-08-14T09:14:48Z</time>
      </trkpt>
      <trkpt lat="43.75808" lon="7.2545">
        <ele>609</ele>
        <time>2020-08-14T09:14:49Z</time>
      </trkpt>
      <trkpt lat="43.75806" lon="7.25452">
        <ele>608.4</ele>
        <time>2020-08-14T09:14:51Z</time>
      </trkpt>
      <trkpt lat="43.75802" lon="7.25454">
        <ele>608</ele>
        <time>2020-08-14T09:14:54Z</time>
      </trkpt>
      <trkpt lat="43.75795" lon="7.25459">
        <ele>607</ele>
        <time>2020-08-14T09:14:59Z</time>
      </trkpt>
      <trkpt lat="43.75793" lon="7.25461">
        <ele>606.6</ele>
        <time>2020-08-14T09:15:01Z</time>
      </trkpt>
      <trkpt lat="43.75787" lon="7.25464">
        <ele>605.8</ele>
        <time>2020-08-14T09:15:06Z</time>
      </trkpt>
      <trkpt lat="43.75785" lon="7.25466">
        <ele>605.4</ele>
        <time>2020-08-14T09:15:08Z</time>
      </trkpt>
      <trkpt lat="43.75781" lon="7.2547">
        <ele>605</ele>
        <time>2020-08-14T09:15:12Z</time>
      </trkpt>
      <trkpt lat="43.75777" lon="7.25474">
        <ele>604.8</ele>
        <time>2020-08-14T09:15:15Z</time>
      </trkpt>
      <trkpt lat="43.75769" lon="7.25482">
        <ele>603.8</ele>
        <time>2020-08-14T09:15:22Z</time>
      </trkpt>
      <trkpt lat="43.75766" lon="7.25484">
        <ele>603.6</ele>
        <time>2020-08-14T09:15:25Z</time>
      </trkpt>
      <trkpt lat="43.75756" lon="7.2549">
        <ele>602.6</ele>
        <time>2020-08-14T09:15:32Z</time>
      </trkpt>
      <trkpt lat="43.75755" lon="7.25491">
        <ele>602.6</ele>
        <time>2020-08-14T09:15:33Z</time>
      </trkpt>
      <trkpt lat="43.75749" lon="7.25494">
        <ele>602</ele>
        <time>2020-08-14T09:15:38Z</time>
      </trkpt>
      <trkpt lat="43.75745" lon="7.25494">
        <ele>601.6</ele>
        <time>2020-08-14T09:15:41Z</time>
      </trkpt>
      <trkpt lat="43.75743" lon="7.25494">
        <ele>601.4</ele>
        <time>2020-08-14T09:15:42Z</time>
      </trkpt>
      <trkpt lat="43.75739" lon="7.25495">
        <ele>601</ele>
        <time>2020-08-14T09:15:45Z</time>
      </trkpt>
      <trkpt lat="43.75737" lon="7.25496">
        <ele>600.4</ele>
        <time>2020-08-14T09:15:47Z</time>
      </trkpt>
      <trkpt lat="43.75732" lon="7.25499">
        <ele>599.8</ele>
        <time>2020-08-14T09:15:51Z</time>
      </trkpt>
      <trkpt lat="43.75729" lon="7.25502">
        <ele>599.4</ele>
        <time>2020-08-14T09:15:54Z</time>
      </trkpt>
      <trkpt lat="43.75725" lon="7.25504">
        <ele>599.4</ele>
        <time>2020-08-14T09:15:57Z</time>
      </trkpt>
      <trkpt lat="43.75715" lon="7.25509">
        <ele>598.6</ele>
        <time>2020-08-14T09:16:05Z</time>
      </trkpt>
      <trkpt lat="43.75713" lon="7.25511">
        <ele>598.6</ele>
        <time>2020-08-14T09:16:07Z</time>
      </trkpt>
      <trkpt lat="43.75708" lon="7.25513">
        <ele>598.6</ele>
        <time>2020-08-14T09:16:11Z</time>
      </trkpt>
      <trkpt lat="43.75707" lon="7.25514">
        <ele>598.4</ele>
        <time>2020-08-14T09:16:12Z</time>
      </trkpt>
      <trkpt lat="43.75706" lon="7.25514">
        <ele>598.2</ele>
        <time>2020-08-14T09:16:13Z</time>
      </trkpt>
      <trkpt lat="43.75696" lon="7.25514">
        <ele>597</ele>
        <time>2020-08-14T09:16:20Z</time>
      </trkpt>
      <trkpt lat="43.75695" lon="7.25514">
        <ele>596.8</ele>
        <time>2020-08-14T09:16:21Z</time>
      </trkpt>
      <trkpt lat="43.75686" lon="7.25519">
        <ele>596</ele>
        <time>2020-08-14T09:16:28Z</time>
      </trkpt>
      <trkpt lat="43.75683" lon="7.25522">
        <ele>595.6</ele>
        <time>2020-08-14T09:16:31Z</time>
      </trkpt>
      <trkpt lat="43.75674" lon="7.25528">
        <ele>595</ele>
        <time>2020-08-14T09:16:38Z</time>
      </trkpt>
      <trkpt lat="43.75673" lon="7.25528">
        <ele>594.8</ele>
        <time>2020-08-14T09:16:39Z</time>
      </trkpt>
      <trkpt lat="43.75664" lon="7.25531">
        <ele>594</ele>
        <time>2020-08-14T09:16:46Z</time>
      </trkpt>
      <trkpt lat="43.75663" lon="7.25531">
        <ele>593.8</ele>
        <time>2020-08-14T09:16:47Z</time>
      </trkpt>
      <trkpt lat="43.75657" lon="7.25534">
        <ele>592.6</ele>
        <time>2020-08-14T09:16:52Z</time>
      </trkpt>
      <trkpt lat="43.7565" lon="7.25535">
        <ele>591.6</ele>
        <time>2020-08-14T09:16:57Z</time>
      </trkpt>
      <trkpt lat="43.75648" lon="7.25535">
        <ele>591.4</ele>
        <time>2020-08-14T09:16:58Z</time>
      </trkpt>
      <trkpt lat="43.75646" lon="7.25537">
        <ele>590.8</ele>
        <time>2020-08-14T09:17:00Z</time>
      </trkpt>
      <trkpt lat="43.75644" lon="7.25538">
        <ele>590.8</ele>
        <time>2020-08-14T09:17:01Z</time>
      </trkpt>
      <trkpt lat="43.75643" lon="7.2554">
        <ele>590.8</ele>
        <time>2020-08-14T09:17:02Z</time>
      </trkpt>
      <trkpt lat="43.75641" lon="7.25542">
        <ele>590.8</ele>
        <time>2020-08-14T09:17:04Z</time>
      </trkpt>
      <trkpt lat="43.75637" lon="7.25546">
        <ele>590.6</ele>
        <time>2020-08-14T09:17:08Z</time>
      </trkpt>
      <trkpt lat="43.75635" lon="7.25547">
        <ele>590.6</ele>
        <time>2020-08-14T09:17:09Z</time>
      </trkpt>
      <trkpt lat="43.75627" lon="7.25553">
        <ele>589.6</ele>
        <time>2020-08-14T09:17:16Z</time>
      </trkpt>
      <trkpt lat="43.75626" lon="7.25553">
        <ele>589.6</ele>
        <time>2020-08-14T09:17:17Z</time>
      </trkpt>
      <trkpt lat="43.75625" lon="7.25555">
        <ele>589.6</ele>
        <time>2020-08-14T09:17:18Z</time>
      </trkpt>
      <trkpt lat="43.7562" lon="7.25558">
        <ele>589.2</ele>
        <time>2020-08-14T09:17:22Z</time>
      </trkpt>
      <trkpt lat="43.75613" lon="7.25563">
        <ele>588.4</ele>
        <time>2020-08-14T09:17:28Z</time>
      </trkpt>
      <trkpt lat="43.75611" lon="7.25564">
        <ele>588.4</ele>
        <time>2020-08-14T09:17:29Z</time>
      </trkpt>
      <trkpt lat="43.75605" lon="7.25567">
        <ele>587.6</ele>
        <time>2020-08-14T09:17:33Z</time>
      </trkpt>
      <trkpt lat="43.75604" lon="7.25567">
        <ele>587.2</ele>
        <time>2020-08-14T09:17:34Z</time>
      </trkpt>
      <trkpt lat="43.756" lon="7.25567">
        <ele>586.8</ele>
        <time>2020-08-14T09:17:37Z</time>
      </trkpt>
      <trkpt lat="43.75597" lon="7.25568">
        <ele>586</ele>
        <time>2020-08-14T09:17:40Z</time>
      </trkpt>
      <trkpt lat="43.7559" lon="7.25571">
        <ele>584.8</ele>
        <time>2020-08-14T09:17:45Z</time>
      </trkpt>
      <trkpt lat="43.75588" lon="7.25571">
        <ele>584.6</ele>
        <time>2020-08-14T09:17:46Z</time>
      </trkpt>
      <trkpt lat="43.75584" lon="7.25572">
        <ele>583.8</ele>
        <time>2020-08-14T09:17:49Z</time>
      </trkpt>
      <trkpt lat="43.75576" lon="7.25576">
        <ele>582.6</ele>
        <time>2020-08-14T09:17:55Z</time>
      </trkpt>
      <trkpt lat="43.75575" lon="7.25577">
        <ele>582.4</ele>
        <time>2020-08-14T09:17:56Z</time>
      </trkpt>
      <trkpt lat="43.75564" lon="7.25582">
        <ele>581.4</ele>
        <time>2020-08-14T09:18:05Z</time>
      </trkpt>
      <trkpt lat="43.75562" lon="7.25583">
        <ele>581</ele>
        <time>2020-08-14T09:18:07Z</time>
      </trkpt>
      <trkpt lat="43.75559" lon="7.25588">
        <ele>580.4</ele>
        <time>2020-08-14T09:18:11Z</time>
      </trkpt>
      <trkpt lat="43.75557" lon="7.2559">
        <ele>580</ele>
        <time>2020-08-14T09:18:13Z</time>
      </trkpt>
      <trkpt lat="43.75552" lon="7.25594">
        <ele>579.4</ele>
        <time>2020-08-14T09:18:17Z</time>
      </trkpt>
      <trkpt lat="43.75548" lon="7.25601">
        <ele>578.8</ele>
        <time>2020-08-14T09:18:21Z</time>
      </trkpt>
      <trkpt lat="43.75544" lon="7.25608">
        <ele>578.4</ele>
        <time>2020-08-14T09:18:26Z</time>
      </trkpt>
      <trkpt lat="43.75543" lon="7.25611">
        <ele>578</ele>
        <time>2020-08-14T09:18:28Z</time>
      </trkpt>
      <trkpt lat="43.75539" lon="7.2562">
        <ele>577.4</ele>
        <time>2020-08-14T09:18:35Z</time>
      </trkpt>
      <trkpt lat="43.75538" lon="7.25622">
        <ele>577.2</ele>
        <time>2020-08-14T09:18:36Z</time>
      </trkpt>
      <trkpt lat="43.75534" lon="7.25631">
        <ele>576.2</ele>
        <time>2020-08-14T09:18:42Z</time>
      </trkpt>
      <trkpt lat="43.75534" lon="7.25632">
        <ele>576</ele>
        <time>2020-08-14T09:18:43Z</time>
      </trkpt>
      <trkpt lat="43.75533" lon="7.25634">
        <ele>575.8</ele>
        <time>2020-08-14T09:18:44Z</time>
      </trkpt>
      <trkpt lat="43.75531" lon="7.25646">
        <ele>574.8</ele>
        <time>2020-08-14T09:18:50Z</time>
      </trkpt>
      <trkpt lat="43.75531" lon="7.25651">
        <ele>574.4</ele>
        <time>2020-08-14T09:18:52Z</time>
      </trkpt>
      <trkpt lat="43.75531" lon="7.2566">
        <ele>574</ele>
        <time>2020-08-14T09:18:56Z</time>
      </trkpt>
      <trkpt lat="43.75531" lon="7.25664">
        <ele>573.8</ele>
        <time>2020-08-14T09:18:58Z</time>
      </trkpt>
      <trkpt lat="43.7553" lon="7.2567">
        <ele>573.2</ele>
        <time>2020-08-14T09:19:01Z</time>
      </trkpt>
      <trkpt lat="43.7553" lon="7.25674">
        <ele>572.8</ele>
        <time>2020-08-14T09:19:03Z</time>
      </trkpt>
      <trkpt lat="43.7553" lon="7.25676">
        <ele>572.6</ele>
        <time>2020-08-14T09:19:04Z</time>
      </trkpt>
      <trkpt lat="43.7553" lon="7.25685">
        <ele>572</ele>
        <time>2020-08-14T09:19:09Z</time>
      </trkpt>
      <trkpt lat="43.75528" lon="7.25691">
        <ele>571.6</ele>
        <time>2020-08-14T09:19:12Z</time>
      </trkpt>
      <trkpt lat="43.75526" lon="7.25699">
        <ele>571</ele>
        <time>2020-08-14T09:19:16Z</time>
      </trkpt>
      <trkpt lat="43.75526" lon="7.25703">
        <ele>570.6</ele>
        <time>2020-08-14T09:19:18Z</time>
      </trkpt>
      <trkpt lat="43.75524" lon="7.25708">
        <ele>570</ele>
        <time>2020-08-14T09:19:21Z</time>
      </trkpt>
      <trkpt lat="43.75522" lon="7.25711">
        <ele>569.6</ele>
        <time>2020-08-14T09:19:24Z</time>
      </trkpt>
      <trkpt lat="43.75521" lon="7.25712">
        <ele>569.4</ele>
        <time>2020-08-14T09:19:25Z</time>
      </trkpt>
      <trkpt lat="43.7552" lon="7.25712">
        <ele>569.2</ele>
        <time>2020-08-14T09:19:26Z</time>
      </trkpt>
      <trkpt lat="43.75516" lon="7.25715">
        <ele>568.4</ele>
        <time>2020-08-14T09:19:29Z</time>
      </trkpt>
      <trkpt lat="43.75512" lon="7.25717">
        <ele>567.4</ele>
        <time>2020-08-14T09:19:32Z</time>
      </trkpt>
      <trkpt lat="43.75511" lon="7.25718">
        <ele>567</ele>
        <time>2020-08-14T09:19:33Z</time>
      </trkpt>
      <trkpt lat="43.75508" lon="7.25721">
        <ele>566</ele>
        <time>2020-08-14T09:19:36Z</time>
      </trkpt>
      <trkpt lat="43.75504" lon="7.25723">
        <ele>564.8</ele>
        <time>2020-08-14T09:19:39Z</time>
      </trkpt>
      <trkpt lat="43.75501" lon="7.25727">
        <ele>564</ele>
        <time>2020-08-14T09:19:42Z</time>
      </trkpt>
      <trkpt lat="43.755" lon="7.25729">
        <ele>563.6</ele>
        <time>2020-08-14T09:19:43Z</time>
      </trkpt>
      <trkpt lat="43.75495" lon="7.25735">
        <ele>562.6</ele>
        <time>2020-08-14T09:19:47Z</time>
      </trkpt>
      <trkpt lat="43.75494" lon="7.25737">
        <ele>562.2</ele>
        <time>2020-08-14T09:19:48Z</time>
      </trkpt>
      <trkpt lat="43.75492" lon="7.25744">
        <ele>561.4</ele>
        <time>2020-08-14T09:19:52Z</time>
      </trkpt>
      <trkpt lat="43.75491" lon="7.25752">
        <ele>561</ele>
        <time>2020-08-14T09:19:56Z</time>
      </trkpt>
      <trkpt lat="43.7549" lon="7.25762">
        <ele>560.6</ele>
        <time>2020-08-14T09:20:02Z</time>
      </trkpt>
      <trkpt lat="43.75489" lon="7.25766">
        <ele>560.6</ele>
        <time>2020-08-14T09:20:04Z</time>
      </trkpt>
      <trkpt lat="43.75488" lon="7.25768">
        <ele>560.6</ele>
        <time>2020-08-14T09:20:05Z</time>
      </trkpt>
      <trkpt lat="43.75487" lon="7.25771">
        <ele>560.4</ele>
        <time>2020-08-14T09:20:07Z</time>
      </trkpt>
      <trkpt lat="43.75485" lon="7.25777">
        <ele>560.4</ele>
        <time>2020-08-14T09:20:11Z</time>
      </trkpt>
      <trkpt lat="43.75484" lon="7.25778">
        <ele>560.6</ele>
        <time>2020-08-14T09:20:12Z</time>
      </trkpt>
      <trkpt lat="43.75479" lon="7.25782">
        <ele>560.6</ele>
        <time>2020-08-14T09:20:15Z</time>
      </trkpt>
      <trkpt lat="43.75475" lon="7.25782">
        <ele>560.4</ele>
        <time>2020-08-14T09:20:18Z</time>
      </trkpt>
      <trkpt lat="43.75474" lon="7.25782">
        <ele>560.4</ele>
        <time>2020-08-14T09:20:19Z</time>
      </trkpt>
      <trkpt lat="43.75468" lon="7.25785">
        <ele>560</ele>
        <time>2020-08-14T09:20:24Z</time>
      </trkpt>
      <trkpt lat="43.75463" lon="7.25788">
        <ele>560</ele>
        <time>2020-08-14T09:20:28Z</time>
      </trkpt>
      <trkpt lat="43.75453" lon="7.25798">
        <ele>559.6</ele>
        <time>2020-08-14T09:20:36Z</time>
      </trkpt>
      <trkpt lat="43.75442" lon="7.258">
        <ele>559.8</ele>
        <time>2020-08-14T09:20:44Z</time>
      </trkpt>
      <trkpt lat="43.75428" lon="7.25799">
        <ele>560</ele>
        <time>2020-08-14T09:20:54Z</time>
      </trkpt>
      <trkpt lat="43.75419" lon="7.25803">
        <ele>560.4</ele>
        <time>2020-08-14T09:21:01Z</time>
      </trkpt>
      <trkpt lat="43.7541" lon="7.25806">
        <ele>561</ele>
        <time>2020-08-14T09:21:08Z</time>
      </trkpt>
      <trkpt lat="43.75406" lon="7.25805">
        <ele>561</ele>
        <time>2020-08-14T09:21:11Z</time>
      </trkpt>
      <trkpt lat="43.754" lon="7.25802">
        <ele>561.2</ele>
        <time>2020-08-14T09:21:16Z</time>
      </trkpt>
      <trkpt lat="43.75398" lon="7.25801">
        <ele>561.4</ele>
        <time>2020-08-14T09:21:18Z</time>
      </trkpt>
      <trkpt lat="43.75396" lon="7.258">
        <ele>561.4</ele>
        <time>2020-08-14T09:21:19Z</time>
      </trkpt>
      <trkpt lat="43.75395" lon="7.258">
        <ele>561.6</ele>
        <time>2020-08-14T09:21:20Z</time>
      </trkpt>
      <trkpt lat="43.75394" lon="7.25799">
        <ele>561.6</ele>
        <time>2020-08-14T09:21:21Z</time>
      </trkpt>
      <trkpt lat="43.75387" lon="7.25797">
        <ele>561.8</ele>
        <time>2020-08-14T09:21:26Z</time>
      </trkpt>
      <trkpt lat="43.75385" lon="7.25797">
        <ele>562</ele>
        <time>2020-08-14T09:21:28Z</time>
      </trkpt>
      <trkpt lat="43.75383" lon="7.25797">
        <ele>562</ele>
        <time>2020-08-14T09:21:29Z</time>
      </trkpt>
      <trkpt lat="43.75377" lon="7.25794">
        <ele>561.6</ele>
        <time>2020-08-14T09:21:34Z</time>
      </trkpt>
      <trkpt lat="43.75376" lon="7.25792">
        <ele>561.6</ele>
        <time>2020-08-14T09:21:35Z</time>
      </trkpt>
      <trkpt lat="43.75371" lon="7.25786">
        <ele>561</ele>
        <time>2020-08-14T09:21:41Z</time>
      </trkpt>
      <trkpt lat="43.75367" lon="7.25783">
        <ele>560.4</ele>
        <time>2020-08-14T09:21:45Z</time>
      </trkpt>
      <trkpt lat="43.75364" lon="7.25782">
        <ele>560</ele>
        <time>2020-08-14T09:21:48Z</time>
      </trkpt>
      <trkpt lat="43.75358" lon="7.25781">
        <ele>559.4</ele>
        <time>2020-08-14T09:21:53Z</time>
      </trkpt>
      <trkpt lat="43.75356" lon="7.2578">
        <ele>559.2</ele>
        <time>2020-08-14T09:21:55Z</time>
      </trkpt>
      <trkpt lat="43.7535" lon="7.25782">
        <ele>558.4</ele>
        <time>2020-08-14T09:22:00Z</time>
      </trkpt>
      <trkpt lat="43.75348" lon="7.25783">
        <ele>558.2</ele>
        <time>2020-08-14T09:22:01Z</time>
      </trkpt>
      <trkpt lat="43.75345" lon="7.25785">
        <ele>557.6</ele>
        <time>2020-08-14T09:22:04Z</time>
      </trkpt>
      <trkpt lat="43.75343" lon="7.25788">
        <ele>557.2</ele>
        <time>2020-08-14T09:22:06Z</time>
      </trkpt>
      <trkpt lat="43.75337" lon="7.25797">
        <ele>556.2</ele>
        <time>2020-08-14T09:22:12Z</time>
      </trkpt>
      <trkpt lat="43.75336" lon="7.25799">
        <ele>556.2</ele>
        <time>2020-08-14T09:22:13Z</time>
      </trkpt>
      <trkpt lat="43.75329" lon="7.2581">
        <ele>555.8</ele>
        <time>2020-08-14T09:22:21Z</time>
      </trkpt>
      <trkpt lat="43.75328" lon="7.25811">
        <ele>555.6</ele>
        <time>2020-08-14T09:22:22Z</time>
      </trkpt>
      <trkpt lat="43.75315" lon="7.25815">
        <ele>555.4</ele>
        <time>2020-08-14T09:22:31Z</time>
      </trkpt>
      <trkpt lat="43.75303" lon="7.25824">
        <ele>555.2</ele>
        <time>2020-08-14T09:22:40Z</time>
      </trkpt>
      <trkpt lat="43.75302" lon="7.25824">
        <ele>555.2</ele>
        <time>2020-08-14T09:22:41Z</time>
      </trkpt>
      <trkpt lat="43.75299" lon="7.25828">
        <ele>555.2</ele>
        <time>2020-08-14T09:22:44Z</time>
      </trkpt>
      <trkpt lat="43.75295" lon="7.25828">
        <ele>555.2</ele>
        <time>2020-08-14T09:22:47Z</time>
      </trkpt>
      <trkpt lat="43.75293" lon="7.25828">
        <ele>555.2</ele>
        <time>2020-08-14T09:22:48Z</time>
      </trkpt>
      <trkpt lat="43.75287" lon="7.25831">
        <ele>555.2</ele>
        <time>2020-08-14T09:22:53Z</time>
      </trkpt>
      <trkpt lat="43.75279" lon="7.25835">
        <ele>555</ele>
        <time>2020-08-14T09:22:59Z</time>
      </trkpt>
      <trkpt lat="43.7527" lon="7.2584">
        <ele>554.4</ele>
        <time>2020-08-14T09:23:06Z</time>
      </trkpt>
      <trkpt lat="43.75264" lon="7.25845">
        <ele>554.8</ele>
        <time>2020-08-14T09:23:13Z</time>
      </trkpt>
      <trkpt lat="43.75264" lon="7.25846">
        <ele>554.8</ele>
        <time>2020-08-14T09:23:14Z</time>
      </trkpt>
      <trkpt lat="43.75263" lon="7.25847">
        <ele>554.8</ele>
        <time>2020-08-14T09:23:15Z</time>
      </trkpt>
      <trkpt lat="43.75258" lon="7.25852">
        <ele>555</ele>
        <time>2020-08-14T09:23:19Z</time>
      </trkpt>
      <trkpt lat="43.75253" lon="7.25854">
        <ele>555</ele>
        <time>2020-08-14T09:23:23Z</time>
      </trkpt>
      <trkpt lat="43.75252" lon="7.25855">
        <ele>555</ele>
        <time>2020-08-14T09:23:24Z</time>
      </trkpt>
      <trkpt lat="43.75244" lon="7.25853">
        <ele>554.2</ele>
        <time>2020-08-14T09:23:30Z</time>
      </trkpt>
      <trkpt lat="43.75241" lon="7.25853">
        <ele>553.6</ele>
        <time>2020-08-14T09:23:32Z</time>
      </trkpt>
      <trkpt lat="43.7524" lon="7.25853">
        <ele>553.4</ele>
        <time>2020-08-14T09:23:33Z</time>
      </trkpt>
      <trkpt lat="43.75238" lon="7.25853">
        <ele>553.2</ele>
        <time>2020-08-14T09:23:34Z</time>
      </trkpt>
      <trkpt lat="43.75237" lon="7.25853">
        <ele>553.2</ele>
        <time>2020-08-14T09:23:35Z</time>
      </trkpt>
      <trkpt lat="43.75235" lon="7.25853">
        <ele>553</ele>
        <time>2020-08-14T09:23:36Z</time>
      </trkpt>
      <trkpt lat="43.75225" lon="7.25855">
        <ele>552</ele>
        <time>2020-08-14T09:23:43Z</time>
      </trkpt>
      <trkpt lat="43.75224" lon="7.25855">
        <ele>551.8</ele>
        <time>2020-08-14T09:23:44Z</time>
      </trkpt>
      <trkpt lat="43.75217" lon="7.25857">
        <ele>551.2</ele>
        <time>2020-08-14T09:23:49Z</time>
      </trkpt>
      <trkpt lat="43.75215" lon="7.25857">
        <ele>551</ele>
        <time>2020-08-14T09:23:50Z</time>
      </trkpt>
      <trkpt lat="43.75212" lon="7.25859">
        <ele>550.8</ele>
        <time>2020-08-14T09:23:53Z</time>
      </trkpt>
      <trkpt lat="43.75208" lon="7.2586">
        <ele>550.6</ele>
        <time>2020-08-14T09:23:56Z</time>
      </trkpt>
      <trkpt lat="43.75201" lon="7.25865">
        <ele>550.6</ele>
        <time>2020-08-14T09:24:01Z</time>
      </trkpt>
      <trkpt lat="43.75191" lon="7.25866">
        <ele>550</ele>
        <time>2020-08-14T09:24:09Z</time>
      </trkpt>
      <trkpt lat="43.75189" lon="7.25867">
        <ele>550</ele>
        <time>2020-08-14T09:24:10Z</time>
      </trkpt>
      <trkpt lat="43.7518" lon="7.2587">
        <ele>549.4</ele>
        <time>2020-08-14T09:24:16Z</time>
      </trkpt>
      <trkpt lat="43.75176" lon="7.25872">
        <ele>549</ele>
        <time>2020-08-14T09:24:19Z</time>
      </trkpt>
      <trkpt lat="43.75167" lon="7.25872">
        <ele>548.2</ele>
        <time>2020-08-14T09:24:26Z</time>
      </trkpt>
      <trkpt lat="43.75164" lon="7.25872">
        <ele>547.8</ele>
        <time>2020-08-14T09:24:28Z</time>
      </trkpt>
      <trkpt lat="43.75155" lon="7.2587">
        <ele>547.2</ele>
        <time>2020-08-14T09:24:35Z</time>
      </trkpt>
      <trkpt lat="43.75152" lon="7.25871">
        <ele>546.8</ele>
        <time>2020-08-14T09:24:37Z</time>
      </trkpt>
      <trkpt lat="43.75144" lon="7.25874">
        <ele>546</ele>
        <time>2020-08-14T09:24:44Z</time>
      </trkpt>
      <trkpt lat="43.75143" lon="7.25874">
        <ele>545.8</ele>
        <time>2020-08-14T09:24:45Z</time>
      </trkpt>
      <trkpt lat="43.75134" lon="7.25871">
        <ele>544.6</ele>
        <time>2020-08-14T09:24:51Z</time>
      </trkpt>
      <trkpt lat="43.75132" lon="7.25871">
        <ele>544.2</ele>
        <time>2020-08-14T09:24:52Z</time>
      </trkpt>
      <trkpt lat="43.75122" lon="7.25875">
        <ele>543.4</ele>
        <time>2020-08-14T09:24:59Z</time>
      </trkpt>
      <trkpt lat="43.75121" lon="7.25875">
        <ele>543.4</ele>
        <time>2020-08-14T09:25:00Z</time>
      </trkpt>
      <trkpt lat="43.75116" lon="7.25874">
        <ele>543</ele>
        <time>2020-08-14T09:25:04Z</time>
      </trkpt>
      <trkpt lat="43.7511" lon="7.25873">
        <ele>543</ele>
        <time>2020-08-14T09:25:08Z</time>
      </trkpt>
      <trkpt lat="43.75104" lon="7.25875">
        <ele>543</ele>
        <time>2020-08-14T09:25:13Z</time>
      </trkpt>
      <trkpt lat="43.751" lon="7.25876">
        <ele>543</ele>
        <time>2020-08-14T09:25:16Z</time>
      </trkpt>
      <trkpt lat="43.75097" lon="7.25877">
        <ele>543</ele>
        <time>2020-08-14T09:25:18Z</time>
      </trkpt>
      <trkpt lat="43.75092" lon="7.25875">
        <ele>542.8</ele>
        <time>2020-08-14T09:25:22Z</time>
      </trkpt>
      <trkpt lat="43.75089" lon="7.25874">
        <ele>542.4</ele>
        <time>2020-08-14T09:25:24Z</time>
      </trkpt>
      <trkpt lat="43.75087" lon="7.25873">
        <ele>542.4</ele>
        <time>2020-08-14T09:25:25Z</time>
      </trkpt>
      <trkpt lat="43.75081" lon="7.25867">
        <ele>541.6</ele>
        <time>2020-08-14T09:25:31Z</time>
      </trkpt>
      <trkpt lat="43.75079" lon="7.25866">
        <ele>541.2</ele>
        <time>2020-08-14T09:25:33Z</time>
      </trkpt>
      <trkpt lat="43.75072" lon="7.25862">
        <ele>540.2</ele>
        <time>2020-08-14T09:25:40Z</time>
      </trkpt>
      <trkpt lat="43.75059" lon="7.2586">
        <ele>539.6</ele>
        <time>2020-08-14T09:25:49Z</time>
      </trkpt>
      <trkpt lat="43.75042" lon="7.25858">
        <ele>539.2</ele>
        <time>2020-08-14T09:26:00Z</time>
      </trkpt>
      <trkpt lat="43.75041" lon="7.25857">
        <ele>539.2</ele>
        <time>2020-08-14T09:26:01Z</time>
      </trkpt>
      <trkpt lat="43.75031" lon="7.25857">
        <ele>538.2</ele>
        <time>2020-08-14T09:26:09Z</time>
      </trkpt>
      <trkpt lat="43.75028" lon="7.25858">
        <ele>538.2</ele>
        <time>2020-08-14T09:26:11Z</time>
      </trkpt>
      <trkpt lat="43.75023" lon="7.25857">
        <ele>538</ele>
        <time>2020-08-14T09:26:15Z</time>
      </trkpt>
      <trkpt lat="43.75021" lon="7.25857">
        <ele>537.6</ele>
        <time>2020-08-14T09:26:17Z</time>
      </trkpt>
      <trkpt lat="43.75018" lon="7.25856">
        <ele>537</ele>
        <time>2020-08-14T09:26:19Z</time>
      </trkpt>
      <trkpt lat="43.75009" lon="7.25853">
        <ele>536.4</ele>
        <time>2020-08-14T09:26:25Z</time>
      </trkpt>
      <trkpt lat="43.75005" lon="7.25851">
        <ele>536</ele>
        <time>2020-08-14T09:26:28Z</time>
      </trkpt>
      <trkpt lat="43.75004" lon="7.2585">
        <ele>536</ele>
        <time>2020-08-14T09:26:29Z</time>
      </trkpt>
      <trkpt lat="43.74999" lon="7.25849">
        <ele>535.6</ele>
        <time>2020-08-14T09:26:32Z</time>
      </trkpt>
      <trkpt lat="43.74995" lon="7.25849">
        <ele>535.4</ele>
        <time>2020-08-14T09:26:34Z</time>
      </trkpt>
      <trkpt lat="43.74985" lon="7.25852">
        <ele>535.4</ele>
        <time>2020-08-14T09:26:41Z</time>
      </trkpt>
      <trkpt lat="43.74984" lon="7.25853">
        <ele>535.6</ele>
        <time>2020-08-14T09:26:42Z</time>
      </trkpt>
      <trkpt lat="43.74982" lon="7.25854">
        <ele>535.6</ele>
        <time>2020-08-14T09:26:44Z</time>
      </trkpt>
      <trkpt lat="43.74981" lon="7.25855">
        <ele>535.6</ele>
        <time>2020-08-14T09:26:45Z</time>
      </trkpt>
      <trkpt lat="43.74978" lon="7.25855">
        <ele>535.6</ele>
        <time>2020-08-14T09:26:47Z</time>
      </trkpt>
      <trkpt lat="43.74977" lon="7.25855">
        <ele>535.6</ele>
        <time>2020-08-14T09:26:48Z</time>
      </trkpt>
      <trkpt lat="43.74971" lon="7.2585">
        <ele>535</ele>
        <time>2020-08-14T09:26:53Z</time>
      </trkpt>
      <trkpt lat="43.74969" lon="7.25848">
        <ele>534.8</ele>
        <time>2020-08-14T09:26:55Z</time>
      </trkpt>
      <trkpt lat="43.74969" lon="7.25847">
        <ele>534.6</ele>
        <time>2020-08-14T09:26:56Z</time>
      </trkpt>
      <trkpt lat="43.74965" lon="7.25844">
        <ele>534</ele>
        <time>2020-08-14T09:26:59Z</time>
      </trkpt>
      <trkpt lat="43.7496" lon="7.25841">
        <ele>533.6</ele>
        <time>2020-08-14T09:27:03Z</time>
      </trkpt>
      <trkpt lat="43.74949" lon="7.25838">
        <ele>533.4</ele>
        <time>2020-08-14T09:27:11Z</time>
      </trkpt>
      <trkpt lat="43.74933" lon="7.25834">
        <ele>533.2</ele>
        <time>2020-08-14T09:27:22Z</time>
      </trkpt>
      <trkpt lat="43.74924" lon="7.25835">
        <ele>533.8</ele>
        <time>2020-08-14T09:27:29Z</time>
      </trkpt>
      <trkpt lat="43.74914" lon="7.25836">
        <ele>534</ele>
        <time>2020-08-14T09:27:37Z</time>
      </trkpt>
      <trkpt lat="43.7491" lon="7.25837">
        <ele>534.2</ele>
        <time>2020-08-14T09:27:40Z</time>
      </trkpt>
      <trkpt lat="43.74901" lon="7.25839">
        <ele>534.4</ele>
        <time>2020-08-14T09:27:45Z</time>
      </trkpt>
      <trkpt lat="43.74895" lon="7.25839">
        <ele>534.4</ele>
        <time>2020-08-14T09:27:50Z</time>
      </trkpt>
      <trkpt lat="43.74889" lon="7.25839">
        <ele>534.4</ele>
        <time>2020-08-14T09:27:54Z</time>
      </trkpt>
      <trkpt lat="43.74878" lon="7.2584">
        <ele>533.6</ele>
        <time>2020-08-14T09:28:02Z</time>
      </trkpt>
      <trkpt lat="43.74875" lon="7.2584">
        <ele>533.6</ele>
        <time>2020-08-14T09:28:04Z</time>
      </trkpt>
      <trkpt lat="43.74863" lon="7.25838">
        <ele>533.6</ele>
        <time>2020-08-14T09:28:13Z</time>
      </trkpt>
      <trkpt lat="43.74846" lon="7.2584">
        <ele>534</ele>
        <time>2020-08-14T09:28:25Z</time>
      </trkpt>
      <trkpt lat="43.74841" lon="7.2584">
        <ele>534</ele>
        <time>2020-08-14T09:28:28Z</time>
      </trkpt>
      <trkpt lat="43.74834" lon="7.2584">
        <ele>534.2</ele>
        <time>2020-08-14T09:28:33Z</time>
      </trkpt>
      <trkpt lat="43.7482" lon="7.25841">
        <ele>533.8</ele>
        <time>2020-08-14T09:28:42Z</time>
      </trkpt>
      <trkpt lat="43.74808" lon="7.25839">
        <ele>534.2</ele>
        <time>2020-08-14T09:28:51Z</time>
      </trkpt>
      <trkpt lat="43.74803" lon="7.25839">
        <ele>534</ele>
        <time>2020-08-14T09:28:54Z</time>
      </trkpt>
      <trkpt lat="43.74792" lon="7.2584">
        <ele>532.8</ele>
        <time>2020-08-14T09:29:03Z</time>
      </trkpt>
      <trkpt lat="43.74782" lon="7.25843">
        <ele>531.8</ele>
        <time>2020-08-14T09:29:10Z</time>
      </trkpt>
      <trkpt lat="43.74777" lon="7.25845">
        <ele>531.4</ele>
        <time>2020-08-14T09:29:13Z</time>
      </trkpt>
      <trkpt lat="43.74772" lon="7.25846">
        <ele>530.8</ele>
        <time>2020-08-14T09:29:17Z</time>
      </trkpt>
      <trkpt lat="43.74771" lon="7.25846">
        <ele>530.6</ele>
        <time>2020-08-14T09:29:18Z</time>
      </trkpt>
      <trkpt lat="43.7477" lon="7.25846">
        <ele>530.6</ele>
        <time>2020-08-14T09:29:19Z</time>
      </trkpt>
      <trkpt lat="43.74762" lon="7.25848">
        <ele>530.2</ele>
        <time>2020-08-14T09:29:26Z</time>
      </trkpt>
      <trkpt lat="43.74761" lon="7.25849">
        <ele>530.2</ele>
        <time>2020-08-14T09:29:27Z</time>
      </trkpt>
      <trkpt lat="43.74757" lon="7.25853">
        <ele>530.2</ele>
        <time>2020-08-14T09:29:30Z</time>
      </trkpt>
      <trkpt lat="43.74752" lon="7.25857">
        <ele>530.2</ele>
        <time>2020-08-14T09:29:34Z</time>
      </trkpt>
      <trkpt lat="43.7474" lon="7.25861">
        <ele>529.6</ele>
        <time>2020-08-14T09:29:43Z</time>
      </trkpt>
      <trkpt lat="43.74733" lon="7.25865">
        <ele>528.6</ele>
        <time>2020-08-14T09:29:48Z</time>
      </trkpt>
      <trkpt lat="43.7473" lon="7.2587">
        <ele>528.2</ele>
        <time>2020-08-14T09:29:51Z</time>
      </trkpt>
      <trkpt lat="43.74729" lon="7.25871">
        <ele>528</ele>
        <time>2020-08-14T09:29:52Z</time>
      </trkpt>
      <trkpt lat="43.74723" lon="7.25872">
        <ele>527.4</ele>
        <time>2020-08-14T09:29:56Z</time>
      </trkpt>
      <trkpt lat="43.7472" lon="7.25874">
        <ele>526.2</ele>
        <time>2020-08-14T09:29:59Z</time>
      </trkpt>
      <trkpt lat="43.74716" lon="7.25876">
        <ele>525</ele>
        <time>2020-08-14T09:30:02Z</time>
      </trkpt>
      <trkpt lat="43.74712" lon="7.25882">
        <ele>524</ele>
        <time>2020-08-14T09:30:06Z</time>
      </trkpt>
      <trkpt lat="43.74712" lon="7.25883">
        <ele>523.6</ele>
        <time>2020-08-14T09:30:08Z</time>
      </trkpt>
      <trkpt lat="43.74713" lon="7.25886">
        <ele>523.2</ele>
        <time>2020-08-14T09:30:10Z</time>
      </trkpt>
      <trkpt lat="43.74713" lon="7.25887">
        <ele>523</ele>
        <time>2020-08-14T09:30:11Z</time>
      </trkpt>
      <trkpt lat="43.74712" lon="7.25889">
        <ele>522.8</ele>
        <time>2020-08-14T09:30:12Z</time>
      </trkpt>
      <trkpt lat="43.74707" lon="7.25891">
        <ele>521.8</ele>
        <time>2020-08-14T09:30:16Z</time>
      </trkpt>
      <trkpt lat="43.74705" lon="7.25891">
        <ele>521.4</ele>
        <time>2020-08-14T09:30:17Z</time>
      </trkpt>
      <trkpt lat="43.74702" lon="7.25892">
        <ele>520.6</ele>
        <time>2020-08-14T09:30:19Z</time>
      </trkpt>
      <trkpt lat="43.74699" lon="7.25892">
        <ele>520.4</ele>
        <time>2020-08-14T09:30:21Z</time>
      </trkpt>
      <trkpt lat="43.74697" lon="7.25891">
        <ele>520</ele>
        <time>2020-08-14T09:30:23Z</time>
      </trkpt>
      <trkpt lat="43.74695" lon="7.25893">
        <ele>519.6</ele>
        <time>2020-08-14T09:30:25Z</time>
      </trkpt>
      <trkpt lat="43.74692" lon="7.25894">
        <ele>518.8</ele>
        <time>2020-08-14T09:30:27Z</time>
      </trkpt>
      <trkpt lat="43.74691" lon="7.25895">
        <ele>518.6</ele>
        <time>2020-08-14T09:30:28Z</time>
      </trkpt>
      <trkpt lat="43.7469" lon="7.25894">
        <ele>517.8</ele>
        <time>2020-08-14T09:30:30Z</time>
      </trkpt>
      <trkpt lat="43.74688" lon="7.25894">
        <ele>517.4</ele>
        <time>2020-08-14T09:30:32Z</time>
      </trkpt>
      <trkpt lat="43.74688" lon="7.25895">
        <ele>517.2</ele>
        <time>2020-08-14T09:30:33Z</time>
      </trkpt>
      <trkpt lat="43.74686" lon="7.25898">
        <ele>516.4</ele>
        <time>2020-08-14T09:30:36Z</time>
      </trkpt>
      <trkpt lat="43.74685" lon="7.25898">
        <ele>516</ele>
        <time>2020-08-14T09:30:37Z</time>
      </trkpt>
      <trkpt lat="43.74683" lon="7.25896">
        <ele>515.2</ele>
        <time>2020-08-14T09:30:39Z</time>
      </trkpt>
      <trkpt lat="43.74682" lon="7.25895">
        <ele>515</ele>
        <time>2020-08-14T09:30:40Z</time>
      </trkpt>
      <trkpt lat="43.74681" lon="7.2589">
        <ele>514</ele>
        <time>2020-08-14T09:30:43Z</time>
      </trkpt>
      <trkpt lat="43.74681" lon="7.25886">
        <ele>513.4</ele>
        <time>2020-08-14T09:30:45Z</time>
      </trkpt>
      <trkpt lat="43.74681" lon="7.25883">
        <ele>512.8</ele>
        <time>2020-08-14T09:30:48Z</time>
      </trkpt>
      <trkpt lat="43.74681" lon="7.25881">
        <ele>512.6</ele>
        <time>2020-08-14T09:30:50Z</time>
      </trkpt>
      <trkpt lat="43.74678" lon="7.25874">
        <ele>512</ele>
        <time>2020-08-14T09:30:56Z</time>
      </trkpt>
      <trkpt lat="43.74677" lon="7.25873">
        <ele>511.8</ele>
        <time>2020-08-14T09:30:57Z</time>
      </trkpt>
      <trkpt lat="43.74673" lon="7.2587">
        <ele>511.4</ele>
        <time>2020-08-14T09:31:01Z</time>
      </trkpt>
      <trkpt lat="43.74672" lon="7.25869">
        <ele>511.2</ele>
        <time>2020-08-14T09:31:02Z</time>
      </trkpt>
      <trkpt lat="43.7467" lon="7.25866">
        <ele>511</ele>
        <time>2020-08-14T09:31:04Z</time>
      </trkpt>
      <trkpt lat="43.74668" lon="7.25863">
        <ele>510.8</ele>
        <time>2020-08-14T09:31:06Z</time>
      </trkpt>
      <trkpt lat="43.74659" lon="7.25856">
        <ele>511</ele>
        <time>2020-08-14T09:31:13Z</time>
      </trkpt>
      <trkpt lat="43.74651" lon="7.2585">
        <ele>510.6</ele>
        <time>2020-08-14T09:31:21Z</time>
      </trkpt>
      <trkpt lat="43.74648" lon="7.25851">
        <ele>510.2</ele>
        <time>2020-08-14T09:31:24Z</time>
      </trkpt>
      <trkpt lat="43.74644" lon="7.25855">
        <ele>509.8</ele>
        <time>2020-08-14T09:31:28Z</time>
      </trkpt>
      <trkpt lat="43.74641" lon="7.25857">
        <ele>509.6</ele>
        <time>2020-08-14T09:31:30Z</time>
      </trkpt>
      <trkpt lat="43.74635" lon="7.25859">
        <ele>509.6</ele>
        <time>2020-08-14T09:31:35Z</time>
      </trkpt>
      <trkpt lat="43.74627" lon="7.25863">
        <ele>509.4</ele>
        <time>2020-08-14T09:31:41Z</time>
      </trkpt>
      <trkpt lat="43.74622" lon="7.25863">
        <ele>509.4</ele>
        <time>2020-08-14T09:31:45Z</time>
      </trkpt>
      <trkpt lat="43.74617" lon="7.25866">
        <ele>509.2</ele>
        <time>2020-08-14T09:31:51Z</time>
      </trkpt>
      <trkpt lat="43.74614" lon="7.25864">
        <ele>509</ele>
        <time>2020-08-14T09:31:53Z</time>
      </trkpt>
      <trkpt lat="43.74613" lon="7.25863">
        <ele>508.6</ele>
        <time>2020-08-14T09:31:54Z</time>
      </trkpt>
      <trkpt lat="43.74611" lon="7.25861">
        <ele>507.6</ele>
        <time>2020-08-14T09:31:57Z</time>
      </trkpt>
      <trkpt lat="43.74607" lon="7.25858">
        <ele>506.6</ele>
        <time>2020-08-14T09:32:01Z</time>
      </trkpt>
      <trkpt lat="43.74604" lon="7.25856">
        <ele>505.4</ele>
        <time>2020-08-14T09:32:05Z</time>
      </trkpt>
      <trkpt lat="43.74603" lon="7.25855">
        <ele>505</ele>
        <time>2020-08-14T09:32:06Z</time>
      </trkpt>
      <trkpt lat="43.74602" lon="7.25854">
        <ele>504.6</ele>
        <time>2020-08-14T09:32:07Z</time>
      </trkpt>
      <trkpt lat="43.74602" lon="7.25852">
        <ele>504.2</ele>
        <time>2020-08-14T09:32:08Z</time>
      </trkpt>
      <trkpt lat="43.74601" lon="7.25852">
        <ele>503.8</ele>
        <time>2020-08-14T09:32:09Z</time>
      </trkpt>
      <trkpt lat="43.74599" lon="7.2585">
        <ele>503</ele>
        <time>2020-08-14T09:32:11Z</time>
      </trkpt>
      <trkpt lat="43.74596" lon="7.25847">
        <ele>501.8</ele>
        <time>2020-08-14T09:32:14Z</time>
      </trkpt>
      <trkpt lat="43.74595" lon="7.25843">
        <ele>501</ele>
        <time>2020-08-14T09:32:18Z</time>
      </trkpt>
      <trkpt lat="43.74594" lon="7.25842">
        <ele>500.8</ele>
        <time>2020-08-14T09:32:19Z</time>
      </trkpt>
      <trkpt lat="43.74592" lon="7.25839">
        <ele>500.2</ele>
        <time>2020-08-14T09:32:21Z</time>
      </trkpt>
      <trkpt lat="43.7459" lon="7.25835">
        <ele>499.4</ele>
        <time>2020-08-14T09:32:24Z</time>
      </trkpt>
      <trkpt lat="43.7459" lon="7.25833">
        <ele>498.6</ele>
        <time>2020-08-14T09:32:26Z</time>
      </trkpt>
      <trkpt lat="43.7459" lon="7.25832">
        <ele>498.2</ele>
        <time>2020-08-14T09:32:27Z</time>
      </trkpt>
      <trkpt lat="43.74587" lon="7.25827">
        <ele>497</ele>
        <time>2020-08-14T09:32:31Z</time>
      </trkpt>
      <trkpt lat="43.74586" lon="7.25827">
        <ele>496.8</ele>
        <time>2020-08-14T09:32:32Z</time>
      </trkpt>
      <trkpt lat="43.74585" lon="7.25825">
        <ele>496.4</ele>
        <time>2020-08-14T09:32:33Z</time>
      </trkpt>
      <trkpt lat="43.74584" lon="7.25824">
        <ele>496</ele>
        <time>2020-08-14T09:32:34Z</time>
      </trkpt>
      <trkpt lat="43.74581" lon="7.2582">
        <ele>495</ele>
        <time>2020-08-14T09:32:37Z</time>
      </trkpt>
      <trkpt lat="43.7458" lon="7.25818">
        <ele>494.2</ele>
        <time>2020-08-14T09:32:39Z</time>
      </trkpt>
      <trkpt lat="43.7458" lon="7.25817">
        <ele>494</ele>
        <time>2020-08-14T09:32:40Z</time>
      </trkpt>
      <trkpt lat="43.74579" lon="7.25816">
        <ele>493.6</ele>
        <time>2020-08-14T09:32:41Z</time>
      </trkpt>
      <trkpt lat="43.74577" lon="7.25814">
        <ele>492.8</ele>
        <time>2020-08-14T09:32:43Z</time>
      </trkpt>
      <trkpt lat="43.74576" lon="7.25812">
        <ele>492</ele>
        <time>2020-08-14T09:32:45Z</time>
      </trkpt>
      <trkpt lat="43.74575" lon="7.2581">
        <ele>491.4</ele>
        <time>2020-08-14T09:32:46Z</time>
      </trkpt>
      <trkpt lat="43.74574" lon="7.25806">
        <ele>490.4</ele>
        <time>2020-08-14T09:32:49Z</time>
      </trkpt>
      <trkpt lat="43.74572" lon="7.25801">
        <ele>489.2</ele>
        <time>2020-08-14T09:32:52Z</time>
      </trkpt>
      <trkpt lat="43.74571" lon="7.25797">
        <ele>488</ele>
        <time>2020-08-14T09:32:56Z</time>
      </trkpt>
      <trkpt lat="43.7457" lon="7.25797">
        <ele>487.2</ele>
        <time>2020-08-14T09:32:58Z</time>
      </trkpt>
      <trkpt lat="43.74569" lon="7.25796">
        <ele>487</ele>
        <time>2020-08-14T09:32:59Z</time>
      </trkpt>
      <trkpt lat="43.74565" lon="7.25795">
        <ele>485.8</ele>
        <time>2020-08-14T09:33:03Z</time>
      </trkpt>
      <trkpt lat="43.74564" lon="7.25793">
        <ele>485.4</ele>
        <time>2020-08-14T09:33:04Z</time>
      </trkpt>
      <trkpt lat="43.74563" lon="7.25792">
        <ele>485</ele>
        <time>2020-08-14T09:33:05Z</time>
      </trkpt>
      <trkpt lat="43.74563" lon="7.25791">
        <ele>484.8</ele>
        <time>2020-08-14T09:33:06Z</time>
      </trkpt>
      <trkpt lat="43.74563" lon="7.25789">
        <ele>484.4</ele>
        <time>2020-08-14T09:33:07Z</time>
      </trkpt>
      <trkpt lat="43.74562" lon="7.25786">
        <ele>484</ele>
        <time>2020-08-14T09:33:09Z</time>
      </trkpt>
      <trkpt lat="43.74561" lon="7.25786">
        <ele>483.6</ele>
        <time>2020-08-14T09:33:10Z</time>
      </trkpt>
      <trkpt lat="43.74561" lon="7.25785">
        <ele>483.4</ele>
        <time>2020-08-14T09:33:11Z</time>
      </trkpt>
      <trkpt lat="43.74559" lon="7.25781">
        <ele>482.2</ele>
        <time>2020-08-14T09:33:14Z</time>
      </trkpt>
      <trkpt lat="43.74558" lon="7.25776">
        <ele>481.2</ele>
        <time>2020-08-14T09:33:17Z</time>
      </trkpt>
      <trkpt lat="43.74558" lon="7.25775">
        <ele>481</ele>
        <time>2020-08-14T09:33:18Z</time>
      </trkpt>
      <trkpt lat="43.74556" lon="7.25771">
        <ele>479.8</ele>
        <time>2020-08-14T09:33:21Z</time>
      </trkpt>
      <trkpt lat="43.74553" lon="7.25766">
        <ele>478.4</ele>
        <time>2020-08-14T09:33:25Z</time>
      </trkpt>
      <trkpt lat="43.74552" lon="7.25764">
        <ele>478</ele>
        <time>2020-08-14T09:33:26Z</time>
      </trkpt>
      <trkpt lat="43.7455" lon="7.25761">
        <ele>477.4</ele>
        <time>2020-08-14T09:33:28Z</time>
      </trkpt>
      <trkpt lat="43.74548" lon="7.25756">
        <ele>476.2</ele>
        <time>2020-08-14T09:33:31Z</time>
      </trkpt>
      <trkpt lat="43.74546" lon="7.25751">
        <ele>475</ele>
        <time>2020-08-14T09:33:35Z</time>
      </trkpt>
      <trkpt lat="43.74544" lon="7.25747">
        <ele>474.2</ele>
        <time>2020-08-14T09:33:38Z</time>
      </trkpt>
      <trkpt lat="43.74543" lon="7.25745">
        <ele>473.8</ele>
        <time>2020-08-14T09:33:39Z</time>
      </trkpt>
      <trkpt lat="43.74542" lon="7.25739">
        <ele>472.6</ele>
        <time>2020-08-14T09:33:43Z</time>
      </trkpt>
      <trkpt lat="43.7454" lon="7.25735">
        <ele>471.4</ele>
        <time>2020-08-14T09:33:46Z</time>
      </trkpt>
      <trkpt lat="43.74537" lon="7.25728">
        <ele>470.4</ele>
        <time>2020-08-14T09:33:50Z</time>
      </trkpt>
      <trkpt lat="43.74536" lon="7.25722">
        <ele>469.4</ele>
        <time>2020-08-14T09:33:53Z</time>
      </trkpt>
      <trkpt lat="43.74534" lon="7.25719">
        <ele>468.6</ele>
        <time>2020-08-14T09:33:55Z</time>
      </trkpt>
      <trkpt lat="43.74533" lon="7.25717">
        <ele>468.2</ele>
        <time>2020-08-14T09:33:56Z</time>
      </trkpt>
      <trkpt lat="43.74529" lon="7.25714">
        <ele>467.2</ele>
        <time>2020-08-14T09:34:00Z</time>
      </trkpt>
      <trkpt lat="43.74528" lon="7.25714">
        <ele>467</ele>
        <time>2020-08-14T09:34:02Z</time>
      </trkpt>
      <trkpt lat="43.74524" lon="7.25713">
        <ele>466.2</ele>
        <time>2020-08-14T09:34:06Z</time>
      </trkpt>
      <trkpt lat="43.74519" lon="7.25712">
        <ele>465.4</ele>
        <time>2020-08-14T09:34:10Z</time>
      </trkpt>
      <trkpt lat="43.74516" lon="7.25711">
        <ele>465</ele>
        <time>2020-08-14T09:34:12Z</time>
      </trkpt>
      <trkpt lat="43.74509" lon="7.25709">
        <ele>464</ele>
        <time>2020-08-14T09:34:17Z</time>
      </trkpt>
      <trkpt lat="43.74504" lon="7.25703">
        <ele>462.8</ele>
        <time>2020-08-14T09:34:21Z</time>
      </trkpt>
      <trkpt lat="43.74501" lon="7.25701">
        <ele>462.6</ele>
        <time>2020-08-14T09:34:24Z</time>
      </trkpt>
      <trkpt lat="43.74497" lon="7.25699">
        <ele>461.8</ele>
        <time>2020-08-14T09:34:27Z</time>
      </trkpt>
      <trkpt lat="43.74494" lon="7.25698">
        <ele>461.2</ele>
        <time>2020-08-14T09:34:29Z</time>
      </trkpt>
      <trkpt lat="43.74492" lon="7.25697">
        <ele>460.8</ele>
        <time>2020-08-14T09:34:31Z</time>
      </trkpt>
      <trkpt lat="43.74487" lon="7.25695">
        <ele>460</ele>
        <time>2020-08-14T09:34:35Z</time>
      </trkpt>
      <trkpt lat="43.74483" lon="7.25695">
        <ele>459.6</ele>
        <time>2020-08-14T09:34:38Z</time>
      </trkpt>
      <trkpt lat="43.7448" lon="7.25693">
        <ele>459.2</ele>
        <time>2020-08-14T09:34:41Z</time>
      </trkpt>
      <trkpt lat="43.74474" lon="7.2569">
        <ele>458.8</ele>
        <time>2020-08-14T09:34:45Z</time>
      </trkpt>
      <trkpt lat="43.74473" lon="7.25689">
        <ele>458.6</ele>
        <time>2020-08-14T09:34:46Z</time>
      </trkpt>
      <trkpt lat="43.74472" lon="7.25688">
        <ele>458.6</ele>
        <time>2020-08-14T09:34:47Z</time>
      </trkpt>
      <trkpt lat="43.74468" lon="7.25684">
        <ele>458</ele>
        <time>2020-08-14T09:34:51Z</time>
      </trkpt>
      <trkpt lat="43.74465" lon="7.25684">
        <ele>457.4</ele>
        <time>2020-08-14T09:34:53Z</time>
      </trkpt>
      <trkpt lat="43.74456" lon="7.25683">
        <ele>456.4</ele>
        <time>2020-08-14T09:35:00Z</time>
      </trkpt>
      <trkpt lat="43.74454" lon="7.25683">
        <ele>456.4</ele>
        <time>2020-08-14T09:35:01Z</time>
      </trkpt>
      <trkpt lat="43.7445" lon="7.25682">
        <ele>456</ele>
        <time>2020-08-14T09:35:04Z</time>
      </trkpt>
      <trkpt lat="43.74445" lon="7.25681">
        <ele>455.4</ele>
        <time>2020-08-14T09:35:07Z</time>
      </trkpt>
      <trkpt lat="43.74443" lon="7.25679">
        <ele>455.2</ele>
        <time>2020-08-14T09:35:09Z</time>
      </trkpt>
      <trkpt lat="43.74439" lon="7.25679">
        <ele>455</ele>
        <time>2020-08-14T09:35:12Z</time>
      </trkpt>
      <trkpt lat="43.74435" lon="7.25679">
        <ele>454.2</ele>
        <time>2020-08-14T09:35:15Z</time>
      </trkpt>
      <trkpt lat="43.74434" lon="7.25678">
        <ele>453.8</ele>
        <time>2020-08-14T09:35:16Z</time>
      </trkpt>
      <trkpt lat="43.74429" lon="7.25673">
        <ele>453.4</ele>
        <time>2020-08-14T09:35:20Z</time>
      </trkpt>
      <trkpt lat="43.74428" lon="7.25672">
        <ele>453.4</ele>
        <time>2020-08-14T09:35:21Z</time>
      </trkpt>
      <trkpt lat="43.74425" lon="7.25669">
        <ele>453</ele>
        <time>2020-08-14T09:35:23Z</time>
      </trkpt>
      <trkpt lat="43.74417" lon="7.25666">
        <ele>452.2</ele>
        <time>2020-08-14T09:35:29Z</time>
      </trkpt>
      <trkpt lat="43.74408" lon="7.25659">
        <ele>452.2</ele>
        <time>2020-08-14T09:35:37Z</time>
      </trkpt>
      <trkpt lat="43.74406" lon="7.25657">
        <ele>452</ele>
        <time>2020-08-14T09:35:39Z</time>
      </trkpt>
      <trkpt lat="43.74403" lon="7.25655">
        <ele>452</ele>
        <time>2020-08-14T09:35:41Z</time>
      </trkpt>
      <trkpt lat="43.74399" lon="7.25651">
        <ele>451.6</ele>
        <time>2020-08-14T09:35:45Z</time>
      </trkpt>
      <trkpt lat="43.74395" lon="7.2565">
        <ele>450.8</ele>
        <time>2020-08-14T09:35:48Z</time>
      </trkpt>
      <trkpt lat="43.74389" lon="7.25652">
        <ele>450.2</ele>
        <time>2020-08-14T09:35:53Z</time>
      </trkpt>
      <trkpt lat="43.74386" lon="7.25653">
        <ele>449.8</ele>
        <time>2020-08-14T09:35:55Z</time>
      </trkpt>
      <trkpt lat="43.7438" lon="7.25654">
        <ele>449.4</ele>
        <time>2020-08-14T09:35:59Z</time>
      </trkpt>
      <trkpt lat="43.74379" lon="7.25653">
        <ele>449.4</ele>
        <time>2020-08-14T09:36:00Z</time>
      </trkpt>
      <trkpt lat="43.74377" lon="7.25652">
        <ele>449.2</ele>
        <time>2020-08-14T09:36:02Z</time>
      </trkpt>
      <trkpt lat="43.74374" lon="7.25651">
        <ele>449.2</ele>
        <time>2020-08-14T09:36:04Z</time>
      </trkpt>
      <trkpt lat="43.74373" lon="7.2565">
        <ele>449.2</ele>
        <time>2020-08-14T09:36:05Z</time>
      </trkpt>
      <trkpt lat="43.74372" lon="7.2565">
        <ele>449.2</ele>
        <time>2020-08-14T09:36:06Z</time>
      </trkpt>
      <trkpt lat="43.74368" lon="7.2565">
        <ele>448.8</ele>
        <time>2020-08-14T09:36:09Z</time>
      </trkpt>
      <trkpt lat="43.74362" lon="7.25648">
        <ele>448.4</ele>
        <time>2020-08-14T09:36:13Z</time>
      </trkpt>
      <trkpt lat="43.74359" lon="7.25647">
        <ele>448.2</ele>
        <time>2020-08-14T09:36:15Z</time>
      </trkpt>
      <trkpt lat="43.74354" lon="7.25646">
        <ele>447.6</ele>
        <time>2020-08-14T09:36:19Z</time>
      </trkpt>
      <trkpt lat="43.74348" lon="7.25644">
        <ele>447.2</ele>
        <time>2020-08-14T09:36:23Z</time>
      </trkpt>
      <trkpt lat="43.74341" lon="7.25643">
        <ele>447</ele>
        <time>2020-08-14T09:36:28Z</time>
      </trkpt>
      <trkpt lat="43.74337" lon="7.25642">
        <ele>446.8</ele>
        <time>2020-08-14T09:36:31Z</time>
      </trkpt>
      <trkpt lat="43.74331" lon="7.25635">
        <ele>446.8</ele>
        <time>2020-08-14T09:36:37Z</time>
      </trkpt>
      <trkpt lat="43.7433" lon="7.2563">
        <ele>446.6</ele>
        <time>2020-08-14T09:36:39Z</time>
      </trkpt>
      <trkpt lat="43.74329" lon="7.25628">
        <ele>446.6</ele>
        <time>2020-08-14T09:36:40Z</time>
      </trkpt>
      <trkpt lat="43.74325" lon="7.25624">
        <ele>445.8</ele>
        <time>2020-08-14T09:36:44Z</time>
      </trkpt>
      <trkpt lat="43.74324" lon="7.25624">
        <ele>445.6</ele>
        <time>2020-08-14T09:36:45Z</time>
      </trkpt>
      <trkpt lat="43.74315" lon="7.25625">
        <ele>445.6</ele>
        <time>2020-08-14T09:36:52Z</time>
      </trkpt>
      <trkpt lat="43.74313" lon="7.25625">
        <ele>445.6</ele>
        <time>2020-08-14T09:36:53Z</time>
      </trkpt>
      <trkpt lat="43.74305" lon="7.25621">
        <ele>445</ele>
        <time>2020-08-14T09:36:59Z</time>
      </trkpt>
      <trkpt lat="43.74298" lon="7.25617">
        <ele>444.4</ele>
        <time>2020-08-14T09:37:04Z</time>
      </trkpt>
      <trkpt lat="43.74295" lon="7.25618">
        <ele>444.4</ele>
        <time>2020-08-14T09:37:07Z</time>
      </trkpt>
      <trkpt lat="43.74286" lon="7.25625">
        <ele>444</ele>
        <time>2020-08-14T09:37:16Z</time>
      </trkpt>
      <trkpt lat="43.74279" lon="7.2563">
        <ele>443.6</ele>
        <time>2020-08-14T09:37:22Z</time>
      </trkpt>
      <trkpt lat="43.74276" lon="7.25632">
        <ele>443.4</ele>
        <time>2020-08-14T09:37:25Z</time>
      </trkpt>
      <trkpt lat="43.74273" lon="7.25633">
        <ele>443.2</ele>
        <time>2020-08-14T09:37:27Z</time>
      </trkpt>
      <trkpt lat="43.74271" lon="7.25633">
        <ele>443</ele>
        <time>2020-08-14T09:37:29Z</time>
      </trkpt>
      <trkpt lat="43.74269" lon="7.25636">
        <ele>442.6</ele>
        <time>2020-08-14T09:37:32Z</time>
      </trkpt>
      <trkpt lat="43.74267" lon="7.25637">
        <ele>442.4</ele>
        <time>2020-08-14T09:37:34Z</time>
      </trkpt>
      <trkpt lat="43.74266" lon="7.25638">
        <ele>442.2</ele>
        <time>2020-08-14T09:37:35Z</time>
      </trkpt>
      <trkpt lat="43.74264" lon="7.25638">
        <ele>442.2</ele>
        <time>2020-08-14T09:37:37Z</time>
      </trkpt>
      <trkpt lat="43.74262" lon="7.2564">
        <ele>442.2</ele>
        <time>2020-08-14T09:37:39Z</time>
      </trkpt>
      <trkpt lat="43.7426" lon="7.25642">
        <ele>442.2</ele>
        <time>2020-08-14T09:37:40Z</time>
      </trkpt>
      <trkpt lat="43.74256" lon="7.25646">
        <ele>442.2</ele>
        <time>2020-08-14T09:37:43Z</time>
      </trkpt>
      <trkpt lat="43.74252" lon="7.25648">
        <ele>442</ele>
        <time>2020-08-14T09:37:45Z</time>
      </trkpt>
      <trkpt lat="43.74245" lon="7.25653">
        <ele>441.2</ele>
        <time>2020-08-14T09:37:51Z</time>
      </trkpt>
      <trkpt lat="43.74243" lon="7.25655">
        <ele>440.8</ele>
        <time>2020-08-14T09:37:54Z</time>
      </trkpt>
      <trkpt lat="43.74237" lon="7.25662">
        <ele>440.2</ele>
        <time>2020-08-14T09:38:00Z</time>
      </trkpt>
      <trkpt lat="43.74235" lon="7.25665">
        <ele>440.2</ele>
        <time>2020-08-14T09:38:01Z</time>
      </trkpt>
      <trkpt lat="43.74234" lon="7.25666">
        <ele>440</ele>
        <time>2020-08-14T09:38:02Z</time>
      </trkpt>
      <trkpt lat="43.7423" lon="7.2567">
        <ele>439.8</ele>
        <time>2020-08-14T09:38:06Z</time>
      </trkpt>
      <trkpt lat="43.7423" lon="7.25671">
        <ele>439.8</ele>
        <time>2020-08-14T09:38:07Z</time>
      </trkpt>
      <trkpt lat="43.74229" lon="7.2567">
        <ele>439.6</ele>
        <time>2020-08-14T09:38:09Z</time>
      </trkpt>
      <trkpt lat="43.74228" lon="7.2567">
        <ele>439.6</ele>
        <time>2020-08-14T09:38:11Z</time>
      </trkpt>
      <trkpt lat="43.74228" lon="7.25671">
        <ele>439.6</ele>
        <time>2020-08-14T09:38:13Z</time>
      </trkpt>
      <trkpt lat="43.74228" lon="7.25671">
        <ele>439.6</ele>
        <time>2020-08-14T09:38:15Z</time>
      </trkpt>
      <trkpt lat="43.74227" lon="7.25671">
        <ele>439.4</ele>
        <time>2020-08-14T09:38:16Z</time>
      </trkpt>
      <trkpt lat="43.74226" lon="7.25672">
        <ele>439.4</ele>
        <time>2020-08-14T09:38:18Z</time>
      </trkpt>
      <trkpt lat="43.74226" lon="7.25672">
        <ele>439.4</ele>
        <time>2020-08-14T09:38:20Z</time>
      </trkpt>
      <trkpt lat="43.74226" lon="7.25671">
        <ele>439.2</ele>
        <time>2020-08-14T09:38:21Z</time>
      </trkpt>
      <trkpt lat="43.74224" lon="7.25674">
        <ele>439</ele>
        <time>2020-08-14T09:38:24Z</time>
      </trkpt>
      <trkpt lat="43.74224" lon="7.25677">
        <ele>438.8</ele>
        <time>2020-08-14T09:38:27Z</time>
      </trkpt>
      <trkpt lat="43.74224" lon="7.25677">
        <ele>438.6</ele>
        <time>2020-08-14T09:38:36Z</time>
      </trkpt>
      <trkpt lat="43.74224" lon="7.25677">
        <ele>438.6</ele>
        <time>2020-08-14T09:38:42Z</time>
      </trkpt>
      <trkpt lat="43.74224" lon="7.25677">
        <ele>438.8</ele>
        <time>2020-08-14T09:38:47Z</time>
      </trkpt>
      <trkpt lat="43.74223" lon="7.25675">
        <ele>438.8</ele>
        <time>2020-08-14T09:39:05Z</time>
      </trkpt>
      <trkpt lat="43.74224" lon="7.25672">
        <ele>438.8</ele>
        <time>2020-08-14T09:39:13Z</time>
      </trkpt>
      <trkpt lat="43.74226" lon="7.25672">
        <ele>438.6</ele>
        <time>2020-08-14T09:39:24Z</time>
      </trkpt>
      <trkpt lat="43.74219" lon="7.25678">
        <ele>438.2</ele>
        <time>2020-08-14T09:39:48Z</time>
      </trkpt>
      <trkpt lat="43.74214" lon="7.25684">
        <ele>438.2</ele>
        <time>2020-08-14T09:39:52Z</time>
      </trkpt>
      <trkpt lat="43.74212" lon="7.25688">
        <ele>437.6</ele>
        <time>2020-08-14T09:39:55Z</time>
      </trkpt>
      <trkpt lat="43.74211" lon="7.25689">
        <ele>437</ele>
        <time>2020-08-14T09:39:56Z</time>
      </trkpt>
      <trkpt lat="43.74209" lon="7.25692">
        <ele>436.4</ele>
        <time>2020-08-14T09:39:58Z</time>
      </trkpt>
      <trkpt lat="43.74205" lon="7.25696">
        <ele>435.6</ele>
        <time>2020-08-14T09:40:02Z</time>
      </trkpt>
      <trkpt lat="43.74204" lon="7.25697">
        <ele>435.2</ele>
        <time>2020-08-14T09:40:03Z</time>
      </trkpt>
      <trkpt lat="43.74198" lon="7.25706">
        <ele>434.4</ele>
        <time>2020-08-14T09:40:09Z</time>
      </trkpt>
      <trkpt lat="43.74197" lon="7.25707">
        <ele>434</ele>
        <time>2020-08-14T09:40:10Z</time>
      </trkpt>
      <trkpt lat="43.74194" lon="7.25714">
        <ele>433</ele>
        <time>2020-08-14T09:40:14Z</time>
      </trkpt>
      <trkpt lat="43.74193" lon="7.25718">
        <ele>432.6</ele>
        <time>2020-08-14T09:40:16Z</time>
      </trkpt>
      <trkpt lat="43.74191" lon="7.25725">
        <ele>431.8</ele>
        <time>2020-08-14T09:40:20Z</time>
      </trkpt>
      <trkpt lat="43.74191" lon="7.25733">
        <ele>431</ele>
        <time>2020-08-14T09:40:25Z</time>
      </trkpt>
      <trkpt lat="43.7419" lon="7.25734">
        <ele>430.8</ele>
        <time>2020-08-14T09:40:26Z</time>
      </trkpt>
      <trkpt lat="43.74189" lon="7.25743">
        <ele>429.4</ele>
        <time>2020-08-14T09:40:31Z</time>
      </trkpt>
      <trkpt lat="43.74189" lon="7.25744">
        <ele>429.2</ele>
        <time>2020-08-14T09:40:32Z</time>
      </trkpt>
      <trkpt lat="43.74189" lon="7.25744">
        <ele>429.2</ele>
        <time>2020-08-14T09:40:33Z</time>
      </trkpt>
      <trkpt lat="43.74188" lon="7.25743">
        <ele>428.6</ele>
        <time>2020-08-14T09:40:37Z</time>
      </trkpt>
      <trkpt lat="43.7419" lon="7.25741">
        <ele>428.8</ele>
        <time>2020-08-14T09:40:44Z</time>
      </trkpt>
      <trkpt lat="43.74193" lon="7.25739">
        <ele>429.6</ele>
        <time>2020-08-14T09:40:50Z</time>
      </trkpt>
      <trkpt lat="43.74194" lon="7.25738">
        <ele>429.8</ele>
        <time>2020-08-14T09:40:53Z</time>
      </trkpt>
      <trkpt lat="43.74192" lon="7.2574">
        <ele>429.8</ele>
        <time>2020-08-14T09:40:55Z</time>
      </trkpt>
      <trkpt lat="43.74192" lon="7.2574">
        <ele>429.8</ele>
        <time>2020-08-14T09:40:56Z</time>
      </trkpt>
      <trkpt lat="43.74189" lon="7.25744">
        <ele>429.2</ele>
        <time>2020-08-14T09:41:00Z</time>
      </trkpt>
      <trkpt lat="43.74189" lon="7.25748">
        <ele>428.6</ele>
        <time>2020-08-14T09:41:03Z</time>
      </trkpt>
      <trkpt lat="43.74191" lon="7.25751">
        <ele>428.4</ele>
        <time>2020-08-14T09:41:05Z</time>
      </trkpt>
      <trkpt lat="43.74192" lon="7.25758">
        <ele>427.8</ele>
        <time>2020-08-14T09:41:09Z</time>
      </trkpt>
      <trkpt lat="43.74197" lon="7.25771">
        <ele>427.4</ele>
        <time>2020-08-14T09:41:16Z</time>
      </trkpt>
      <trkpt lat="43.74198" lon="7.25775">
        <ele>427</ele>
        <time>2020-08-14T09:41:18Z</time>
      </trkpt>
      <trkpt lat="43.74199" lon="7.2578">
        <ele>426.4</ele>
        <time>2020-08-14T09:41:21Z</time>
      </trkpt>
      <trkpt lat="43.742" lon="7.25783">
        <ele>425.8</ele>
        <time>2020-08-14T09:41:23Z</time>
      </trkpt>
      <trkpt lat="43.74202" lon="7.25786">
        <ele>425.4</ele>
        <time>2020-08-14T09:41:25Z</time>
      </trkpt>
      <trkpt lat="43.74204" lon="7.25788">
        <ele>425.2</ele>
        <time>2020-08-14T09:41:27Z</time>
      </trkpt>
      <trkpt lat="43.74207" lon="7.25792">
        <ele>425.2</ele>
        <time>2020-08-14T09:41:30Z</time>
      </trkpt>
      <trkpt lat="43.74207" lon="7.25794">
        <ele>425</ele>
        <time>2020-08-14T09:41:31Z</time>
      </trkpt>
      <trkpt lat="43.74213" lon="7.25801">
        <ele>424.8</ele>
        <time>2020-08-14T09:41:37Z</time>
      </trkpt>
      <trkpt lat="43.74213" lon="7.25803">
        <ele>424.8</ele>
        <time>2020-08-14T09:41:38Z</time>
      </trkpt>
      <trkpt lat="43.74218" lon="7.2581">
        <ele>424.4</ele>
        <time>2020-08-14T09:41:43Z</time>
      </trkpt>
      <trkpt lat="43.7422" lon="7.25813">
        <ele>424.2</ele>
        <time>2020-08-14T09:41:45Z</time>
      </trkpt>
      <trkpt lat="43.74221" lon="7.25814">
        <ele>424.2</ele>
        <time>2020-08-14T09:41:46Z</time>
      </trkpt>
      <trkpt lat="43.74222" lon="7.25815">
        <ele>424.2</ele>
        <time>2020-08-14T09:41:47Z</time>
      </trkpt>
      <trkpt lat="43.74223" lon="7.25817">
        <ele>424</ele>
        <time>2020-08-14T09:41:49Z</time>
      </trkpt>
      <trkpt lat="43.74227" lon="7.25821">
        <ele>424</ele>
        <time>2020-08-14T09:41:53Z</time>
      </trkpt>
      <trkpt lat="43.74233" lon="7.25828">
        <ele>423</ele>
        <time>2020-08-14T09:41:58Z</time>
      </trkpt>
      <trkpt lat="43.74239" lon="7.25834">
        <ele>422</ele>
        <time>2020-08-14T09:42:04Z</time>
      </trkpt>
      <trkpt lat="43.74242" lon="7.25839">
        <ele>421.4</ele>
        <time>2020-08-14T09:42:07Z</time>
      </trkpt>
      <trkpt lat="43.74244" lon="7.25844">
        <ele>420.8</ele>
        <time>2020-08-14T09:42:10Z</time>
      </trkpt>
      <trkpt lat="43.74246" lon="7.25847">
        <ele>420.6</ele>
        <time>2020-08-14T09:42:12Z</time>
      </trkpt>
      <trkpt lat="43.74249" lon="7.2585">
        <ele>420.2</ele>
        <time>2020-08-14T09:42:15Z</time>
      </trkpt>
      <trkpt lat="43.74251" lon="7.25851">
        <ele>419.6</ele>
        <time>2020-08-14T09:42:17Z</time>
      </trkpt>
      <trkpt lat="43.74252" lon="7.25852">
        <ele>419.4</ele>
        <time>2020-08-14T09:42:18Z</time>
      </trkpt>
      <trkpt lat="43.74259" lon="7.25855">
        <ele>418.6</ele>
        <time>2020-08-14T09:42:23Z</time>
      </trkpt>
      <trkpt lat="43.74265" lon="7.25858">
        <ele>417.8</ele>
        <time>2020-08-14T09:42:27Z</time>
      </trkpt>
      <trkpt lat="43.74266" lon="7.25859">
        <ele>417.6</ele>
        <time>2020-08-14T09:42:28Z</time>
      </trkpt>
      <trkpt lat="43.74267" lon="7.2586">
        <ele>417.4</ele>
        <time>2020-08-14T09:42:29Z</time>
      </trkpt>
      <trkpt lat="43.74274" lon="7.25866">
        <ele>416.2</ele>
        <time>2020-08-14T09:42:35Z</time>
      </trkpt>
      <trkpt lat="43.7428" lon="7.25872">
        <ele>415</ele>
        <time>2020-08-14T09:42:41Z</time>
      </trkpt>
      <trkpt lat="43.74281" lon="7.25873">
        <ele>415</ele>
        <time>2020-08-14T09:42:42Z</time>
      </trkpt>
      <trkpt lat="43.74288" lon="7.25878">
        <ele>414</ele>
        <time>2020-08-14T09:42:47Z</time>
      </trkpt>
      <trkpt lat="43.7429" lon="7.25881">
        <ele>413.8</ele>
        <time>2020-08-14T09:42:49Z</time>
      </trkpt>
      <trkpt lat="43.74293" lon="7.25893">
        <ele>413</ele>
        <time>2020-08-14T09:42:56Z</time>
      </trkpt>
      <trkpt lat="43.74289" lon="7.25904">
        <ele>411.8</ele>
        <time>2020-08-14T09:43:02Z</time>
      </trkpt>
      <trkpt lat="43.74288" lon="7.25909">
        <ele>411.4</ele>
        <time>2020-08-14T09:43:05Z</time>
      </trkpt>
      <trkpt lat="43.74287" lon="7.25916">
        <ele>410.8</ele>
        <time>2020-08-14T09:43:08Z</time>
      </trkpt>
      <trkpt lat="43.74288" lon="7.25918">
        <ele>410.8</ele>
        <time>2020-08-14T09:43:09Z</time>
      </trkpt>
      <trkpt lat="43.74288" lon="7.25923">
        <ele>410.2</ele>
        <time>2020-08-14T09:43:12Z</time>
      </trkpt>
      <trkpt lat="43.74288" lon="7.25928">
        <ele>409.8</ele>
        <time>2020-08-14T09:43:15Z</time>
      </trkpt>
      <trkpt lat="43.74289" lon="7.2593">
        <ele>409.6</ele>
        <time>2020-08-14T09:43:16Z</time>
      </trkpt>
      <trkpt lat="43.74289" lon="7.25939">
        <ele>408.8</ele>
        <time>2020-08-14T09:43:21Z</time>
      </trkpt>
      <trkpt lat="43.74289" lon="7.25942">
        <ele>408.6</ele>
        <time>2020-08-14T09:43:23Z</time>
      </trkpt>
      <trkpt lat="43.74289" lon="7.25946">
        <ele>408.2</ele>
        <time>2020-08-14T09:43:25Z</time>
      </trkpt>
      <trkpt lat="43.7429" lon="7.25949">
        <ele>408</ele>
        <time>2020-08-14T09:43:27Z</time>
      </trkpt>
      <trkpt lat="43.74291" lon="7.25954">
        <ele>407.6</ele>
        <time>2020-08-14T09:43:30Z</time>
      </trkpt>
      <trkpt lat="43.74296" lon="7.25966">
        <ele>407</ele>
        <time>2020-08-14T09:43:37Z</time>
      </trkpt>
      <trkpt lat="43.74298" lon="7.25976">
        <ele>406.6</ele>
        <time>2020-08-14T09:43:43Z</time>
      </trkpt>
      <trkpt lat="43.74298" lon="7.25979">
        <ele>406.4</ele>
        <time>2020-08-14T09:43:45Z</time>
      </trkpt>
      <trkpt lat="43.743" lon="7.25983">
        <ele>406.2</ele>
        <time>2020-08-14T09:43:47Z</time>
      </trkpt>
      <trkpt lat="43.74303" lon="7.25993">
        <ele>406</ele>
        <time>2020-08-14T09:43:53Z</time>
      </trkpt>
      <trkpt lat="43.74304" lon="7.25995">
        <ele>405.8</ele>
        <time>2020-08-14T09:43:54Z</time>
      </trkpt>
      <trkpt lat="43.74306" lon="7.26003">
        <ele>405.6</ele>
        <time>2020-08-14T09:43:59Z</time>
      </trkpt>
      <trkpt lat="43.74308" lon="7.26007">
        <ele>405.2</ele>
        <time>2020-08-14T09:44:03Z</time>
      </trkpt>
      <trkpt lat="43.74309" lon="7.26008">
        <ele>405.4</ele>
        <time>2020-08-14T09:44:05Z</time>
      </trkpt>
      <trkpt lat="43.74308" lon="7.26009">
        <ele>405.4</ele>
        <time>2020-08-14T09:44:10Z</time>
      </trkpt>
      <trkpt lat="43.74308" lon="7.26009">
        <ele>405.2</ele>
        <time>2020-08-14T09:44:12Z</time>
      </trkpt>
      <trkpt lat="43.74307" lon="7.26009">
        <ele>405.2</ele>
        <time>2020-08-14T09:44:15Z</time>
      </trkpt>
      <trkpt lat="43.74307" lon="7.2601">
        <ele>405.2</ele>
        <time>2020-08-14T09:44:21Z</time>
      </trkpt>
      <trkpt lat="43.74307" lon="7.2601">
        <ele>405.2</ele>
        <time>2020-08-14T09:44:31Z</time>
      </trkpt>
      <trkpt lat="43.74307" lon="7.26015">
        <ele>405</ele>
        <time>2020-08-14T09:45:03Z</time>
      </trkpt>
      <trkpt lat="43.74307" lon="7.26017">
        <ele>405.2</ele>
        <time>2020-08-14T09:45:04Z</time>
      </trkpt>
      <trkpt lat="43.7431" lon="7.26032">
        <ele>404.8</ele>
        <time>2020-08-14T09:45:11Z</time>
      </trkpt>
      <trkpt lat="43.74314" lon="7.26042">
        <ele>404.6</ele>
        <time>2020-08-14T09:45:16Z</time>
      </trkpt>
      <trkpt lat="43.74315" lon="7.26045">
        <ele>404.4</ele>
        <time>2020-08-14T09:45:18Z</time>
      </trkpt>
      <trkpt lat="43.7432" lon="7.26061">
        <ele>404.4</ele>
        <time>2020-08-14T09:45:27Z</time>
      </trkpt>
      <trkpt lat="43.74323" lon="7.26071">
        <ele>404.2</ele>
        <time>2020-08-14T09:45:32Z</time>
      </trkpt>
      <trkpt lat="43.74326" lon="7.26081">
        <ele>404</ele>
        <time>2020-08-14T09:45:37Z</time>
      </trkpt>
      <trkpt lat="43.7433" lon="7.26095">
        <ele>403.6</ele>
        <time>2020-08-14T09:45:44Z</time>
      </trkpt>
      <trkpt lat="43.7433" lon="7.26097">
        <ele>403.4</ele>
        <time>2020-08-14T09:45:45Z</time>
      </trkpt>
      <trkpt lat="43.74335" lon="7.26111">
        <ele>403.2</ele>
        <time>2020-08-14T09:45:54Z</time>
      </trkpt>
      <trkpt lat="43.7434" lon="7.26131">
        <ele>402.6</ele>
        <time>2020-08-14T09:46:04Z</time>
      </trkpt>
      <trkpt lat="43.74341" lon="7.26138">
        <ele>402.4</ele>
        <time>2020-08-14T09:46:07Z</time>
      </trkpt>
      <trkpt lat="43.74345" lon="7.26152">
        <ele>401.2</ele>
        <time>2020-08-14T09:46:14Z</time>
      </trkpt>
      <trkpt lat="43.7435" lon="7.26162">
        <ele>400.2</ele>
        <time>2020-08-14T09:46:20Z</time>
      </trkpt>
      <trkpt lat="43.74352" lon="7.26169">
        <ele>399.8</ele>
        <time>2020-08-14T09:46:23Z</time>
      </trkpt>
      <trkpt lat="43.74356" lon="7.26177">
        <ele>399.2</ele>
        <time>2020-08-14T09:46:27Z</time>
      </trkpt>
      <trkpt lat="43.7436" lon="7.26189">
        <ele>398.2</ele>
        <time>2020-08-14T09:46:33Z</time>
      </trkpt>
      <trkpt lat="43.74361" lon="7.26191">
        <ele>398.2</ele>
        <time>2020-08-14T09:46:34Z</time>
      </trkpt>
      <trkpt lat="43.74366" lon="7.26202">
        <ele>397.2</ele>
        <time>2020-08-14T09:46:41Z</time>
      </trkpt>
      <trkpt lat="43.74367" lon="7.26204">
        <ele>397</ele>
        <time>2020-08-14T09:46:42Z</time>
      </trkpt>
      <trkpt lat="43.7437" lon="7.26214">
        <ele>395.8</ele>
        <time>2020-08-14T09:46:49Z</time>
      </trkpt>
      <trkpt lat="43.7437" lon="7.26216">
        <ele>395.8</ele>
        <time>2020-08-14T09:46:50Z</time>
      </trkpt>
      <trkpt lat="43.74373" lon="7.26224">
        <ele>394.8</ele>
        <time>2020-08-14T09:46:55Z</time>
      </trkpt>
      <trkpt lat="43.74374" lon="7.26228">
        <ele>394.4</ele>
        <time>2020-08-14T09:46:58Z</time>
      </trkpt>
      <trkpt lat="43.74376" lon="7.26234">
        <ele>393.8</ele>
        <time>2020-08-14T09:47:02Z</time>
      </trkpt>
      <trkpt lat="43.7438" lon="7.26244">
        <ele>392.6</ele>
        <time>2020-08-14T09:47:08Z</time>
      </trkpt>
      <trkpt lat="43.74381" lon="7.26246">
        <ele>392.4</ele>
        <time>2020-08-14T09:47:09Z</time>
      </trkpt>
      <trkpt lat="43.74381" lon="7.26256">
        <ele>391.6</ele>
        <time>2020-08-14T09:47:14Z</time>
      </trkpt>
      <trkpt lat="43.74381" lon="7.26259">
        <ele>391.4</ele>
        <time>2020-08-14T09:47:15Z</time>
      </trkpt>
      <trkpt lat="43.74381" lon="7.26261">
        <ele>391.2</ele>
        <time>2020-08-14T09:47:16Z</time>
      </trkpt>
      <trkpt lat="43.74378" lon="7.26272">
        <ele>390.2</ele>
        <time>2020-08-14T09:47:21Z</time>
      </trkpt>
      <trkpt lat="43.74376" lon="7.26276">
        <ele>389.8</ele>
        <time>2020-08-14T09:47:23Z</time>
      </trkpt>
      <trkpt lat="43.74373" lon="7.26283">
        <ele>389.2</ele>
        <time>2020-08-14T09:47:27Z</time>
      </trkpt>
      <trkpt lat="43.7437" lon="7.26293">
        <ele>388.4</ele>
        <time>2020-08-14T09:47:32Z</time>
      </trkpt>
      <trkpt lat="43.74369" lon="7.26297">
        <ele>388</ele>
        <time>2020-08-14T09:47:34Z</time>
      </trkpt>
      <trkpt lat="43.74365" lon="7.26304">
        <ele>387.4</ele>
        <time>2020-08-14T09:47:38Z</time>
      </trkpt>
      <trkpt lat="43.74364" lon="7.26308">
        <ele>387</ele>
        <time>2020-08-14T09:47:40Z</time>
      </trkpt>
      <trkpt lat="43.74358" lon="7.26321">
        <ele>386</ele>
        <time>2020-08-14T09:47:47Z</time>
      </trkpt>
      <trkpt lat="43.74354" lon="7.26331">
        <ele>385</ele>
        <time>2020-08-14T09:47:53Z</time>
      </trkpt>
      <trkpt lat="43.74351" lon="7.26334">
        <ele>384.6</ele>
        <time>2020-08-14T09:47:56Z</time>
      </trkpt>
      <trkpt lat="43.74344" lon="7.26337">
        <ele>383.8</ele>
        <time>2020-08-14T09:48:00Z</time>
      </trkpt>
      <trkpt lat="43.7434" lon="7.26338">
        <ele>383.6</ele>
        <time>2020-08-14T09:48:03Z</time>
      </trkpt>
      <trkpt lat="43.74332" lon="7.26341">
        <ele>382.8</ele>
        <time>2020-08-14T09:48:09Z</time>
      </trkpt>
      <trkpt lat="43.7433" lon="7.26343">
        <ele>382.6</ele>
        <time>2020-08-14T09:48:11Z</time>
      </trkpt>
      <trkpt lat="43.74324" lon="7.26347">
        <ele>381.8</ele>
        <time>2020-08-14T09:48:16Z</time>
      </trkpt>
      <trkpt lat="43.74318" lon="7.26349">
        <ele>380.8</ele>
        <time>2020-08-14T09:48:21Z</time>
      </trkpt>
      <trkpt lat="43.74317" lon="7.26349">
        <ele>380.4</ele>
        <time>2020-08-14T09:48:22Z</time>
      </trkpt>
      <trkpt lat="43.74309" lon="7.26354">
        <ele>379.6</ele>
        <time>2020-08-14T09:48:27Z</time>
      </trkpt>
      <trkpt lat="43.74303" lon="7.26355">
        <ele>379.2</ele>
        <time>2020-08-14T09:48:31Z</time>
      </trkpt>
      <trkpt lat="43.74297" lon="7.26355">
        <ele>378.6</ele>
        <time>2020-08-14T09:48:35Z</time>
      </trkpt>
      <trkpt lat="43.74288" lon="7.26356">
        <ele>377.8</ele>
        <time>2020-08-14T09:48:40Z</time>
      </trkpt>
      <trkpt lat="43.74287" lon="7.26357">
        <ele>377.4</ele>
        <time>2020-08-14T09:48:41Z</time>
      </trkpt>
      <trkpt lat="43.74275" lon="7.26361">
        <ele>376.4</ele>
        <time>2020-08-14T09:48:49Z</time>
      </trkpt>
      <trkpt lat="43.74274" lon="7.26361">
        <ele>376.2</ele>
        <time>2020-08-14T09:48:50Z</time>
      </trkpt>
      <trkpt lat="43.74264" lon="7.26362">
        <ele>375.2</ele>
        <time>2020-08-14T09:48:56Z</time>
      </trkpt>
      <trkpt lat="43.74263" lon="7.26362">
        <ele>375</ele>
        <time>2020-08-14T09:48:57Z</time>
      </trkpt>
      <trkpt lat="43.74257" lon="7.26362">
        <ele>374.2</ele>
        <time>2020-08-14T09:49:02Z</time>
      </trkpt>
      <trkpt lat="43.74255" lon="7.26363">
        <ele>373.8</ele>
        <time>2020-08-14T09:49:04Z</time>
      </trkpt>
      <trkpt lat="43.74254" lon="7.26364">
        <ele>373.6</ele>
        <time>2020-08-14T09:49:05Z</time>
      </trkpt>
      <trkpt lat="43.74249" lon="7.26365">
        <ele>373</ele>
        <time>2020-08-14T09:49:08Z</time>
      </trkpt>
      <trkpt lat="43.74244" lon="7.26364">
        <ele>372.4</ele>
        <time>2020-08-14T09:49:13Z</time>
      </trkpt>
      <trkpt lat="43.74241" lon="7.26363">
        <ele>372</ele>
        <time>2020-08-14T09:49:15Z</time>
      </trkpt>
      <trkpt lat="43.74234" lon="7.26363">
        <ele>371.2</ele>
        <time>2020-08-14T09:49:21Z</time>
      </trkpt>
      <trkpt lat="43.74232" lon="7.26363">
        <ele>370.8</ele>
        <time>2020-08-14T09:49:23Z</time>
      </trkpt>
      <trkpt lat="43.74223" lon="7.26365">
        <ele>369.8</ele>
        <time>2020-08-14T09:49:29Z</time>
      </trkpt>
      <trkpt lat="43.74216" lon="7.26366">
        <ele>368.8</ele>
        <time>2020-08-14T09:49:35Z</time>
      </trkpt>
      <trkpt lat="43.74211" lon="7.26368">
        <ele>368</ele>
        <time>2020-08-14T09:49:39Z</time>
      </trkpt>
      <trkpt lat="43.74209" lon="7.26369">
        <ele>367.8</ele>
        <time>2020-08-14T09:49:41Z</time>
      </trkpt>
      <trkpt lat="43.74202" lon="7.26371">
        <ele>367.2</ele>
        <time>2020-08-14T09:49:47Z</time>
      </trkpt>
      <trkpt lat="43.74198" lon="7.26372">
        <ele>366.8</ele>
        <time>2020-08-14T09:49:50Z</time>
      </trkpt>
      <trkpt lat="43.74188" lon="7.26373">
        <ele>365.6</ele>
        <time>2020-08-14T09:49:57Z</time>
      </trkpt>
      <trkpt lat="43.7418" lon="7.26373">
        <ele>364.6</ele>
        <time>2020-08-14T09:50:03Z</time>
      </trkpt>
      <trkpt lat="43.74179" lon="7.26372">
        <ele>364.6</ele>
        <time>2020-08-14T09:50:04Z</time>
      </trkpt>
      <trkpt lat="43.74173" lon="7.26371">
        <ele>364</ele>
        <time>2020-08-14T09:50:08Z</time>
      </trkpt>
      <trkpt lat="43.74168" lon="7.26369">
        <ele>363.4</ele>
        <time>2020-08-14T09:50:11Z</time>
      </trkpt>
      <trkpt lat="43.74161" lon="7.26366">
        <ele>362.4</ele>
        <time>2020-08-14T09:50:16Z</time>
      </trkpt>
      <trkpt lat="43.74157" lon="7.26363">
        <ele>361.8</ele>
        <time>2020-08-14T09:50:19Z</time>
      </trkpt>
      <trkpt lat="43.74152" lon="7.26359">
        <ele>361.4</ele>
        <time>2020-08-14T09:50:23Z</time>
      </trkpt>
      <trkpt lat="43.74149" lon="7.26356">
        <ele>361.2</ele>
        <time>2020-08-14T09:50:25Z</time>
      </trkpt>
      <trkpt lat="43.74142" lon="7.26349">
        <ele>360.4</ele>
        <time>2020-08-14T09:50:31Z</time>
      </trkpt>
      <trkpt lat="43.74141" lon="7.26348">
        <ele>360.4</ele>
        <time>2020-08-14T09:50:32Z</time>
      </trkpt>
      <trkpt lat="43.74137" lon="7.2634">
        <ele>359.8</ele>
        <time>2020-08-14T09:50:36Z</time>
      </trkpt>
      <trkpt lat="43.74134" lon="7.26335">
        <ele>359.6</ele>
        <time>2020-08-14T09:50:39Z</time>
      </trkpt>
      <trkpt lat="43.74129" lon="7.26327">
        <ele>359.8</ele>
        <time>2020-08-14T09:50:44Z</time>
      </trkpt>
      <trkpt lat="43.74127" lon="7.26322">
        <ele>359.4</ele>
        <time>2020-08-14T09:50:47Z</time>
      </trkpt>
      <trkpt lat="43.74122" lon="7.26315">
        <ele>358.8</ele>
        <time>2020-08-14T09:50:51Z</time>
      </trkpt>
      <trkpt lat="43.74119" lon="7.26311">
        <ele>358.2</ele>
        <time>2020-08-14T09:50:54Z</time>
      </trkpt>
      <trkpt lat="43.74114" lon="7.26303">
        <ele>357.2</ele>
        <time>2020-08-14T09:50:59Z</time>
      </trkpt>
      <trkpt lat="43.74106" lon="7.26294">
        <ele>356.4</ele>
        <time>2020-08-14T09:51:06Z</time>
      </trkpt>
      <trkpt lat="43.74103" lon="7.2629">
        <ele>356.2</ele>
        <time>2020-08-14T09:51:09Z</time>
      </trkpt>
      <trkpt lat="43.74099" lon="7.26287">
        <ele>355.8</ele>
        <time>2020-08-14T09:51:12Z</time>
      </trkpt>
      <trkpt lat="43.74097" lon="7.26285">
        <ele>355.4</ele>
        <time>2020-08-14T09:51:14Z</time>
      </trkpt>
      <trkpt lat="43.74094" lon="7.26284">
        <ele>355</ele>
        <time>2020-08-14T09:51:16Z</time>
      </trkpt>
      <trkpt lat="43.74088" lon="7.26281">
        <ele>353.8</ele>
        <time>2020-08-14T09:51:21Z</time>
      </trkpt>
      <trkpt lat="43.74087" lon="7.2628">
        <ele>353.4</ele>
        <time>2020-08-14T09:51:22Z</time>
      </trkpt>
      <trkpt lat="43.74082" lon="7.2628">
        <ele>352.6</ele>
        <time>2020-08-14T09:51:25Z</time>
      </trkpt>
      <trkpt lat="43.74075" lon="7.26277">
        <ele>351.6</ele>
        <time>2020-08-14T09:51:30Z</time>
      </trkpt>
      <trkpt lat="43.74062" lon="7.26274">
        <ele>350.4</ele>
        <time>2020-08-14T09:51:37Z</time>
      </trkpt>
      <trkpt lat="43.7406" lon="7.26273">
        <ele>350.2</ele>
        <time>2020-08-14T09:51:38Z</time>
      </trkpt>
      <trkpt lat="43.74055" lon="7.26272">
        <ele>349.4</ele>
        <time>2020-08-14T09:51:41Z</time>
      </trkpt>
      <trkpt lat="43.74047" lon="7.26265">
        <ele>348.6</ele>
        <time>2020-08-14T09:51:47Z</time>
      </trkpt>
      <trkpt lat="43.74044" lon="7.26265">
        <ele>348.2</ele>
        <time>2020-08-14T09:51:49Z</time>
      </trkpt>
      <trkpt lat="43.7404" lon="7.26263">
        <ele>347.8</ele>
        <time>2020-08-14T09:51:52Z</time>
      </trkpt>
      <trkpt lat="43.74036" lon="7.2626">
        <ele>347.4</ele>
        <time>2020-08-14T09:51:56Z</time>
      </trkpt>
      <trkpt lat="43.74034" lon="7.2626">
        <ele>347.2</ele>
        <time>2020-08-14T09:51:57Z</time>
      </trkpt>
      <trkpt lat="43.7403" lon="7.26258">
        <ele>346.8</ele>
        <time>2020-08-14T09:52:00Z</time>
      </trkpt>
      <trkpt lat="43.74023" lon="7.26256">
        <ele>346.2</ele>
        <time>2020-08-14T09:52:05Z</time>
      </trkpt>
      <trkpt lat="43.74011" lon="7.26251">
        <ele>345.2</ele>
        <time>2020-08-14T09:52:14Z</time>
      </trkpt>
      <trkpt lat="43.7401" lon="7.26252">
        <ele>345</ele>
        <time>2020-08-14T09:52:15Z</time>
      </trkpt>
      <trkpt lat="43.74004" lon="7.26252">
        <ele>344.2</ele>
        <time>2020-08-14T09:52:20Z</time>
      </trkpt>
      <trkpt lat="43.74001" lon="7.26252">
        <ele>344</ele>
        <time>2020-08-14T09:52:22Z</time>
      </trkpt>
      <trkpt lat="43.73997" lon="7.26252">
        <ele>343.8</ele>
        <time>2020-08-14T09:52:25Z</time>
      </trkpt>
      <trkpt lat="43.73991" lon="7.26255">
        <ele>343</ele>
        <time>2020-08-14T09:52:30Z</time>
      </trkpt>
      <trkpt lat="43.73983" lon="7.26257">
        <ele>341.8</ele>
        <time>2020-08-14T09:52:36Z</time>
      </trkpt>
      <trkpt lat="43.73977" lon="7.26259">
        <ele>340.6</ele>
        <time>2020-08-14T09:52:41Z</time>
      </trkpt>
      <trkpt lat="43.73968" lon="7.26261">
        <ele>339.4</ele>
        <time>2020-08-14T09:52:47Z</time>
      </trkpt>
      <trkpt lat="43.73963" lon="7.26262">
        <ele>339</ele>
        <time>2020-08-14T09:52:50Z</time>
      </trkpt>
      <trkpt lat="43.73959" lon="7.26265">
        <ele>338.4</ele>
        <time>2020-08-14T09:52:53Z</time>
      </trkpt>
      <trkpt lat="43.7395" lon="7.26266">
        <ele>337.4</ele>
        <time>2020-08-14T09:52:59Z</time>
      </trkpt>
      <trkpt lat="43.73948" lon="7.26266">
        <ele>337.4</ele>
        <time>2020-08-14T09:53:00Z</time>
      </trkpt>
      <trkpt lat="43.73939" lon="7.26268">
        <ele>336.2</ele>
        <time>2020-08-14T09:53:05Z</time>
      </trkpt>
      <trkpt lat="43.73938" lon="7.26269">
        <ele>335.8</ele>
        <time>2020-08-14T09:53:06Z</time>
      </trkpt>
      <trkpt lat="43.73935" lon="7.2627">
        <ele>335.2</ele>
        <time>2020-08-14T09:53:08Z</time>
      </trkpt>
      <trkpt lat="43.73933" lon="7.2627">
        <ele>334.8</ele>
        <time>2020-08-14T09:53:10Z</time>
      </trkpt>
      <trkpt lat="43.73929" lon="7.2627">
        <ele>334.4</ele>
        <time>2020-08-14T09:53:13Z</time>
      </trkpt>
      <trkpt lat="43.73928" lon="7.2627">
        <ele>334.2</ele>
        <time>2020-08-14T09:53:14Z</time>
      </trkpt>
      <trkpt lat="43.73918" lon="7.26269">
        <ele>333</ele>
        <time>2020-08-14T09:53:20Z</time>
      </trkpt>
      <trkpt lat="43.73915" lon="7.26269">
        <ele>332.6</ele>
        <time>2020-08-14T09:53:22Z</time>
      </trkpt>
      <trkpt lat="43.73912" lon="7.2627">
        <ele>331.8</ele>
        <time>2020-08-14T09:53:24Z</time>
      </trkpt>
      <trkpt lat="43.7391" lon="7.2627">
        <ele>330.8</ele>
        <time>2020-08-14T09:53:26Z</time>
      </trkpt>
      <trkpt lat="43.73905" lon="7.26269">
        <ele>330</ele>
        <time>2020-08-14T09:53:29Z</time>
      </trkpt>
      <trkpt lat="43.73902" lon="7.26268">
        <ele>329.6</ele>
        <time>2020-08-14T09:53:31Z</time>
      </trkpt>
      <trkpt lat="43.739" lon="7.26267">
        <ele>329.4</ele>
        <time>2020-08-14T09:53:32Z</time>
      </trkpt>
      <trkpt lat="43.73894" lon="7.26266">
        <ele>328.4</ele>
        <time>2020-08-14T09:53:36Z</time>
      </trkpt>
      <trkpt lat="43.73885" lon="7.26265">
        <ele>327.4</ele>
        <time>2020-08-14T09:53:43Z</time>
      </trkpt>
      <trkpt lat="43.73884" lon="7.26265">
        <ele>327.2</ele>
        <time>2020-08-14T09:53:44Z</time>
      </trkpt>
      <trkpt lat="43.7388" lon="7.26265">
        <ele>326.2</ele>
        <time>2020-08-14T09:53:47Z</time>
      </trkpt>
      <trkpt lat="43.73877" lon="7.26265">
        <ele>325</ele>
        <time>2020-08-14T09:53:49Z</time>
      </trkpt>
      <trkpt lat="43.73871" lon="7.26264">
        <ele>324</ele>
        <time>2020-08-14T09:53:53Z</time>
      </trkpt>
      <trkpt lat="43.73866" lon="7.26265">
        <ele>323.6</ele>
        <time>2020-08-14T09:53:56Z</time>
      </trkpt>
      <trkpt lat="43.7386" lon="7.26266">
        <ele>322.8</ele>
        <time>2020-08-14T09:54:00Z</time>
      </trkpt>
      <trkpt lat="43.73853" lon="7.26267">
        <ele>321.8</ele>
        <time>2020-08-14T09:54:05Z</time>
      </trkpt>
      <trkpt lat="43.73847" lon="7.26268">
        <ele>320.6</ele>
        <time>2020-08-14T09:54:10Z</time>
      </trkpt>
      <trkpt lat="43.73842" lon="7.26269">
        <ele>319.4</ele>
        <time>2020-08-14T09:54:14Z</time>
      </trkpt>
      <trkpt lat="43.73837" lon="7.26271">
        <ele>318.6</ele>
        <time>2020-08-14T09:54:17Z</time>
      </trkpt>
      <trkpt lat="43.73836" lon="7.26272">
        <ele>318.2</ele>
        <time>2020-08-14T09:54:18Z</time>
      </trkpt>
      <trkpt lat="43.73828" lon="7.26275">
        <ele>317</ele>
        <time>2020-08-14T09:54:23Z</time>
      </trkpt>
      <trkpt lat="43.73823" lon="7.26277">
        <ele>316.4</ele>
        <time>2020-08-14T09:54:26Z</time>
      </trkpt>
      <trkpt lat="43.7382" lon="7.2628">
        <ele>315.8</ele>
        <time>2020-08-14T09:54:28Z</time>
      </trkpt>
      <trkpt lat="43.73812" lon="7.26285">
        <ele>315</ele>
        <time>2020-08-14T09:54:34Z</time>
      </trkpt>
      <trkpt lat="43.73809" lon="7.26286">
        <ele>314.6</ele>
        <time>2020-08-14T09:54:36Z</time>
      </trkpt>
      <trkpt lat="43.73802" lon="7.26288">
        <ele>313.4</ele>
        <time>2020-08-14T09:54:41Z</time>
      </trkpt>
      <trkpt lat="43.73794" lon="7.26289">
        <ele>312.2</ele>
        <time>2020-08-14T09:54:47Z</time>
      </trkpt>
      <trkpt lat="43.7379" lon="7.26288">
        <ele>311</ele>
        <time>2020-08-14T09:54:49Z</time>
      </trkpt>
      <trkpt lat="43.73787" lon="7.26286">
        <ele>310</ele>
        <time>2020-08-14T09:54:52Z</time>
      </trkpt>
      <trkpt lat="43.73783" lon="7.26287">
        <ele>309.2</ele>
        <time>2020-08-14T09:54:55Z</time>
      </trkpt>
      <trkpt lat="43.73781" lon="7.26287">
        <ele>308.8</ele>
        <time>2020-08-14T09:54:56Z</time>
      </trkpt>
      <trkpt lat="43.73773" lon="7.26287">
        <ele>307.8</ele>
        <time>2020-08-14T09:55:01Z</time>
      </trkpt>
      <trkpt lat="43.73766" lon="7.26286">
        <ele>307</ele>
        <time>2020-08-14T09:55:05Z</time>
      </trkpt>
      <trkpt lat="43.73764" lon="7.26286">
        <ele>306.8</ele>
        <time>2020-08-14T09:55:07Z</time>
      </trkpt>
      <trkpt lat="43.73756" lon="7.26284">
        <ele>305.6</ele>
        <time>2020-08-14T09:55:12Z</time>
      </trkpt>
      <trkpt lat="43.73754" lon="7.26283">
        <ele>305.4</ele>
        <time>2020-08-14T09:55:14Z</time>
      </trkpt>
      <trkpt lat="43.73751" lon="7.26283">
        <ele>304.6</ele>
        <time>2020-08-14T09:55:17Z</time>
      </trkpt>
      <trkpt lat="43.73746" lon="7.26282">
        <ele>303.6</ele>
        <time>2020-08-14T09:55:21Z</time>
      </trkpt>
      <trkpt lat="43.73745" lon="7.26282">
        <ele>303.4</ele>
        <time>2020-08-14T09:55:22Z</time>
      </trkpt>
      <trkpt lat="43.73739" lon="7.26283">
        <ele>302.4</ele>
        <time>2020-08-14T09:55:26Z</time>
      </trkpt>
      <trkpt lat="43.73735" lon="7.26283">
        <ele>301.2</ele>
        <time>2020-08-14T09:55:29Z</time>
      </trkpt>
      <trkpt lat="43.73732" lon="7.26283">
        <ele>300.6</ele>
        <time>2020-08-14T09:55:31Z</time>
      </trkpt>
      <trkpt lat="43.73727" lon="7.26283">
        <ele>300</ele>
        <time>2020-08-14T09:55:34Z</time>
      </trkpt>
      <trkpt lat="43.73721" lon="7.26283">
        <ele>299</ele>
        <time>2020-08-14T09:55:38Z</time>
      </trkpt>
      <trkpt lat="43.7372" lon="7.26282">
        <ele>298.8</ele>
        <time>2020-08-14T09:55:39Z</time>
      </trkpt>
      <trkpt lat="43.73715" lon="7.26281">
        <ele>297.8</ele>
        <time>2020-08-14T09:55:42Z</time>
      </trkpt>
      <trkpt lat="43.73706" lon="7.26281">
        <ele>296.8</ele>
        <time>2020-08-14T09:55:48Z</time>
      </trkpt>
      <trkpt lat="43.73704" lon="7.26281">
        <ele>296.6</ele>
        <time>2020-08-14T09:55:49Z</time>
      </trkpt>
      <trkpt lat="43.737" lon="7.26281">
        <ele>295.6</ele>
        <time>2020-08-14T09:55:52Z</time>
      </trkpt>
      <trkpt lat="43.73697" lon="7.26281">
        <ele>295.2</ele>
        <time>2020-08-14T09:55:54Z</time>
      </trkpt>
      <trkpt lat="43.73692" lon="7.26281">
        <ele>294.6</ele>
        <time>2020-08-14T09:55:58Z</time>
      </trkpt>
      <trkpt lat="43.73686" lon="7.26281">
        <ele>293.4</ele>
        <time>2020-08-14T09:56:03Z</time>
      </trkpt>
      <trkpt lat="43.73679" lon="7.26284">
        <ele>293</ele>
        <time>2020-08-14T09:56:10Z</time>
      </trkpt>
      <trkpt lat="43.73677" lon="7.26292">
        <ele>292.4</ele>
        <time>2020-08-14T09:56:16Z</time>
      </trkpt>
      <trkpt lat="43.73676" lon="7.26297">
        <ele>292.2</ele>
        <time>2020-08-14T09:56:19Z</time>
      </trkpt>
      <trkpt lat="43.7367" lon="7.26306">
        <ele>291.8</ele>
        <time>2020-08-14T09:56:25Z</time>
      </trkpt>
      <trkpt lat="43.73667" lon="7.26309">
        <ele>291.6</ele>
        <time>2020-08-14T09:56:27Z</time>
      </trkpt>
      <trkpt lat="43.73663" lon="7.26314">
        <ele>291.4</ele>
        <time>2020-08-14T09:56:30Z</time>
      </trkpt>
      <trkpt lat="43.73659" lon="7.26319">
        <ele>290.8</ele>
        <time>2020-08-14T09:56:33Z</time>
      </trkpt>
      <trkpt lat="43.73658" lon="7.2632">
        <ele>290.6</ele>
        <time>2020-08-14T09:56:34Z</time>
      </trkpt>
      <trkpt lat="43.73651" lon="7.26326">
        <ele>290.2</ele>
        <time>2020-08-14T09:56:40Z</time>
      </trkpt>
      <trkpt lat="43.73648" lon="7.26328">
        <ele>290</ele>
        <time>2020-08-14T09:56:44Z</time>
      </trkpt>
      <trkpt lat="43.73636" lon="7.2634">
        <ele>289.4</ele>
        <time>2020-08-14T09:56:53Z</time>
      </trkpt>
      <trkpt lat="43.73636" lon="7.26341">
        <ele>289.2</ele>
        <time>2020-08-14T09:56:54Z</time>
      </trkpt>
      <trkpt lat="43.73634" lon="7.26342">
        <ele>289.2</ele>
        <time>2020-08-14T09:56:55Z</time>
      </trkpt>
      <trkpt lat="43.73628" lon="7.26351">
        <ele>288.6</ele>
        <time>2020-08-14T09:57:02Z</time>
      </trkpt>
      <trkpt lat="43.73623" lon="7.26352">
        <ele>288.6</ele>
        <time>2020-08-14T09:57:07Z</time>
      </trkpt>
      <trkpt lat="43.73619" lon="7.26352">
        <ele>288.4</ele>
        <time>2020-08-14T09:57:10Z</time>
      </trkpt>
      <trkpt lat="43.73615" lon="7.26351">
        <ele>288.4</ele>
        <time>2020-08-14T09:57:13Z</time>
      </trkpt>
      <trkpt lat="43.73614" lon="7.26352">
        <ele>288</ele>
        <time>2020-08-14T09:57:14Z</time>
      </trkpt>
      <trkpt lat="43.73612" lon="7.26352">
        <ele>287.8</ele>
        <time>2020-08-14T09:57:16Z</time>
      </trkpt>
      <trkpt lat="43.73603" lon="7.26353">
        <ele>287.4</ele>
        <time>2020-08-14T09:57:22Z</time>
      </trkpt>
      <trkpt lat="43.736" lon="7.26356">
        <ele>287</ele>
        <time>2020-08-14T09:57:25Z</time>
      </trkpt>
      <trkpt lat="43.73596" lon="7.26356">
        <ele>286.4</ele>
        <time>2020-08-14T09:57:28Z</time>
      </trkpt>
      <trkpt lat="43.73582" lon="7.26357">
        <ele>286.2</ele>
        <time>2020-08-14T09:57:38Z</time>
      </trkpt>
      <trkpt lat="43.73574" lon="7.26355">
        <ele>285.8</ele>
        <time>2020-08-14T09:57:44Z</time>
      </trkpt>
      <trkpt lat="43.73571" lon="7.26355">
        <ele>285.4</ele>
        <time>2020-08-14T09:57:46Z</time>
      </trkpt>
      <trkpt lat="43.73565" lon="7.26355">
        <ele>284.8</ele>
        <time>2020-08-14T09:57:51Z</time>
      </trkpt>
      <trkpt lat="43.73561" lon="7.26353">
        <ele>284.6</ele>
        <time>2020-08-14T09:57:54Z</time>
      </trkpt>
      <trkpt lat="43.7355" lon="7.26349">
        <ele>284.4</ele>
        <time>2020-08-14T09:58:02Z</time>
      </trkpt>
      <trkpt lat="43.73549" lon="7.26349">
        <ele>284.4</ele>
        <time>2020-08-14T09:58:03Z</time>
      </trkpt>
      <trkpt lat="43.73546" lon="7.26346">
        <ele>284.2</ele>
        <time>2020-08-14T09:58:05Z</time>
      </trkpt>
      <trkpt lat="43.73542" lon="7.26343">
        <ele>283.6</ele>
        <time>2020-08-14T09:58:08Z</time>
      </trkpt>
      <trkpt lat="43.73536" lon="7.26339">
        <ele>283</ele>
        <time>2020-08-14T09:58:13Z</time>
      </trkpt>
      <trkpt lat="43.73532" lon="7.26335">
        <ele>282.6</ele>
        <time>2020-08-14T09:58:16Z</time>
      </trkpt>
      <trkpt lat="43.73527" lon="7.26332">
        <ele>282.2</ele>
        <time>2020-08-14T09:58:20Z</time>
      </trkpt>
      <trkpt lat="43.73518" lon="7.26326">
        <ele>281.6</ele>
        <time>2020-08-14T09:58:27Z</time>
      </trkpt>
      <trkpt lat="43.73514" lon="7.26324">
        <ele>281.4</ele>
        <time>2020-08-14T09:58:30Z</time>
      </trkpt>
      <trkpt lat="43.7351" lon="7.26314">
        <ele>281</ele>
        <time>2020-08-14T09:58:37Z</time>
      </trkpt>
      <trkpt lat="43.73508" lon="7.26311">
        <ele>280.8</ele>
        <time>2020-08-14T09:58:39Z</time>
      </trkpt>
      <trkpt lat="43.73505" lon="7.26309">
        <ele>280.4</ele>
        <time>2020-08-14T09:58:42Z</time>
      </trkpt>
      <trkpt lat="43.73502" lon="7.26306">
        <ele>280</ele>
        <time>2020-08-14T09:58:46Z</time>
      </trkpt>
      <trkpt lat="43.73501" lon="7.26303">
        <ele>279.8</ele>
        <time>2020-08-14T09:58:48Z</time>
      </trkpt>
      <trkpt lat="43.73499" lon="7.26301">
        <ele>279.6</ele>
        <time>2020-08-14T09:58:49Z</time>
      </trkpt>
      <trkpt lat="43.73497" lon="7.26296">
        <ele>279.4</ele>
        <time>2020-08-14T09:58:51Z</time>
      </trkpt>
      <trkpt lat="43.73496" lon="7.26294">
        <ele>279.2</ele>
        <time>2020-08-14T09:58:53Z</time>
      </trkpt>
      <trkpt lat="43.73494" lon="7.26293">
        <ele>279.2</ele>
        <time>2020-08-14T09:58:54Z</time>
      </trkpt>
      <trkpt lat="43.73479" lon="7.26286">
        <ele>278.4</ele>
        <time>2020-08-14T09:59:04Z</time>
      </trkpt>
      <trkpt lat="43.73478" lon="7.26285">
        <ele>278.2</ele>
        <time>2020-08-14T09:59:05Z</time>
      </trkpt>
      <trkpt lat="43.73471" lon="7.26282">
        <ele>277.8</ele>
        <time>2020-08-14T09:59:10Z</time>
      </trkpt>
      <trkpt lat="43.73468" lon="7.26279">
        <ele>277.8</ele>
        <time>2020-08-14T09:59:12Z</time>
      </trkpt>
      <trkpt lat="43.73461" lon="7.26277">
        <ele>277.2</ele>
        <time>2020-08-14T09:59:17Z</time>
      </trkpt>
      <trkpt lat="43.73457" lon="7.26275">
        <ele>277</ele>
        <time>2020-08-14T09:59:20Z</time>
      </trkpt>
      <trkpt lat="43.73444" lon="7.26264">
        <ele>276.4</ele>
        <time>2020-08-14T09:59:29Z</time>
      </trkpt>
      <trkpt lat="43.7344" lon="7.2626">
        <ele>276.2</ele>
        <time>2020-08-14T09:59:32Z</time>
      </trkpt>
      <trkpt lat="43.7343" lon="7.26254">
        <ele>275.4</ele>
        <time>2020-08-14T09:59:38Z</time>
      </trkpt>
      <trkpt lat="43.73425" lon="7.26251">
        <ele>275.2</ele>
        <time>2020-08-14T09:59:41Z</time>
      </trkpt>
      <trkpt lat="43.73421" lon="7.26248">
        <ele>274.8</ele>
        <time>2020-08-14T09:59:44Z</time>
      </trkpt>
      <trkpt lat="43.73409" lon="7.26242">
        <ele>274</ele>
        <time>2020-08-14T09:59:52Z</time>
      </trkpt>
      <trkpt lat="43.73404" lon="7.26242">
        <ele>273.6</ele>
        <time>2020-08-14T09:59:55Z</time>
      </trkpt>
      <trkpt lat="43.73397" lon="7.26239">
        <ele>273.4</ele>
        <time>2020-08-14T09:59:59Z</time>
      </trkpt>
      <trkpt lat="43.73396" lon="7.26239">
        <ele>273.2</ele>
        <time>2020-08-14T10:00:00Z</time>
      </trkpt>
      <trkpt lat="43.73394" lon="7.26238">
        <ele>273</ele>
        <time>2020-08-14T10:00:01Z</time>
      </trkpt>
      <trkpt lat="43.7339" lon="7.26234">
        <ele>272.2</ele>
        <time>2020-08-14T10:00:08Z</time>
      </trkpt>
      <trkpt lat="43.73398" lon="7.26227">
        <ele>272.2</ele>
        <time>2020-08-14T10:00:15Z</time>
      </trkpt>
      <trkpt lat="43.73411" lon="7.26229">
        <ele>272.8</ele>
        <time>2020-08-14T10:00:23Z</time>
      </trkpt>
      <trkpt lat="43.73421" lon="7.26235">
        <ele>273.6</ele>
        <time>2020-08-14T10:00:30Z</time>
      </trkpt>
      <trkpt lat="43.73423" lon="7.26236">
        <ele>273.6</ele>
        <time>2020-08-14T10:00:31Z</time>
      </trkpt>
      <trkpt lat="43.73425" lon="7.26235">
        <ele>273.6</ele>
        <time>2020-08-14T10:00:34Z</time>
      </trkpt>
      <trkpt lat="43.73426" lon="7.26233">
        <ele>273.6</ele>
        <time>2020-08-14T10:00:36Z</time>
      </trkpt>
      <trkpt lat="43.73426" lon="7.26227">
        <ele>271.8</ele>
        <time>2020-08-14T10:00:41Z</time>
      </trkpt>
      <trkpt lat="43.73426" lon="7.26221">
        <ele>271.2</ele>
        <time>2020-08-14T10:00:44Z</time>
      </trkpt>
      <trkpt lat="43.73425" lon="7.26217">
        <ele>270.6</ele>
        <time>2020-08-14T10:00:47Z</time>
      </trkpt>
      <trkpt lat="43.73423" lon="7.26208">
        <ele>269.4</ele>
        <time>2020-08-14T10:00:52Z</time>
      </trkpt>
      <trkpt lat="43.73422" lon="7.26207">
        <ele>269.2</ele>
        <time>2020-08-14T10:00:53Z</time>
      </trkpt>
      <trkpt lat="43.73422" lon="7.26204">
        <ele>268.8</ele>
        <time>2020-08-14T10:00:55Z</time>
      </trkpt>
      <trkpt lat="43.73419" lon="7.26201">
        <ele>268.2</ele>
        <time>2020-08-14T10:00:58Z</time>
      </trkpt>
      <trkpt lat="43.73419" lon="7.26199">
        <ele>268</ele>
        <time>2020-08-14T10:00:59Z</time>
      </trkpt>
      <trkpt lat="43.73413" lon="7.26195">
        <ele>267.2</ele>
        <time>2020-08-14T10:01:04Z</time>
      </trkpt>
      <trkpt lat="43.73408" lon="7.26191">
        <ele>266.4</ele>
        <time>2020-08-14T10:01:08Z</time>
      </trkpt>
      <trkpt lat="43.73406" lon="7.2619">
        <ele>266.2</ele>
        <time>2020-08-14T10:01:10Z</time>
      </trkpt>
      <trkpt lat="43.73402" lon="7.26186">
        <ele>265.4</ele>
        <time>2020-08-14T10:01:14Z</time>
      </trkpt>
      <trkpt lat="43.734" lon="7.26185">
        <ele>265</ele>
        <time>2020-08-14T10:01:16Z</time>
      </trkpt>
      <trkpt lat="43.73399" lon="7.26186">
        <ele>264.8</ele>
        <time>2020-08-14T10:01:17Z</time>
      </trkpt>
      <trkpt lat="43.73394" lon="7.26185">
        <ele>264.6</ele>
        <time>2020-08-14T10:01:21Z</time>
      </trkpt>
      <trkpt lat="43.73389" lon="7.2618">
        <ele>264</ele>
        <time>2020-08-14T10:01:26Z</time>
      </trkpt>
      <trkpt lat="43.73387" lon="7.26177">
        <ele>264</ele>
        <time>2020-08-14T10:01:28Z</time>
      </trkpt>
      <trkpt lat="43.73386" lon="7.26176">
        <ele>263.8</ele>
        <time>2020-08-14T10:01:29Z</time>
      </trkpt>
      <trkpt lat="43.7338" lon="7.2617">
        <ele>263</ele>
        <time>2020-08-14T10:01:34Z</time>
      </trkpt>
      <trkpt lat="43.73374" lon="7.26167">
        <ele>262.6</ele>
        <time>2020-08-14T10:01:38Z</time>
      </trkpt>
      <trkpt lat="43.73368" lon="7.26161">
        <ele>261.8</ele>
        <time>2020-08-14T10:01:43Z</time>
      </trkpt>
      <trkpt lat="43.73362" lon="7.26157">
        <ele>261.2</ele>
        <time>2020-08-14T10:01:47Z</time>
      </trkpt>
      <trkpt lat="43.73358" lon="7.26154">
        <ele>260.8</ele>
        <time>2020-08-14T10:01:50Z</time>
      </trkpt>
      <trkpt lat="43.73351" lon="7.26146">
        <ele>259.8</ele>
        <time>2020-08-14T10:01:56Z</time>
      </trkpt>
      <trkpt lat="43.73349" lon="7.26145">
        <ele>259.6</ele>
        <time>2020-08-14T10:01:58Z</time>
      </trkpt>
      <trkpt lat="43.73343" lon="7.26142">
        <ele>259</ele>
        <time>2020-08-14T10:02:02Z</time>
      </trkpt>
      <trkpt lat="43.73341" lon="7.26141">
        <ele>258.6</ele>
        <time>2020-08-14T10:02:04Z</time>
      </trkpt>
      <trkpt lat="43.7334" lon="7.26141">
        <ele>258.4</ele>
        <time>2020-08-14T10:02:05Z</time>
      </trkpt>
      <trkpt lat="43.73327" lon="7.2614">
        <ele>257.4</ele>
        <time>2020-08-14T10:02:14Z</time>
      </trkpt>
      <trkpt lat="43.73326" lon="7.2614">
        <ele>257.4</ele>
        <time>2020-08-14T10:02:15Z</time>
      </trkpt>
      <trkpt lat="43.73322" lon="7.2614">
        <ele>257</ele>
        <time>2020-08-14T10:02:18Z</time>
      </trkpt>
      <trkpt lat="43.73319" lon="7.2614">
        <ele>256.8</ele>
        <time>2020-08-14T10:02:20Z</time>
      </trkpt>
      <trkpt lat="43.73315" lon="7.26141">
        <ele>256.4</ele>
        <time>2020-08-14T10:02:23Z</time>
      </trkpt>
      <trkpt lat="43.73311" lon="7.26142">
        <ele>255.8</ele>
        <time>2020-08-14T10:02:26Z</time>
      </trkpt>
      <trkpt lat="43.73307" lon="7.26142">
        <ele>255.4</ele>
        <time>2020-08-14T10:02:29Z</time>
      </trkpt>
      <trkpt lat="43.73303" lon="7.26144">
        <ele>255</ele>
        <time>2020-08-14T10:02:32Z</time>
      </trkpt>
      <trkpt lat="43.733" lon="7.26144">
        <ele>254.6</ele>
        <time>2020-08-14T10:02:34Z</time>
      </trkpt>
      <trkpt lat="43.73299" lon="7.26145">
        <ele>254.6</ele>
        <time>2020-08-14T10:02:35Z</time>
      </trkpt>
      <trkpt lat="43.73296" lon="7.26146">
        <ele>254.4</ele>
        <time>2020-08-14T10:02:37Z</time>
      </trkpt>
      <trkpt lat="43.7329" lon="7.2615">
        <ele>253</ele>
        <time>2020-08-14T10:02:42Z</time>
      </trkpt>
      <trkpt lat="43.73287" lon="7.26152">
        <ele>252.6</ele>
        <time>2020-08-14T10:02:45Z</time>
      </trkpt>
      <trkpt lat="43.73284" lon="7.26154">
        <ele>252</ele>
        <time>2020-08-14T10:02:48Z</time>
      </trkpt>
      <trkpt lat="43.73275" lon="7.26157">
        <ele>251.6</ele>
        <time>2020-08-14T10:02:54Z</time>
      </trkpt>
      <trkpt lat="43.73263" lon="7.26155">
        <ele>251</ele>
        <time>2020-08-14T10:03:02Z</time>
      </trkpt>
      <trkpt lat="43.73258" lon="7.26153">
        <ele>250.8</ele>
        <time>2020-08-14T10:03:05Z</time>
      </trkpt>
      <trkpt lat="43.73247" lon="7.26145">
        <ele>250</ele>
        <time>2020-08-14T10:03:13Z</time>
      </trkpt>
      <trkpt lat="43.73242" lon="7.26141">
        <ele>249.6</ele>
        <time>2020-08-14T10:03:17Z</time>
      </trkpt>
      <trkpt lat="43.73241" lon="7.2614">
        <ele>249.6</ele>
        <time>2020-08-14T10:03:18Z</time>
      </trkpt>
      <trkpt lat="43.73234" lon="7.2613">
        <ele>248.8</ele>
        <time>2020-08-14T10:03:25Z</time>
      </trkpt>
      <trkpt lat="43.73232" lon="7.26127">
        <ele>248.6</ele>
        <time>2020-08-14T10:03:27Z</time>
      </trkpt>
      <trkpt lat="43.7323" lon="7.26123">
        <ele>247.8</ele>
        <time>2020-08-14T10:03:30Z</time>
      </trkpt>
      <trkpt lat="43.73229" lon="7.2612">
        <ele>247.4</ele>
        <time>2020-08-14T10:03:32Z</time>
      </trkpt>
      <trkpt lat="43.73226" lon="7.26114">
        <ele>247</ele>
        <time>2020-08-14T10:03:36Z</time>
      </trkpt>
      <trkpt lat="43.73225" lon="7.26113">
        <ele>247</ele>
        <time>2020-08-14T10:03:37Z</time>
      </trkpt>
      <trkpt lat="43.73224" lon="7.26112">
        <ele>247</ele>
        <time>2020-08-14T10:03:38Z</time>
      </trkpt>
      <trkpt lat="43.73223" lon="7.26111">
        <ele>247</ele>
        <time>2020-08-14T10:03:39Z</time>
      </trkpt>
      <trkpt lat="43.7322" lon="7.26107">
        <ele>246.8</ele>
        <time>2020-08-14T10:03:42Z</time>
      </trkpt>
      <trkpt lat="43.73217" lon="7.26104">
        <ele>246.8</ele>
        <time>2020-08-14T10:03:44Z</time>
      </trkpt>
      <trkpt lat="43.73213" lon="7.26102">
        <ele>246.2</ele>
        <time>2020-08-14T10:03:47Z</time>
      </trkpt>
      <trkpt lat="43.73209" lon="7.261">
        <ele>245.8</ele>
        <time>2020-08-14T10:03:50Z</time>
      </trkpt>
      <trkpt lat="43.73197" lon="7.26099">
        <ele>244.6</ele>
        <time>2020-08-14T10:03:57Z</time>
      </trkpt>
      <trkpt lat="43.73196" lon="7.26098">
        <ele>244.4</ele>
        <time>2020-08-14T10:03:58Z</time>
      </trkpt>
      <trkpt lat="43.73188" lon="7.26099">
        <ele>243.4</ele>
        <time>2020-08-14T10:04:03Z</time>
      </trkpt>
      <trkpt lat="43.73184" lon="7.26101">
        <ele>242.8</ele>
        <time>2020-08-14T10:04:07Z</time>
      </trkpt>
      <trkpt lat="43.73181" lon="7.26102">
        <ele>242.4</ele>
        <time>2020-08-14T10:04:09Z</time>
      </trkpt>
      <trkpt lat="43.73175" lon="7.26107">
        <ele>241.8</ele>
        <time>2020-08-14T10:04:15Z</time>
      </trkpt>
      <trkpt lat="43.73174" lon="7.26107">
        <ele>241.6</ele>
        <time>2020-08-14T10:04:16Z</time>
      </trkpt>
      <trkpt lat="43.73171" lon="7.26109">
        <ele>241.2</ele>
        <time>2020-08-14T10:04:18Z</time>
      </trkpt>
      <trkpt lat="43.73165" lon="7.26114">
        <ele>240.6</ele>
        <time>2020-08-14T10:04:23Z</time>
      </trkpt>
      <trkpt lat="43.7316" lon="7.26118">
        <ele>240.2</ele>
        <time>2020-08-14T10:04:27Z</time>
      </trkpt>
      <trkpt lat="43.73147" lon="7.26122">
        <ele>239.2</ele>
        <time>2020-08-14T10:04:35Z</time>
      </trkpt>
      <trkpt lat="43.73144" lon="7.26122">
        <ele>239</ele>
        <time>2020-08-14T10:04:37Z</time>
      </trkpt>
      <trkpt lat="43.73143" lon="7.26122">
        <ele>238.8</ele>
        <time>2020-08-14T10:04:38Z</time>
      </trkpt>
      <trkpt lat="43.73131" lon="7.26124">
        <ele>238.2</ele>
        <time>2020-08-14T10:04:47Z</time>
      </trkpt>
      <trkpt lat="43.73129" lon="7.26124">
        <ele>238</ele>
        <time>2020-08-14T10:04:48Z</time>
      </trkpt>
      <trkpt lat="43.73121" lon="7.26123">
        <ele>237.2</ele>
        <time>2020-08-14T10:04:54Z</time>
      </trkpt>
      <trkpt lat="43.73116" lon="7.26122">
        <ele>237.2</ele>
        <time>2020-08-14T10:04:57Z</time>
      </trkpt>
      <trkpt lat="43.73115" lon="7.26122">
        <ele>237.2</ele>
        <time>2020-08-14T10:04:58Z</time>
      </trkpt>
      <trkpt lat="43.73111" lon="7.26122">
        <ele>237</ele>
        <time>2020-08-14T10:05:00Z</time>
      </trkpt>
      <trkpt lat="43.73109" lon="7.26122">
        <ele>236.8</ele>
        <time>2020-08-14T10:05:01Z</time>
      </trkpt>
      <trkpt lat="43.73097" lon="7.2612">
        <ele>236</ele>
        <time>2020-08-14T10:05:09Z</time>
      </trkpt>
      <trkpt lat="43.73093" lon="7.26119">
        <ele>235.6</ele>
        <time>2020-08-14T10:05:12Z</time>
      </trkpt>
      <trkpt lat="43.7308" lon="7.26119">
        <ele>234.8</ele>
        <time>2020-08-14T10:05:20Z</time>
      </trkpt>
      <trkpt lat="43.73079" lon="7.26119">
        <ele>234.8</ele>
        <time>2020-08-14T10:05:21Z</time>
      </trkpt>
      <trkpt lat="43.73066" lon="7.2612">
        <ele>233.8</ele>
        <time>2020-08-14T10:05:31Z</time>
      </trkpt>
      <trkpt lat="43.73055" lon="7.26123">
        <ele>232.8</ele>
        <time>2020-08-14T10:05:39Z</time>
      </trkpt>
      <trkpt lat="43.73053" lon="7.26122">
        <ele>232.6</ele>
        <time>2020-08-14T10:05:40Z</time>
      </trkpt>
      <trkpt lat="43.73044" lon="7.26122">
        <ele>232</ele>
        <time>2020-08-14T10:05:48Z</time>
      </trkpt>
      <trkpt lat="43.7304" lon="7.26122">
        <ele>231.6</ele>
        <time>2020-08-14T10:05:51Z</time>
      </trkpt>
      <trkpt lat="43.73037" lon="7.26122">
        <ele>231.4</ele>
        <time>2020-08-14T10:05:53Z</time>
      </trkpt>
      <trkpt lat="43.73029" lon="7.26122">
        <ele>230.8</ele>
        <time>2020-08-14T10:05:58Z</time>
      </trkpt>
      <trkpt lat="43.73026" lon="7.26122">
        <ele>230.6</ele>
        <time>2020-08-14T10:06:00Z</time>
      </trkpt>
      <trkpt lat="43.73023" lon="7.26122">
        <ele>230.2</ele>
        <time>2020-08-14T10:06:02Z</time>
      </trkpt>
      <trkpt lat="43.7302" lon="7.2612">
        <ele>229.8</ele>
        <time>2020-08-14T10:06:04Z</time>
      </trkpt>
      <trkpt lat="43.73019" lon="7.26119">
        <ele>229.6</ele>
        <time>2020-08-14T10:06:05Z</time>
      </trkpt>
      <trkpt lat="43.73016" lon="7.26118">
        <ele>229.2</ele>
        <time>2020-08-14T10:06:07Z</time>
      </trkpt>
      <trkpt lat="43.73014" lon="7.26117">
        <ele>229</ele>
        <time>2020-08-14T10:06:09Z</time>
      </trkpt>
      <trkpt lat="43.73008" lon="7.26114">
        <ele>228.4</ele>
        <time>2020-08-14T10:06:13Z</time>
      </trkpt>
      <trkpt lat="43.73" lon="7.26107">
        <ele>227.6</ele>
        <time>2020-08-14T10:06:19Z</time>
      </trkpt>
      <trkpt lat="43.72999" lon="7.26106">
        <ele>227.4</ele>
        <time>2020-08-14T10:06:20Z</time>
      </trkpt>
      <trkpt lat="43.72995" lon="7.26103">
        <ele>227.2</ele>
        <time>2020-08-14T10:06:23Z</time>
      </trkpt>
      <trkpt lat="43.72987" lon="7.26098">
        <ele>226.8</ele>
        <time>2020-08-14T10:06:28Z</time>
      </trkpt>
      <trkpt lat="43.72983" lon="7.26096">
        <ele>226.6</ele>
        <time>2020-08-14T10:06:30Z</time>
      </trkpt>
      <trkpt lat="43.72981" lon="7.26094">
        <ele>226.4</ele>
        <time>2020-08-14T10:06:32Z</time>
      </trkpt>
      <trkpt lat="43.72977" lon="7.26093">
        <ele>226</ele>
        <time>2020-08-14T10:06:34Z</time>
      </trkpt>
      <trkpt lat="43.72975" lon="7.26091">
        <ele>225.6</ele>
        <time>2020-08-14T10:06:36Z</time>
      </trkpt>
      <trkpt lat="43.72969" lon="7.26085">
        <ele>225.4</ele>
        <time>2020-08-14T10:06:41Z</time>
      </trkpt>
      <trkpt lat="43.72964" lon="7.26082">
        <ele>225.2</ele>
        <time>2020-08-14T10:06:44Z</time>
      </trkpt>
      <trkpt lat="43.72954" lon="7.26078">
        <ele>224.4</ele>
        <time>2020-08-14T10:06:51Z</time>
      </trkpt>
      <trkpt lat="43.72949" lon="7.26076">
        <ele>224.2</ele>
        <time>2020-08-14T10:06:54Z</time>
      </trkpt>
      <trkpt lat="43.72939" lon="7.26071">
        <ele>223.2</ele>
        <time>2020-08-14T10:07:01Z</time>
      </trkpt>
      <trkpt lat="43.72936" lon="7.2607">
        <ele>222.8</ele>
        <time>2020-08-14T10:07:04Z</time>
      </trkpt>
      <trkpt lat="43.72926" lon="7.26067">
        <ele>222</ele>
        <time>2020-08-14T10:07:11Z</time>
      </trkpt>
      <trkpt lat="43.72925" lon="7.26067">
        <ele>221.8</ele>
        <time>2020-08-14T10:07:12Z</time>
      </trkpt>
      <trkpt lat="43.72918" lon="7.26069">
        <ele>221</ele>
        <time>2020-08-14T10:07:17Z</time>
      </trkpt>
      <trkpt lat="43.72911" lon="7.26071">
        <ele>220</ele>
        <time>2020-08-14T10:07:23Z</time>
      </trkpt>
      <trkpt lat="43.72909" lon="7.2607">
        <ele>219.8</ele>
        <time>2020-08-14T10:07:24Z</time>
      </trkpt>
      <trkpt lat="43.72904" lon="7.26071">
        <ele>218.8</ele>
        <time>2020-08-14T10:07:29Z</time>
      </trkpt>
      <trkpt lat="43.72899" lon="7.26071">
        <ele>218.2</ele>
        <time>2020-08-14T10:07:33Z</time>
      </trkpt>
      <trkpt lat="43.72889" lon="7.26073">
        <ele>217.8</ele>
        <time>2020-08-14T10:07:40Z</time>
      </trkpt>
      <trkpt lat="43.72882" lon="7.26074">
        <ele>217.2</ele>
        <time>2020-08-14T10:07:45Z</time>
      </trkpt>
      <trkpt lat="43.7287" lon="7.26077">
        <ele>216.8</ele>
        <time>2020-08-14T10:07:53Z</time>
      </trkpt>
      <trkpt lat="43.72865" lon="7.26078">
        <ele>216.2</ele>
        <time>2020-08-14T10:07:56Z</time>
      </trkpt>
      <trkpt lat="43.72854" lon="7.26079">
        <ele>215.6</ele>
        <time>2020-08-14T10:08:03Z</time>
      </trkpt>
      <trkpt lat="43.7285" lon="7.26079">
        <ele>215.2</ele>
        <time>2020-08-14T10:08:06Z</time>
      </trkpt>
      <trkpt lat="43.72849" lon="7.26079">
        <ele>215</ele>
        <time>2020-08-14T10:08:07Z</time>
      </trkpt>
      <trkpt lat="43.72845" lon="7.2608">
        <ele>214.6</ele>
        <time>2020-08-14T10:08:10Z</time>
      </trkpt>
      <trkpt lat="43.72838" lon="7.26085">
        <ele>213.8</ele>
        <time>2020-08-14T10:08:16Z</time>
      </trkpt>
      <trkpt lat="43.72836" lon="7.26086">
        <ele>213.6</ele>
        <time>2020-08-14T10:08:18Z</time>
      </trkpt>
      <trkpt lat="43.72835" lon="7.26087">
        <ele>213.4</ele>
        <time>2020-08-14T10:08:19Z</time>
      </trkpt>
      <trkpt lat="43.72832" lon="7.26087">
        <ele>213</ele>
        <time>2020-08-14T10:08:22Z</time>
      </trkpt>
      <trkpt lat="43.72828" lon="7.26083">
        <ele>213</ele>
        <time>2020-08-14T10:08:30Z</time>
      </trkpt>
      <trkpt lat="43.72827" lon="7.26084">
        <ele>212.8</ele>
        <time>2020-08-14T10:08:37Z</time>
      </trkpt>
      <trkpt lat="43.72819" lon="7.26087">
        <ele>212.6</ele>
        <time>2020-08-14T10:08:43Z</time>
      </trkpt>
      <trkpt lat="43.72818" lon="7.26088">
        <ele>212.4</ele>
        <time>2020-08-14T10:08:44Z</time>
      </trkpt>
      <trkpt lat="43.72814" lon="7.26095">
        <ele>211.2</ele>
        <time>2020-08-14T10:08:49Z</time>
      </trkpt>
      <trkpt lat="43.72812" lon="7.261">
        <ele>210.2</ele>
        <time>2020-08-14T10:08:52Z</time>
      </trkpt>
      <trkpt lat="43.7281" lon="7.26108">
        <ele>209.2</ele>
        <time>2020-08-14T10:08:56Z</time>
      </trkpt>
      <trkpt lat="43.72807" lon="7.26116">
        <ele>208</ele>
        <time>2020-08-14T10:09:00Z</time>
      </trkpt>
      <trkpt lat="43.72801" lon="7.26123">
        <ele>206.8</ele>
        <time>2020-08-14T10:09:05Z</time>
      </trkpt>
      <trkpt lat="43.728" lon="7.26124">
        <ele>206.4</ele>
        <time>2020-08-14T10:09:06Z</time>
      </trkpt>
      <trkpt lat="43.72798" lon="7.26127">
        <ele>205.6</ele>
        <time>2020-08-14T10:09:08Z</time>
      </trkpt>
      <trkpt lat="43.72793" lon="7.26132">
        <ele>204.6</ele>
        <time>2020-08-14T10:09:12Z</time>
      </trkpt>
      <trkpt lat="43.7279" lon="7.26136">
        <ele>204.2</ele>
        <time>2020-08-14T10:09:15Z</time>
      </trkpt>
      <trkpt lat="43.72783" lon="7.26141">
        <ele>203.4</ele>
        <time>2020-08-14T10:09:20Z</time>
      </trkpt>
      <trkpt lat="43.7278" lon="7.26143">
        <ele>202.2</ele>
        <time>2020-08-14T10:09:22Z</time>
      </trkpt>
      <trkpt lat="43.72776" lon="7.26146">
        <ele>201.6</ele>
        <time>2020-08-14T10:09:24Z</time>
      </trkpt>
      <trkpt lat="43.72772" lon="7.26149">
        <ele>201.2</ele>
        <time>2020-08-14T10:09:27Z</time>
      </trkpt>
      <trkpt lat="43.72767" lon="7.26151">
        <ele>200</ele>
        <time>2020-08-14T10:09:31Z</time>
      </trkpt>
      <trkpt lat="43.72763" lon="7.26152">
        <ele>199.6</ele>
        <time>2020-08-14T10:09:34Z</time>
      </trkpt>
      <trkpt lat="43.72759" lon="7.26156">
        <ele>198.8</ele>
        <time>2020-08-14T10:09:37Z</time>
      </trkpt>
      <trkpt lat="43.72755" lon="7.26158">
        <ele>197.6</ele>
        <time>2020-08-14T10:09:40Z</time>
      </trkpt>
      <trkpt lat="43.72753" lon="7.26158">
        <ele>197.4</ele>
        <time>2020-08-14T10:09:41Z</time>
      </trkpt>
      <trkpt lat="43.72752" lon="7.26159">
        <ele>197.2</ele>
        <time>2020-08-14T10:09:42Z</time>
      </trkpt>
      <trkpt lat="43.72749" lon="7.26161">
        <ele>196.8</ele>
        <time>2020-08-14T10:09:44Z</time>
      </trkpt>
      <trkpt lat="43.72747" lon="7.26161">
        <ele>196.4</ele>
        <time>2020-08-14T10:09:45Z</time>
      </trkpt>
      <trkpt lat="43.72746" lon="7.26162">
        <ele>196</ele>
        <time>2020-08-14T10:09:46Z</time>
      </trkpt>
      <trkpt lat="43.72742" lon="7.26163">
        <ele>195.2</ele>
        <time>2020-08-14T10:09:49Z</time>
      </trkpt>
      <trkpt lat="43.72736" lon="7.26166">
        <ele>194.4</ele>
        <time>2020-08-14T10:09:53Z</time>
      </trkpt>
      <trkpt lat="43.72734" lon="7.26168">
        <ele>194</ele>
        <time>2020-08-14T10:09:55Z</time>
      </trkpt>
      <trkpt lat="43.72729" lon="7.2617">
        <ele>192.8</ele>
        <time>2020-08-14T10:09:59Z</time>
      </trkpt>
      <trkpt lat="43.72722" lon="7.26173">
        <ele>192</ele>
        <time>2020-08-14T10:10:04Z</time>
      </trkpt>
      <trkpt lat="43.7272" lon="7.26173">
        <ele>191.6</ele>
        <time>2020-08-14T10:10:06Z</time>
      </trkpt>
      <trkpt lat="43.72716" lon="7.26174">
        <ele>190.6</ele>
        <time>2020-08-14T10:10:09Z</time>
      </trkpt>
      <trkpt lat="43.72715" lon="7.26175">
        <ele>190.4</ele>
        <time>2020-08-14T10:10:10Z</time>
      </trkpt>
      <trkpt lat="43.72713" lon="7.26176">
        <ele>190.2</ele>
        <time>2020-08-14T10:10:11Z</time>
      </trkpt>
      <trkpt lat="43.72712" lon="7.26177">
        <ele>189.8</ele>
        <time>2020-08-14T10:10:12Z</time>
      </trkpt>
      <trkpt lat="43.72709" lon="7.26177">
        <ele>189.4</ele>
        <time>2020-08-14T10:10:14Z</time>
      </trkpt>
      <trkpt lat="43.72708" lon="7.26178">
        <ele>189.2</ele>
        <time>2020-08-14T10:10:15Z</time>
      </trkpt>
      <trkpt lat="43.72705" lon="7.26179">
        <ele>189.2</ele>
        <time>2020-08-14T10:10:17Z</time>
      </trkpt>
      <trkpt lat="43.72704" lon="7.26179">
        <ele>189</ele>
        <time>2020-08-14T10:10:18Z</time>
      </trkpt>
      <trkpt lat="43.727" lon="7.26181">
        <ele>188.4</ele>
        <time>2020-08-14T10:10:21Z</time>
      </trkpt>
      <trkpt lat="43.72699" lon="7.26182">
        <ele>188.2</ele>
        <time>2020-08-14T10:10:22Z</time>
      </trkpt>
      <trkpt lat="43.72695" lon="7.26186">
        <ele>187.6</ele>
        <time>2020-08-14T10:10:25Z</time>
      </trkpt>
      <trkpt lat="43.72693" lon="7.26188">
        <ele>187</ele>
        <time>2020-08-14T10:10:27Z</time>
      </trkpt>
      <trkpt lat="43.72692" lon="7.2619">
        <ele>186.6</ele>
        <time>2020-08-14T10:10:28Z</time>
      </trkpt>
      <trkpt lat="43.72691" lon="7.2619">
        <ele>186.2</ele>
        <time>2020-08-14T10:10:29Z</time>
      </trkpt>
      <trkpt lat="43.7269" lon="7.2619">
        <ele>185.8</ele>
        <time>2020-08-14T10:10:30Z</time>
      </trkpt>
      <trkpt lat="43.72688" lon="7.2619">
        <ele>185.2</ele>
        <time>2020-08-14T10:10:31Z</time>
      </trkpt>
      <trkpt lat="43.72686" lon="7.26193">
        <ele>184.6</ele>
        <time>2020-08-14T10:10:33Z</time>
      </trkpt>
      <trkpt lat="43.72676" lon="7.26199">
        <ele>183.4</ele>
        <time>2020-08-14T10:10:39Z</time>
      </trkpt>
      <trkpt lat="43.72672" lon="7.262">
        <ele>183</ele>
        <time>2020-08-14T10:10:41Z</time>
      </trkpt>
      <trkpt lat="43.72666" lon="7.26199">
        <ele>182.4</ele>
        <time>2020-08-14T10:10:45Z</time>
      </trkpt>
      <trkpt lat="43.72662" lon="7.26199">
        <ele>181.6</ele>
        <time>2020-08-14T10:10:49Z</time>
      </trkpt>
      <trkpt lat="43.72661" lon="7.26199">
        <ele>181.2</ele>
        <time>2020-08-14T10:10:50Z</time>
      </trkpt>
      <trkpt lat="43.72655" lon="7.26203">
        <ele>180</ele>
        <time>2020-08-14T10:10:54Z</time>
      </trkpt>
      <trkpt lat="43.72652" lon="7.26204">
        <ele>179.4</ele>
        <time>2020-08-14T10:10:56Z</time>
      </trkpt>
      <trkpt lat="43.7265" lon="7.26206">
        <ele>179</ele>
        <time>2020-08-14T10:10:58Z</time>
      </trkpt>
      <trkpt lat="43.72645" lon="7.26209">
        <ele>177.8</ele>
        <time>2020-08-14T10:11:02Z</time>
      </trkpt>
      <trkpt lat="43.7264" lon="7.26212">
        <ele>177</ele>
        <time>2020-08-14T10:11:06Z</time>
      </trkpt>
      <trkpt lat="43.72638" lon="7.26214">
        <ele>176.4</ele>
        <time>2020-08-14T10:11:08Z</time>
      </trkpt>
      <trkpt lat="43.72634" lon="7.26215">
        <ele>175.4</ele>
        <time>2020-08-14T10:11:11Z</time>
      </trkpt>
      <trkpt lat="43.72632" lon="7.26215">
        <ele>175</ele>
        <time>2020-08-14T10:11:13Z</time>
      </trkpt>
      <trkpt lat="43.72629" lon="7.26217">
        <ele>174.6</ele>
        <time>2020-08-14T10:11:15Z</time>
      </trkpt>
      <trkpt lat="43.72625" lon="7.26221">
        <ele>174.2</ele>
        <time>2020-08-14T10:11:18Z</time>
      </trkpt>
      <trkpt lat="43.72619" lon="7.26224">
        <ele>173</ele>
        <time>2020-08-14T10:11:22Z</time>
      </trkpt>
      <trkpt lat="43.72618" lon="7.26225">
        <ele>172.6</ele>
        <time>2020-08-14T10:11:23Z</time>
      </trkpt>
      <trkpt lat="43.72615" lon="7.26225">
        <ele>172.4</ele>
        <time>2020-08-14T10:11:25Z</time>
      </trkpt>
      <trkpt lat="43.72608" lon="7.26226">
        <ele>171.8</ele>
        <time>2020-08-14T10:11:29Z</time>
      </trkpt>
      <trkpt lat="43.72599" lon="7.26232">
        <ele>170.8</ele>
        <time>2020-08-14T10:11:35Z</time>
      </trkpt>
      <trkpt lat="43.72595" lon="7.26235">
        <ele>170.4</ele>
        <time>2020-08-14T10:11:38Z</time>
      </trkpt>
      <trkpt lat="43.72591" lon="7.26238">
        <ele>169.6</ele>
        <time>2020-08-14T10:11:42Z</time>
      </trkpt>
      <trkpt lat="43.72586" lon="7.26242">
        <ele>168.4</ele>
        <time>2020-08-14T10:11:46Z</time>
      </trkpt>
      <trkpt lat="43.72584" lon="7.26245">
        <ele>167.4</ele>
        <time>2020-08-14T10:11:51Z</time>
      </trkpt>
      <trkpt lat="43.72582" lon="7.26248">
        <ele>167</ele>
        <time>2020-08-14T10:11:53Z</time>
      </trkpt>
      <trkpt lat="43.72581" lon="7.26249">
        <ele>166.8</ele>
        <time>2020-08-14T10:11:54Z</time>
      </trkpt>
      <trkpt lat="43.72575" lon="7.26253">
        <ele>166.2</ele>
        <time>2020-08-14T10:11:58Z</time>
      </trkpt>
      <trkpt lat="43.72573" lon="7.26254">
        <ele>165.8</ele>
        <time>2020-08-14T10:11:59Z</time>
      </trkpt>
      <trkpt lat="43.72567" lon="7.26259">
        <ele>165</ele>
        <time>2020-08-14T10:12:04Z</time>
      </trkpt>
      <trkpt lat="43.72562" lon="7.26261">
        <ele>164</ele>
        <time>2020-08-14T10:12:08Z</time>
      </trkpt>
      <trkpt lat="43.72561" lon="7.26262">
        <ele>163.8</ele>
        <time>2020-08-14T10:12:09Z</time>
      </trkpt>
      <trkpt lat="43.72554" lon="7.26265">
        <ele>163.2</ele>
        <time>2020-08-14T10:12:14Z</time>
      </trkpt>
      <trkpt lat="43.7255" lon="7.26268">
        <ele>162.8</ele>
        <time>2020-08-14T10:12:17Z</time>
      </trkpt>
      <trkpt lat="43.72544" lon="7.26271">
        <ele>162.2</ele>
        <time>2020-08-14T10:12:21Z</time>
      </trkpt>
      <trkpt lat="43.72541" lon="7.26272">
        <ele>161.8</ele>
        <time>2020-08-14T10:12:23Z</time>
      </trkpt>
      <trkpt lat="43.72534" lon="7.26274">
        <ele>161</ele>
        <time>2020-08-14T10:12:28Z</time>
      </trkpt>
      <trkpt lat="43.72531" lon="7.26276">
        <ele>160.6</ele>
        <time>2020-08-14T10:12:30Z</time>
      </trkpt>
      <trkpt lat="43.72525" lon="7.2628">
        <ele>159.4</ele>
        <time>2020-08-14T10:12:34Z</time>
      </trkpt>
      <trkpt lat="43.72521" lon="7.26287">
        <ele>158.2</ele>
        <time>2020-08-14T10:12:39Z</time>
      </trkpt>
      <trkpt lat="43.72518" lon="7.26288">
        <ele>158</ele>
        <time>2020-08-14T10:12:41Z</time>
      </trkpt>
      <trkpt lat="43.72517" lon="7.26289">
        <ele>157.6</ele>
        <time>2020-08-14T10:12:46Z</time>
      </trkpt>
      <trkpt lat="43.72516" lon="7.26292">
        <ele>157.6</ele>
        <time>2020-08-14T10:12:49Z</time>
      </trkpt>
      <trkpt lat="43.72515" lon="7.26291">
        <ele>157.6</ele>
        <time>2020-08-14T10:12:50Z</time>
      </trkpt>
      <trkpt lat="43.72516" lon="7.26289">
        <ele>157.4</ele>
        <time>2020-08-14T10:12:55Z</time>
      </trkpt>
      <trkpt lat="43.72516" lon="7.26288">
        <ele>157.2</ele>
        <time>2020-08-14T10:13:05Z</time>
      </trkpt>
      <trkpt lat="43.72514" lon="7.2629">
        <ele>157.4</ele>
        <time>2020-08-14T10:13:09Z</time>
      </trkpt>
      <trkpt lat="43.7251" lon="7.26292">
        <ele>157.4</ele>
        <time>2020-08-14T10:13:11Z</time>
      </trkpt>
      <trkpt lat="43.72504" lon="7.26294">
        <ele>157.2</ele>
        <time>2020-08-14T10:13:14Z</time>
      </trkpt>
      <trkpt lat="43.72498" lon="7.26293">
        <ele>156.8</ele>
        <time>2020-08-14T10:13:17Z</time>
      </trkpt>
      <trkpt lat="43.72489" lon="7.26294">
        <ele>156.2</ele>
        <time>2020-08-14T10:13:23Z</time>
      </trkpt>
      <trkpt lat="43.72488" lon="7.26294">
        <ele>156</ele>
        <time>2020-08-14T10:13:24Z</time>
      </trkpt>
      <trkpt lat="43.72481" lon="7.26289">
        <ele>155.2</ele>
        <time>2020-08-14T10:13:29Z</time>
      </trkpt>
      <trkpt lat="43.72479" lon="7.26288">
        <ele>155</ele>
        <time>2020-08-14T10:13:30Z</time>
      </trkpt>
      <trkpt lat="43.72471" lon="7.26289">
        <ele>154</ele>
        <time>2020-08-14T10:13:37Z</time>
      </trkpt>
      <trkpt lat="43.72466" lon="7.26292">
        <ele>153</ele>
        <time>2020-08-14T10:13:41Z</time>
      </trkpt>
      <trkpt lat="43.72462" lon="7.26293">
        <ele>152.6</ele>
        <time>2020-08-14T10:13:44Z</time>
      </trkpt>
      <trkpt lat="43.72455" lon="7.26295">
        <ele>152</ele>
        <time>2020-08-14T10:13:49Z</time>
      </trkpt>
      <trkpt lat="43.72454" lon="7.26295">
        <ele>152</ele>
        <time>2020-08-14T10:13:50Z</time>
      </trkpt>
      <trkpt lat="43.72452" lon="7.26297">
        <ele>151.6</ele>
        <time>2020-08-14T10:13:52Z</time>
      </trkpt>
      <trkpt lat="43.7245" lon="7.26297">
        <ele>151.4</ele>
        <time>2020-08-14T10:13:53Z</time>
      </trkpt>
      <trkpt lat="43.72445" lon="7.26297">
        <ele>151</ele>
        <time>2020-08-14T10:13:57Z</time>
      </trkpt>
      <trkpt lat="43.72442" lon="7.26298">
        <ele>150.6</ele>
        <time>2020-08-14T10:13:59Z</time>
      </trkpt>
      <trkpt lat="43.72438" lon="7.26301">
        <ele>150</ele>
        <time>2020-08-14T10:14:03Z</time>
      </trkpt>
      <trkpt lat="43.72437" lon="7.26303">
        <ele>150</ele>
        <time>2020-08-14T10:14:04Z</time>
      </trkpt>
      <trkpt lat="43.72433" lon="7.26304">
        <ele>149.4</ele>
        <time>2020-08-14T10:14:07Z</time>
      </trkpt>
      <trkpt lat="43.72422" lon="7.2631">
        <ele>149.4</ele>
        <time>2020-08-14T10:14:16Z</time>
      </trkpt>
      <trkpt lat="43.72416" lon="7.26323">
        <ele>149</ele>
        <time>2020-08-14T10:14:24Z</time>
      </trkpt>
      <trkpt lat="43.72416" lon="7.26324">
        <ele>149</ele>
        <time>2020-08-14T10:14:25Z</time>
      </trkpt>
      <trkpt lat="43.72413" lon="7.26328">
        <ele>148.8</ele>
        <time>2020-08-14T10:14:29Z</time>
      </trkpt>
      <trkpt lat="43.72408" lon="7.26339">
        <ele>148</ele>
        <time>2020-08-14T10:14:37Z</time>
      </trkpt>
      <trkpt lat="43.72407" lon="7.26344">
        <ele>147.8</ele>
        <time>2020-08-14T10:14:40Z</time>
      </trkpt>
      <trkpt lat="43.72401" lon="7.26347">
        <ele>147.6</ele>
        <time>2020-08-14T10:14:44Z</time>
      </trkpt>
      <trkpt lat="43.72389" lon="7.26348">
        <ele>147</ele>
        <time>2020-08-14T10:14:51Z</time>
      </trkpt>
      <trkpt lat="43.72383" lon="7.26348">
        <ele>146.8</ele>
        <time>2020-08-14T10:14:55Z</time>
      </trkpt>
      <trkpt lat="43.72377" lon="7.26345">
        <ele>146.4</ele>
        <time>2020-08-14T10:14:59Z</time>
      </trkpt>
      <trkpt lat="43.72368" lon="7.26341">
        <ele>145.6</ele>
        <time>2020-08-14T10:15:06Z</time>
      </trkpt>
      <trkpt lat="43.72365" lon="7.2634">
        <ele>145</ele>
        <time>2020-08-14T10:15:08Z</time>
      </trkpt>
      <trkpt lat="43.72358" lon="7.26339">
        <ele>144.6</ele>
        <time>2020-08-14T10:15:12Z</time>
      </trkpt>
      <trkpt lat="43.72351" lon="7.26337">
        <ele>143.8</ele>
        <time>2020-08-14T10:15:17Z</time>
      </trkpt>
      <trkpt lat="43.7235" lon="7.26337">
        <ele>143.6</ele>
        <time>2020-08-14T10:15:18Z</time>
      </trkpt>
      <trkpt lat="43.72348" lon="7.26338">
        <ele>143.4</ele>
        <time>2020-08-14T10:15:19Z</time>
      </trkpt>
      <trkpt lat="43.72345" lon="7.26337">
        <ele>143</ele>
        <time>2020-08-14T10:15:22Z</time>
      </trkpt>
      <trkpt lat="43.72338" lon="7.26334">
        <ele>142.4</ele>
        <time>2020-08-14T10:15:26Z</time>
      </trkpt>
      <trkpt lat="43.72331" lon="7.26331">
        <ele>141.4</ele>
        <time>2020-08-14T10:15:31Z</time>
      </trkpt>
      <trkpt lat="43.72323" lon="7.26328">
        <ele>140.2</ele>
        <time>2020-08-14T10:15:37Z</time>
      </trkpt>
      <trkpt lat="43.72315" lon="7.26327">
        <ele>139.2</ele>
        <time>2020-08-14T10:15:43Z</time>
      </trkpt>
      <trkpt lat="43.72309" lon="7.26325">
        <ele>138.4</ele>
        <time>2020-08-14T10:15:47Z</time>
      </trkpt>
      <trkpt lat="43.72306" lon="7.26326">
        <ele>138.2</ele>
        <time>2020-08-14T10:15:49Z</time>
      </trkpt>
      <trkpt lat="43.72297" lon="7.26332">
        <ele>137</ele>
        <time>2020-08-14T10:15:57Z</time>
      </trkpt>
      <trkpt lat="43.72287" lon="7.2634">
        <ele>136.2</ele>
        <time>2020-08-14T10:16:05Z</time>
      </trkpt>
      <trkpt lat="43.72286" lon="7.26341">
        <ele>136</ele>
        <time>2020-08-14T10:16:06Z</time>
      </trkpt>
      <trkpt lat="43.72274" lon="7.26346">
        <ele>135.2</ele>
        <time>2020-08-14T10:16:15Z</time>
      </trkpt>
      <trkpt lat="43.72273" lon="7.26346">
        <ele>135</ele>
        <time>2020-08-14T10:16:16Z</time>
      </trkpt>
      <trkpt lat="43.72262" lon="7.26349">
        <ele>134.4</ele>
        <time>2020-08-14T10:16:23Z</time>
      </trkpt>
      <trkpt lat="43.72255" lon="7.26349">
        <ele>134</ele>
        <time>2020-08-14T10:16:28Z</time>
      </trkpt>
      <trkpt lat="43.72248" lon="7.26352">
        <ele>133.4</ele>
        <time>2020-08-14T10:16:33Z</time>
      </trkpt>
      <trkpt lat="43.72242" lon="7.26352">
        <ele>133.2</ele>
        <time>2020-08-14T10:16:38Z</time>
      </trkpt>
      <trkpt lat="43.72241" lon="7.26352">
        <ele>133.2</ele>
        <time>2020-08-14T10:16:39Z</time>
      </trkpt>
      <trkpt lat="43.72238" lon="7.26355">
        <ele>133</ele>
        <time>2020-08-14T10:16:43Z</time>
      </trkpt>
      <trkpt lat="43.72237" lon="7.26357">
        <ele>133</ele>
        <time>2020-08-14T10:16:44Z</time>
      </trkpt>
      <trkpt lat="43.72236" lon="7.26357">
        <ele>133</ele>
        <time>2020-08-14T10:16:45Z</time>
      </trkpt>
      <trkpt lat="43.72235" lon="7.26358">
        <ele>133</ele>
        <time>2020-08-14T10:16:46Z</time>
      </trkpt>
      <trkpt lat="43.72228" lon="7.2636">
        <ele>132.8</ele>
        <time>2020-08-14T10:16:51Z</time>
      </trkpt>
      <trkpt lat="43.72222" lon="7.26355">
        <ele>132.6</ele>
        <time>2020-08-14T10:16:56Z</time>
      </trkpt>
      <trkpt lat="43.7222" lon="7.26355">
        <ele>132.6</ele>
        <time>2020-08-14T10:16:57Z</time>
      </trkpt>
      <trkpt lat="43.72209" lon="7.26363">
        <ele>132.2</ele>
        <time>2020-08-14T10:17:05Z</time>
      </trkpt>
      <trkpt lat="43.72205" lon="7.26361">
        <ele>132</ele>
        <time>2020-08-14T10:17:09Z</time>
      </trkpt>
      <trkpt lat="43.72204" lon="7.2636">
        <ele>132</ele>
        <time>2020-08-14T10:17:10Z</time>
      </trkpt>
      <trkpt lat="43.72201" lon="7.2636">
        <ele>132</ele>
        <time>2020-08-14T10:17:12Z</time>
      </trkpt>
      <trkpt lat="43.72194" lon="7.26355">
        <ele>132</ele>
        <time>2020-08-14T10:17:18Z</time>
      </trkpt>
      <trkpt lat="43.72187" lon="7.26353">
        <ele>131.6</ele>
        <time>2020-08-14T10:17:23Z</time>
      </trkpt>
      <trkpt lat="43.72183" lon="7.26353">
        <ele>131.4</ele>
        <time>2020-08-14T10:17:25Z</time>
      </trkpt>
      <trkpt lat="43.72176" lon="7.26354">
        <ele>131.2</ele>
        <time>2020-08-14T10:17:30Z</time>
      </trkpt>
      <trkpt lat="43.72175" lon="7.26354">
        <ele>131.2</ele>
        <time>2020-08-14T10:17:32Z</time>
      </trkpt>
      <trkpt lat="43.72173" lon="7.26353">
        <ele>131.2</ele>
        <time>2020-08-14T10:17:33Z</time>
      </trkpt>
      <trkpt lat="43.7217" lon="7.26352">
        <ele>131</ele>
        <time>2020-08-14T10:17:35Z</time>
      </trkpt>
      <trkpt lat="43.72167" lon="7.2635">
        <ele>130.8</ele>
        <time>2020-08-14T10:17:38Z</time>
      </trkpt>
      <trkpt lat="43.72165" lon="7.26349">
        <ele>130.8</ele>
        <time>2020-08-14T10:17:40Z</time>
      </trkpt>
      <trkpt lat="43.72158" lon="7.26344">
        <ele>130.8</ele>
        <time>2020-08-14T10:17:45Z</time>
      </trkpt>
      <trkpt lat="43.7215" lon="7.26342">
        <ele>130.4</ele>
        <time>2020-08-14T10:17:52Z</time>
      </trkpt>
      <trkpt lat="43.72151" lon="7.26343">
        <ele>130.2</ele>
        <time>2020-08-14T10:17:53Z</time>
      </trkpt>
      <trkpt lat="43.7215" lon="7.26343">
        <ele>130.2</ele>
        <time>2020-08-14T10:17:55Z</time>
      </trkpt>
      <trkpt lat="43.72148" lon="7.26341">
        <ele>130.2</ele>
        <time>2020-08-14T10:17:58Z</time>
      </trkpt>
      <trkpt lat="43.72139" lon="7.26341">
        <ele>130.2</ele>
        <time>2020-08-14T10:18:04Z</time>
      </trkpt>
      <trkpt lat="43.72132" lon="7.26337">
        <ele>130</ele>
        <time>2020-08-14T10:18:09Z</time>
      </trkpt>
      <trkpt lat="43.7213" lon="7.26333">
        <ele>130</ele>
        <time>2020-08-14T10:18:11Z</time>
      </trkpt>
      <trkpt lat="43.7213" lon="7.26333">
        <ele>130</ele>
        <time>2020-08-14T10:18:12Z</time>
      </trkpt>
      <trkpt lat="43.72126" lon="7.26332">
        <ele>129.8</ele>
        <time>2020-08-14T10:18:15Z</time>
      </trkpt>
      <trkpt lat="43.72125" lon="7.26331">
        <ele>129.8</ele>
        <time>2020-08-14T10:18:16Z</time>
      </trkpt>
      <trkpt lat="43.72123" lon="7.2633">
        <ele>129.6</ele>
        <time>2020-08-14T10:18:18Z</time>
      </trkpt>
      <trkpt lat="43.72119" lon="7.26329">
        <ele>129.2</ele>
        <time>2020-08-14T10:18:23Z</time>
      </trkpt>
      <trkpt lat="43.72118" lon="7.26329">
        <ele>129.2</ele>
        <time>2020-08-14T10:18:24Z</time>
      </trkpt>
      <trkpt lat="43.72117" lon="7.26329">
        <ele>129.2</ele>
        <time>2020-08-14T10:18:25Z</time>
      </trkpt>
      <trkpt lat="43.72115" lon="7.26329">
        <ele>129.2</ele>
        <time>2020-08-14T10:18:26Z</time>
      </trkpt>
      <trkpt lat="43.72109" lon="7.26328">
        <ele>129</ele>
        <time>2020-08-14T10:18:30Z</time>
      </trkpt>
      <trkpt lat="43.72103" lon="7.26328">
        <ele>129</ele>
        <time>2020-08-14T10:18:34Z</time>
      </trkpt>
      <trkpt lat="43.721" lon="7.26328">
        <ele>129</ele>
        <time>2020-08-14T10:18:36Z</time>
      </trkpt>
      <trkpt lat="43.72099" lon="7.26328">
        <ele>129</ele>
        <time>2020-08-14T10:18:37Z</time>
      </trkpt>
      <trkpt lat="43.72088" lon="7.26324">
        <ele>128.6</ele>
        <time>2020-08-14T10:18:44Z</time>
      </trkpt>
      <trkpt lat="43.72083" lon="7.26321">
        <ele>128.2</ele>
        <time>2020-08-14T10:18:48Z</time>
      </trkpt>
      <trkpt lat="43.72078" lon="7.2632">
        <ele>128.2</ele>
        <time>2020-08-14T10:18:51Z</time>
      </trkpt>
      <trkpt lat="43.72077" lon="7.2632">
        <ele>128.2</ele>
        <time>2020-08-14T10:18:52Z</time>
      </trkpt>
      <trkpt lat="43.72076" lon="7.26319">
        <ele>128.2</ele>
        <time>2020-08-14T10:18:53Z</time>
      </trkpt>
      <trkpt lat="43.72074" lon="7.26317">
        <ele>128.2</ele>
        <time>2020-08-14T10:18:54Z</time>
      </trkpt>
      <trkpt lat="43.72073" lon="7.26316">
        <ele>128.2</ele>
        <time>2020-08-14T10:18:55Z</time>
      </trkpt>
      <trkpt lat="43.72071" lon="7.26315">
        <ele>128</ele>
        <time>2020-08-14T10:18:56Z</time>
      </trkpt>
      <trkpt lat="43.72068" lon="7.26314">
        <ele>127.8</ele>
        <time>2020-08-14T10:18:58Z</time>
      </trkpt>
      <trkpt lat="43.72067" lon="7.26314">
        <ele>127.8</ele>
        <time>2020-08-14T10:19:00Z</time>
      </trkpt>
      <trkpt lat="43.72067" lon="7.26314">
        <ele>127.8</ele>
        <time>2020-08-14T10:19:01Z</time>
      </trkpt>
      <trkpt lat="43.72065" lon="7.26312">
        <ele>127.8</ele>
        <time>2020-08-14T10:19:04Z</time>
      </trkpt>
      <trkpt lat="43.72062" lon="7.26311">
        <ele>128</ele>
        <time>2020-08-14T10:19:06Z</time>
      </trkpt>
      <trkpt lat="43.72057" lon="7.26308">
        <ele>128</ele>
        <time>2020-08-14T10:19:10Z</time>
      </trkpt>
      <trkpt lat="43.72054" lon="7.26307">
        <ele>127.8</ele>
        <time>2020-08-14T10:19:12Z</time>
      </trkpt>
      <trkpt lat="43.72051" lon="7.26306">
        <ele>127.8</ele>
        <time>2020-08-14T10:19:14Z</time>
      </trkpt>
      <trkpt lat="43.72048" lon="7.26305">
        <ele>127.6</ele>
        <time>2020-08-14T10:19:16Z</time>
      </trkpt>
      <trkpt lat="43.72047" lon="7.26305">
        <ele>127.6</ele>
        <time>2020-08-14T10:19:17Z</time>
      </trkpt>
      <trkpt lat="43.72041" lon="7.26301">
        <ele>127.6</ele>
        <time>2020-08-14T10:19:20Z</time>
      </trkpt>
      <trkpt lat="43.7204" lon="7.26301">
        <ele>127.4</ele>
        <time>2020-08-14T10:19:21Z</time>
      </trkpt>
      <trkpt lat="43.72028" lon="7.26297">
        <ele>127.2</ele>
        <time>2020-08-14T10:19:27Z</time>
      </trkpt>
      <trkpt lat="43.72023" lon="7.26292">
        <ele>127.2</ele>
        <time>2020-08-14T10:19:32Z</time>
      </trkpt>
      <trkpt lat="43.72018" lon="7.2629">
        <ele>127.4</ele>
        <time>2020-08-14T10:19:35Z</time>
      </trkpt>
      <trkpt lat="43.72009" lon="7.26289">
        <ele>126.8</ele>
        <time>2020-08-14T10:19:41Z</time>
      </trkpt>
      <trkpt lat="43.72007" lon="7.26289">
        <ele>126.6</ele>
        <time>2020-08-14T10:19:43Z</time>
      </trkpt>
      <trkpt lat="43.71994" lon="7.26288">
        <ele>126.8</ele>
        <time>2020-08-14T10:19:52Z</time>
      </trkpt>
      <trkpt lat="43.71993" lon="7.26289">
        <ele>126.6</ele>
        <time>2020-08-14T10:19:53Z</time>
      </trkpt>
      <trkpt lat="43.71987" lon="7.26291">
        <ele>126.2</ele>
        <time>2020-08-14T10:19:58Z</time>
      </trkpt>
      <trkpt lat="43.71981" lon="7.2629">
        <ele>126</ele>
        <time>2020-08-14T10:20:05Z</time>
      </trkpt>
      <trkpt lat="43.7198" lon="7.2629">
        <ele>126</ele>
        <time>2020-08-14T10:20:06Z</time>
      </trkpt>
      <trkpt lat="43.71974" lon="7.26286">
        <ele>126</ele>
        <time>2020-08-14T10:20:11Z</time>
      </trkpt>
      <trkpt lat="43.71969" lon="7.26283">
        <ele>126</ele>
        <time>2020-08-14T10:20:15Z</time>
      </trkpt>
      <trkpt lat="43.71966" lon="7.26281">
        <ele>125.8</ele>
        <time>2020-08-14T10:20:17Z</time>
      </trkpt>
      <trkpt lat="43.71965" lon="7.2628">
        <ele>125.8</ele>
        <time>2020-08-14T10:20:18Z</time>
      </trkpt>
      <trkpt lat="43.71964" lon="7.26279">
        <ele>125.8</ele>
        <time>2020-08-14T10:20:19Z</time>
      </trkpt>
      <trkpt lat="43.71962" lon="7.26277">
        <ele>125.8</ele>
        <time>2020-08-14T10:20:20Z</time>
      </trkpt>
      <trkpt lat="43.7196" lon="7.26276">
        <ele>125.8</ele>
        <time>2020-08-14T10:20:22Z</time>
      </trkpt>
      <trkpt lat="43.71958" lon="7.26276">
        <ele>125.6</ele>
        <time>2020-08-14T10:20:25Z</time>
      </trkpt>
      <trkpt lat="43.71958" lon="7.26275">
        <ele>125.6</ele>
        <time>2020-08-14T10:20:27Z</time>
      </trkpt>
      <trkpt lat="43.71957" lon="7.26276">
        <ele>125.6</ele>
        <time>2020-08-14T10:20:29Z</time>
      </trkpt>
      <trkpt lat="43.71957" lon="7.26275">
        <ele>125.6</ele>
        <time>2020-08-14T10:20:30Z</time>
      </trkpt>
      <trkpt lat="43.71957" lon="7.26273">
        <ele>125.6</ele>
        <time>2020-08-14T10:20:32Z</time>
      </trkpt>
      <trkpt lat="43.71957" lon="7.26271">
        <ele>125.6</ele>
        <time>2020-08-14T10:20:34Z</time>
      </trkpt>
      <trkpt lat="43.71956" lon="7.26268">
        <ele>125.6</ele>
        <time>2020-08-14T10:20:37Z</time>
      </trkpt>
      <trkpt lat="43.71956" lon="7.26268">
        <ele>125.2</ele>
        <time>2020-08-14T10:20:46Z</time>
      </trkpt>
      <trkpt lat="43.71954" lon="7.26257">
        <ele>125</ele>
        <time>2020-08-14T10:20:56Z</time>
      </trkpt>
      <trkpt lat="43.71954" lon="7.26256">
        <ele>125</ele>
        <time>2020-08-14T10:21:07Z</time>
      </trkpt>
      <trkpt lat="43.71954" lon="7.26256">
        <ele>125</ele>
        <time>2020-08-14T10:21:08Z</time>
      </trkpt>
      <trkpt lat="43.71954" lon="7.26256">
        <ele>125.2</ele>
        <time>2020-08-14T10:21:15Z</time>
      </trkpt>
      <trkpt lat="43.71955" lon="7.26253">
        <ele>125.4</ele>
        <time>2020-08-14T10:21:20Z</time>
      </trkpt>
      <trkpt lat="43.71955" lon="7.26247">
        <ele>124.8</ele>
        <time>2020-08-14T10:21:45Z</time>
      </trkpt>
      <trkpt lat="43.71932" lon="7.26257">
        <ele>125</ele>
        <time>2020-08-14T10:26:11Z</time>
      </trkpt>
      <trkpt lat="43.7193" lon="7.26259">
        <ele>125</ele>
        <time>2020-08-14T10:26:12Z</time>
      </trkpt>
      <trkpt lat="43.71928" lon="7.26262">
        <ele>125</ele>
        <time>2020-08-14T10:26:14Z</time>
      </trkpt>
      <trkpt lat="43.71927" lon="7.26263">
        <ele>124.8</ele>
        <time>2020-08-14T10:26:15Z</time>
      </trkpt>
      <trkpt lat="43.71925" lon="7.26265">
        <ele>124.6</ele>
        <time>2020-08-14T10:26:17Z</time>
      </trkpt>
      <trkpt lat="43.7192" lon="7.2627">
        <ele>124.4</ele>
        <time>2020-08-14T10:26:21Z</time>
      </trkpt>
      <trkpt lat="43.71908" lon="7.26279">
        <ele>123.8</ele>
        <time>2020-08-14T10:26:29Z</time>
      </trkpt>
      <trkpt lat="43.71907" lon="7.26279">
        <ele>123.8</ele>
        <time>2020-08-14T10:26:30Z</time>
      </trkpt>
      <trkpt lat="43.71906" lon="7.2628">
        <ele>123.8</ele>
        <time>2020-08-14T10:26:31Z</time>
      </trkpt>
      <trkpt lat="43.71904" lon="7.26283">
        <ele>123.6</ele>
        <time>2020-08-14T10:26:34Z</time>
      </trkpt>
      <trkpt lat="43.71903" lon="7.26285">
        <ele>123.8</ele>
        <time>2020-08-14T10:26:36Z</time>
      </trkpt>
      <trkpt lat="43.71902" lon="7.26286">
        <ele>123.8</ele>
        <time>2020-08-14T10:26:37Z</time>
      </trkpt>
      <trkpt lat="43.71901" lon="7.26288">
        <ele>123.8</ele>
        <time>2020-08-14T10:26:38Z</time>
      </trkpt>
      <trkpt lat="43.71898" lon="7.26292">
        <ele>123.6</ele>
        <time>2020-08-14T10:26:42Z</time>
      </trkpt>
      <trkpt lat="43.71888" lon="7.26298">
        <ele>123.4</ele>
        <time>2020-08-14T10:26:51Z</time>
      </trkpt>
      <trkpt lat="43.71877" lon="7.26288">
        <ele>122.8</ele>
        <time>2020-08-14T10:26:59Z</time>
      </trkpt>
      <trkpt lat="43.71869" lon="7.26293">
        <ele>123</ele>
        <time>2020-08-14T10:27:04Z</time>
      </trkpt>
      <trkpt lat="43.71868" lon="7.26294">
        <ele>123</ele>
        <time>2020-08-14T10:27:05Z</time>
      </trkpt>
      <trkpt lat="43.71863" lon="7.26299">
        <ele>122.8</ele>
        <time>2020-08-14T10:27:10Z</time>
      </trkpt>
      <trkpt lat="43.7186" lon="7.26302">
        <ele>122.6</ele>
        <time>2020-08-14T10:27:13Z</time>
      </trkpt>
      <trkpt lat="43.71847" lon="7.26296">
        <ele>122.2</ele>
        <time>2020-08-14T10:27:21Z</time>
      </trkpt>
      <trkpt lat="43.71839" lon="7.26304">
        <ele>122</ele>
        <time>2020-08-14T10:27:27Z</time>
      </trkpt>
      <trkpt lat="43.71833" lon="7.26312">
        <ele>121.8</ele>
        <time>2020-08-14T10:27:33Z</time>
      </trkpt>
      <trkpt lat="43.71829" lon="7.2631">
        <ele>121.8</ele>
        <time>2020-08-14T10:27:36Z</time>
      </trkpt>
      <trkpt lat="43.71828" lon="7.26309">
        <ele>121.8</ele>
        <time>2020-08-14T10:27:37Z</time>
      </trkpt>
      <trkpt lat="43.71822" lon="7.2631">
        <ele>121.6</ele>
        <time>2020-08-14T10:27:41Z</time>
      </trkpt>
      <trkpt lat="43.71813" lon="7.26315">
        <ele>121.2</ele>
        <time>2020-08-14T10:27:48Z</time>
      </trkpt>
      <trkpt lat="43.71805" lon="7.26314">
        <ele>121.2</ele>
        <time>2020-08-14T10:27:53Z</time>
      </trkpt>
      <trkpt lat="43.71799" lon="7.26313">
        <ele>121</ele>
        <time>2020-08-14T10:27:57Z</time>
      </trkpt>
      <trkpt lat="43.71798" lon="7.26313">
        <ele>120.8</ele>
        <time>2020-08-14T10:27:58Z</time>
      </trkpt>
      <trkpt lat="43.71795" lon="7.26312">
        <ele>120.6</ele>
        <time>2020-08-14T10:28:01Z</time>
      </trkpt>
      <trkpt lat="43.7179" lon="7.2631">
        <ele>120.4</ele>
        <time>2020-08-14T10:28:06Z</time>
      </trkpt>
      <trkpt lat="43.71782" lon="7.26305">
        <ele>120.6</ele>
        <time>2020-08-14T10:28:13Z</time>
      </trkpt>
      <trkpt lat="43.71781" lon="7.26304">
        <ele>120.6</ele>
        <time>2020-08-14T10:28:14Z</time>
      </trkpt>
      <trkpt lat="43.71774" lon="7.263">
        <ele>120.4</ele>
        <time>2020-08-14T10:28:19Z</time>
      </trkpt>
      <trkpt lat="43.71772" lon="7.26293">
        <ele>120.2</ele>
        <time>2020-08-14T10:28:22Z</time>
      </trkpt>
      <trkpt lat="43.71771" lon="7.26292">
        <ele>120</ele>
        <time>2020-08-14T10:28:23Z</time>
      </trkpt>
      <trkpt lat="43.71768" lon="7.26289">
        <ele>119.6</ele>
        <time>2020-08-14T10:28:27Z</time>
      </trkpt>
      <trkpt lat="43.71767" lon="7.26289">
        <ele>119.6</ele>
        <time>2020-08-14T10:28:29Z</time>
      </trkpt>
      <trkpt lat="43.71765" lon="7.26289">
        <ele>119.6</ele>
        <time>2020-08-14T10:28:32Z</time>
      </trkpt>
      <trkpt lat="43.71765" lon="7.26289">
        <ele>119.6</ele>
        <time>2020-08-14T10:28:33Z</time>
      </trkpt>
      <trkpt lat="43.71764" lon="7.26288">
        <ele>119.6</ele>
        <time>2020-08-14T10:28:34Z</time>
      </trkpt>
      <trkpt lat="43.7176" lon="7.26287">
        <ele>119.4</ele>
        <time>2020-08-14T10:28:39Z</time>
      </trkpt>
      <trkpt lat="43.71758" lon="7.26286">
        <ele>119.6</ele>
        <time>2020-08-14T10:28:40Z</time>
      </trkpt>
      <trkpt lat="43.71754" lon="7.26284">
        <ele>119.4</ele>
        <time>2020-08-14T10:28:43Z</time>
      </trkpt>
      <trkpt lat="43.71751" lon="7.2628">
        <ele>119</ele>
        <time>2020-08-14T10:28:46Z</time>
      </trkpt>
      <trkpt lat="43.71748" lon="7.26277">
        <ele>118.4</ele>
        <time>2020-08-14T10:28:48Z</time>
      </trkpt>
      <trkpt lat="43.71746" lon="7.26276">
        <ele>118</ele>
        <time>2020-08-14T10:28:49Z</time>
      </trkpt>
      <trkpt lat="43.71745" lon="7.26274">
        <ele>117.8</ele>
        <time>2020-08-14T10:28:50Z</time>
      </trkpt>
      <trkpt lat="43.7174" lon="7.26269">
        <ele>118</ele>
        <time>2020-08-14T10:28:53Z</time>
      </trkpt>
      <trkpt lat="43.71738" lon="7.26266">
        <ele>118.6</ele>
        <time>2020-08-14T10:28:55Z</time>
      </trkpt>
      <trkpt lat="43.71736" lon="7.26262">
        <ele>118.8</ele>
        <time>2020-08-14T10:28:57Z</time>
      </trkpt>
      <trkpt lat="43.71726" lon="7.26258">
        <ele>117.8</ele>
        <time>2020-08-14T10:29:04Z</time>
      </trkpt>
      <trkpt lat="43.71725" lon="7.26257">
        <ele>117.8</ele>
        <time>2020-08-14T10:29:05Z</time>
      </trkpt>
      <trkpt lat="43.7171" lon="7.26253">
        <ele>117.8</ele>
        <time>2020-08-14T10:29:16Z</time>
      </trkpt>
      <trkpt lat="43.71709" lon="7.26252">
        <ele>117.8</ele>
        <time>2020-08-14T10:29:17Z</time>
      </trkpt>
      <trkpt lat="43.71708" lon="7.26252">
        <ele>117.8</ele>
        <time>2020-08-14T10:29:18Z</time>
      </trkpt>
      <trkpt lat="43.71702" lon="7.2625">
        <ele>117.8</ele>
        <time>2020-08-14T10:29:22Z</time>
      </trkpt>
      <trkpt lat="43.71692" lon="7.26251">
        <ele>117.2</ele>
        <time>2020-08-14T10:29:27Z</time>
      </trkpt>
      <trkpt lat="43.71685" lon="7.26251">
        <ele>117</ele>
        <time>2020-08-14T10:29:32Z</time>
      </trkpt>
      <trkpt lat="43.71683" lon="7.26251">
        <ele>116.8</ele>
        <time>2020-08-14T10:29:34Z</time>
      </trkpt>
      <trkpt lat="43.71678" lon="7.26251">
        <ele>116.8</ele>
        <time>2020-08-14T10:29:38Z</time>
      </trkpt>
      <trkpt lat="43.71675" lon="7.26252">
        <ele>116.8</ele>
        <time>2020-08-14T10:29:40Z</time>
      </trkpt>
      <trkpt lat="43.71668" lon="7.26253">
        <ele>116.4</ele>
        <time>2020-08-14T10:29:45Z</time>
      </trkpt>
      <trkpt lat="43.71665" lon="7.26254">
        <ele>116.2</ele>
        <time>2020-08-14T10:29:48Z</time>
      </trkpt>
      <trkpt lat="43.71654" lon="7.26259">
        <ele>116.2</ele>
        <time>2020-08-14T10:29:56Z</time>
      </trkpt>
      <trkpt lat="43.7165" lon="7.26261">
        <ele>116.2</ele>
        <time>2020-08-14T10:29:59Z</time>
      </trkpt>
      <trkpt lat="43.71644" lon="7.26261">
        <ele>116</ele>
        <time>2020-08-14T10:30:03Z</time>
      </trkpt>
      <trkpt lat="43.71631" lon="7.26267">
        <ele>115.8</ele>
        <time>2020-08-14T10:30:12Z</time>
      </trkpt>
      <trkpt lat="43.71617" lon="7.2627">
        <ele>115.4</ele>
        <time>2020-08-14T10:30:20Z</time>
      </trkpt>
      <trkpt lat="43.71615" lon="7.2627">
        <ele>115.4</ele>
        <time>2020-08-14T10:30:21Z</time>
      </trkpt>
      <trkpt lat="43.71609" lon="7.26272">
        <ele>115.4</ele>
        <time>2020-08-14T10:30:25Z</time>
      </trkpt>
      <trkpt lat="43.71602" lon="7.26272">
        <ele>115.2</ele>
        <time>2020-08-14T10:30:30Z</time>
      </trkpt>
      <trkpt lat="43.71596" lon="7.26273">
        <ele>115</ele>
        <time>2020-08-14T10:30:34Z</time>
      </trkpt>
      <trkpt lat="43.71594" lon="7.26273">
        <ele>114.8</ele>
        <time>2020-08-14T10:30:36Z</time>
      </trkpt>
      <trkpt lat="43.71591" lon="7.26277">
        <ele>115.2</ele>
        <time>2020-08-14T10:30:41Z</time>
      </trkpt>
      <trkpt lat="43.71582" lon="7.26282">
        <ele>114.8</ele>
        <time>2020-08-14T10:30:49Z</time>
      </trkpt>
      <trkpt lat="43.71574" lon="7.26284">
        <ele>115</ele>
        <time>2020-08-14T10:30:57Z</time>
      </trkpt>
      <trkpt lat="43.71566" lon="7.2628">
        <ele>114.4</ele>
        <time>2020-08-14T10:31:06Z</time>
      </trkpt>
      <trkpt lat="43.71554" lon="7.26268">
        <ele>114.6</ele>
        <time>2020-08-14T10:31:13Z</time>
      </trkpt>
      <trkpt lat="43.71545" lon="7.26258">
        <ele>114.2</ele>
        <time>2020-08-14T10:31:19Z</time>
      </trkpt>
      <trkpt lat="43.71544" lon="7.26257">
        <ele>114</ele>
        <time>2020-08-14T10:31:20Z</time>
      </trkpt>
      <trkpt lat="43.71543" lon="7.26257">
        <ele>113.6</ele>
        <time>2020-08-14T10:31:21Z</time>
      </trkpt>
      <trkpt lat="43.71541" lon="7.26257">
        <ele>113.2</ele>
        <time>2020-08-14T10:31:23Z</time>
      </trkpt>
      <trkpt lat="43.7154" lon="7.26257">
        <ele>113</ele>
        <time>2020-08-14T10:31:24Z</time>
      </trkpt>
      <trkpt lat="43.71539" lon="7.26259">
        <ele>113</ele>
        <time>2020-08-14T10:31:28Z</time>
      </trkpt>
      <trkpt lat="43.71539" lon="7.2626">
        <ele>113.2</ele>
        <time>2020-08-14T10:31:30Z</time>
      </trkpt>
      <trkpt lat="43.71539" lon="7.26262">
        <ele>113.2</ele>
        <time>2020-08-14T10:31:32Z</time>
      </trkpt>
      <trkpt lat="43.71538" lon="7.26261">
        <ele>113</ele>
        <time>2020-08-14T10:31:33Z</time>
      </trkpt>
      <trkpt lat="43.71528" lon="7.26259">
        <ele>112.4</ele>
        <time>2020-08-14T10:31:39Z</time>
      </trkpt>
      <trkpt lat="43.71517" lon="7.26256">
        <ele>112.8</ele>
        <time>2020-08-14T10:31:44Z</time>
      </trkpt>
      <trkpt lat="43.71516" lon="7.26255">
        <ele>112.8</ele>
        <time>2020-08-14T10:31:45Z</time>
      </trkpt>
      <trkpt lat="43.71513" lon="7.26253">
        <ele>112.8</ele>
        <time>2020-08-14T10:31:47Z</time>
      </trkpt>
      <trkpt lat="43.71507" lon="7.2625">
        <ele>112.6</ele>
        <time>2020-08-14T10:31:50Z</time>
      </trkpt>
      <trkpt lat="43.71504" lon="7.26249">
        <ele>112.6</ele>
        <time>2020-08-14T10:31:51Z</time>
      </trkpt>
      <trkpt lat="43.71493" lon="7.26238">
        <ele>112.4</ele>
        <time>2020-08-14T10:31:59Z</time>
      </trkpt>
      <trkpt lat="43.71489" lon="7.26237">
        <ele>112.4</ele>
        <time>2020-08-14T10:32:01Z</time>
      </trkpt>
      <trkpt lat="43.71482" lon="7.26239">
        <ele>112.4</ele>
        <time>2020-08-14T10:32:05Z</time>
      </trkpt>
      <trkpt lat="43.71478" lon="7.26242">
        <ele>112</ele>
        <time>2020-08-14T10:32:08Z</time>
      </trkpt>
      <trkpt lat="43.7147" lon="7.26247">
        <ele>111.6</ele>
        <time>2020-08-14T10:32:14Z</time>
      </trkpt>
      <trkpt lat="43.71457" lon="7.26252">
        <ele>111.8</ele>
        <time>2020-08-14T10:32:24Z</time>
      </trkpt>
      <trkpt lat="43.71455" lon="7.26252">
        <ele>111.6</ele>
        <time>2020-08-14T10:32:25Z</time>
      </trkpt>
      <trkpt lat="43.7145" lon="7.26252">
        <ele>111.2</ele>
        <time>2020-08-14T10:32:29Z</time>
      </trkpt>
      <trkpt lat="43.71449" lon="7.26252">
        <ele>111.2</ele>
        <time>2020-08-14T10:32:30Z</time>
      </trkpt>
      <trkpt lat="43.71444" lon="7.26251">
        <ele>111.2</ele>
        <time>2020-08-14T10:32:34Z</time>
      </trkpt>
      <trkpt lat="43.71441" lon="7.26251">
        <ele>111.2</ele>
        <time>2020-08-14T10:32:37Z</time>
      </trkpt>
      <trkpt lat="43.71436" lon="7.26254">
        <ele>111</ele>
        <time>2020-08-14T10:32:41Z</time>
      </trkpt>
      <trkpt lat="43.71431" lon="7.26257">
        <ele>111</ele>
        <time>2020-08-14T10:32:45Z</time>
      </trkpt>
      <trkpt lat="43.71429" lon="7.26258">
        <ele>110.8</ele>
        <time>2020-08-14T10:32:47Z</time>
      </trkpt>
      <trkpt lat="43.71416" lon="7.26262">
        <ele>110.8</ele>
        <time>2020-08-14T10:32:57Z</time>
      </trkpt>
      <trkpt lat="43.71403" lon="7.26266">
        <ele>110.2</ele>
        <time>2020-08-14T10:33:07Z</time>
      </trkpt>
      <trkpt lat="43.71395" lon="7.26269">
        <ele>110.2</ele>
        <time>2020-08-14T10:33:13Z</time>
      </trkpt>
      <trkpt lat="43.71391" lon="7.2627">
        <ele>110</ele>
        <time>2020-08-14T10:33:16Z</time>
      </trkpt>
      <trkpt lat="43.71386" lon="7.26271">
        <ele>109.6</ele>
        <time>2020-08-14T10:33:21Z</time>
      </trkpt>
      <trkpt lat="43.71384" lon="7.26271">
        <ele>109.6</ele>
        <time>2020-08-14T10:33:22Z</time>
      </trkpt>
      <trkpt lat="43.71379" lon="7.26269">
        <ele>109.6</ele>
        <time>2020-08-14T10:33:26Z</time>
      </trkpt>
      <trkpt lat="43.71378" lon="7.26269">
        <ele>109.4</ele>
        <time>2020-08-14T10:33:28Z</time>
      </trkpt>
      <trkpt lat="43.71373" lon="7.26267">
        <ele>109.4</ele>
        <time>2020-08-14T10:33:32Z</time>
      </trkpt>
      <trkpt lat="43.71371" lon="7.26268">
        <ele>109.4</ele>
        <time>2020-08-14T10:33:34Z</time>
      </trkpt>
      <trkpt lat="43.71368" lon="7.26269">
        <ele>109.2</ele>
        <time>2020-08-14T10:33:36Z</time>
      </trkpt>
      <trkpt lat="43.71367" lon="7.26265">
        <ele>109.2</ele>
        <time>2020-08-14T10:33:38Z</time>
      </trkpt>
      <trkpt lat="43.71366" lon="7.26261">
        <ele>109</ele>
        <time>2020-08-14T10:33:40Z</time>
      </trkpt>
      <trkpt lat="43.71366" lon="7.26259">
        <ele>109</ele>
        <time>2020-08-14T10:33:41Z</time>
      </trkpt>
      <trkpt lat="43.71367" lon="7.26246">
        <ele>108.6</ele>
        <time>2020-08-14T10:33:48Z</time>
      </trkpt>
      <trkpt lat="43.71366" lon="7.26238">
        <ele>108.6</ele>
        <time>2020-08-14T10:33:53Z</time>
      </trkpt>
      <trkpt lat="43.71365" lon="7.26232">
        <ele>108.6</ele>
        <time>2020-08-14T10:33:56Z</time>
      </trkpt>
      <trkpt lat="43.71365" lon="7.26226">
        <ele>108.4</ele>
        <time>2020-08-14T10:33:59Z</time>
      </trkpt>
      <trkpt lat="43.71365" lon="7.26219">
        <ele>108.2</ele>
        <time>2020-08-14T10:34:03Z</time>
      </trkpt>
      <trkpt lat="43.71365" lon="7.26215">
        <ele>108.2</ele>
        <time>2020-08-14T10:34:05Z</time>
      </trkpt>
      <trkpt lat="43.71365" lon="7.2621">
        <ele>108.2</ele>
        <time>2020-08-14T10:34:08Z</time>
      </trkpt>
      <trkpt lat="43.71365" lon="7.26207">
        <ele>108.2</ele>
        <time>2020-08-14T10:34:10Z</time>
      </trkpt>
      <trkpt lat="43.71363" lon="7.26201">
        <ele>108</ele>
        <time>2020-08-14T10:34:13Z</time>
      </trkpt>
      <trkpt lat="43.7136" lon="7.26195">
        <ele>107.8</ele>
        <time>2020-08-14T10:34:16Z</time>
      </trkpt>
      <trkpt lat="43.7136" lon="7.26193">
        <ele>107.8</ele>
        <time>2020-08-14T10:34:18Z</time>
      </trkpt>
      <trkpt lat="43.71362" lon="7.26187">
        <ele>107.8</ele>
        <time>2020-08-14T10:34:21Z</time>
      </trkpt>
      <trkpt lat="43.71362" lon="7.2618">
        <ele>107.8</ele>
        <time>2020-08-14T10:34:24Z</time>
      </trkpt>
      <trkpt lat="43.71361" lon="7.26178">
        <ele>107.8</ele>
        <time>2020-08-14T10:34:25Z</time>
      </trkpt>
      <trkpt lat="43.71357" lon="7.26173">
        <ele>107.6</ele>
        <time>2020-08-14T10:34:28Z</time>
      </trkpt>
      <trkpt lat="43.71348" lon="7.26171">
        <ele>107.6</ele>
        <time>2020-08-14T10:34:35Z</time>
      </trkpt>
      <trkpt lat="43.7134" lon="7.26167">
        <ele>107.4</ele>
        <time>2020-08-14T10:34:41Z</time>
      </trkpt>
      <trkpt lat="43.71334" lon="7.26165">
        <ele>107.2</ele>
        <time>2020-08-14T10:34:45Z</time>
      </trkpt>
      <trkpt lat="43.71332" lon="7.26167">
        <ele>107</ele>
        <time>2020-08-14T10:34:48Z</time>
      </trkpt>
      <trkpt lat="43.71326" lon="7.26169">
        <ele>107</ele>
        <time>2020-08-14T10:34:54Z</time>
      </trkpt>
      <trkpt lat="43.71325" lon="7.26169">
        <ele>106.8</ele>
        <time>2020-08-14T10:34:55Z</time>
      </trkpt>
      <trkpt lat="43.71316" lon="7.26171">
        <ele>106.4</ele>
        <time>2020-08-14T10:35:02Z</time>
      </trkpt>
      <trkpt lat="43.71315" lon="7.26171">
        <ele>106.4</ele>
        <time>2020-08-14T10:35:03Z</time>
      </trkpt>
      <trkpt lat="43.71311" lon="7.26175">
        <ele>106</ele>
        <time>2020-08-14T10:35:08Z</time>
      </trkpt>
      <trkpt lat="43.71306" lon="7.26177">
        <ele>105.8</ele>
        <time>2020-08-14T10:35:12Z</time>
      </trkpt>
      <trkpt lat="43.71302" lon="7.26177">
        <ele>105.8</ele>
        <time>2020-08-14T10:35:15Z</time>
      </trkpt>
      <trkpt lat="43.71299" lon="7.26176">
        <ele>105.6</ele>
        <time>2020-08-14T10:35:18Z</time>
      </trkpt>
      <trkpt lat="43.71296" lon="7.26176">
        <ele>105.6</ele>
        <time>2020-08-14T10:35:20Z</time>
      </trkpt>
      <trkpt lat="43.71293" lon="7.26178">
        <ele>105.6</ele>
        <time>2020-08-14T10:35:23Z</time>
      </trkpt>
      <trkpt lat="43.71292" lon="7.26179">
        <ele>105.6</ele>
        <time>2020-08-14T10:35:24Z</time>
      </trkpt>
      <trkpt lat="43.71289" lon="7.26179">
        <ele>105.4</ele>
        <time>2020-08-14T10:35:26Z</time>
      </trkpt>
      <trkpt lat="43.71286" lon="7.26177">
        <ele>105.4</ele>
        <time>2020-08-14T10:35:28Z</time>
      </trkpt>
      <trkpt lat="43.71283" lon="7.26174">
        <ele>105.4</ele>
        <time>2020-08-14T10:35:29Z</time>
      </trkpt>
      <trkpt lat="43.71275" lon="7.26171">
        <ele>105.6</ele>
        <time>2020-08-14T10:35:34Z</time>
      </trkpt>
      <trkpt lat="43.71269" lon="7.2617">
        <ele>106</ele>
        <time>2020-08-14T10:35:38Z</time>
      </trkpt>
      <trkpt lat="43.71259" lon="7.26166">
        <ele>105.4</ele>
        <time>2020-08-14T10:35:46Z</time>
      </trkpt>
      <trkpt lat="43.71255" lon="7.26166">
        <ele>105.2</ele>
        <time>2020-08-14T10:35:49Z</time>
      </trkpt>
      <trkpt lat="43.71253" lon="7.26167">
        <ele>105.2</ele>
        <time>2020-08-14T10:35:51Z</time>
      </trkpt>
      <trkpt lat="43.71252" lon="7.26168">
        <ele>105.2</ele>
        <time>2020-08-14T10:35:52Z</time>
      </trkpt>
      <trkpt lat="43.7124" lon="7.26167">
        <ele>105.2</ele>
        <time>2020-08-14T10:35:59Z</time>
      </trkpt>
      <trkpt lat="43.71236" lon="7.26166">
        <ele>104.8</ele>
        <time>2020-08-14T10:36:02Z</time>
      </trkpt>
      <trkpt lat="43.71235" lon="7.26168">
        <ele>104.8</ele>
        <time>2020-08-14T10:36:03Z</time>
      </trkpt>
      <trkpt lat="43.71233" lon="7.26172">
        <ele>104.8</ele>
        <time>2020-08-14T10:36:05Z</time>
      </trkpt>
      <trkpt lat="43.71232" lon="7.26172">
        <ele>104.8</ele>
        <time>2020-08-14T10:36:06Z</time>
      </trkpt>
      <trkpt lat="43.71225" lon="7.26172">
        <ele>104.8</ele>
        <time>2020-08-14T10:36:13Z</time>
      </trkpt>
      <trkpt lat="43.71224" lon="7.26173">
        <ele>104.8</ele>
        <time>2020-08-14T10:36:14Z</time>
      </trkpt>
      <trkpt lat="43.71222" lon="7.26173">
        <ele>104.6</ele>
        <time>2020-08-14T10:36:16Z</time>
      </trkpt>
      <trkpt lat="43.71216" lon="7.26172">
        <ele>104.6</ele>
        <time>2020-08-14T10:36:20Z</time>
      </trkpt>
      <trkpt lat="43.71211" lon="7.26168">
        <ele>104.6</ele>
        <time>2020-08-14T10:36:23Z</time>
      </trkpt>
      <trkpt lat="43.71207" lon="7.26167">
        <ele>104.4</ele>
        <time>2020-08-14T10:36:26Z</time>
      </trkpt>
      <trkpt lat="43.712" lon="7.26164">
        <ele>104.4</ele>
        <time>2020-08-14T10:36:30Z</time>
      </trkpt>
      <trkpt lat="43.71197" lon="7.26163">
        <ele>104.4</ele>
        <time>2020-08-14T10:36:33Z</time>
      </trkpt>
      <trkpt lat="43.7119" lon="7.26162">
        <ele>104.2</ele>
        <time>2020-08-14T10:36:36Z</time>
      </trkpt>
      <trkpt lat="43.71186" lon="7.26163">
        <ele>104.2</ele>
        <time>2020-08-14T10:36:39Z</time>
      </trkpt>
      <trkpt lat="43.71185" lon="7.26163">
        <ele>104.2</ele>
        <time>2020-08-14T10:36:40Z</time>
      </trkpt>
      <trkpt lat="43.7118" lon="7.26169">
        <ele>104</ele>
        <time>2020-08-14T10:36:44Z</time>
      </trkpt>
      <trkpt lat="43.71177" lon="7.26171">
        <ele>104</ele>
        <time>2020-08-14T10:36:47Z</time>
      </trkpt>
      <trkpt lat="43.71175" lon="7.26171">
        <ele>104</ele>
        <time>2020-08-14T10:36:48Z</time>
      </trkpt>
      <trkpt lat="43.7117" lon="7.26173">
        <ele>103.8</ele>
        <time>2020-08-14T10:36:53Z</time>
      </trkpt>
      <trkpt lat="43.71169" lon="7.26175">
        <ele>104</ele>
        <time>2020-08-14T10:36:54Z</time>
      </trkpt>
      <trkpt lat="43.71166" lon="7.26178">
        <ele>103.8</ele>
        <time>2020-08-14T10:36:58Z</time>
      </trkpt>
      <trkpt lat="43.71163" lon="7.26177">
        <ele>103.8</ele>
        <time>2020-08-14T10:37:01Z</time>
      </trkpt>
      <trkpt lat="43.71159" lon="7.26177">
        <ele>103.6</ele>
        <time>2020-08-14T10:37:04Z</time>
      </trkpt>
      <trkpt lat="43.71154" lon="7.26178">
        <ele>104</ele>
        <time>2020-08-14T10:37:08Z</time>
      </trkpt>
      <trkpt lat="43.71142" lon="7.26185">
        <ele>103.4</ele>
        <time>2020-08-14T10:37:18Z</time>
      </trkpt>
      <trkpt lat="43.71134" lon="7.2619">
        <ele>103.2</ele>
        <time>2020-08-14T10:37:25Z</time>
      </trkpt>
      <trkpt lat="43.7113" lon="7.26191">
        <ele>103.2</ele>
        <time>2020-08-14T10:37:28Z</time>
      </trkpt>
      <trkpt lat="43.71124" lon="7.26193">
        <ele>103</ele>
        <time>2020-08-14T10:37:33Z</time>
      </trkpt>
      <trkpt lat="43.71123" lon="7.26193">
        <ele>102.8</ele>
        <time>2020-08-14T10:37:34Z</time>
      </trkpt>
      <trkpt lat="43.71122" lon="7.26193">
        <ele>102.6</ele>
        <time>2020-08-14T10:37:35Z</time>
      </trkpt>
      <trkpt lat="43.71116" lon="7.26187">
        <ele>102.6</ele>
        <time>2020-08-14T10:37:40Z</time>
      </trkpt>
      <trkpt lat="43.71107" lon="7.26182">
        <ele>102.4</ele>
        <time>2020-08-14T10:37:46Z</time>
      </trkpt>
      <trkpt lat="43.711" lon="7.26177">
        <ele>102.4</ele>
        <time>2020-08-14T10:37:52Z</time>
      </trkpt>
      <trkpt lat="43.71095" lon="7.26177">
        <ele>102</ele>
        <time>2020-08-14T10:37:57Z</time>
      </trkpt>
      <trkpt lat="43.71087" lon="7.26175">
        <ele>102</ele>
        <time>2020-08-14T10:38:01Z</time>
      </trkpt>
      <trkpt lat="43.71081" lon="7.26172">
        <ele>101.8</ele>
        <time>2020-08-14T10:38:05Z</time>
      </trkpt>
      <trkpt lat="43.71076" lon="7.2617">
        <ele>101.6</ele>
        <time>2020-08-14T10:38:08Z</time>
      </trkpt>
      <trkpt lat="43.71074" lon="7.26169">
        <ele>101.6</ele>
        <time>2020-08-14T10:38:10Z</time>
      </trkpt>
      <trkpt lat="43.71073" lon="7.26169">
        <ele>101.6</ele>
        <time>2020-08-14T10:38:11Z</time>
      </trkpt>
      <trkpt lat="43.71068" lon="7.26173">
        <ele>101.4</ele>
        <time>2020-08-14T10:38:14Z</time>
      </trkpt>
      <trkpt lat="43.71065" lon="7.26176">
        <ele>101.2</ele>
        <time>2020-08-14T10:38:17Z</time>
      </trkpt>
      <trkpt lat="43.71063" lon="7.26181">
        <ele>101.4</ele>
        <time>2020-08-14T10:38:19Z</time>
      </trkpt>
      <trkpt lat="43.7106" lon="7.26184">
        <ele>101.2</ele>
        <time>2020-08-14T10:38:23Z</time>
      </trkpt>
      <trkpt lat="43.71056" lon="7.26186">
        <ele>101</ele>
        <time>2020-08-14T10:38:28Z</time>
      </trkpt>
      <trkpt lat="43.71051" lon="7.26187">
        <ele>100.8</ele>
        <time>2020-08-14T10:38:33Z</time>
      </trkpt>
      <trkpt lat="43.71049" lon="7.26186">
        <ele>100.8</ele>
        <time>2020-08-14T10:38:35Z</time>
      </trkpt>
      <trkpt lat="43.71043" lon="7.26188">
        <ele>100.6</ele>
        <time>2020-08-14T10:38:40Z</time>
      </trkpt>
      <trkpt lat="43.71042" lon="7.26188">
        <ele>100.6</ele>
        <time>2020-08-14T10:38:41Z</time>
      </trkpt>
      <trkpt lat="43.71037" lon="7.26188">
        <ele>100.6</ele>
        <time>2020-08-14T10:38:44Z</time>
      </trkpt>
      <trkpt lat="43.71029" lon="7.26195">
        <ele>100.4</ele>
        <time>2020-08-14T10:38:51Z</time>
      </trkpt>
      <trkpt lat="43.71027" lon="7.26195">
        <ele>100.2</ele>
        <time>2020-08-14T10:38:54Z</time>
      </trkpt>
      <trkpt lat="43.71026" lon="7.26192">
        <ele>99.8</ele>
        <time>2020-08-14T10:38:56Z</time>
      </trkpt>
      <trkpt lat="43.71026" lon="7.26191">
        <ele>99.8</ele>
        <time>2020-08-14T10:38:57Z</time>
      </trkpt>
      <trkpt lat="43.71026" lon="7.26189">
        <ele>99.8</ele>
        <time>2020-08-14T10:38:58Z</time>
      </trkpt>
      <trkpt lat="43.71023" lon="7.26181">
        <ele>100</ele>
        <time>2020-08-14T10:39:05Z</time>
      </trkpt>
      <trkpt lat="43.7102" lon="7.26167">
        <ele>99.6</ele>
        <time>2020-08-14T10:39:14Z</time>
      </trkpt>
      <trkpt lat="43.71019" lon="7.26162">
        <ele>99.4</ele>
        <time>2020-08-14T10:39:18Z</time>
      </trkpt>
      <trkpt lat="43.71019" lon="7.26159">
        <ele>99.4</ele>
        <time>2020-08-14T10:39:21Z</time>
      </trkpt>
      <trkpt lat="43.71019" lon="7.26158">
        <ele>99.4</ele>
        <time>2020-08-14T10:39:22Z</time>
      </trkpt>
      <trkpt lat="43.71018" lon="7.26158">
        <ele>99.4</ele>
        <time>2020-08-14T10:39:24Z</time>
      </trkpt>
      <trkpt lat="43.71018" lon="7.26158">
        <ele>99.4</ele>
        <time>2020-08-14T10:39:27Z</time>
      </trkpt>
      <trkpt lat="43.71017" lon="7.26158">
        <ele>99.4</ele>
        <time>2020-08-14T10:39:29Z</time>
      </trkpt>
      <trkpt lat="43.71017" lon="7.26162">
        <ele>99.6</ele>
        <time>2020-08-14T10:39:33Z</time>
      </trkpt>
      <trkpt lat="43.71016" lon="7.26162">
        <ele>99.6</ele>
        <time>2020-08-14T10:39:34Z</time>
      </trkpt>
      <trkpt lat="43.71016" lon="7.26164">
        <ele>99.4</ele>
        <time>2020-08-14T10:39:38Z</time>
      </trkpt>
      <trkpt lat="43.71016" lon="7.26164">
        <ele>99.4</ele>
        <time>2020-08-14T10:39:44Z</time>
      </trkpt>
      <trkpt lat="43.71017" lon="7.26165">
        <ele>99.2</ele>
        <time>2020-08-14T10:39:53Z</time>
      </trkpt>
      <trkpt lat="43.71018" lon="7.26166">
        <ele>99.2</ele>
        <time>2020-08-14T10:39:56Z</time>
      </trkpt>
      <trkpt lat="43.71018" lon="7.26166">
        <ele>99.2</ele>
        <time>2020-08-14T10:39:57Z</time>
      </trkpt>
      <trkpt lat="43.71019" lon="7.26167">
        <ele>99.2</ele>
        <time>2020-08-14T10:40:00Z</time>
      </trkpt>
      <trkpt lat="43.71022" lon="7.26168">
        <ele>99.6</ele>
        <time>2020-08-14T10:40:12Z</time>
      </trkpt>
      <trkpt lat="43.71023" lon="7.26166">
        <ele>99</ele>
        <time>2020-08-14T10:40:26Z</time>
      </trkpt>
      <trkpt lat="43.71023" lon="7.26166">
        <ele>99</ele>
        <time>2020-08-14T10:40:29Z</time>
      </trkpt>
      <trkpt lat="43.71023" lon="7.26166">
        <ele>98.8</ele>
        <time>2020-08-14T10:40:32Z</time>
      </trkpt>
      <trkpt lat="43.71023" lon="7.26166">
        <ele>98.8</ele>
        <time>2020-08-14T11:33:30Z</time>
      </trkpt>
      <trkpt lat="43.70991" lon="7.26218">
        <ele>98.6</ele>
        <time>2020-08-14T11:33:41Z</time>
      </trkpt>
      <trkpt lat="43.70987" lon="7.26217">
        <ele>98.6</ele>
        <time>2020-08-14T11:33:44Z</time>
      </trkpt>
      <trkpt lat="43.70978" lon="7.26222">
        <ele>98.4</ele>
        <time>2020-08-14T11:33:53Z</time>
      </trkpt>
      <trkpt lat="43.70977" lon="7.26223">
        <ele>98.4</ele>
        <time>2020-08-14T11:33:55Z</time>
      </trkpt>
      <trkpt lat="43.70974" lon="7.26225">
        <ele>98.4</ele>
        <time>2020-08-14T11:33:58Z</time>
      </trkpt>
      <trkpt lat="43.7097" lon="7.26226">
        <ele>98.2</ele>
        <time>2020-08-14T11:34:02Z</time>
      </trkpt>
      <trkpt lat="43.70967" lon="7.26228">
        <ele>98.2</ele>
        <time>2020-08-14T11:34:05Z</time>
      </trkpt>
      <trkpt lat="43.70965" lon="7.26228">
        <ele>98</ele>
        <time>2020-08-14T11:34:07Z</time>
      </trkpt>
      <trkpt lat="43.70957" lon="7.26233">
        <ele>97.8</ele>
        <time>2020-08-14T11:34:16Z</time>
      </trkpt>
      <trkpt lat="43.70957" lon="7.26234">
        <ele>97.8</ele>
        <time>2020-08-14T11:34:17Z</time>
      </trkpt>
      <trkpt lat="43.70953" lon="7.26235">
        <ele>97.8</ele>
        <time>2020-08-14T11:34:21Z</time>
      </trkpt>
      <trkpt lat="43.70945" lon="7.26239">
        <ele>97.6</ele>
        <time>2020-08-14T11:34:31Z</time>
      </trkpt>
      <trkpt lat="43.70937" lon="7.26244">
        <ele>97.2</ele>
        <time>2020-08-14T11:34:40Z</time>
      </trkpt>
      <trkpt lat="43.70928" lon="7.26247">
        <ele>97</ele>
        <time>2020-08-14T11:34:51Z</time>
      </trkpt>
      <trkpt lat="43.70928" lon="7.26248">
        <ele>97.2</ele>
        <time>2020-08-14T11:34:55Z</time>
      </trkpt>
      <trkpt lat="43.70928" lon="7.26248">
        <ele>97.2</ele>
        <time>2020-08-14T11:34:57Z</time>
      </trkpt>
      <trkpt lat="43.70927" lon="7.26249">
        <ele>97.2</ele>
        <time>2020-08-14T11:34:58Z</time>
      </trkpt>
      <trkpt lat="43.70928" lon="7.26249">
        <ele>97.2</ele>
        <time>2020-08-14T11:35:10Z</time>
      </trkpt>
      <trkpt lat="43.70922" lon="7.26247">
        <ele>97.4</ele>
        <time>2020-08-14T11:35:35Z</time>
      </trkpt>
      <trkpt lat="43.70914" lon="7.26248">
        <ele>97.4</ele>
        <time>2020-08-14T11:35:40Z</time>
      </trkpt>
      <trkpt lat="43.7091" lon="7.26248">
        <ele>97.4</ele>
        <time>2020-08-14T11:35:43Z</time>
      </trkpt>
      <trkpt lat="43.70908" lon="7.26247">
        <ele>97.2</ele>
        <time>2020-08-14T11:35:47Z</time>
      </trkpt>
      <trkpt lat="43.70908" lon="7.26248">
        <ele>97.2</ele>
        <time>2020-08-14T11:35:48Z</time>
      </trkpt>
      <trkpt lat="43.70904" lon="7.26247">
        <ele>97</ele>
        <time>2020-08-14T11:35:55Z</time>
      </trkpt>
      <trkpt lat="43.70899" lon="7.26244">
        <ele>97</ele>
        <time>2020-08-14T11:35:58Z</time>
      </trkpt>
      <trkpt lat="43.70899" lon="7.2625">
        <ele>97.2</ele>
        <time>2020-08-14T11:36:01Z</time>
      </trkpt>
      <trkpt lat="43.70902" lon="7.26249">
        <ele>97.2</ele>
        <time>2020-08-14T11:36:05Z</time>
      </trkpt>
      <trkpt lat="43.70903" lon="7.26246">
        <ele>96.6</ele>
        <time>2020-08-14T11:36:09Z</time>
      </trkpt>
      <trkpt lat="43.70903" lon="7.26246">
        <ele>95.4</ele>
        <time>2020-08-14T11:36:11Z</time>
      </trkpt>
      <trkpt lat="43.70898" lon="7.26247">
        <ele>94.4</ele>
        <time>2020-08-14T11:36:14Z</time>
      </trkpt>
      <trkpt lat="43.70896" lon="7.26249">
        <ele>94.2</ele>
        <time>2020-08-14T11:36:15Z</time>
      </trkpt>
      <trkpt lat="43.70887" lon="7.26261">
        <ele>94.4</ele>
        <time>2020-08-14T11:36:18Z</time>
      </trkpt>
      <trkpt lat="43.70869" lon="7.26275">
        <ele>94.4</ele>
        <time>2020-08-14T11:36:22Z</time>
      </trkpt>
      <trkpt lat="43.70848" lon="7.26287">
        <ele>94.2</ele>
        <time>2020-08-14T11:36:26Z</time>
      </trkpt>
      <trkpt lat="43.70843" lon="7.26289">
        <ele>94.2</ele>
        <time>2020-08-14T11:36:27Z</time>
      </trkpt>
      <trkpt lat="43.7082" lon="7.26298">
        <ele>94</ele>
        <time>2020-08-14T11:36:31Z</time>
      </trkpt>
      <trkpt lat="43.70815" lon="7.26302">
        <ele>94</ele>
        <time>2020-08-14T11:36:32Z</time>
      </trkpt>
      <trkpt lat="43.70795" lon="7.26314">
        <ele>93.6</ele>
        <time>2020-08-14T11:36:36Z</time>
      </trkpt>
      <trkpt lat="43.70785" lon="7.26318">
        <ele>93.2</ele>
        <time>2020-08-14T11:36:38Z</time>
      </trkpt>
      <trkpt lat="43.70772" lon="7.26327">
        <ele>92.6</ele>
        <time>2020-08-14T11:36:41Z</time>
      </trkpt>
      <trkpt lat="43.70753" lon="7.2634">
        <ele>92.2</ele>
        <time>2020-08-14T11:36:45Z</time>
      </trkpt>
      <trkpt lat="43.70749" lon="7.26344">
        <ele>92.2</ele>
        <time>2020-08-14T11:36:46Z</time>
      </trkpt>
      <trkpt lat="43.70744" lon="7.26348">
        <ele>92.2</ele>
        <time>2020-08-14T11:36:47Z</time>
      </trkpt>
      <trkpt lat="43.70728" lon="7.2636">
        <ele>91.8</ele>
        <time>2020-08-14T11:36:50Z</time>
      </trkpt>
      <trkpt lat="43.70722" lon="7.26363">
        <ele>91.8</ele>
        <time>2020-08-14T11:36:51Z</time>
      </trkpt>
      <trkpt lat="43.70707" lon="7.26376">
        <ele>91.4</ele>
        <time>2020-08-14T11:36:54Z</time>
      </trkpt>
      <trkpt lat="43.70693" lon="7.26388">
        <ele>91.2</ele>
        <time>2020-08-14T11:36:57Z</time>
      </trkpt>
      <trkpt lat="43.70687" lon="7.2639">
        <ele>91.2</ele>
        <time>2020-08-14T11:36:58Z</time>
      </trkpt>
      <trkpt lat="43.7067" lon="7.264">
        <ele>90.8</ele>
        <time>2020-08-14T11:37:01Z</time>
      </trkpt>
      <trkpt lat="43.7066" lon="7.26407">
        <ele>90.4</ele>
        <time>2020-08-14T11:37:04Z</time>
      </trkpt>
      <trkpt lat="43.70657" lon="7.26409">
        <ele>90.4</ele>
        <time>2020-08-14T11:37:05Z</time>
      </trkpt>
      <trkpt lat="43.70649" lon="7.26416">
        <ele>90</ele>
        <time>2020-08-14T11:37:08Z</time>
      </trkpt>
      <trkpt lat="43.70642" lon="7.26424">
        <ele>89.6</ele>
        <time>2020-08-14T11:37:11Z</time>
      </trkpt>
      <trkpt lat="43.70638" lon="7.26428">
        <ele>89.4</ele>
        <time>2020-08-14T11:37:13Z</time>
      </trkpt>
      <trkpt lat="43.70632" lon="7.26433">
        <ele>89</ele>
        <time>2020-08-14T11:37:15Z</time>
      </trkpt>
      <trkpt lat="43.70628" lon="7.26436">
        <ele>89</ele>
        <time>2020-08-14T11:37:16Z</time>
      </trkpt>
      <trkpt lat="43.70596" lon="7.26464">
        <ele>88.2</ele>
        <time>2020-08-14T11:37:28Z</time>
      </trkpt>
      <trkpt lat="43.70585" lon="7.26467">
        <ele>88.2</ele>
        <time>2020-08-14T11:37:31Z</time>
      </trkpt>
      <trkpt lat="43.70581" lon="7.26471">
        <ele>88</ele>
        <time>2020-08-14T11:37:32Z</time>
      </trkpt>
      <trkpt lat="43.70573" lon="7.26475">
        <ele>88</ele>
        <time>2020-08-14T11:37:34Z</time>
      </trkpt>
      <trkpt lat="43.7057" lon="7.26477">
        <ele>88</ele>
        <time>2020-08-14T11:37:35Z</time>
      </trkpt>
      <trkpt lat="43.70566" lon="7.26479">
        <ele>88.2</ele>
        <time>2020-08-14T11:37:37Z</time>
      </trkpt>
      <trkpt lat="43.70559" lon="7.2648">
        <ele>88.2</ele>
        <time>2020-08-14T11:37:41Z</time>
      </trkpt>
      <trkpt lat="43.7056" lon="7.26481">
        <ele>89</ele>
        <time>2020-08-14T11:37:44Z</time>
      </trkpt>
      <trkpt lat="43.70562" lon="7.2648">
        <ele>89.8</ele>
        <time>2020-08-14T11:37:46Z</time>
      </trkpt>
      <trkpt lat="43.70558" lon="7.26478">
        <ele>90</ele>
        <time>2020-08-14T11:37:48Z</time>
      </trkpt>
      <trkpt lat="43.70557" lon="7.26479">
        <ele>90</ele>
        <time>2020-08-14T11:37:50Z</time>
      </trkpt>
      <trkpt lat="43.70557" lon="7.2648">
        <ele>90</ele>
        <time>2020-08-14T11:37:51Z</time>
      </trkpt>
      <trkpt lat="43.70554" lon="7.26481">
        <ele>90</ele>
        <time>2020-08-14T11:37:55Z</time>
      </trkpt>
      <trkpt lat="43.70554" lon="7.26481">
        <ele>90</ele>
        <time>2020-08-14T11:37:56Z</time>
      </trkpt>
      <trkpt lat="43.70554" lon="7.26483">
        <ele>90</ele>
        <time>2020-08-14T11:38:01Z</time>
      </trkpt>
      <trkpt lat="43.70549" lon="7.26474">
        <ele>90</ele>
        <time>2020-08-14T11:38:04Z</time>
      </trkpt>
      <trkpt lat="43.70548" lon="7.2647">
        <ele>90</ele>
        <time>2020-08-14T11:38:06Z</time>
      </trkpt>
      <trkpt lat="43.70548" lon="7.26469">
        <ele>90</ele>
        <time>2020-08-14T11:38:07Z</time>
      </trkpt>
      <trkpt lat="43.70548" lon="7.26467">
        <ele>90.2</ele>
        <time>2020-08-14T11:38:10Z</time>
      </trkpt>
      <trkpt lat="43.70551" lon="7.26465">
        <ele>90.2</ele>
        <time>2020-08-14T11:38:13Z</time>
      </trkpt>
      <trkpt lat="43.70551" lon="7.26466">
        <ele>90.2</ele>
        <time>2020-08-14T11:38:15Z</time>
      </trkpt>
      <trkpt lat="43.70554" lon="7.26466">
        <ele>88.8</ele>
        <time>2020-08-14T11:38:18Z</time>
      </trkpt>
      <trkpt lat="43.70555" lon="7.26467">
        <ele>88.6</ele>
        <time>2020-08-14T11:38:19Z</time>
      </trkpt>
      <trkpt lat="43.70554" lon="7.26466">
        <ele>88.2</ele>
        <time>2020-08-14T11:38:22Z</time>
      </trkpt>
      <trkpt lat="43.70551" lon="7.26465">
        <ele>88</ele>
        <time>2020-08-14T11:38:24Z</time>
      </trkpt>
      <trkpt lat="43.7055" lon="7.26465">
        <ele>87.6</ele>
        <time>2020-08-14T11:38:25Z</time>
      </trkpt>
      <trkpt lat="43.70547" lon="7.26466">
        <ele>87.4</ele>
        <time>2020-08-14T11:38:26Z</time>
      </trkpt>
      <trkpt lat="43.7054" lon="7.26467">
        <ele>87.4</ele>
        <time>2020-08-14T11:38:28Z</time>
      </trkpt>
      <trkpt lat="43.70527" lon="7.26474">
        <ele>87.6</ele>
        <time>2020-08-14T11:38:31Z</time>
      </trkpt>
      <trkpt lat="43.70522" lon="7.26478">
        <ele>87.6</ele>
        <time>2020-08-14T11:38:32Z</time>
      </trkpt>
      <trkpt lat="43.70503" lon="7.26493">
        <ele>87.8</ele>
        <time>2020-08-14T11:38:36Z</time>
      </trkpt>
      <trkpt lat="43.70486" lon="7.26506">
        <ele>87.8</ele>
        <time>2020-08-14T11:38:39Z</time>
      </trkpt>
      <trkpt lat="43.70475" lon="7.26514">
        <ele>87.6</ele>
        <time>2020-08-14T11:38:41Z</time>
      </trkpt>
      <trkpt lat="43.7047" lon="7.26518">
        <ele>87.6</ele>
        <time>2020-08-14T11:38:42Z</time>
      </trkpt>
      <trkpt lat="43.70455" lon="7.2653">
        <ele>87.4</ele>
        <time>2020-08-14T11:38:45Z</time>
      </trkpt>
      <trkpt lat="43.70436" lon="7.26542">
        <ele>87.4</ele>
        <time>2020-08-14T11:38:48Z</time>
      </trkpt>
      <trkpt lat="43.70421" lon="7.26553">
        <ele>87.2</ele>
        <time>2020-08-14T11:38:51Z</time>
      </trkpt>
      <trkpt lat="43.70404" lon="7.26566">
        <ele>87</ele>
        <time>2020-08-14T11:38:55Z</time>
      </trkpt>
      <trkpt lat="43.70395" lon="7.2657">
        <ele>86.8</ele>
        <time>2020-08-14T11:38:57Z</time>
      </trkpt>
      <trkpt lat="43.70385" lon="7.26576">
        <ele>86.6</ele>
        <time>2020-08-14T11:38:59Z</time>
      </trkpt>
      <trkpt lat="43.70369" lon="7.26585">
        <ele>86.4</ele>
        <time>2020-08-14T11:39:02Z</time>
      </trkpt>
      <trkpt lat="43.7036" lon="7.26591">
        <ele>86.2</ele>
        <time>2020-08-14T11:39:04Z</time>
      </trkpt>
      <trkpt lat="43.70356" lon="7.26597">
        <ele>86.2</ele>
        <time>2020-08-14T11:39:06Z</time>
      </trkpt>
      <trkpt lat="43.70353" lon="7.266">
        <ele>86</ele>
        <time>2020-08-14T11:39:08Z</time>
      </trkpt>
      <trkpt lat="43.70331" lon="7.26612">
        <ele>86</ele>
        <time>2020-08-14T11:39:12Z</time>
      </trkpt>
      <trkpt lat="43.70314" lon="7.26622">
        <ele>86</ele>
        <time>2020-08-14T11:39:15Z</time>
      </trkpt>
      <trkpt lat="43.70309" lon="7.26626">
        <ele>86</ele>
        <time>2020-08-14T11:39:16Z</time>
      </trkpt>
      <trkpt lat="43.70304" lon="7.26629">
        <ele>85.8</ele>
        <time>2020-08-14T11:39:17Z</time>
      </trkpt>
      <trkpt lat="43.70294" lon="7.26639">
        <ele>85.6</ele>
        <time>2020-08-14T11:39:19Z</time>
      </trkpt>
      <trkpt lat="43.70289" lon="7.26641">
        <ele>85.4</ele>
        <time>2020-08-14T11:39:20Z</time>
      </trkpt>
      <trkpt lat="43.70278" lon="7.26649">
        <ele>85.4</ele>
        <time>2020-08-14T11:39:22Z</time>
      </trkpt>
      <trkpt lat="43.70268" lon="7.26655">
        <ele>85.2</ele>
        <time>2020-08-14T11:39:24Z</time>
      </trkpt>
      <trkpt lat="43.70257" lon="7.26664">
        <ele>85.2</ele>
        <time>2020-08-14T11:39:26Z</time>
      </trkpt>
      <trkpt lat="43.70247" lon="7.26673">
        <ele>85.4</ele>
        <time>2020-08-14T11:39:28Z</time>
      </trkpt>
      <trkpt lat="43.70242" lon="7.26677">
        <ele>85.4</ele>
        <time>2020-08-14T11:39:29Z</time>
      </trkpt>
      <trkpt lat="43.70235" lon="7.26684">
        <ele>85.4</ele>
        <time>2020-08-14T11:39:31Z</time>
      </trkpt>
      <trkpt lat="43.70233" lon="7.26686">
        <ele>85.2</ele>
        <time>2020-08-14T11:39:32Z</time>
      </trkpt>
      <trkpt lat="43.7023" lon="7.26689">
        <ele>85.2</ele>
        <time>2020-08-14T11:39:33Z</time>
      </trkpt>
      <trkpt lat="43.70225" lon="7.26695">
        <ele>85.2</ele>
        <time>2020-08-14T11:39:35Z</time>
      </trkpt>
      <trkpt lat="43.70219" lon="7.26699">
        <ele>85</ele>
        <time>2020-08-14T11:39:37Z</time>
      </trkpt>
      <trkpt lat="43.702" lon="7.26711">
        <ele>85</ele>
        <time>2020-08-14T11:39:42Z</time>
      </trkpt>
      <trkpt lat="43.70197" lon="7.26713">
        <ele>85</ele>
        <time>2020-08-14T11:39:43Z</time>
      </trkpt>
      <trkpt lat="43.70191" lon="7.26712">
        <ele>85.6</ele>
        <time>2020-08-14T11:39:48Z</time>
      </trkpt>
      <trkpt lat="43.7019" lon="7.26704">
        <ele>86.6</ele>
        <time>2020-08-14T11:39:51Z</time>
      </trkpt>
      <trkpt lat="43.7019" lon="7.26702">
        <ele>86.6</ele>
        <time>2020-08-14T11:39:52Z</time>
      </trkpt>
      <trkpt lat="43.70189" lon="7.26701">
        <ele>86.8</ele>
        <time>2020-08-14T11:39:54Z</time>
      </trkpt>
      <trkpt lat="43.70184" lon="7.26702">
        <ele>86.8</ele>
        <time>2020-08-14T11:39:57Z</time>
      </trkpt>
      <trkpt lat="43.70183" lon="7.26705">
        <ele>86.8</ele>
        <time>2020-08-14T11:40:01Z</time>
      </trkpt>
      <trkpt lat="43.70183" lon="7.26706">
        <ele>86.8</ele>
        <time>2020-08-14T11:40:03Z</time>
      </trkpt>
      <trkpt lat="43.70183" lon="7.26706">
        <ele>86.8</ele>
        <time>2020-08-14T11:40:04Z</time>
      </trkpt>
      <trkpt lat="43.70183" lon="7.26706">
        <ele>87</ele>
        <time>2020-08-14T11:40:07Z</time>
      </trkpt>
      <trkpt lat="43.70183" lon="7.26706">
        <ele>87</ele>
        <time>2020-08-14T11:40:08Z</time>
      </trkpt>
      <trkpt lat="43.70185" lon="7.26705">
        <ele>87</ele>
        <time>2020-08-14T11:40:10Z</time>
      </trkpt>
      <trkpt lat="43.70183" lon="7.26707">
        <ele>87</ele>
        <time>2020-08-14T11:40:13Z</time>
      </trkpt>
      <trkpt lat="43.70179" lon="7.26709">
        <ele>87</ele>
        <time>2020-08-14T11:40:16Z</time>
      </trkpt>
      <trkpt lat="43.70179" lon="7.26709">
        <ele>87</ele>
        <time>2020-08-14T11:40:17Z</time>
      </trkpt>
      <trkpt lat="43.70172" lon="7.26713">
        <ele>86.8</ele>
        <time>2020-08-14T11:40:20Z</time>
      </trkpt>
      <trkpt lat="43.70167" lon="7.26716">
        <ele>85.4</ele>
        <time>2020-08-14T11:40:25Z</time>
      </trkpt>
      <trkpt lat="43.70167" lon="7.26717">
        <ele>85</ele>
        <time>2020-08-14T11:40:26Z</time>
      </trkpt>
      <trkpt lat="43.70166" lon="7.26718">
        <ele>84.6</ele>
        <time>2020-08-14T11:40:27Z</time>
      </trkpt>
      <trkpt lat="43.70165" lon="7.26719">
        <ele>84.2</ele>
        <time>2020-08-14T11:40:28Z</time>
      </trkpt>
      <trkpt lat="43.70161" lon="7.26724">
        <ele>84</ele>
        <time>2020-08-14T11:40:30Z</time>
      </trkpt>
      <trkpt lat="43.70156" lon="7.26728">
        <ele>84</ele>
        <time>2020-08-14T11:40:31Z</time>
      </trkpt>
      <trkpt lat="43.70144" lon="7.26731">
        <ele>84.2</ele>
        <time>2020-08-14T11:40:33Z</time>
      </trkpt>
      <trkpt lat="43.70126" lon="7.26741">
        <ele>84.6</ele>
        <time>2020-08-14T11:40:36Z</time>
      </trkpt>
      <trkpt lat="43.70103" lon="7.26754">
        <ele>84.8</ele>
        <time>2020-08-14T11:40:40Z</time>
      </trkpt>
      <trkpt lat="43.70087" lon="7.26769">
        <ele>84.8</ele>
        <time>2020-08-14T11:40:43Z</time>
      </trkpt>
      <trkpt lat="43.70081" lon="7.26774">
        <ele>84.8</ele>
        <time>2020-08-14T11:40:44Z</time>
      </trkpt>
      <trkpt lat="43.70063" lon="7.26787">
        <ele>84.6</ele>
        <time>2020-08-14T11:40:47Z</time>
      </trkpt>
      <trkpt lat="43.70057" lon="7.26792">
        <ele>84.6</ele>
        <time>2020-08-14T11:40:48Z</time>
      </trkpt>
      <trkpt lat="43.7004" lon="7.26805">
        <ele>84.6</ele>
        <time>2020-08-14T11:40:51Z</time>
      </trkpt>
      <trkpt lat="43.70027" lon="7.26815">
        <ele>84.6</ele>
        <time>2020-08-14T11:40:53Z</time>
      </trkpt>
      <trkpt lat="43.70008" lon="7.26834">
        <ele>84.6</ele>
        <time>2020-08-14T11:40:57Z</time>
      </trkpt>
      <trkpt lat="43.69994" lon="7.26843">
        <ele>84.4</ele>
        <time>2020-08-14T11:40:59Z</time>
      </trkpt>
      <trkpt lat="43.69972" lon="7.26856">
        <ele>84.4</ele>
        <time>2020-08-14T11:41:03Z</time>
      </trkpt>
      <trkpt lat="43.69962" lon="7.26864">
        <ele>84.6</ele>
        <time>2020-08-14T11:41:05Z</time>
      </trkpt>
      <trkpt lat="43.69957" lon="7.26869">
        <ele>84.6</ele>
        <time>2020-08-14T11:41:06Z</time>
      </trkpt>
      <trkpt lat="43.69951" lon="7.26873">
        <ele>84.6</ele>
        <time>2020-08-14T11:41:07Z</time>
      </trkpt>
      <trkpt lat="43.6994" lon="7.26884">
        <ele>84.6</ele>
        <time>2020-08-14T11:41:09Z</time>
      </trkpt>
      <trkpt lat="43.69934" lon="7.26888">
        <ele>84.6</ele>
        <time>2020-08-14T11:41:10Z</time>
      </trkpt>
      <trkpt lat="43.69928" lon="7.26889">
        <ele>84.6</ele>
        <time>2020-08-14T11:41:12Z</time>
      </trkpt>
      <trkpt lat="43.69923" lon="7.26892">
        <ele>84.6</ele>
        <time>2020-08-14T11:41:13Z</time>
      </trkpt>
      <trkpt lat="43.69913" lon="7.26898">
        <ele>84.6</ele>
        <time>2020-08-14T11:41:15Z</time>
      </trkpt>
      <trkpt lat="43.69902" lon="7.26904">
        <ele>84.6</ele>
        <time>2020-08-14T11:41:17Z</time>
      </trkpt>
      <trkpt lat="43.69898" lon="7.26907">
        <ele>84.6</ele>
        <time>2020-08-14T11:41:18Z</time>
      </trkpt>
      <trkpt lat="43.69893" lon="7.26911">
        <ele>84.6</ele>
        <time>2020-08-14T11:41:19Z</time>
      </trkpt>
      <trkpt lat="43.69884" lon="7.26915">
        <ele>84.8</ele>
        <time>2020-08-14T11:41:21Z</time>
      </trkpt>
      <trkpt lat="43.6988" lon="7.26916">
        <ele>84.8</ele>
        <time>2020-08-14T11:41:22Z</time>
      </trkpt>
      <trkpt lat="43.69876" lon="7.26916">
        <ele>84.8</ele>
        <time>2020-08-14T11:41:23Z</time>
      </trkpt>
      <trkpt lat="43.69864" lon="7.26924">
        <ele>85</ele>
        <time>2020-08-14T11:41:26Z</time>
      </trkpt>
      <trkpt lat="43.6986" lon="7.26926">
        <ele>85</ele>
        <time>2020-08-14T11:41:27Z</time>
      </trkpt>
      <trkpt lat="43.69852" lon="7.26931">
        <ele>85</ele>
        <time>2020-08-14T11:41:29Z</time>
      </trkpt>
      <trkpt lat="43.6985" lon="7.26934">
        <ele>85</ele>
        <time>2020-08-14T11:41:31Z</time>
      </trkpt>
      <trkpt lat="43.6985" lon="7.26937">
        <ele>85</ele>
        <time>2020-08-14T11:41:33Z</time>
      </trkpt>
      <trkpt lat="43.69849" lon="7.26938">
        <ele>85</ele>
        <time>2020-08-14T11:41:34Z</time>
      </trkpt>
      <trkpt lat="43.69849" lon="7.26939">
        <ele>85</ele>
        <time>2020-08-14T11:41:36Z</time>
      </trkpt>
      <trkpt lat="43.69849" lon="7.26939">
        <ele>85.4</ele>
        <time>2020-08-14T11:41:37Z</time>
      </trkpt>
      <trkpt lat="43.69849" lon="7.26939">
        <ele>85.8</ele>
        <time>2020-08-14T11:41:38Z</time>
      </trkpt>
      <trkpt lat="43.6985" lon="7.26938">
        <ele>86.4</ele>
        <time>2020-08-14T11:41:39Z</time>
      </trkpt>
      <trkpt lat="43.6985" lon="7.26935">
        <ele>87</ele>
        <time>2020-08-14T11:41:43Z</time>
      </trkpt>
      <trkpt lat="43.69849" lon="7.26932">
        <ele>87</ele>
        <time>2020-08-14T11:41:45Z</time>
      </trkpt>
      <trkpt lat="43.69847" lon="7.26933">
        <ele>87</ele>
        <time>2020-08-14T11:41:48Z</time>
      </trkpt>
      <trkpt lat="43.69847" lon="7.26933">
        <ele>86.8</ele>
        <time>2020-08-14T11:41:49Z</time>
      </trkpt>
      <trkpt lat="43.69847" lon="7.26933">
        <ele>86.8</ele>
        <time>2020-08-14T11:41:51Z</time>
      </trkpt>
      <trkpt lat="43.69847" lon="7.26933">
        <ele>87</ele>
        <time>2020-08-14T11:41:54Z</time>
      </trkpt>
      <trkpt lat="43.69847" lon="7.26933">
        <ele>87</ele>
        <time>2020-08-14T11:41:55Z</time>
      </trkpt>
      <trkpt lat="43.69844" lon="7.26934">
        <ele>87</ele>
        <time>2020-08-14T11:41:57Z</time>
      </trkpt>
      <trkpt lat="43.69845" lon="7.26936">
        <ele>87</ele>
        <time>2020-08-14T11:41:59Z</time>
      </trkpt>
      <trkpt lat="43.69842" lon="7.26936">
        <ele>87.2</ele>
        <time>2020-08-14T11:42:00Z</time>
      </trkpt>
      <trkpt lat="43.6984" lon="7.26937">
        <ele>87.2</ele>
        <time>2020-08-14T11:42:02Z</time>
      </trkpt>
      <trkpt lat="43.69835" lon="7.26943">
        <ele>87.2</ele>
        <time>2020-08-14T11:42:05Z</time>
      </trkpt>
      <trkpt lat="43.69832" lon="7.26946">
        <ele>87.4</ele>
        <time>2020-08-14T11:42:08Z</time>
      </trkpt>
      <trkpt lat="43.6983" lon="7.26946">
        <ele>87.4</ele>
        <time>2020-08-14T11:42:09Z</time>
      </trkpt>
      <trkpt lat="43.69829" lon="7.26946">
        <ele>87.4</ele>
        <time>2020-08-14T11:42:10Z</time>
      </trkpt>
      <trkpt lat="43.69823" lon="7.26953">
        <ele>87.4</ele>
        <time>2020-08-14T11:42:14Z</time>
      </trkpt>
      <trkpt lat="43.69823" lon="7.26955">
        <ele>87.4</ele>
        <time>2020-08-14T11:42:16Z</time>
      </trkpt>
      <trkpt lat="43.69817" lon="7.26958">
        <ele>87.6</ele>
        <time>2020-08-14T11:42:21Z</time>
      </trkpt>
      <trkpt lat="43.69817" lon="7.26958">
        <ele>87.6</ele>
        <time>2020-08-14T11:42:22Z</time>
      </trkpt>
      <trkpt lat="43.69816" lon="7.2696">
        <ele>87.8</ele>
        <time>2020-08-14T11:42:24Z</time>
      </trkpt>
      <trkpt lat="43.69814" lon="7.26963">
        <ele>88</ele>
        <time>2020-08-14T11:42:26Z</time>
      </trkpt>
      <trkpt lat="43.69807" lon="7.26967">
        <ele>88.2</ele>
        <time>2020-08-14T11:42:29Z</time>
      </trkpt>
      <trkpt lat="43.69807" lon="7.26968">
        <ele>88.2</ele>
        <time>2020-08-14T11:42:30Z</time>
      </trkpt>
      <trkpt lat="43.69805" lon="7.2697">
        <ele>88.2</ele>
        <time>2020-08-14T11:42:32Z</time>
      </trkpt>
      <trkpt lat="43.69801" lon="7.26972">
        <ele>88.2</ele>
        <time>2020-08-14T11:42:34Z</time>
      </trkpt>
      <trkpt lat="43.69799" lon="7.26972">
        <ele>88.2</ele>
        <time>2020-08-14T11:42:35Z</time>
      </trkpt>
      <trkpt lat="43.69799" lon="7.26972">
        <ele>87.8</ele>
        <time>2020-08-14T11:42:37Z</time>
      </trkpt>
      <trkpt lat="43.69794" lon="7.26972">
        <ele>87.8</ele>
        <time>2020-08-14T11:42:44Z</time>
      </trkpt>
      <trkpt lat="43.69791" lon="7.26973">
        <ele>87.8</ele>
        <time>2020-08-14T11:42:47Z</time>
      </trkpt>
      <trkpt lat="43.69784" lon="7.26974">
        <ele>88</ele>
        <time>2020-08-14T11:42:57Z</time>
      </trkpt>
      <trkpt lat="43.69779" lon="7.26976">
        <ele>88.2</ele>
        <time>2020-08-14T11:43:01Z</time>
      </trkpt>
      <trkpt lat="43.69775" lon="7.26977">
        <ele>88.4</ele>
        <time>2020-08-14T11:43:05Z</time>
      </trkpt>
      <trkpt lat="43.69773" lon="7.26978">
        <ele>88.4</ele>
        <time>2020-08-14T11:43:07Z</time>
      </trkpt>
      <trkpt lat="43.69766" lon="7.2698">
        <ele>88.6</ele>
        <time>2020-08-14T11:43:15Z</time>
      </trkpt>
      <trkpt lat="43.69764" lon="7.2698">
        <ele>88.6</ele>
        <time>2020-08-14T11:43:17Z</time>
      </trkpt>
      <trkpt lat="43.69758" lon="7.26982">
        <ele>88.6</ele>
        <time>2020-08-14T11:43:22Z</time>
      </trkpt>
      <trkpt lat="43.69757" lon="7.26981">
        <ele>88.6</ele>
        <time>2020-08-14T11:43:25Z</time>
      </trkpt>
      <trkpt lat="43.69755" lon="7.26983">
        <ele>88.4</ele>
        <time>2020-08-14T11:43:27Z</time>
      </trkpt>
      <trkpt lat="43.69748" lon="7.26987">
        <ele>88.6</ele>
        <time>2020-08-14T11:43:33Z</time>
      </trkpt>
      <trkpt lat="43.69744" lon="7.2699">
        <ele>88.8</ele>
        <time>2020-08-14T11:43:38Z</time>
      </trkpt>
      <trkpt lat="43.69734" lon="7.26995">
        <ele>89</ele>
        <time>2020-08-14T11:43:47Z</time>
      </trkpt>
      <trkpt lat="43.69723" lon="7.27007">
        <ele>88.6</ele>
        <time>2020-08-14T11:43:58Z</time>
      </trkpt>
      <trkpt lat="43.69717" lon="7.27012">
        <ele>88.8</ele>
        <time>2020-08-14T11:44:05Z</time>
      </trkpt>
      <trkpt lat="43.69715" lon="7.27011">
        <ele>88.8</ele>
        <time>2020-08-14T11:44:07Z</time>
      </trkpt>
      <trkpt lat="43.6971" lon="7.27012">
        <ele>89</ele>
        <time>2020-08-14T11:44:11Z</time>
      </trkpt>
      <trkpt lat="43.69701" lon="7.27013">
        <ele>89.2</ele>
        <time>2020-08-14T11:44:19Z</time>
      </trkpt>
      <trkpt lat="43.69689" lon="7.2702">
        <ele>88.8</ele>
        <time>2020-08-14T11:44:31Z</time>
      </trkpt>
      <trkpt lat="43.69683" lon="7.27024">
        <ele>88.8</ele>
        <time>2020-08-14T11:44:37Z</time>
      </trkpt>
      <trkpt lat="43.69679" lon="7.27027">
        <ele>88.8</ele>
        <time>2020-08-14T11:44:40Z</time>
      </trkpt>
      <trkpt lat="43.69678" lon="7.27027">
        <ele>88.8</ele>
        <time>2020-08-14T11:44:41Z</time>
      </trkpt>
      <trkpt lat="43.69665" lon="7.27031">
        <ele>88.6</ele>
        <time>2020-08-14T11:44:53Z</time>
      </trkpt>
      <trkpt lat="43.69659" lon="7.2703">
        <ele>88.6</ele>
        <time>2020-08-14T11:45:00Z</time>
      </trkpt>
      <trkpt lat="43.69659" lon="7.2703">
        <ele>88.6</ele>
        <time>2020-08-14T11:45:01Z</time>
      </trkpt>
      <trkpt lat="43.69659" lon="7.2703">
        <ele>88.6</ele>
        <time>2020-08-14T11:45:02Z</time>
      </trkpt>
      <trkpt lat="43.69659" lon="7.2703">
        <ele>88.4</ele>
        <time>2020-08-14T11:45:12Z</time>
      </trkpt>
      <trkpt lat="43.69659" lon="7.2703">
        <ele>88.4</ele>
        <time>2020-08-14T11:45:16Z</time>
      </trkpt>
      <trkpt lat="43.69656" lon="7.27031">
        <ele>88.4</ele>
        <time>2020-08-14T11:45:24Z</time>
      </trkpt>
      <trkpt lat="43.69654" lon="7.27032">
        <ele>88.4</ele>
        <time>2020-08-14T11:45:25Z</time>
      </trkpt>
      <trkpt lat="43.69652" lon="7.27034">
        <ele>88.2</ele>
        <time>2020-08-14T11:45:27Z</time>
      </trkpt>
      <trkpt lat="43.69647" lon="7.27039">
        <ele>88.2</ele>
        <time>2020-08-14T11:45:31Z</time>
      </trkpt>
      <trkpt lat="43.69644" lon="7.27043">
        <ele>88</ele>
        <time>2020-08-14T11:45:35Z</time>
      </trkpt>
      <trkpt lat="43.69637" lon="7.27055">
        <ele>88</ele>
        <time>2020-08-14T11:45:46Z</time>
      </trkpt>
      <trkpt lat="43.69635" lon="7.27059">
        <ele>88</ele>
        <time>2020-08-14T11:45:49Z</time>
      </trkpt>
      <trkpt lat="43.69634" lon="7.2706">
        <ele>88</ele>
        <time>2020-08-14T11:45:50Z</time>
      </trkpt>
      <trkpt lat="43.6963" lon="7.27065">
        <ele>87.8</ele>
        <time>2020-08-14T11:45:55Z</time>
      </trkpt>
      <trkpt lat="43.69625" lon="7.27068">
        <ele>87.4</ele>
        <time>2020-08-14T11:46:01Z</time>
      </trkpt>
      <trkpt lat="43.69622" lon="7.27072">
        <ele>87.2</ele>
        <time>2020-08-14T11:46:04Z</time>
      </trkpt>
      <trkpt lat="43.69621" lon="7.27073">
        <ele>87</ele>
        <time>2020-08-14T11:46:05Z</time>
      </trkpt>
      <trkpt lat="43.6962" lon="7.27076">
        <ele>87</ele>
        <time>2020-08-14T11:46:07Z</time>
      </trkpt>
      <trkpt lat="43.69617" lon="7.2708">
        <ele>87</ele>
        <time>2020-08-14T11:46:11Z</time>
      </trkpt>
      <trkpt lat="43.69616" lon="7.27081">
        <ele>87</ele>
        <time>2020-08-14T11:46:12Z</time>
      </trkpt>
      <trkpt lat="43.69614" lon="7.27082">
        <ele>87</ele>
        <time>2020-08-14T11:46:14Z</time>
      </trkpt>
      <trkpt lat="43.69607" lon="7.27082">
        <ele>86.4</ele>
        <time>2020-08-14T11:46:19Z</time>
      </trkpt>
      <trkpt lat="43.69598" lon="7.27084">
        <ele>86.2</ele>
        <time>2020-08-14T11:46:24Z</time>
      </trkpt>
      <trkpt lat="43.69597" lon="7.27085">
        <ele>86.2</ele>
        <time>2020-08-14T11:46:25Z</time>
      </trkpt>
      <trkpt lat="43.69593" lon="7.2709">
        <ele>85.8</ele>
        <time>2020-08-14T11:46:29Z</time>
      </trkpt>
      <trkpt lat="43.69592" lon="7.27093">
        <ele>85.4</ele>
        <time>2020-08-14T11:46:31Z</time>
      </trkpt>
      <trkpt lat="43.69589" lon="7.27095">
        <ele>85.2</ele>
        <time>2020-08-14T11:46:33Z</time>
      </trkpt>
      <trkpt lat="43.69586" lon="7.27095">
        <ele>85.4</ele>
        <time>2020-08-14T11:46:35Z</time>
      </trkpt>
      <trkpt lat="43.69584" lon="7.27095">
        <ele>85.4</ele>
        <time>2020-08-14T11:46:36Z</time>
      </trkpt>
      <trkpt lat="43.69579" lon="7.27096">
        <ele>85.2</ele>
        <time>2020-08-14T11:46:40Z</time>
      </trkpt>
      <trkpt lat="43.69578" lon="7.27098">
        <ele>85.2</ele>
        <time>2020-08-14T11:46:42Z</time>
      </trkpt>
      <trkpt lat="43.69577" lon="7.27099">
        <ele>85.2</ele>
        <time>2020-08-14T11:46:43Z</time>
      </trkpt>
      <trkpt lat="43.6957" lon="7.27105">
        <ele>85.4</ele>
        <time>2020-08-14T11:46:48Z</time>
      </trkpt>
      <trkpt lat="43.69569" lon="7.27106">
        <ele>85.2</ele>
        <time>2020-08-14T11:46:50Z</time>
      </trkpt>
      <trkpt lat="43.69565" lon="7.27113">
        <ele>85</ele>
        <time>2020-08-14T11:46:55Z</time>
      </trkpt>
      <trkpt lat="43.69561" lon="7.27115">
        <ele>84.8</ele>
        <time>2020-08-14T11:46:59Z</time>
      </trkpt>
      <trkpt lat="43.6955" lon="7.27115">
        <ele>85</ele>
        <time>2020-08-14T11:47:09Z</time>
      </trkpt>
      <trkpt lat="43.69546" lon="7.27115">
        <ele>85.6</ele>
        <time>2020-08-14T11:47:14Z</time>
      </trkpt>
      <trkpt lat="43.69543" lon="7.27116">
        <ele>85.6</ele>
        <time>2020-08-14T11:47:16Z</time>
      </trkpt>
      <trkpt lat="43.69535" lon="7.27117">
        <ele>85.8</ele>
        <time>2020-08-14T11:47:24Z</time>
      </trkpt>
      <trkpt lat="43.69525" lon="7.27115">
        <ele>85.8</ele>
        <time>2020-08-14T11:47:33Z</time>
      </trkpt>
      <trkpt lat="43.69519" lon="7.27119">
        <ele>86</ele>
        <time>2020-08-14T11:47:39Z</time>
      </trkpt>
      <trkpt lat="43.69517" lon="7.2712">
        <ele>86.2</ele>
        <time>2020-08-14T11:47:41Z</time>
      </trkpt>
      <trkpt lat="43.6951" lon="7.27123">
        <ele>86.4</ele>
        <time>2020-08-14T11:47:48Z</time>
      </trkpt>
      <trkpt lat="43.69502" lon="7.27129">
        <ele>85.8</ele>
        <time>2020-08-14T11:47:56Z</time>
      </trkpt>
      <trkpt lat="43.69495" lon="7.27137">
        <ele>85.8</ele>
        <time>2020-08-14T11:48:05Z</time>
      </trkpt>
      <trkpt lat="43.6949" lon="7.27148">
        <ele>86.4</ele>
        <time>2020-08-14T11:48:15Z</time>
      </trkpt>
      <trkpt lat="43.69487" lon="7.2716">
        <ele>86</ele>
        <time>2020-08-14T11:48:24Z</time>
      </trkpt>
      <trkpt lat="43.69486" lon="7.27167">
        <ele>86.2</ele>
        <time>2020-08-14T11:48:29Z</time>
      </trkpt>
      <trkpt lat="43.69487" lon="7.27172">
        <ele>85.8</ele>
        <time>2020-08-14T11:48:33Z</time>
      </trkpt>
      <trkpt lat="43.69485" lon="7.27184">
        <ele>85.6</ele>
        <time>2020-08-14T11:48:42Z</time>
      </trkpt>
      <trkpt lat="43.69484" lon="7.27186">
        <ele>85.6</ele>
        <time>2020-08-14T11:48:44Z</time>
      </trkpt>
      <trkpt lat="43.69483" lon="7.27188">
        <ele>85.6</ele>
        <time>2020-08-14T11:48:46Z</time>
      </trkpt>
      <trkpt lat="43.69482" lon="7.27188">
        <ele>85.6</ele>
        <time>2020-08-14T11:48:48Z</time>
      </trkpt>
      <trkpt lat="43.69482" lon="7.27188">
        <ele>85.6</ele>
        <time>2020-08-14T11:48:49Z</time>
      </trkpt>
      <trkpt lat="43.69481" lon="7.27185">
        <ele>85.2</ele>
        <time>2020-08-14T11:48:54Z</time>
      </trkpt>
      <trkpt lat="43.69481" lon="7.27184">
        <ele>85</ele>
        <time>2020-08-14T11:48:55Z</time>
      </trkpt>
      <trkpt lat="43.69481" lon="7.27181">
        <ele>84</ele>
        <time>2020-08-14T11:48:58Z</time>
      </trkpt>
      <trkpt lat="43.69481" lon="7.2718">
        <ele>83.8</ele>
        <time>2020-08-14T11:49:00Z</time>
      </trkpt>
      <trkpt lat="43.69482" lon="7.27177">
        <ele>83</ele>
        <time>2020-08-14T11:49:03Z</time>
      </trkpt>
      <trkpt lat="43.69481" lon="7.27177">
        <ele>82.8</ele>
        <time>2020-08-14T11:49:04Z</time>
      </trkpt>
      <trkpt lat="43.69481" lon="7.27176">
        <ele>82.6</ele>
        <time>2020-08-14T11:49:05Z</time>
      </trkpt>
      <trkpt lat="43.69479" lon="7.27174">
        <ele>82</ele>
        <time>2020-08-14T11:49:08Z</time>
      </trkpt>
      <trkpt lat="43.69478" lon="7.27174">
        <ele>81.8</ele>
        <time>2020-08-14T11:49:11Z</time>
      </trkpt>
      <trkpt lat="43.69472" lon="7.27175">
        <ele>81</ele>
        <time>2020-08-14T11:49:19Z</time>
      </trkpt>
      <trkpt lat="43.69468" lon="7.27179">
        <ele>81</ele>
        <time>2020-08-14T11:49:25Z</time>
      </trkpt>
      <trkpt lat="43.69467" lon="7.2718">
        <ele>80.8</ele>
        <time>2020-08-14T11:49:27Z</time>
      </trkpt>
      <trkpt lat="43.69466" lon="7.27182">
        <ele>81</ele>
        <time>2020-08-14T11:49:34Z</time>
      </trkpt>
      <trkpt lat="43.69466" lon="7.27182">
        <ele>81</ele>
        <time>2020-08-14T11:49:37Z</time>
      </trkpt>
      <trkpt lat="43.69466" lon="7.27182">
        <ele>81.2</ele>
        <time>2020-08-14T11:49:41Z</time>
      </trkpt>
      <trkpt lat="43.69466" lon="7.27182">
        <ele>81.2</ele>
        <time>2020-08-14T11:49:42Z</time>
      </trkpt>
      <trkpt lat="43.69466" lon="7.27182">
        <ele>81</ele>
        <time>2020-08-14T11:49:47Z</time>
      </trkpt>
      <trkpt lat="43.69466" lon="7.2718">
        <ele>80.2</ele>
        <time>2020-08-14T11:50:07Z</time>
      </trkpt>
      <trkpt lat="43.69466" lon="7.2718">
        <ele>80.2</ele>
        <time>2020-08-14T11:50:17Z</time>
      </trkpt>
      <trkpt lat="43.69466" lon="7.2718">
        <ele>80</ele>
        <time>2020-08-14T11:50:20Z</time>
      </trkpt>
      <trkpt lat="43.69466" lon="7.2718">
        <ele>80</ele>
        <time>2020-08-14T11:50:28Z</time>
      </trkpt>
      <trkpt lat="43.69466" lon="7.2718">
        <ele>80.2</ele>
        <time>2020-08-14T11:50:42Z</time>
      </trkpt>
      <trkpt lat="43.69467" lon="7.2718">
        <ele>80.2</ele>
        <time>2020-08-14T11:50:48Z</time>
      </trkpt>
      <trkpt lat="43.69467" lon="7.2718">
        <ele>80.2</ele>
        <time>2020-08-14T11:50:50Z</time>
      </trkpt>
      <trkpt lat="43.69467" lon="7.2718">
        <ele>80</ele>
        <time>2020-08-14T11:50:56Z</time>
      </trkpt>
      <trkpt lat="43.69467" lon="7.27181">
        <ele>80</ele>
        <time>2020-08-14T11:51:10Z</time>
      </trkpt>
      <trkpt lat="43.69467" lon="7.27181">
        <ele>80.2</ele>
        <time>2020-08-14T11:51:22Z</time>
      </trkpt>
      <trkpt lat="43.69467" lon="7.2718">
        <ele>80.2</ele>
        <time>2020-08-14T11:51:40Z</time>
      </trkpt>
      <trkpt lat="43.69467" lon="7.2718">
        <ele>80</ele>
        <time>2020-08-14T11:51:48Z</time>
      </trkpt>
      <trkpt lat="43.69467" lon="7.2718">
        <ele>80</ele>
        <time>2020-08-14T11:51:52Z</time>
      </trkpt>
      <trkpt lat="43.69467" lon="7.2718">
        <ele>80</ele>
        <time>2020-08-14T11:51:55Z</time>
      </trkpt>
      <trkpt lat="43.69467" lon="7.27181">
        <ele>80</ele>
        <time>2020-08-14T11:52:20Z</time>
      </trkpt>
      <trkpt lat="43.69467" lon="7.27181">
        <ele>80</ele>
        <time>2020-08-14T11:52:25Z</time>
      </trkpt>
      <trkpt lat="43.69467" lon="7.27182">
        <ele>80</ele>
        <time>2020-08-14T11:52:30Z</time>
      </trkpt>
      <trkpt lat="43.69467" lon="7.27182">
        <ele>80</ele>
        <time>2020-08-14T11:52:38Z</time>
      </trkpt>
      <trkpt lat="43.69467" lon="7.27182">
        <ele>80</ele>
        <time>2020-08-14T11:52:40Z</time>
      </trkpt>
      <trkpt lat="43.69467" lon="7.27182">
        <ele>80</ele>
        <time>2020-08-14T11:52:49Z</time>
      </trkpt>
      <trkpt lat="43.69467" lon="7.27182">
        <ele>80</ele>
        <time>2020-08-14T11:52:51Z</time>
      </trkpt>
      <trkpt lat="43.69467" lon="7.27182">
        <ele>80</ele>
        <time>2020-08-14T11:52:58Z</time>
      </trkpt>
      <trkpt lat="43.69467" lon="7.27182">
        <ele>80</ele>
        <time>2020-08-14T11:53:08Z</time>
      </trkpt>
      <trkpt lat="43.69467" lon="7.27182">
        <ele>80</ele>
        <time>2020-08-14T11:53:11Z</time>
      </trkpt>
      <trkpt lat="43.69467" lon="7.27182">
        <ele>80</ele>
        <time>2020-08-14T11:53:14Z</time>
      </trkpt>
      <trkpt lat="43.69467" lon="7.27182">
        <ele>80</ele>
        <time>2020-08-14T11:53:19Z</time>
      </trkpt>
      <trkpt lat="43.69467" lon="7.27182">
        <ele>80</ele>
        <time>2020-08-14T11:53:25Z</time>
      </trkpt>
      <trkpt lat="43.69467" lon="7.27182">
        <ele>80</ele>
        <time>2020-08-14T11:53:37Z</time>
      </trkpt>
      <trkpt lat="43.69467" lon="7.27182">
        <ele>80</ele>
        <time>2020-08-14T11:53:39Z</time>
      </trkpt>
      <trkpt lat="43.69462" lon="7.27183">
        <ele>80</ele>
        <time>2020-08-14T11:53:44Z</time>
      </trkpt>
      <trkpt lat="43.69457" lon="7.27182">
        <ele>80</ele>
        <time>2020-08-14T11:53:47Z</time>
      </trkpt>
      <trkpt lat="43.69456" lon="7.27182">
        <ele>79.8</ele>
        <time>2020-08-14T11:53:48Z</time>
      </trkpt>
      <trkpt lat="43.69453" lon="7.27182">
        <ele>79.4</ele>
        <time>2020-08-14T11:53:50Z</time>
      </trkpt>
      <trkpt lat="43.69453" lon="7.27183">
        <ele>79.2</ele>
        <time>2020-08-14T11:53:51Z</time>
      </trkpt>
      <trkpt lat="43.69451" lon="7.27182">
        <ele>78.6</ele>
        <time>2020-08-14T11:53:54Z</time>
      </trkpt>
      <trkpt lat="43.6945" lon="7.27182">
        <ele>78</ele>
        <time>2020-08-14T11:53:55Z</time>
      </trkpt>
      <trkpt lat="43.69449" lon="7.27182">
        <ele>77.2</ele>
        <time>2020-08-14T11:53:56Z</time>
      </trkpt>
      <trkpt lat="43.69448" lon="7.27182">
        <ele>76</ele>
        <time>2020-08-14T11:53:57Z</time>
      </trkpt>
      <trkpt lat="43.69448" lon="7.27182">
        <ele>66.6</ele>
        <time>2020-08-14T11:53:58Z</time>
      </trkpt>
      <trkpt lat="43.69448" lon="7.27182">
        <ele>36.8</ele>
        <time>2020-08-14T11:53:59Z</time>
      </trkpt>
      <trkpt lat="43.69448" lon="7.27182">
        <ele>-5</ele>
        <time>2020-08-14T11:54:00Z</time>
      </trkpt>
      <trkpt lat="43.69448" lon="7.27182">
        <ele>-67.4</ele>
        <time>2020-08-14T11:54:01Z</time>
      </trkpt>
      <trkpt lat="43.69448" lon="7.27182">
        <ele>-165.2</ele>
        <time>2020-08-14T11:54:02Z</time>
      </trkpt>
      <trkpt lat="43.69448" lon="7.27182">
        <ele>-214</ele>
        <time>2020-08-14T11:54:03Z</time>
      </trkpt>
      <trkpt lat="43.69448" lon="7.27182">
        <ele>-252</ele>
        <time>2020-08-14T11:54:04Z</time>
      </trkpt>
      <trkpt lat="43.69448" lon="7.27182">
        <ele>-276.6</ele>
        <time>2020-08-14T11:54:05Z</time>
      </trkpt>
      <trkpt lat="43.69448" lon="7.27182">
        <ele>-265.2</ele>
        <time>2020-08-14T11:54:06Z</time>
      </trkpt>
      <trkpt lat="43.69448" lon="7.27182">
        <ele>-230.2</ele>
        <time>2020-08-14T11:54:07Z</time>
      </trkpt>
      <trkpt lat="43.69448" lon="7.27182">
        <ele>-188.4</ele>
        <time>2020-08-14T11:54:08Z</time>
      </trkpt>
      <trkpt lat="43.69448" lon="7.27182">
        <ele>-130</ele>
        <time>2020-08-14T11:54:09Z</time>
      </trkpt>
      <trkpt lat="43.69448" lon="7.27182">
        <ele>-138.2</ele>
        <time>2020-08-14T11:54:10Z</time>
      </trkpt>
      <trkpt lat="43.69448" lon="7.27182">
        <ele>-105.4</ele>
        <time>2020-08-14T11:54:11Z</time>
      </trkpt>
      <trkpt lat="43.69448" lon="7.27182">
        <ele>-89.2</ele>
        <time>2020-08-14T11:54:12Z</time>
      </trkpt>
      <trkpt lat="43.69448" lon="7.27182">
        <ele>-56</ele>
        <time>2020-08-14T11:54:13Z</time>
      </trkpt>
      <trkpt lat="43.69448" lon="7.27182">
        <ele>-51.2</ele>
        <time>2020-08-14T11:54:15Z</time>
      </trkpt>
      <trkpt lat="43.69448" lon="7.27182">
        <ele>-87.4</ele>
        <time>2020-08-14T11:54:16Z</time>
      </trkpt>
      <trkpt lat="43.69448" lon="7.27182">
        <ele>-108.2</ele>
        <time>2020-08-14T11:54:17Z</time>
      </trkpt>
      <trkpt lat="43.69448" lon="7.27182">
        <ele>-176</ele>
        <time>2020-08-14T11:54:18Z</time>
      </trkpt>
      <trkpt lat="43.69448" lon="7.27182">
        <ele>-223.6</ele>
        <time>2020-08-14T11:54:19Z</time>
      </trkpt>
      <trkpt lat="43.69448" lon="7.27182">
        <ele>-247.2</ele>
        <time>2020-08-14T11:54:20Z</time>
      </trkpt>
      <trkpt lat="43.69448" lon="7.27182">
        <ele>-258.4</ele>
        <time>2020-08-14T11:54:21Z</time>
      </trkpt>
      <trkpt lat="43.69448" lon="7.27182">
        <ele>-272.2</ele>
        <time>2020-08-14T11:54:22Z</time>
      </trkpt>
      <trkpt lat="43.69448" lon="7.27182">
        <ele>-232.2</ele>
        <time>2020-08-14T11:54:23Z</time>
      </trkpt>
      <trkpt lat="43.69448" lon="7.27182">
        <ele>-169.2</ele>
        <time>2020-08-14T11:54:24Z</time>
      </trkpt>
      <trkpt lat="43.69448" lon="7.27182">
        <ele>-111</ele>
        <time>2020-08-14T11:54:25Z</time>
      </trkpt>
      <trkpt lat="43.69448" lon="7.27182">
        <ele>-75.6</ele>
        <time>2020-08-14T11:54:26Z</time>
      </trkpt>
      <trkpt lat="43.69448" lon="7.27182">
        <ele>-48.8</ele>
        <time>2020-08-14T11:54:27Z</time>
      </trkpt>
      <trkpt lat="43.69448" lon="7.27182">
        <ele>-37.4</ele>
        <time>2020-08-14T11:54:28Z</time>
      </trkpt>
      <trkpt lat="43.69448" lon="7.27182">
        <ele>-14.4</ele>
        <time>2020-08-14T11:54:29Z</time>
      </trkpt>
      <trkpt lat="43.69448" lon="7.27182">
        <ele>-20.2</ele>
        <time>2020-08-14T11:54:30Z</time>
      </trkpt>
      <trkpt lat="43.69448" lon="7.27182">
        <ele>-21.6</ele>
        <time>2020-08-14T11:54:31Z</time>
      </trkpt>
      <trkpt lat="43.69448" lon="7.27182">
        <ele>-31</ele>
        <time>2020-08-14T11:54:32Z</time>
      </trkpt>
      <trkpt lat="43.69448" lon="7.27182">
        <ele>-34.6</ele>
        <time>2020-08-14T11:54:33Z</time>
      </trkpt>
      <trkpt lat="43.69448" lon="7.27182">
        <ele>-48</ele>
        <time>2020-08-14T11:54:34Z</time>
      </trkpt>
      <trkpt lat="43.69448" lon="7.27182">
        <ele>-45.4</ele>
        <time>2020-08-14T11:54:35Z</time>
      </trkpt>
      <trkpt lat="43.69448" lon="7.27182">
        <ele>-53.4</ele>
        <time>2020-08-14T11:54:36Z</time>
      </trkpt>
      <trkpt lat="43.69448" lon="7.27182">
        <ele>-48.4</ele>
        <time>2020-08-14T11:54:40Z</time>
      </trkpt>
      <trkpt lat="43.69448" lon="7.27182">
        <ele>-46</ele>
        <time>2020-08-14T11:54:41Z</time>
      </trkpt>
      <trkpt lat="43.69448" lon="7.27182">
        <ele>-55.4</ele>
        <time>2020-08-14T11:54:42Z</time>
      </trkpt>
      <trkpt lat="43.69448" lon="7.27182">
        <ele>-60.2</ele>
        <time>2020-08-14T11:54:43Z</time>
      </trkpt>
      <trkpt lat="43.69448" lon="7.27182">
        <ele>-73.2</ele>
        <time>2020-08-14T11:54:44Z</time>
      </trkpt>
      <trkpt lat="43.69448" lon="7.27182">
        <ele>-76.4</ele>
        <time>2020-08-14T11:54:45Z</time>
      </trkpt>
      <trkpt lat="43.69448" lon="7.27182">
        <ele>-107.6</ele>
        <time>2020-08-14T11:54:47Z</time>
      </trkpt>
      <trkpt lat="43.69448" lon="7.27182">
        <ele>-110.2</ele>
        <time>2020-08-14T11:54:48Z</time>
      </trkpt>
      <trkpt lat="43.69448" lon="7.27182">
        <ele>-64.6</ele>
        <time>2020-08-14T11:54:49Z</time>
      </trkpt>
      <trkpt lat="43.69448" lon="7.27182">
        <ele>-12.6</ele>
        <time>2020-08-14T11:54:50Z</time>
      </trkpt>
      <trkpt lat="43.69448" lon="7.27182">
        <ele>13.4</ele>
        <time>2020-08-14T11:54:51Z</time>
      </trkpt>
      <trkpt lat="43.69448" lon="7.27182">
        <ele>34.6</ele>
        <time>2020-08-14T11:54:52Z</time>
      </trkpt>
      <trkpt lat="43.69448" lon="7.27182">
        <ele>45</ele>
        <time>2020-08-14T11:54:53Z</time>
      </trkpt>
      <trkpt lat="43.69448" lon="7.27182">
        <ele>56.6</ele>
        <time>2020-08-14T11:54:54Z</time>
      </trkpt>
      <trkpt lat="43.69448" lon="7.27182">
        <ele>62.6</ele>
        <time>2020-08-14T11:54:55Z</time>
      </trkpt>
      <trkpt lat="43.69448" lon="7.27182">
        <ele>70.4</ele>
        <time>2020-08-14T11:54:56Z</time>
      </trkpt>
      <trkpt lat="43.69448" lon="7.27182">
        <ele>75</ele>
        <time>2020-08-14T11:54:57Z</time>
      </trkpt>
      <trkpt lat="43.69448" lon="7.27182">
        <ele>80</ele>
        <time>2020-08-14T11:54:58Z</time>
      </trkpt>
      <trkpt lat="43.6945" lon="7.27183">
        <ele>81.4</ele>
        <time>2020-08-14T11:54:59Z</time>
      </trkpt>
      <trkpt lat="43.69451" lon="7.27179">
        <ele>83.2</ele>
        <time>2020-08-14T11:55:00Z</time>
      </trkpt>
      <trkpt lat="43.69451" lon="7.2718">
        <ele>84.4</ele>
        <time>2020-08-14T11:55:01Z</time>
      </trkpt>
      <trkpt lat="43.69452" lon="7.27176">
        <ele>85</ele>
        <time>2020-08-14T11:55:02Z</time>
      </trkpt>
      <trkpt lat="43.69453" lon="7.27177">
        <ele>85.6</ele>
        <time>2020-08-14T11:55:04Z</time>
      </trkpt>
      <trkpt lat="43.69455" lon="7.2718">
        <ele>86.8</ele>
        <time>2020-08-14T11:55:09Z</time>
      </trkpt>
      <trkpt lat="43.69456" lon="7.2718">
        <ele>86.6</ele>
        <time>2020-08-14T11:55:11Z</time>
      </trkpt>
      <trkpt lat="43.69458" lon="7.2718">
        <ele>87</ele>
        <time>2020-08-14T11:55:17Z</time>
      </trkpt>
      <trkpt lat="43.69459" lon="7.2718">
        <ele>87.6</ele>
        <time>2020-08-14T11:55:18Z</time>
      </trkpt>
      <trkpt lat="43.69458" lon="7.2718">
        <ele>88.4</ele>
        <time>2020-08-14T11:55:19Z</time>
      </trkpt>
      <trkpt lat="43.69459" lon="7.27179">
        <ele>89.6</ele>
        <time>2020-08-14T11:55:22Z</time>
      </trkpt>
      <trkpt lat="43.69459" lon="7.27179">
        <ele>89.6</ele>
        <time>2020-08-14T11:55:23Z</time>
      </trkpt>
      <trkpt lat="43.69458" lon="7.2718">
        <ele>87.8</ele>
        <time>2020-08-14T11:55:26Z</time>
      </trkpt>
      <trkpt lat="43.69458" lon="7.2718">
        <ele>86.8</ele>
        <time>2020-08-14T11:55:28Z</time>
      </trkpt>
      <trkpt lat="43.69458" lon="7.2718">
        <ele>85.6</ele>
        <time>2020-08-14T11:55:32Z</time>
      </trkpt>
      <trkpt lat="43.69457" lon="7.2718">
        <ele>86.4</ele>
        <time>2020-08-14T11:55:36Z</time>
      </trkpt>
      <trkpt lat="43.69457" lon="7.2718">
        <ele>86.8</ele>
        <time>2020-08-14T11:55:37Z</time>
      </trkpt>
      <trkpt lat="43.69456" lon="7.2718">
        <ele>88.6</ele>
        <time>2020-08-14T11:55:39Z</time>
      </trkpt>
      <trkpt lat="43.69457" lon="7.27181">
        <ele>89.2</ele>
        <time>2020-08-14T11:55:41Z</time>
      </trkpt>
      <trkpt lat="43.69457" lon="7.27181">
        <ele>89.4</ele>
        <time>2020-08-14T11:55:42Z</time>
      </trkpt>
      <trkpt lat="43.69456" lon="7.27181">
        <ele>89.8</ele>
        <time>2020-08-14T11:55:43Z</time>
      </trkpt>
      <trkpt lat="43.69456" lon="7.27181">
        <ele>89.2</ele>
        <time>2020-08-14T11:55:48Z</time>
      </trkpt>
      <trkpt lat="43.69456" lon="7.27181">
        <ele>88.6</ele>
        <time>2020-08-14T11:55:54Z</time>
      </trkpt>
      <trkpt lat="43.69456" lon="7.27181">
        <ele>89</ele>
        <time>2020-08-14T11:55:58Z</time>
      </trkpt>
      <trkpt lat="43.69456" lon="7.27181">
        <ele>88.8</ele>
        <time>2020-08-14T11:56:01Z</time>
      </trkpt>
      <trkpt lat="43.69457" lon="7.27181">
        <ele>87.4</ele>
        <time>2020-08-14T11:56:04Z</time>
      </trkpt>
      <trkpt lat="43.69459" lon="7.27181">
        <ele>87.6</ele>
        <time>2020-08-14T11:56:12Z</time>
      </trkpt>
      <trkpt lat="43.69459" lon="7.27182">
        <ele>88.4</ele>
        <time>2020-08-14T11:56:20Z</time>
      </trkpt>
      <trkpt lat="43.69459" lon="7.27181">
        <ele>88.6</ele>
        <time>2020-08-14T11:56:30Z</time>
      </trkpt>
      <trkpt lat="43.69464" lon="7.2718">
        <ele>87.8</ele>
        <time>2020-08-14T11:56:43Z</time>
      </trkpt>
      <trkpt lat="43.69465" lon="7.2718">
        <ele>87.2</ele>
        <time>2020-08-14T11:56:44Z</time>
      </trkpt>
      <trkpt lat="43.69466" lon="7.2718">
        <ele>86.2</ele>
        <time>2020-08-14T11:56:46Z</time>
      </trkpt>
      <trkpt lat="43.69466" lon="7.2718">
        <ele>85.6</ele>
        <time>2020-08-14T11:56:50Z</time>
      </trkpt>
      <trkpt lat="43.69467" lon="7.2718">
        <ele>87.2</ele>
        <time>2020-08-14T11:56:55Z</time>
      </trkpt>
      <trkpt lat="43.69467" lon="7.2718">
        <ele>87</ele>
        <time>2020-08-14T11:57:14Z</time>
      </trkpt>
      <trkpt lat="43.69467" lon="7.2718">
        <ele>87</ele>
        <time>2020-08-14T11:57:26Z</time>
      </trkpt>
      <trkpt lat="43.69467" lon="7.2718">
        <ele>87</ele>
        <time>2020-08-14T11:57:30Z</time>
      </trkpt>
      <trkpt lat="43.69467" lon="7.2718">
        <ele>87</ele>
        <time>2020-08-14T11:57:35Z</time>
      </trkpt>
      <trkpt lat="43.69467" lon="7.2718">
        <ele>87</ele>
        <time>2020-08-14T11:57:38Z</time>
      </trkpt>
      <trkpt lat="43.69467" lon="7.2718">
        <ele>87</ele>
        <time>2020-08-14T11:57:40Z</time>
      </trkpt>
      <trkpt lat="43.69467" lon="7.2718">
        <ele>87</ele>
        <time>2020-08-14T11:57:43Z</time>
      </trkpt>
      <trkpt lat="43.69467" lon="7.2718">
        <ele>87</ele>
        <time>2020-08-14T11:57:48Z</time>
      </trkpt>
      <trkpt lat="43.69466" lon="7.2718">
        <ele>87</ele>
        <time>2020-08-14T11:57:52Z</time>
      </trkpt>
      <trkpt lat="43.69466" lon="7.2718">
        <ele>87</ele>
        <time>2020-08-14T11:57:58Z</time>
      </trkpt>
      <trkpt lat="43.69466" lon="7.2718">
        <ele>80.4</ele>
        <time>2020-08-14T11:58:06Z</time>
      </trkpt>
      <trkpt lat="43.69466" lon="7.2718">
        <ele>80.4</ele>
        <time>2020-08-14T11:58:16Z</time>
      </trkpt>
      <trkpt lat="43.69466" lon="7.2718">
        <ele>80.2</ele>
        <time>2020-08-14T11:58:28Z</time>
      </trkpt>
      <trkpt lat="43.69467" lon="7.2718">
        <ele>80.2</ele>
        <time>2020-08-14T11:58:44Z</time>
      </trkpt>
    </trkseg>
  </trk>
</gpx>